<?xml version="1.0" encoding="UTF-8" standalone="no" ?>
<gpx xmlns="http://www.topografix.com/GPX/1/1" xmlns:xsi="http://www.w3.org/2001/XMLSchema-instance" xsi:schemaLocation="http://www.topografix.com/GPX/1/1 http://www.topografix.com/GPX/1/1/gpx.xsd" version="1.1" creator="VisuGPX - https://www.visugpx.com">
  <metadata>
    <name>Champagnat Cyclisme sur route</name>
  </metadata>
  <trk>
    <name><![CDATA[Champagnat Cyclisme sur route_1]]></name>
    <trkseg>
      <trkpt lat="46.48274" lon="5.3684">
        <ele>278.4</ele>
        <time>2021-12-23T11:45:53Z</time>
      </trkpt>
      <trkpt lat="46.48257" lon="5.3682">
        <ele>276.8</ele>
        <time>2021-12-23T11:45:55Z</time>
      </trkpt>
      <trkpt lat="46.4824" lon="5.36804">
        <ele>274.6</ele>
        <time>2021-12-23T11:45:57Z</time>
      </trkpt>
      <trkpt lat="46.48222" lon="5.36789">
        <ele>273.4</ele>
        <time>2021-12-23T11:45:59Z</time>
      </trkpt>
      <trkpt lat="46.48197" lon="5.36768">
        <ele>271.8</ele>
        <time>2021-12-23T11:46:02Z</time>
      </trkpt>
      <trkpt lat="46.4818" lon="5.36755">
        <ele>270</ele>
        <time>2021-12-23T11:46:04Z</time>
      </trkpt>
      <trkpt lat="46.48164" lon="5.36742">
        <ele>269</ele>
        <time>2021-12-23T11:46:06Z</time>
      </trkpt>
      <trkpt lat="46.48149" lon="5.3673">
        <ele>267.8</ele>
        <time>2021-12-23T11:46:08Z</time>
      </trkpt>
      <trkpt lat="46.48141" lon="5.36724">
        <ele>266.8</ele>
        <time>2021-12-23T11:46:09Z</time>
      </trkpt>
      <trkpt lat="46.48125" lon="5.36711">
        <ele>265.2</ele>
        <time>2021-12-23T11:46:11Z</time>
      </trkpt>
      <trkpt lat="46.48112" lon="5.367">
        <ele>264.6</ele>
        <time>2021-12-23T11:46:13Z</time>
      </trkpt>
      <trkpt lat="46.48109" lon="5.36693">
        <ele>263.6</ele>
        <time>2021-12-23T11:46:14Z</time>
      </trkpt>
      <trkpt lat="46.48109" lon="5.36685">
        <ele>263.2</ele>
        <time>2021-12-23T11:46:15Z</time>
      </trkpt>
      <trkpt lat="46.4811" lon="5.36678">
        <ele>262.6</ele>
        <time>2021-12-23T11:46:16Z</time>
      </trkpt>
      <trkpt lat="46.48114" lon="5.36671">
        <ele>262.4</ele>
        <time>2021-12-23T11:46:17Z</time>
      </trkpt>
      <trkpt lat="46.48125" lon="5.36658">
        <ele>261.6</ele>
        <time>2021-12-23T11:46:19Z</time>
      </trkpt>
      <trkpt lat="46.48145" lon="5.36636">
        <ele>259.8</ele>
        <time>2021-12-23T11:46:22Z</time>
      </trkpt>
      <trkpt lat="46.48169" lon="5.36615">
        <ele>258.4</ele>
        <time>2021-12-23T11:46:25Z</time>
      </trkpt>
      <trkpt lat="46.48178" lon="5.36608">
        <ele>258.2</ele>
        <time>2021-12-23T11:46:26Z</time>
      </trkpt>
      <trkpt lat="46.48195" lon="5.36602">
        <ele>257.8</ele>
        <time>2021-12-23T11:46:28Z</time>
      </trkpt>
      <trkpt lat="46.48203" lon="5.366">
        <ele>257.6</ele>
        <time>2021-12-23T11:46:29Z</time>
      </trkpt>
      <trkpt lat="46.48211" lon="5.36595">
        <ele>257.4</ele>
        <time>2021-12-23T11:46:30Z</time>
      </trkpt>
      <trkpt lat="46.48217" lon="5.36586">
        <ele>257.4</ele>
        <time>2021-12-23T11:46:31Z</time>
      </trkpt>
      <trkpt lat="46.48222" lon="5.36576">
        <ele>257.2</ele>
        <time>2021-12-23T11:46:32Z</time>
      </trkpt>
      <trkpt lat="46.48231" lon="5.36555">
        <ele>257</ele>
        <time>2021-12-23T11:46:34Z</time>
      </trkpt>
      <trkpt lat="46.48266" lon="5.36517">
        <ele>256.6</ele>
        <time>2021-12-23T11:46:39Z</time>
      </trkpt>
      <trkpt lat="46.48273" lon="5.36509">
        <ele>256.4</ele>
        <time>2021-12-23T11:46:40Z</time>
      </trkpt>
      <trkpt lat="46.48303" lon="5.36476">
        <ele>255.4</ele>
        <time>2021-12-23T11:46:44Z</time>
      </trkpt>
      <trkpt lat="46.48318" lon="5.36458">
        <ele>255</ele>
        <time>2021-12-23T11:46:46Z</time>
      </trkpt>
      <trkpt lat="46.48326" lon="5.3645">
        <ele>254.8</ele>
        <time>2021-12-23T11:46:47Z</time>
      </trkpt>
      <trkpt lat="46.4835" lon="5.36423">
        <ele>254.2</ele>
        <time>2021-12-23T11:46:50Z</time>
      </trkpt>
      <trkpt lat="46.48383" lon="5.36387">
        <ele>253</ele>
        <time>2021-12-23T11:46:54Z</time>
      </trkpt>
      <trkpt lat="46.48391" lon="5.36379">
        <ele>252.4</ele>
        <time>2021-12-23T11:46:55Z</time>
      </trkpt>
      <trkpt lat="46.48408" lon="5.36363">
        <ele>252</ele>
        <time>2021-12-23T11:46:57Z</time>
      </trkpt>
      <trkpt lat="46.48426" lon="5.36353">
        <ele>251.6</ele>
        <time>2021-12-23T11:46:59Z</time>
      </trkpt>
      <trkpt lat="46.48463" lon="5.36344">
        <ele>251</ele>
        <time>2021-12-23T11:47:03Z</time>
      </trkpt>
      <trkpt lat="46.48525" lon="5.36335">
        <ele>249.8</ele>
        <time>2021-12-23T11:47:10Z</time>
      </trkpt>
      <trkpt lat="46.48533" lon="5.36333">
        <ele>249.8</ele>
        <time>2021-12-23T11:47:11Z</time>
      </trkpt>
      <trkpt lat="46.48595" lon="5.36323">
        <ele>248.8</ele>
        <time>2021-12-23T11:47:18Z</time>
      </trkpt>
      <trkpt lat="46.48604" lon="5.36322">
        <ele>248.6</ele>
        <time>2021-12-23T11:47:19Z</time>
      </trkpt>
      <trkpt lat="46.48614" lon="5.36319">
        <ele>248.6</ele>
        <time>2021-12-23T11:47:20Z</time>
      </trkpt>
      <trkpt lat="46.48621" lon="5.36312">
        <ele>248.4</ele>
        <time>2021-12-23T11:47:21Z</time>
      </trkpt>
      <trkpt lat="46.48628" lon="5.36302">
        <ele>248</ele>
        <time>2021-12-23T11:47:22Z</time>
      </trkpt>
      <trkpt lat="46.48637" lon="5.36275">
        <ele>247.6</ele>
        <time>2021-12-23T11:47:24Z</time>
      </trkpt>
      <trkpt lat="46.4864" lon="5.36246">
        <ele>246.4</ele>
        <time>2021-12-23T11:47:26Z</time>
      </trkpt>
      <trkpt lat="46.48644" lon="5.36204">
        <ele>245</ele>
        <time>2021-12-23T11:47:29Z</time>
      </trkpt>
      <trkpt lat="46.4865" lon="5.36136">
        <ele>244</ele>
        <time>2021-12-23T11:47:34Z</time>
      </trkpt>
      <trkpt lat="46.48654" lon="5.36111">
        <ele>243.8</ele>
        <time>2021-12-23T11:47:36Z</time>
      </trkpt>
      <trkpt lat="46.48668" lon="5.36053">
        <ele>243.6</ele>
        <time>2021-12-23T11:47:41Z</time>
      </trkpt>
      <trkpt lat="46.48674" lon="5.36012">
        <ele>243.4</ele>
        <time>2021-12-23T11:47:45Z</time>
      </trkpt>
      <trkpt lat="46.48675" lon="5.36002">
        <ele>243.4</ele>
        <time>2021-12-23T11:47:46Z</time>
      </trkpt>
      <trkpt lat="46.48677" lon="5.35984">
        <ele>243.4</ele>
        <time>2021-12-23T11:47:48Z</time>
      </trkpt>
      <trkpt lat="46.48681" lon="5.35955">
        <ele>243.8</ele>
        <time>2021-12-23T11:47:51Z</time>
      </trkpt>
      <trkpt lat="46.48688" lon="5.35913">
        <ele>244.2</ele>
        <time>2021-12-23T11:47:55Z</time>
      </trkpt>
      <trkpt lat="46.48691" lon="5.35903">
        <ele>244.4</ele>
        <time>2021-12-23T11:47:56Z</time>
      </trkpt>
      <trkpt lat="46.48714" lon="5.35842">
        <ele>244.4</ele>
        <time>2021-12-23T11:48:02Z</time>
      </trkpt>
      <trkpt lat="46.4874" lon="5.35784">
        <ele>243.2</ele>
        <time>2021-12-23T11:48:08Z</time>
      </trkpt>
      <trkpt lat="46.48749" lon="5.35766">
        <ele>243</ele>
        <time>2021-12-23T11:48:10Z</time>
      </trkpt>
      <trkpt lat="46.48769" lon="5.3572">
        <ele>242.2</ele>
        <time>2021-12-23T11:48:15Z</time>
      </trkpt>
      <trkpt lat="46.48774" lon="5.35711">
        <ele>242</ele>
        <time>2021-12-23T11:48:16Z</time>
      </trkpt>
      <trkpt lat="46.48803" lon="5.35643">
        <ele>241.6</ele>
        <time>2021-12-23T11:48:24Z</time>
      </trkpt>
      <trkpt lat="46.4883" lon="5.35585">
        <ele>242.4</ele>
        <time>2021-12-23T11:48:31Z</time>
      </trkpt>
      <trkpt lat="46.48859" lon="5.35521">
        <ele>242.8</ele>
        <time>2021-12-23T11:48:39Z</time>
      </trkpt>
      <trkpt lat="46.48886" lon="5.35454">
        <ele>243</ele>
        <time>2021-12-23T11:48:47Z</time>
      </trkpt>
      <trkpt lat="46.48916" lon="5.35387">
        <ele>242.6</ele>
        <time>2021-12-23T11:48:55Z</time>
      </trkpt>
      <trkpt lat="46.48947" lon="5.35316">
        <ele>241.4</ele>
        <time>2021-12-23T11:49:03Z</time>
      </trkpt>
      <trkpt lat="46.48954" lon="5.35299">
        <ele>241.2</ele>
        <time>2021-12-23T11:49:05Z</time>
      </trkpt>
      <trkpt lat="46.48979" lon="5.35243">
        <ele>241.4</ele>
        <time>2021-12-23T11:49:12Z</time>
      </trkpt>
      <trkpt lat="46.48997" lon="5.352">
        <ele>241.6</ele>
        <time>2021-12-23T11:49:18Z</time>
      </trkpt>
      <trkpt lat="46.49017" lon="5.35157">
        <ele>242</ele>
        <time>2021-12-23T11:49:24Z</time>
      </trkpt>
      <trkpt lat="46.49031" lon="5.35126">
        <ele>242.4</ele>
        <time>2021-12-23T11:49:28Z</time>
      </trkpt>
      <trkpt lat="46.49034" lon="5.35116">
        <ele>242.4</ele>
        <time>2021-12-23T11:49:29Z</time>
      </trkpt>
      <trkpt lat="46.49036" lon="5.35107">
        <ele>242.6</ele>
        <time>2021-12-23T11:49:30Z</time>
      </trkpt>
      <trkpt lat="46.49045" lon="5.35067">
        <ele>242.6</ele>
        <time>2021-12-23T11:49:34Z</time>
      </trkpt>
      <trkpt lat="46.4905" lon="5.35047">
        <ele>242.6</ele>
        <time>2021-12-23T11:49:36Z</time>
      </trkpt>
      <trkpt lat="46.49065" lon="5.34971">
        <ele>242</ele>
        <time>2021-12-23T11:49:43Z</time>
      </trkpt>
      <trkpt lat="46.49072" lon="5.34935">
        <ele>241.2</ele>
        <time>2021-12-23T11:49:46Z</time>
      </trkpt>
      <trkpt lat="46.49079" lon="5.34889">
        <ele>240.2</ele>
        <time>2021-12-23T11:49:50Z</time>
      </trkpt>
      <trkpt lat="46.49081" lon="5.34878">
        <ele>240</ele>
        <time>2021-12-23T11:49:51Z</time>
      </trkpt>
      <trkpt lat="46.49095" lon="5.34812">
        <ele>239.2</ele>
        <time>2021-12-23T11:49:57Z</time>
      </trkpt>
      <trkpt lat="46.49097" lon="5.34801">
        <ele>239</ele>
        <time>2021-12-23T11:49:58Z</time>
      </trkpt>
      <trkpt lat="46.49107" lon="5.34744">
        <ele>238</ele>
        <time>2021-12-23T11:50:03Z</time>
      </trkpt>
      <trkpt lat="46.4911" lon="5.34733">
        <ele>237.6</ele>
        <time>2021-12-23T11:50:04Z</time>
      </trkpt>
      <trkpt lat="46.49115" lon="5.3471">
        <ele>237.2</ele>
        <time>2021-12-23T11:50:06Z</time>
      </trkpt>
      <trkpt lat="46.4912" lon="5.34688">
        <ele>237</ele>
        <time>2021-12-23T11:50:08Z</time>
      </trkpt>
      <trkpt lat="46.49122" lon="5.34677">
        <ele>236.8</ele>
        <time>2021-12-23T11:50:09Z</time>
      </trkpt>
      <trkpt lat="46.4913" lon="5.34636">
        <ele>236.2</ele>
        <time>2021-12-23T11:50:13Z</time>
      </trkpt>
      <trkpt lat="46.49132" lon="5.34628">
        <ele>236.2</ele>
        <time>2021-12-23T11:50:14Z</time>
      </trkpt>
      <trkpt lat="46.4914" lon="5.34584">
        <ele>236.4</ele>
        <time>2021-12-23T11:50:19Z</time>
      </trkpt>
      <trkpt lat="46.49152" lon="5.34524">
        <ele>236.6</ele>
        <time>2021-12-23T11:50:25Z</time>
      </trkpt>
      <trkpt lat="46.49154" lon="5.34514">
        <ele>236.6</ele>
        <time>2021-12-23T11:50:26Z</time>
      </trkpt>
      <trkpt lat="46.49162" lon="5.3447">
        <ele>235.8</ele>
        <time>2021-12-23T11:50:30Z</time>
      </trkpt>
      <trkpt lat="46.49176" lon="5.34401">
        <ele>235.6</ele>
        <time>2021-12-23T11:50:37Z</time>
      </trkpt>
      <trkpt lat="46.49181" lon="5.34374">
        <ele>235.6</ele>
        <time>2021-12-23T11:50:40Z</time>
      </trkpt>
      <trkpt lat="46.49184" lon="5.34357">
        <ele>235.8</ele>
        <time>2021-12-23T11:50:42Z</time>
      </trkpt>
      <trkpt lat="46.49185" lon="5.34349">
        <ele>236.2</ele>
        <time>2021-12-23T11:50:43Z</time>
      </trkpt>
      <trkpt lat="46.49188" lon="5.34333">
        <ele>236.6</ele>
        <time>2021-12-23T11:50:45Z</time>
      </trkpt>
      <trkpt lat="46.49191" lon="5.34315">
        <ele>237</ele>
        <time>2021-12-23T11:50:47Z</time>
      </trkpt>
      <trkpt lat="46.49193" lon="5.34305">
        <ele>237</ele>
        <time>2021-12-23T11:50:48Z</time>
      </trkpt>
      <trkpt lat="46.49203" lon="5.34253">
        <ele>237</ele>
        <time>2021-12-23T11:50:53Z</time>
      </trkpt>
      <trkpt lat="46.49213" lon="5.34199">
        <ele>236.2</ele>
        <time>2021-12-23T11:50:58Z</time>
      </trkpt>
      <trkpt lat="46.49215" lon="5.34188">
        <ele>236.2</ele>
        <time>2021-12-23T11:50:59Z</time>
      </trkpt>
      <trkpt lat="46.49223" lon="5.34148">
        <ele>236.2</ele>
        <time>2021-12-23T11:51:03Z</time>
      </trkpt>
      <trkpt lat="46.49227" lon="5.3413">
        <ele>236.2</ele>
        <time>2021-12-23T11:51:05Z</time>
      </trkpt>
      <trkpt lat="46.49233" lon="5.34089">
        <ele>237.4</ele>
        <time>2021-12-23T11:51:10Z</time>
      </trkpt>
      <trkpt lat="46.49234" lon="5.34082">
        <ele>237.4</ele>
        <time>2021-12-23T11:51:11Z</time>
      </trkpt>
      <trkpt lat="46.49236" lon="5.34068">
        <ele>237.6</ele>
        <time>2021-12-23T11:51:13Z</time>
      </trkpt>
      <trkpt lat="46.49239" lon="5.34053">
        <ele>238</ele>
        <time>2021-12-23T11:51:15Z</time>
      </trkpt>
      <trkpt lat="46.4924" lon="5.34046">
        <ele>238.2</ele>
        <time>2021-12-23T11:51:16Z</time>
      </trkpt>
      <trkpt lat="46.49241" lon="5.34038">
        <ele>238.4</ele>
        <time>2021-12-23T11:51:17Z</time>
      </trkpt>
      <trkpt lat="46.49244" lon="5.34021">
        <ele>238.6</ele>
        <time>2021-12-23T11:51:19Z</time>
      </trkpt>
      <trkpt lat="46.49247" lon="5.34005">
        <ele>238.8</ele>
        <time>2021-12-23T11:51:21Z</time>
      </trkpt>
      <trkpt lat="46.49261" lon="5.33944">
        <ele>239</ele>
        <time>2021-12-23T11:51:28Z</time>
      </trkpt>
      <trkpt lat="46.49274" lon="5.33885">
        <ele>239.4</ele>
        <time>2021-12-23T11:51:35Z</time>
      </trkpt>
      <trkpt lat="46.49276" lon="5.33875">
        <ele>239.4</ele>
        <time>2021-12-23T11:51:36Z</time>
      </trkpt>
      <trkpt lat="46.4928" lon="5.33847">
        <ele>239.6</ele>
        <time>2021-12-23T11:51:39Z</time>
      </trkpt>
      <trkpt lat="46.49282" lon="5.33839">
        <ele>239.8</ele>
        <time>2021-12-23T11:51:40Z</time>
      </trkpt>
      <trkpt lat="46.49289" lon="5.33803">
        <ele>240</ele>
        <time>2021-12-23T11:51:44Z</time>
      </trkpt>
      <trkpt lat="46.4929" lon="5.33794">
        <ele>240</ele>
        <time>2021-12-23T11:51:45Z</time>
      </trkpt>
      <trkpt lat="46.49301" lon="5.33729">
        <ele>239.6</ele>
        <time>2021-12-23T11:51:52Z</time>
      </trkpt>
      <trkpt lat="46.49305" lon="5.33647">
        <ele>238.8</ele>
        <time>2021-12-23T11:52:00Z</time>
      </trkpt>
      <trkpt lat="46.49307" lon="5.33616">
        <ele>238.6</ele>
        <time>2021-12-23T11:52:03Z</time>
      </trkpt>
      <trkpt lat="46.49311" lon="5.33596">
        <ele>238.4</ele>
        <time>2021-12-23T11:52:05Z</time>
      </trkpt>
      <trkpt lat="46.49313" lon="5.33587">
        <ele>238.4</ele>
        <time>2021-12-23T11:52:06Z</time>
      </trkpt>
      <trkpt lat="46.49319" lon="5.33558">
        <ele>238.2</ele>
        <time>2021-12-23T11:52:09Z</time>
      </trkpt>
      <trkpt lat="46.4932" lon="5.33538">
        <ele>238</ele>
        <time>2021-12-23T11:52:11Z</time>
      </trkpt>
      <trkpt lat="46.49314" lon="5.3348">
        <ele>238</ele>
        <time>2021-12-23T11:52:17Z</time>
      </trkpt>
      <trkpt lat="46.493" lon="5.33396">
        <ele>238.4</ele>
        <time>2021-12-23T11:52:26Z</time>
      </trkpt>
      <trkpt lat="46.49284" lon="5.33319">
        <ele>238.4</ele>
        <time>2021-12-23T11:52:34Z</time>
      </trkpt>
      <trkpt lat="46.49282" lon="5.33309">
        <ele>238.4</ele>
        <time>2021-12-23T11:52:35Z</time>
      </trkpt>
      <trkpt lat="46.49271" lon="5.33252">
        <ele>237.6</ele>
        <time>2021-12-23T11:52:41Z</time>
      </trkpt>
      <trkpt lat="46.49269" lon="5.33242">
        <ele>237.2</ele>
        <time>2021-12-23T11:52:42Z</time>
      </trkpt>
      <trkpt lat="46.49263" lon="5.33224">
        <ele>236.6</ele>
        <time>2021-12-23T11:52:44Z</time>
      </trkpt>
      <trkpt lat="46.49251" lon="5.33199">
        <ele>236.2</ele>
        <time>2021-12-23T11:52:47Z</time>
      </trkpt>
      <trkpt lat="46.4924" lon="5.33187">
        <ele>236</ele>
        <time>2021-12-23T11:52:49Z</time>
      </trkpt>
      <trkpt lat="46.49234" lon="5.33182">
        <ele>235.8</ele>
        <time>2021-12-23T11:52:50Z</time>
      </trkpt>
      <trkpt lat="46.4922" lon="5.33173">
        <ele>235.2</ele>
        <time>2021-12-23T11:52:52Z</time>
      </trkpt>
      <trkpt lat="46.49195" lon="5.33152">
        <ele>234.4</ele>
        <time>2021-12-23T11:52:56Z</time>
      </trkpt>
      <trkpt lat="46.49183" lon="5.33142">
        <ele>234.2</ele>
        <time>2021-12-23T11:52:58Z</time>
      </trkpt>
      <trkpt lat="46.49166" lon="5.33122">
        <ele>233.6</ele>
        <time>2021-12-23T11:53:01Z</time>
      </trkpt>
      <trkpt lat="46.49161" lon="5.33114">
        <ele>233.6</ele>
        <time>2021-12-23T11:53:02Z</time>
      </trkpt>
      <trkpt lat="46.49151" lon="5.33091">
        <ele>233.8</ele>
        <time>2021-12-23T11:53:05Z</time>
      </trkpt>
      <trkpt lat="46.4914" lon="5.33044">
        <ele>233.8</ele>
        <time>2021-12-23T11:53:11Z</time>
      </trkpt>
      <trkpt lat="46.49134" lon="5.3301">
        <ele>233.2</ele>
        <time>2021-12-23T11:53:15Z</time>
      </trkpt>
      <trkpt lat="46.4913" lon="5.32983">
        <ele>232.6</ele>
        <time>2021-12-23T11:53:18Z</time>
      </trkpt>
      <trkpt lat="46.49128" lon="5.32954">
        <ele>232.2</ele>
        <time>2021-12-23T11:53:21Z</time>
      </trkpt>
      <trkpt lat="46.49127" lon="5.32912">
        <ele>231.8</ele>
        <time>2021-12-23T11:53:25Z</time>
      </trkpt>
      <trkpt lat="46.49129" lon="5.32894">
        <ele>231.6</ele>
        <time>2021-12-23T11:53:27Z</time>
      </trkpt>
      <trkpt lat="46.49133" lon="5.32875">
        <ele>231.4</ele>
        <time>2021-12-23T11:53:29Z</time>
      </trkpt>
      <trkpt lat="46.49142" lon="5.3284">
        <ele>231</ele>
        <time>2021-12-23T11:53:33Z</time>
      </trkpt>
      <trkpt lat="46.49144" lon="5.3282">
        <ele>231</ele>
        <time>2021-12-23T11:53:35Z</time>
      </trkpt>
      <trkpt lat="46.49145" lon="5.32801">
        <ele>231</ele>
        <time>2021-12-23T11:53:37Z</time>
      </trkpt>
      <trkpt lat="46.49144" lon="5.32792">
        <ele>231</ele>
        <time>2021-12-23T11:53:38Z</time>
      </trkpt>
      <trkpt lat="46.49137" lon="5.32752">
        <ele>231.2</ele>
        <time>2021-12-23T11:53:43Z</time>
      </trkpt>
      <trkpt lat="46.49132" lon="5.32727">
        <ele>231.8</ele>
        <time>2021-12-23T11:53:46Z</time>
      </trkpt>
      <trkpt lat="46.49126" lon="5.32712">
        <ele>232</ele>
        <time>2021-12-23T11:53:48Z</time>
      </trkpt>
      <trkpt lat="46.49122" lon="5.32705">
        <ele>232</ele>
        <time>2021-12-23T11:53:49Z</time>
      </trkpt>
      <trkpt lat="46.49117" lon="5.32699">
        <ele>231.8</ele>
        <time>2021-12-23T11:53:50Z</time>
      </trkpt>
      <trkpt lat="46.49106" lon="5.32692">
        <ele>231.8</ele>
        <time>2021-12-23T11:53:52Z</time>
      </trkpt>
      <trkpt lat="46.49079" lon="5.32694">
        <ele>231.4</ele>
        <time>2021-12-23T11:53:56Z</time>
      </trkpt>
      <trkpt lat="46.49049" lon="5.327">
        <ele>230.2</ele>
        <time>2021-12-23T11:54:00Z</time>
      </trkpt>
      <trkpt lat="46.49033" lon="5.32703">
        <ele>229.2</ele>
        <time>2021-12-23T11:54:02Z</time>
      </trkpt>
      <trkpt lat="46.49025" lon="5.32705">
        <ele>229</ele>
        <time>2021-12-23T11:54:03Z</time>
      </trkpt>
      <trkpt lat="46.48994" lon="5.32708">
        <ele>227.8</ele>
        <time>2021-12-23T11:54:07Z</time>
      </trkpt>
      <trkpt lat="46.48977" lon="5.32708">
        <ele>226.4</ele>
        <time>2021-12-23T11:54:09Z</time>
      </trkpt>
      <trkpt lat="46.48969" lon="5.32705">
        <ele>225.8</ele>
        <time>2021-12-23T11:54:10Z</time>
      </trkpt>
      <trkpt lat="46.48961" lon="5.327">
        <ele>224.8</ele>
        <time>2021-12-23T11:54:11Z</time>
      </trkpt>
      <trkpt lat="46.48946" lon="5.32687">
        <ele>224.2</ele>
        <time>2021-12-23T11:54:13Z</time>
      </trkpt>
      <trkpt lat="46.48939" lon="5.32678">
        <ele>223.6</ele>
        <time>2021-12-23T11:54:14Z</time>
      </trkpt>
      <trkpt lat="46.48926" lon="5.32659">
        <ele>223</ele>
        <time>2021-12-23T11:54:16Z</time>
      </trkpt>
      <trkpt lat="46.48917" lon="5.32633">
        <ele>222.4</ele>
        <time>2021-12-23T11:54:18Z</time>
      </trkpt>
      <trkpt lat="46.48919" lon="5.32604">
        <ele>220.8</ele>
        <time>2021-12-23T11:54:20Z</time>
      </trkpt>
      <trkpt lat="46.48931" lon="5.32582">
        <ele>219.6</ele>
        <time>2021-12-23T11:54:22Z</time>
      </trkpt>
      <trkpt lat="46.48946" lon="5.32561">
        <ele>218.6</ele>
        <time>2021-12-23T11:54:24Z</time>
      </trkpt>
      <trkpt lat="46.48951" lon="5.32549">
        <ele>218</ele>
        <time>2021-12-23T11:54:25Z</time>
      </trkpt>
      <trkpt lat="46.48955" lon="5.32536">
        <ele>217.8</ele>
        <time>2021-12-23T11:54:26Z</time>
      </trkpt>
      <trkpt lat="46.48957" lon="5.32523">
        <ele>216.4</ele>
        <time>2021-12-23T11:54:27Z</time>
      </trkpt>
      <trkpt lat="46.48957" lon="5.32512">
        <ele>215.8</ele>
        <time>2021-12-23T11:54:28Z</time>
      </trkpt>
      <trkpt lat="46.4895" lon="5.32489">
        <ele>215.4</ele>
        <time>2021-12-23T11:54:30Z</time>
      </trkpt>
      <trkpt lat="46.48947" lon="5.32477">
        <ele>215.2</ele>
        <time>2021-12-23T11:54:31Z</time>
      </trkpt>
      <trkpt lat="46.48928" lon="5.32413">
        <ele>214.6</ele>
        <time>2021-12-23T11:54:37Z</time>
      </trkpt>
      <trkpt lat="46.48915" lon="5.32374">
        <ele>214.2</ele>
        <time>2021-12-23T11:54:41Z</time>
      </trkpt>
      <trkpt lat="46.4891" lon="5.32355">
        <ele>214.2</ele>
        <time>2021-12-23T11:54:43Z</time>
      </trkpt>
      <trkpt lat="46.48902" lon="5.32338">
        <ele>214.2</ele>
        <time>2021-12-23T11:54:45Z</time>
      </trkpt>
      <trkpt lat="46.48894" lon="5.32324">
        <ele>214.2</ele>
        <time>2021-12-23T11:54:47Z</time>
      </trkpt>
      <trkpt lat="46.48873" lon="5.32292">
        <ele>215</ele>
        <time>2021-12-23T11:54:53Z</time>
      </trkpt>
      <trkpt lat="46.48867" lon="5.32283">
        <ele>215.6</ele>
        <time>2021-12-23T11:54:55Z</time>
      </trkpt>
      <trkpt lat="46.48856" lon="5.32268">
        <ele>216.8</ele>
        <time>2021-12-23T11:54:59Z</time>
      </trkpt>
      <trkpt lat="46.48853" lon="5.32263">
        <ele>217.4</ele>
        <time>2021-12-23T11:55:00Z</time>
      </trkpt>
      <trkpt lat="46.48848" lon="5.32255">
        <ele>218.2</ele>
        <time>2021-12-23T11:55:02Z</time>
      </trkpt>
      <trkpt lat="46.48838" lon="5.32236">
        <ele>219.4</ele>
        <time>2021-12-23T11:55:06Z</time>
      </trkpt>
      <trkpt lat="46.48833" lon="5.32224">
        <ele>220</ele>
        <time>2021-12-23T11:55:08Z</time>
      </trkpt>
      <trkpt lat="46.48831" lon="5.32216">
        <ele>220.6</ele>
        <time>2021-12-23T11:55:09Z</time>
      </trkpt>
      <trkpt lat="46.4883" lon="5.32209">
        <ele>220.6</ele>
        <time>2021-12-23T11:55:10Z</time>
      </trkpt>
      <trkpt lat="46.48825" lon="5.32157">
        <ele>220.8</ele>
        <time>2021-12-23T11:55:16Z</time>
      </trkpt>
      <trkpt lat="46.48825" lon="5.32147">
        <ele>220.6</ele>
        <time>2021-12-23T11:55:17Z</time>
      </trkpt>
      <trkpt lat="46.48828" lon="5.32117">
        <ele>219.8</ele>
        <time>2021-12-23T11:55:20Z</time>
      </trkpt>
      <trkpt lat="46.48831" lon="5.32098">
        <ele>219.6</ele>
        <time>2021-12-23T11:55:22Z</time>
      </trkpt>
      <trkpt lat="46.48841" lon="5.32048">
        <ele>219.2</ele>
        <time>2021-12-23T11:55:27Z</time>
      </trkpt>
      <trkpt lat="46.48849" lon="5.31978">
        <ele>218.6</ele>
        <time>2021-12-23T11:55:34Z</time>
      </trkpt>
      <trkpt lat="46.48844" lon="5.31905">
        <ele>217.8</ele>
        <time>2021-12-23T11:55:41Z</time>
      </trkpt>
      <trkpt lat="46.48841" lon="5.31885">
        <ele>217.4</ele>
        <time>2021-12-23T11:55:43Z</time>
      </trkpt>
      <trkpt lat="46.48834" lon="5.31867">
        <ele>217</ele>
        <time>2021-12-23T11:55:45Z</time>
      </trkpt>
      <trkpt lat="46.48823" lon="5.31855">
        <ele>216.6</ele>
        <time>2021-12-23T11:55:47Z</time>
      </trkpt>
      <trkpt lat="46.48817" lon="5.31851">
        <ele>216.4</ele>
        <time>2021-12-23T11:55:48Z</time>
      </trkpt>
      <trkpt lat="46.48798" lon="5.31842">
        <ele>216</ele>
        <time>2021-12-23T11:55:51Z</time>
      </trkpt>
      <trkpt lat="46.48792" lon="5.31837">
        <ele>216</ele>
        <time>2021-12-23T11:55:52Z</time>
      </trkpt>
      <trkpt lat="46.48788" lon="5.3183">
        <ele>216</ele>
        <time>2021-12-23T11:55:53Z</time>
      </trkpt>
      <trkpt lat="46.48783" lon="5.31813">
        <ele>215.8</ele>
        <time>2021-12-23T11:55:55Z</time>
      </trkpt>
      <trkpt lat="46.48779" lon="5.3176">
        <ele>215.8</ele>
        <time>2021-12-23T11:56:01Z</time>
      </trkpt>
      <trkpt lat="46.48778" lon="5.31733">
        <ele>216</ele>
        <time>2021-12-23T11:56:04Z</time>
      </trkpt>
      <trkpt lat="46.48773" lon="5.31718">
        <ele>216</ele>
        <time>2021-12-23T11:56:06Z</time>
      </trkpt>
      <trkpt lat="46.4877" lon="5.31712">
        <ele>216</ele>
        <time>2021-12-23T11:56:07Z</time>
      </trkpt>
      <trkpt lat="46.48757" lon="5.31693">
        <ele>216.2</ele>
        <time>2021-12-23T11:56:11Z</time>
      </trkpt>
      <trkpt lat="46.48734" lon="5.31665">
        <ele>216.2</ele>
        <time>2021-12-23T11:56:16Z</time>
      </trkpt>
      <trkpt lat="46.48731" lon="5.31659">
        <ele>216.6</ele>
        <time>2021-12-23T11:56:17Z</time>
      </trkpt>
      <trkpt lat="46.48714" lon="5.31639">
        <ele>216.8</ele>
        <time>2021-12-23T11:56:21Z</time>
      </trkpt>
      <trkpt lat="46.48709" lon="5.31634">
        <ele>216.6</ele>
        <time>2021-12-23T11:56:22Z</time>
      </trkpt>
      <trkpt lat="46.48691" lon="5.31611">
        <ele>217</ele>
        <time>2021-12-23T11:56:26Z</time>
      </trkpt>
      <trkpt lat="46.48679" lon="5.31597">
        <ele>216.8</ele>
        <time>2021-12-23T11:56:29Z</time>
      </trkpt>
      <trkpt lat="46.48669" lon="5.31584">
        <ele>216.8</ele>
        <time>2021-12-23T11:56:31Z</time>
      </trkpt>
      <trkpt lat="46.4865" lon="5.31559">
        <ele>217.2</ele>
        <time>2021-12-23T11:56:35Z</time>
      </trkpt>
      <trkpt lat="46.48637" lon="5.31543">
        <ele>217.4</ele>
        <time>2021-12-23T11:56:38Z</time>
      </trkpt>
      <trkpt lat="46.48633" lon="5.31538">
        <ele>217.4</ele>
        <time>2021-12-23T11:56:39Z</time>
      </trkpt>
      <trkpt lat="46.48623" lon="5.31519">
        <ele>217.4</ele>
        <time>2021-12-23T11:56:42Z</time>
      </trkpt>
      <trkpt lat="46.48616" lon="5.31503">
        <ele>217.4</ele>
        <time>2021-12-23T11:56:44Z</time>
      </trkpt>
      <trkpt lat="46.4861" lon="5.31474">
        <ele>217.4</ele>
        <time>2021-12-23T11:56:47Z</time>
      </trkpt>
      <trkpt lat="46.48608" lon="5.31437">
        <ele>217</ele>
        <time>2021-12-23T11:56:51Z</time>
      </trkpt>
      <trkpt lat="46.48605" lon="5.31423">
        <ele>217</ele>
        <time>2021-12-23T11:56:53Z</time>
      </trkpt>
      <trkpt lat="46.486" lon="5.3141">
        <ele>217</ele>
        <time>2021-12-23T11:56:55Z</time>
      </trkpt>
      <trkpt lat="46.48594" lon="5.31401">
        <ele>217</ele>
        <time>2021-12-23T11:56:57Z</time>
      </trkpt>
      <trkpt lat="46.48574" lon="5.31381">
        <ele>217.4</ele>
        <time>2021-12-23T11:57:03Z</time>
      </trkpt>
      <trkpt lat="46.48571" lon="5.31377">
        <ele>217.6</ele>
        <time>2021-12-23T11:57:04Z</time>
      </trkpt>
      <trkpt lat="46.48563" lon="5.3136">
        <ele>218.6</ele>
        <time>2021-12-23T11:57:08Z</time>
      </trkpt>
      <trkpt lat="46.48558" lon="5.3134">
        <ele>219.6</ele>
        <time>2021-12-23T11:57:12Z</time>
      </trkpt>
      <trkpt lat="46.48558" lon="5.3133">
        <ele>220</ele>
        <time>2021-12-23T11:57:14Z</time>
      </trkpt>
      <trkpt lat="46.48557" lon="5.31319">
        <ele>220.8</ele>
        <time>2021-12-23T11:57:16Z</time>
      </trkpt>
      <trkpt lat="46.48554" lon="5.31288">
        <ele>221.8</ele>
        <time>2021-12-23T11:57:21Z</time>
      </trkpt>
      <trkpt lat="46.48554" lon="5.31281">
        <ele>221.8</ele>
        <time>2021-12-23T11:57:22Z</time>
      </trkpt>
      <trkpt lat="46.48552" lon="5.31261">
        <ele>222.8</ele>
        <time>2021-12-23T11:57:25Z</time>
      </trkpt>
      <trkpt lat="46.48554" lon="5.31241">
        <ele>223.2</ele>
        <time>2021-12-23T11:57:28Z</time>
      </trkpt>
      <trkpt lat="46.48555" lon="5.31235">
        <ele>223.4</ele>
        <time>2021-12-23T11:57:29Z</time>
      </trkpt>
      <trkpt lat="46.48557" lon="5.31229">
        <ele>223.4</ele>
        <time>2021-12-23T11:57:30Z</time>
      </trkpt>
      <trkpt lat="46.48567" lon="5.31207">
        <ele>224</ele>
        <time>2021-12-23T11:57:34Z</time>
      </trkpt>
      <trkpt lat="46.4857" lon="5.31202">
        <ele>224.2</ele>
        <time>2021-12-23T11:57:35Z</time>
      </trkpt>
      <trkpt lat="46.48583" lon="5.31175">
        <ele>225.4</ele>
        <time>2021-12-23T11:57:40Z</time>
      </trkpt>
      <trkpt lat="46.48591" lon="5.31159">
        <ele>225.6</ele>
        <time>2021-12-23T11:57:43Z</time>
      </trkpt>
      <trkpt lat="46.48608" lon="5.31126">
        <ele>226.4</ele>
        <time>2021-12-23T11:57:49Z</time>
      </trkpt>
      <trkpt lat="46.48618" lon="5.31105">
        <ele>226.8</ele>
        <time>2021-12-23T11:57:53Z</time>
      </trkpt>
      <trkpt lat="46.48633" lon="5.31074">
        <ele>227.4</ele>
        <time>2021-12-23T11:57:59Z</time>
      </trkpt>
      <trkpt lat="46.48641" lon="5.31057">
        <ele>227.8</ele>
        <time>2021-12-23T11:58:02Z</time>
      </trkpt>
      <trkpt lat="46.48653" lon="5.31031">
        <ele>228.6</ele>
        <time>2021-12-23T11:58:07Z</time>
      </trkpt>
      <trkpt lat="46.48668" lon="5.30999">
        <ele>229.2</ele>
        <time>2021-12-23T11:58:13Z</time>
      </trkpt>
      <trkpt lat="46.48679" lon="5.30977">
        <ele>229.8</ele>
        <time>2021-12-23T11:58:17Z</time>
      </trkpt>
      <trkpt lat="46.48694" lon="5.30947">
        <ele>230</ele>
        <time>2021-12-23T11:58:22Z</time>
      </trkpt>
      <trkpt lat="46.48705" lon="5.30927">
        <ele>230</ele>
        <time>2021-12-23T11:58:25Z</time>
      </trkpt>
      <trkpt lat="46.4872" lon="5.30905">
        <ele>229.6</ele>
        <time>2021-12-23T11:58:28Z</time>
      </trkpt>
      <trkpt lat="46.48724" lon="5.30885">
        <ele>229</ele>
        <time>2021-12-23T11:58:30Z</time>
      </trkpt>
      <trkpt lat="46.48723" lon="5.30876">
        <ele>228.6</ele>
        <time>2021-12-23T11:58:31Z</time>
      </trkpt>
      <trkpt lat="46.4872" lon="5.30867">
        <ele>228</ele>
        <time>2021-12-23T11:58:32Z</time>
      </trkpt>
      <trkpt lat="46.48716" lon="5.30859">
        <ele>227.8</ele>
        <time>2021-12-23T11:58:33Z</time>
      </trkpt>
      <trkpt lat="46.48711" lon="5.30852">
        <ele>227.6</ele>
        <time>2021-12-23T11:58:34Z</time>
      </trkpt>
      <trkpt lat="46.48705" lon="5.30846">
        <ele>227.4</ele>
        <time>2021-12-23T11:58:35Z</time>
      </trkpt>
      <trkpt lat="46.48699" lon="5.30841">
        <ele>227.4</ele>
        <time>2021-12-23T11:58:36Z</time>
      </trkpt>
      <trkpt lat="46.48693" lon="5.30837">
        <ele>227.2</ele>
        <time>2021-12-23T11:58:37Z</time>
      </trkpt>
      <trkpt lat="46.48665" lon="5.3082">
        <ele>226</ele>
        <time>2021-12-23T11:58:41Z</time>
      </trkpt>
      <trkpt lat="46.48636" lon="5.30803">
        <ele>225.4</ele>
        <time>2021-12-23T11:58:45Z</time>
      </trkpt>
      <trkpt lat="46.48629" lon="5.30798">
        <ele>225</ele>
        <time>2021-12-23T11:58:46Z</time>
      </trkpt>
      <trkpt lat="46.48592" lon="5.30769">
        <ele>224.6</ele>
        <time>2021-12-23T11:58:52Z</time>
      </trkpt>
      <trkpt lat="46.48567" lon="5.30745">
        <ele>224.8</ele>
        <time>2021-12-23T11:58:57Z</time>
      </trkpt>
      <trkpt lat="46.4856" lon="5.30733">
        <ele>225.4</ele>
        <time>2021-12-23T11:58:59Z</time>
      </trkpt>
      <trkpt lat="46.48556" lon="5.30726">
        <ele>225.6</ele>
        <time>2021-12-23T11:59:00Z</time>
      </trkpt>
      <trkpt lat="46.48551" lon="5.30712">
        <ele>226</ele>
        <time>2021-12-23T11:59:02Z</time>
      </trkpt>
      <trkpt lat="46.48549" lon="5.30705">
        <ele>226</ele>
        <time>2021-12-23T11:59:03Z</time>
      </trkpt>
      <trkpt lat="46.48547" lon="5.30697">
        <ele>226.2</ele>
        <time>2021-12-23T11:59:04Z</time>
      </trkpt>
      <trkpt lat="46.48545" lon="5.30685">
        <ele>226.4</ele>
        <time>2021-12-23T11:59:06Z</time>
      </trkpt>
      <trkpt lat="46.48544" lon="5.30672">
        <ele>226.6</ele>
        <time>2021-12-23T11:59:08Z</time>
      </trkpt>
      <trkpt lat="46.48544" lon="5.30659">
        <ele>226.8</ele>
        <time>2021-12-23T11:59:10Z</time>
      </trkpt>
      <trkpt lat="46.48544" lon="5.30652">
        <ele>227.2</ele>
        <time>2021-12-23T11:59:11Z</time>
      </trkpt>
      <trkpt lat="46.48546" lon="5.30633">
        <ele>228.4</ele>
        <time>2021-12-23T11:59:14Z</time>
      </trkpt>
      <trkpt lat="46.48547" lon="5.30627">
        <ele>228.8</ele>
        <time>2021-12-23T11:59:15Z</time>
      </trkpt>
      <trkpt lat="46.48549" lon="5.3061">
        <ele>229.4</ele>
        <time>2021-12-23T11:59:18Z</time>
      </trkpt>
      <trkpt lat="46.48552" lon="5.30592">
        <ele>230.4</ele>
        <time>2021-12-23T11:59:21Z</time>
      </trkpt>
      <trkpt lat="46.48553" lon="5.30586">
        <ele>230.8</ele>
        <time>2021-12-23T11:59:22Z</time>
      </trkpt>
      <trkpt lat="46.48556" lon="5.30551">
        <ele>231.4</ele>
        <time>2021-12-23T11:59:28Z</time>
      </trkpt>
      <trkpt lat="46.48559" lon="5.30526">
        <ele>231.8</ele>
        <time>2021-12-23T11:59:32Z</time>
      </trkpt>
      <trkpt lat="46.48559" lon="5.3051">
        <ele>232</ele>
        <time>2021-12-23T11:59:35Z</time>
      </trkpt>
      <trkpt lat="46.48551" lon="5.30501">
        <ele>232.2</ele>
        <time>2021-12-23T11:59:38Z</time>
      </trkpt>
      <trkpt lat="46.48542" lon="5.30502">
        <ele>232.2</ele>
        <time>2021-12-23T11:59:40Z</time>
      </trkpt>
      <trkpt lat="46.48532" lon="5.30508">
        <ele>232.4</ele>
        <time>2021-12-23T11:59:42Z</time>
      </trkpt>
      <trkpt lat="46.48503" lon="5.30527">
        <ele>233</ele>
        <time>2021-12-23T11:59:48Z</time>
      </trkpt>
      <trkpt lat="46.48498" lon="5.30531">
        <ele>233</ele>
        <time>2021-12-23T11:59:49Z</time>
      </trkpt>
      <trkpt lat="46.48456" lon="5.30569">
        <ele>233.2</ele>
        <time>2021-12-23T11:59:57Z</time>
      </trkpt>
      <trkpt lat="46.48411" lon="5.30611">
        <ele>232.4</ele>
        <time>2021-12-23T12:00:06Z</time>
      </trkpt>
      <trkpt lat="46.48372" lon="5.30649">
        <ele>232</ele>
        <time>2021-12-23T12:00:14Z</time>
      </trkpt>
      <trkpt lat="46.48347" lon="5.30673">
        <ele>231.6</ele>
        <time>2021-12-23T12:00:19Z</time>
      </trkpt>
      <trkpt lat="46.48337" lon="5.30681">
        <ele>231.6</ele>
        <time>2021-12-23T12:00:21Z</time>
      </trkpt>
      <trkpt lat="46.4832" lon="5.3069">
        <ele>231.4</ele>
        <time>2021-12-23T12:00:24Z</time>
      </trkpt>
      <trkpt lat="46.48291" lon="5.30695">
        <ele>231</ele>
        <time>2021-12-23T12:00:29Z</time>
      </trkpt>
      <trkpt lat="46.48256" lon="5.30686">
        <ele>230.8</ele>
        <time>2021-12-23T12:00:35Z</time>
      </trkpt>
      <trkpt lat="46.4823" lon="5.3068">
        <ele>230.8</ele>
        <time>2021-12-23T12:00:40Z</time>
      </trkpt>
      <trkpt lat="46.4822" lon="5.3068">
        <ele>230.8</ele>
        <time>2021-12-23T12:00:42Z</time>
      </trkpt>
      <trkpt lat="46.48206" lon="5.30683">
        <ele>231</ele>
        <time>2021-12-23T12:00:45Z</time>
      </trkpt>
      <trkpt lat="46.48177" lon="5.30697">
        <ele>232.2</ele>
        <time>2021-12-23T12:00:52Z</time>
      </trkpt>
      <trkpt lat="46.4817" lon="5.30702">
        <ele>232.2</ele>
        <time>2021-12-23T12:00:53Z</time>
      </trkpt>
      <trkpt lat="46.48146" lon="5.30715">
        <ele>233.4</ele>
        <time>2021-12-23T12:01:00Z</time>
      </trkpt>
      <trkpt lat="46.48138" lon="5.3072">
        <ele>233.6</ele>
        <time>2021-12-23T12:01:02Z</time>
      </trkpt>
      <trkpt lat="46.48115" lon="5.30733">
        <ele>234.6</ele>
        <time>2021-12-23T12:01:07Z</time>
      </trkpt>
      <trkpt lat="46.48096" lon="5.30743">
        <ele>234.8</ele>
        <time>2021-12-23T12:01:11Z</time>
      </trkpt>
      <trkpt lat="46.48058" lon="5.30764">
        <ele>235.4</ele>
        <time>2021-12-23T12:01:19Z</time>
      </trkpt>
      <trkpt lat="46.47999" lon="5.30797">
        <ele>235.2</ele>
        <time>2021-12-23T12:01:29Z</time>
      </trkpt>
      <trkpt lat="46.47955" lon="5.30815">
        <ele>234.2</ele>
        <time>2021-12-23T12:01:36Z</time>
      </trkpt>
      <trkpt lat="46.47948" lon="5.30815">
        <ele>233.8</ele>
        <time>2021-12-23T12:01:37Z</time>
      </trkpt>
      <trkpt lat="46.47948" lon="5.30815">
        <ele>233.6</ele>
        <time>2021-12-23T12:01:38Z</time>
      </trkpt>
      <trkpt lat="46.47936" lon="5.30815">
        <ele>233.4</ele>
        <time>2021-12-23T12:01:39Z</time>
      </trkpt>
      <trkpt lat="46.47916" lon="5.30812">
        <ele>233.4</ele>
        <time>2021-12-23T12:01:43Z</time>
      </trkpt>
      <trkpt lat="46.47883" lon="5.30801">
        <ele>234.4</ele>
        <time>2021-12-23T12:01:51Z</time>
      </trkpt>
      <trkpt lat="46.47879" lon="5.308">
        <ele>234.6</ele>
        <time>2021-12-23T12:01:52Z</time>
      </trkpt>
      <trkpt lat="46.47876" lon="5.30799">
        <ele>235.4</ele>
        <time>2021-12-23T12:01:53Z</time>
      </trkpt>
      <trkpt lat="46.47872" lon="5.30798">
        <ele>235.8</ele>
        <time>2021-12-23T12:01:54Z</time>
      </trkpt>
      <trkpt lat="46.47864" lon="5.30798">
        <ele>236.4</ele>
        <time>2021-12-23T12:01:57Z</time>
      </trkpt>
      <trkpt lat="46.47849" lon="5.30793">
        <ele>236.8</ele>
        <time>2021-12-23T12:02:00Z</time>
      </trkpt>
      <trkpt lat="46.47846" lon="5.3079">
        <ele>237.6</ele>
        <time>2021-12-23T12:02:02Z</time>
      </trkpt>
      <trkpt lat="46.47839" lon="5.30781">
        <ele>238</ele>
        <time>2021-12-23T12:02:03Z</time>
      </trkpt>
      <trkpt lat="46.47834" lon="5.30777">
        <ele>238.2</ele>
        <time>2021-12-23T12:02:04Z</time>
      </trkpt>
      <trkpt lat="46.47824" lon="5.30771">
        <ele>238.6</ele>
        <time>2021-12-23T12:02:06Z</time>
      </trkpt>
      <trkpt lat="46.47793" lon="5.3077">
        <ele>238.6</ele>
        <time>2021-12-23T12:02:11Z</time>
      </trkpt>
      <trkpt lat="46.47764" lon="5.30773">
        <ele>237.2</ele>
        <time>2021-12-23T12:02:16Z</time>
      </trkpt>
      <trkpt lat="46.47748" lon="5.30775">
        <ele>236.6</ele>
        <time>2021-12-23T12:02:20Z</time>
      </trkpt>
      <trkpt lat="46.47704" lon="5.30783">
        <ele>236.8</ele>
        <time>2021-12-23T12:02:29Z</time>
      </trkpt>
      <trkpt lat="46.47664" lon="5.30789">
        <ele>237</ele>
        <time>2021-12-23T12:02:37Z</time>
      </trkpt>
      <trkpt lat="46.47609" lon="5.30798">
        <ele>237.4</ele>
        <time>2021-12-23T12:02:48Z</time>
      </trkpt>
      <trkpt lat="46.47604" lon="5.30799">
        <ele>237.4</ele>
        <time>2021-12-23T12:02:49Z</time>
      </trkpt>
      <trkpt lat="46.47548" lon="5.30807">
        <ele>237.2</ele>
        <time>2021-12-23T12:02:59Z</time>
      </trkpt>
      <trkpt lat="46.47495" lon="5.30827">
        <ele>237.2</ele>
        <time>2021-12-23T12:03:08Z</time>
      </trkpt>
      <trkpt lat="46.47449" lon="5.3085">
        <ele>236.8</ele>
        <time>2021-12-23T12:03:16Z</time>
      </trkpt>
      <trkpt lat="46.47409" lon="5.30872">
        <ele>236.6</ele>
        <time>2021-12-23T12:03:23Z</time>
      </trkpt>
      <trkpt lat="46.4736" lon="5.30891">
        <ele>236.4</ele>
        <time>2021-12-23T12:03:33Z</time>
      </trkpt>
      <trkpt lat="46.47351" lon="5.30893">
        <ele>236.4</ele>
        <time>2021-12-23T12:03:34Z</time>
      </trkpt>
      <trkpt lat="46.47341" lon="5.30892">
        <ele>236.4</ele>
        <time>2021-12-23T12:03:36Z</time>
      </trkpt>
      <trkpt lat="46.47337" lon="5.30889">
        <ele>236.4</ele>
        <time>2021-12-23T12:03:37Z</time>
      </trkpt>
      <trkpt lat="46.47333" lon="5.30883">
        <ele>236.2</ele>
        <time>2021-12-23T12:03:39Z</time>
      </trkpt>
      <trkpt lat="46.47329" lon="5.30868">
        <ele>236.2</ele>
        <time>2021-12-23T12:03:41Z</time>
      </trkpt>
      <trkpt lat="46.47326" lon="5.30852">
        <ele>236</ele>
        <time>2021-12-23T12:03:42Z</time>
      </trkpt>
      <trkpt lat="46.47324" lon="5.30825">
        <ele>235.8</ele>
        <time>2021-12-23T12:03:45Z</time>
      </trkpt>
      <trkpt lat="46.47319" lon="5.30742">
        <ele>235.6</ele>
        <time>2021-12-23T12:03:54Z</time>
      </trkpt>
      <trkpt lat="46.47316" lon="5.30685">
        <ele>236</ele>
        <time>2021-12-23T12:04:02Z</time>
      </trkpt>
      <trkpt lat="46.47314" lon="5.30667">
        <ele>236</ele>
        <time>2021-12-23T12:04:03Z</time>
      </trkpt>
      <trkpt lat="46.47311" lon="5.3065">
        <ele>236.2</ele>
        <time>2021-12-23T12:04:05Z</time>
      </trkpt>
      <trkpt lat="46.47308" lon="5.30644">
        <ele>236.2</ele>
        <time>2021-12-23T12:04:06Z</time>
      </trkpt>
      <trkpt lat="46.47304" lon="5.30637">
        <ele>236.2</ele>
        <time>2021-12-23T12:04:07Z</time>
      </trkpt>
      <trkpt lat="46.47291" lon="5.3062">
        <ele>236.4</ele>
        <time>2021-12-23T12:04:11Z</time>
      </trkpt>
      <trkpt lat="46.47266" lon="5.30586">
        <ele>237</ele>
        <time>2021-12-23T12:04:17Z</time>
      </trkpt>
      <trkpt lat="46.47258" lon="5.30577">
        <ele>237.2</ele>
        <time>2021-12-23T12:04:19Z</time>
      </trkpt>
      <trkpt lat="46.47244" lon="5.30566">
        <ele>237.2</ele>
        <time>2021-12-23T12:04:22Z</time>
      </trkpt>
      <trkpt lat="46.47239" lon="5.30563">
        <ele>237.2</ele>
        <time>2021-12-23T12:04:23Z</time>
      </trkpt>
      <trkpt lat="46.4723" lon="5.30558">
        <ele>237</ele>
        <time>2021-12-23T12:04:25Z</time>
      </trkpt>
      <trkpt lat="46.47214" lon="5.30554">
        <ele>237</ele>
        <time>2021-12-23T12:04:28Z</time>
      </trkpt>
      <trkpt lat="46.47178" lon="5.30558">
        <ele>237</ele>
        <time>2021-12-23T12:04:35Z</time>
      </trkpt>
      <trkpt lat="46.47166" lon="5.30557">
        <ele>236.8</ele>
        <time>2021-12-23T12:04:37Z</time>
      </trkpt>
      <trkpt lat="46.47142" lon="5.30549">
        <ele>237</ele>
        <time>2021-12-23T12:04:42Z</time>
      </trkpt>
      <trkpt lat="46.47093" lon="5.30523">
        <ele>237.6</ele>
        <time>2021-12-23T12:04:52Z</time>
      </trkpt>
      <trkpt lat="46.47051" lon="5.30488">
        <ele>237.6</ele>
        <time>2021-12-23T12:05:01Z</time>
      </trkpt>
      <trkpt lat="46.47008" lon="5.3045">
        <ele>236.8</ele>
        <time>2021-12-23T12:05:10Z</time>
      </trkpt>
      <trkpt lat="46.4696" lon="5.3041">
        <ele>236.2</ele>
        <time>2021-12-23T12:05:20Z</time>
      </trkpt>
      <trkpt lat="46.46925" lon="5.30393">
        <ele>235.8</ele>
        <time>2021-12-23T12:05:27Z</time>
      </trkpt>
      <trkpt lat="46.4692" lon="5.30391">
        <ele>235.6</ele>
        <time>2021-12-23T12:05:28Z</time>
      </trkpt>
      <trkpt lat="46.46883" lon="5.30376">
        <ele>235.6</ele>
        <time>2021-12-23T12:05:36Z</time>
      </trkpt>
      <trkpt lat="46.46851" lon="5.30347">
        <ele>235.8</ele>
        <time>2021-12-23T12:05:44Z</time>
      </trkpt>
      <trkpt lat="46.46821" lon="5.3031">
        <ele>236.8</ele>
        <time>2021-12-23T12:05:53Z</time>
      </trkpt>
      <trkpt lat="46.46809" lon="5.30296">
        <ele>236.8</ele>
        <time>2021-12-23T12:05:56Z</time>
      </trkpt>
      <trkpt lat="46.46777" lon="5.30258">
        <ele>237</ele>
        <time>2021-12-23T12:06:03Z</time>
      </trkpt>
      <trkpt lat="46.46744" lon="5.30219">
        <ele>237.2</ele>
        <time>2021-12-23T12:06:11Z</time>
      </trkpt>
      <trkpt lat="46.46741" lon="5.30212">
        <ele>237</ele>
        <time>2021-12-23T12:06:13Z</time>
      </trkpt>
      <trkpt lat="46.46735" lon="5.30197">
        <ele>237</ele>
        <time>2021-12-23T12:06:14Z</time>
      </trkpt>
      <trkpt lat="46.46727" lon="5.30174">
        <ele>237</ele>
        <time>2021-12-23T12:06:17Z</time>
      </trkpt>
      <trkpt lat="46.46725" lon="5.30165">
        <ele>237</ele>
        <time>2021-12-23T12:06:18Z</time>
      </trkpt>
      <trkpt lat="46.46708" lon="5.30098">
        <ele>236.8</ele>
        <time>2021-12-23T12:06:26Z</time>
      </trkpt>
      <trkpt lat="46.46704" lon="5.3009">
        <ele>236.8</ele>
        <time>2021-12-23T12:06:27Z</time>
      </trkpt>
      <trkpt lat="46.46695" lon="5.30079">
        <ele>236.8</ele>
        <time>2021-12-23T12:06:29Z</time>
      </trkpt>
      <trkpt lat="46.46679" lon="5.30072">
        <ele>236.6</ele>
        <time>2021-12-23T12:06:32Z</time>
      </trkpt>
      <trkpt lat="46.46673" lon="5.30069">
        <ele>236.6</ele>
        <time>2021-12-23T12:06:33Z</time>
      </trkpt>
      <trkpt lat="46.46663" lon="5.30063">
        <ele>236.6</ele>
        <time>2021-12-23T12:06:35Z</time>
      </trkpt>
      <trkpt lat="46.46649" lon="5.30056">
        <ele>236.6</ele>
        <time>2021-12-23T12:06:38Z</time>
      </trkpt>
      <trkpt lat="46.46639" lon="5.30054">
        <ele>236.6</ele>
        <time>2021-12-23T12:06:40Z</time>
      </trkpt>
      <trkpt lat="46.46628" lon="5.30056">
        <ele>236.4</ele>
        <time>2021-12-23T12:06:42Z</time>
      </trkpt>
      <trkpt lat="46.46617" lon="5.30058">
        <ele>236.4</ele>
        <time>2021-12-23T12:06:44Z</time>
      </trkpt>
      <trkpt lat="46.46605" lon="5.30061">
        <ele>236.4</ele>
        <time>2021-12-23T12:06:46Z</time>
      </trkpt>
      <trkpt lat="46.46567" lon="5.3006">
        <ele>236.6</ele>
        <time>2021-12-23T12:06:52Z</time>
      </trkpt>
      <trkpt lat="46.46518" lon="5.30058">
        <ele>236</ele>
        <time>2021-12-23T12:06:59Z</time>
      </trkpt>
      <trkpt lat="46.46512" lon="5.30058">
        <ele>235.8</ele>
        <time>2021-12-23T12:07:00Z</time>
      </trkpt>
      <trkpt lat="46.46482" lon="5.30056">
        <ele>234.6</ele>
        <time>2021-12-23T12:07:04Z</time>
      </trkpt>
      <trkpt lat="46.4647" lon="5.30053">
        <ele>234.2</ele>
        <time>2021-12-23T12:07:06Z</time>
      </trkpt>
      <trkpt lat="46.46454" lon="5.30049">
        <ele>233.6</ele>
        <time>2021-12-23T12:07:08Z</time>
      </trkpt>
      <trkpt lat="46.46426" lon="5.30049">
        <ele>233</ele>
        <time>2021-12-23T12:07:12Z</time>
      </trkpt>
      <trkpt lat="46.46411" lon="5.30052">
        <ele>232.4</ele>
        <time>2021-12-23T12:07:14Z</time>
      </trkpt>
      <trkpt lat="46.46386" lon="5.30056">
        <ele>231.4</ele>
        <time>2021-12-23T12:07:17Z</time>
      </trkpt>
      <trkpt lat="46.46378" lon="5.30058">
        <ele>231</ele>
        <time>2021-12-23T12:07:18Z</time>
      </trkpt>
      <trkpt lat="46.46342" lon="5.30064">
        <ele>229.6</ele>
        <time>2021-12-23T12:07:22Z</time>
      </trkpt>
      <trkpt lat="46.46332" lon="5.30064">
        <ele>229</ele>
        <time>2021-12-23T12:07:23Z</time>
      </trkpt>
      <trkpt lat="46.46315" lon="5.30063">
        <ele>228</ele>
        <time>2021-12-23T12:07:25Z</time>
      </trkpt>
      <trkpt lat="46.46285" lon="5.3006">
        <ele>227</ele>
        <time>2021-12-23T12:07:28Z</time>
      </trkpt>
      <trkpt lat="46.46268" lon="5.30058">
        <ele>226</ele>
        <time>2021-12-23T12:07:30Z</time>
      </trkpt>
      <trkpt lat="46.46259" lon="5.30057">
        <ele>225.8</ele>
        <time>2021-12-23T12:07:31Z</time>
      </trkpt>
      <trkpt lat="46.4623" lon="5.30055">
        <ele>224.6</ele>
        <time>2021-12-23T12:07:34Z</time>
      </trkpt>
      <trkpt lat="46.4622" lon="5.30054">
        <ele>223.2</ele>
        <time>2021-12-23T12:07:36Z</time>
      </trkpt>
      <trkpt lat="46.46202" lon="5.30048">
        <ele>223</ele>
        <time>2021-12-23T12:07:37Z</time>
      </trkpt>
      <trkpt lat="46.46193" lon="5.30043">
        <ele>222</ele>
        <time>2021-12-23T12:07:38Z</time>
      </trkpt>
      <trkpt lat="46.46185" lon="5.30036">
        <ele>221.2</ele>
        <time>2021-12-23T12:07:39Z</time>
      </trkpt>
      <trkpt lat="46.4618" lon="5.3003">
        <ele>220.6</ele>
        <time>2021-12-23T12:07:40Z</time>
      </trkpt>
      <trkpt lat="46.46166" lon="5.30012">
        <ele>219.6</ele>
        <time>2021-12-23T12:07:42Z</time>
      </trkpt>
      <trkpt lat="46.46151" lon="5.2999">
        <ele>218</ele>
        <time>2021-12-23T12:07:45Z</time>
      </trkpt>
      <trkpt lat="46.46144" lon="5.29979">
        <ele>217.4</ele>
        <time>2021-12-23T12:07:47Z</time>
      </trkpt>
      <trkpt lat="46.46141" lon="5.29978">
        <ele>216.4</ele>
        <time>2021-12-23T12:07:48Z</time>
      </trkpt>
      <trkpt lat="46.46133" lon="5.29986">
        <ele>215.4</ele>
        <time>2021-12-23T12:07:51Z</time>
      </trkpt>
      <trkpt lat="46.4613" lon="5.29993">
        <ele>215</ele>
        <time>2021-12-23T12:07:52Z</time>
      </trkpt>
      <trkpt lat="46.46117" lon="5.30035">
        <ele>214.4</ele>
        <time>2021-12-23T12:07:57Z</time>
      </trkpt>
      <trkpt lat="46.46096" lon="5.30099">
        <ele>214.4</ele>
        <time>2021-12-23T12:08:05Z</time>
      </trkpt>
      <trkpt lat="46.4608" lon="5.30147">
        <ele>215.2</ele>
        <time>2021-12-23T12:08:12Z</time>
      </trkpt>
      <trkpt lat="46.46078" lon="5.30154">
        <ele>215.4</ele>
        <time>2021-12-23T12:08:13Z</time>
      </trkpt>
      <trkpt lat="46.4607" lon="5.30184">
        <ele>216</ele>
        <time>2021-12-23T12:08:18Z</time>
      </trkpt>
      <trkpt lat="46.46068" lon="5.30189">
        <ele>216.4</ele>
        <time>2021-12-23T12:08:19Z</time>
      </trkpt>
      <trkpt lat="46.46059" lon="5.30219">
        <ele>217.8</ele>
        <time>2021-12-23T12:08:24Z</time>
      </trkpt>
      <trkpt lat="46.46055" lon="5.30231">
        <ele>218.2</ele>
        <time>2021-12-23T12:08:26Z</time>
      </trkpt>
      <trkpt lat="46.46046" lon="5.30261">
        <ele>218.8</ele>
        <time>2021-12-23T12:08:31Z</time>
      </trkpt>
      <trkpt lat="46.46038" lon="5.30285">
        <ele>219.6</ele>
        <time>2021-12-23T12:08:35Z</time>
      </trkpt>
      <trkpt lat="46.46034" lon="5.30296">
        <ele>219.8</ele>
        <time>2021-12-23T12:08:37Z</time>
      </trkpt>
      <trkpt lat="46.46026" lon="5.3032">
        <ele>221</ele>
        <time>2021-12-23T12:08:41Z</time>
      </trkpt>
      <trkpt lat="46.46022" lon="5.3033">
        <ele>221.8</ele>
        <time>2021-12-23T12:08:43Z</time>
      </trkpt>
      <trkpt lat="46.4602" lon="5.30335">
        <ele>222</ele>
        <time>2021-12-23T12:08:44Z</time>
      </trkpt>
      <trkpt lat="46.46009" lon="5.30365">
        <ele>223.4</ele>
        <time>2021-12-23T12:08:50Z</time>
      </trkpt>
      <trkpt lat="46.46004" lon="5.30374">
        <ele>223.4</ele>
        <time>2021-12-23T12:08:52Z</time>
      </trkpt>
      <trkpt lat="46.46001" lon="5.30375">
        <ele>223.6</ele>
        <time>2021-12-23T12:08:53Z</time>
      </trkpt>
      <trkpt lat="46.45986" lon="5.30371">
        <ele>224.4</ele>
        <time>2021-12-23T12:08:57Z</time>
      </trkpt>
      <trkpt lat="46.45975" lon="5.30364">
        <ele>225.8</ele>
        <time>2021-12-23T12:09:01Z</time>
      </trkpt>
      <trkpt lat="46.45958" lon="5.30355">
        <ele>226.8</ele>
        <time>2021-12-23T12:09:04Z</time>
      </trkpt>
      <trkpt lat="46.45954" lon="5.30353">
        <ele>227</ele>
        <time>2021-12-23T12:09:05Z</time>
      </trkpt>
      <trkpt lat="46.45936" lon="5.30343">
        <ele>228.2</ele>
        <time>2021-12-23T12:09:10Z</time>
      </trkpt>
      <trkpt lat="46.45933" lon="5.3034">
        <ele>228.2</ele>
        <time>2021-12-23T12:09:11Z</time>
      </trkpt>
      <trkpt lat="46.45928" lon="5.30338">
        <ele>228.2</ele>
        <time>2021-12-23T12:09:12Z</time>
      </trkpt>
      <trkpt lat="46.45911" lon="5.30328">
        <ele>228.4</ele>
        <time>2021-12-23T12:09:16Z</time>
      </trkpt>
      <trkpt lat="46.45906" lon="5.30326">
        <ele>228.2</ele>
        <time>2021-12-23T12:09:17Z</time>
      </trkpt>
      <trkpt lat="46.45902" lon="5.30324">
        <ele>228.2</ele>
        <time>2021-12-23T12:09:18Z</time>
      </trkpt>
      <trkpt lat="46.45884" lon="5.30314">
        <ele>228</ele>
        <time>2021-12-23T12:09:22Z</time>
      </trkpt>
      <trkpt lat="46.4586" lon="5.30302">
        <ele>227.4</ele>
        <time>2021-12-23T12:09:26Z</time>
      </trkpt>
      <trkpt lat="46.45854" lon="5.303">
        <ele>227.4</ele>
        <time>2021-12-23T12:09:27Z</time>
      </trkpt>
      <trkpt lat="46.45847" lon="5.303">
        <ele>226.4</ele>
        <time>2021-12-23T12:09:28Z</time>
      </trkpt>
      <trkpt lat="46.45838" lon="5.303">
        <ele>226</ele>
        <time>2021-12-23T12:09:29Z</time>
      </trkpt>
      <trkpt lat="46.45826" lon="5.30304">
        <ele>225</ele>
        <time>2021-12-23T12:09:31Z</time>
      </trkpt>
      <trkpt lat="46.45814" lon="5.30312">
        <ele>224.4</ele>
        <time>2021-12-23T12:09:33Z</time>
      </trkpt>
      <trkpt lat="46.45803" lon="5.30323">
        <ele>224</ele>
        <time>2021-12-23T12:09:35Z</time>
      </trkpt>
      <trkpt lat="46.45786" lon="5.30341">
        <ele>223</ele>
        <time>2021-12-23T12:09:39Z</time>
      </trkpt>
      <trkpt lat="46.45762" lon="5.30367">
        <ele>222</ele>
        <time>2021-12-23T12:09:42Z</time>
      </trkpt>
      <trkpt lat="46.4575" lon="5.3038">
        <ele>221.4</ele>
        <time>2021-12-23T12:09:44Z</time>
      </trkpt>
      <trkpt lat="46.45737" lon="5.30393">
        <ele>220.8</ele>
        <time>2021-12-23T12:09:46Z</time>
      </trkpt>
      <trkpt lat="46.45724" lon="5.30407">
        <ele>219.4</ele>
        <time>2021-12-23T12:09:48Z</time>
      </trkpt>
      <trkpt lat="46.45724" lon="5.30407">
        <ele>218.4</ele>
        <time>2021-12-23T12:09:49Z</time>
      </trkpt>
      <trkpt lat="46.45709" lon="5.3042">
        <ele>218</ele>
        <time>2021-12-23T12:09:50Z</time>
      </trkpt>
      <trkpt lat="46.45701" lon="5.30425">
        <ele>217.2</ele>
        <time>2021-12-23T12:09:51Z</time>
      </trkpt>
      <trkpt lat="46.45693" lon="5.30429">
        <ele>216.6</ele>
        <time>2021-12-23T12:09:52Z</time>
      </trkpt>
      <trkpt lat="46.45684" lon="5.30432">
        <ele>216</ele>
        <time>2021-12-23T12:09:53Z</time>
      </trkpt>
      <trkpt lat="46.45676" lon="5.30434">
        <ele>215.8</ele>
        <time>2021-12-23T12:09:54Z</time>
      </trkpt>
      <trkpt lat="46.45667" lon="5.30435">
        <ele>215</ele>
        <time>2021-12-23T12:09:55Z</time>
      </trkpt>
      <trkpt lat="46.4565" lon="5.30433">
        <ele>214.2</ele>
        <time>2021-12-23T12:09:57Z</time>
      </trkpt>
      <trkpt lat="46.45642" lon="5.3043">
        <ele>213.8</ele>
        <time>2021-12-23T12:09:58Z</time>
      </trkpt>
      <trkpt lat="46.45634" lon="5.30427">
        <ele>213.6</ele>
        <time>2021-12-23T12:09:59Z</time>
      </trkpt>
      <trkpt lat="46.4562" lon="5.30419">
        <ele>213.2</ele>
        <time>2021-12-23T12:10:01Z</time>
      </trkpt>
      <trkpt lat="46.45614" lon="5.30414">
        <ele>212.8</ele>
        <time>2021-12-23T12:10:02Z</time>
      </trkpt>
      <trkpt lat="46.45608" lon="5.30408">
        <ele>212.4</ele>
        <time>2021-12-23T12:10:03Z</time>
      </trkpt>
      <trkpt lat="46.4558" lon="5.30381">
        <ele>211.8</ele>
        <time>2021-12-23T12:10:09Z</time>
      </trkpt>
      <trkpt lat="46.45555" lon="5.30356">
        <ele>212.2</ele>
        <time>2021-12-23T12:10:14Z</time>
      </trkpt>
      <trkpt lat="46.45544" lon="5.30349">
        <ele>212.4</ele>
        <time>2021-12-23T12:10:15Z</time>
      </trkpt>
      <trkpt lat="46.45527" lon="5.30345">
        <ele>212.4</ele>
        <time>2021-12-23T12:10:18Z</time>
      </trkpt>
      <trkpt lat="46.45491" lon="5.3035">
        <ele>212.2</ele>
        <time>2021-12-23T12:10:25Z</time>
      </trkpt>
      <trkpt lat="46.45458" lon="5.30346">
        <ele>212</ele>
        <time>2021-12-23T12:10:31Z</time>
      </trkpt>
      <trkpt lat="46.45405" lon="5.30329">
        <ele>212.8</ele>
        <time>2021-12-23T12:10:42Z</time>
      </trkpt>
      <trkpt lat="46.45392" lon="5.30326">
        <ele>213</ele>
        <time>2021-12-23T12:10:45Z</time>
      </trkpt>
      <trkpt lat="46.45374" lon="5.30322">
        <ele>213.4</ele>
        <time>2021-12-23T12:10:49Z</time>
      </trkpt>
      <trkpt lat="46.45369" lon="5.30323">
        <ele>213.4</ele>
        <time>2021-12-23T12:10:50Z</time>
      </trkpt>
      <trkpt lat="46.45348" lon="5.30329">
        <ele>213.6</ele>
        <time>2021-12-23T12:10:55Z</time>
      </trkpt>
      <trkpt lat="46.45343" lon="5.30332">
        <ele>213.8</ele>
        <time>2021-12-23T12:10:56Z</time>
      </trkpt>
      <trkpt lat="46.45327" lon="5.30343">
        <ele>214.2</ele>
        <time>2021-12-23T12:11:00Z</time>
      </trkpt>
      <trkpt lat="46.45322" lon="5.30345">
        <ele>214.2</ele>
        <time>2021-12-23T12:11:01Z</time>
      </trkpt>
      <trkpt lat="46.45313" lon="5.30349">
        <ele>214.4</ele>
        <time>2021-12-23T12:11:03Z</time>
      </trkpt>
      <trkpt lat="46.45303" lon="5.30352">
        <ele>214.4</ele>
        <time>2021-12-23T12:11:05Z</time>
      </trkpt>
      <trkpt lat="46.45289" lon="5.30351">
        <ele>214.6</ele>
        <time>2021-12-23T12:11:08Z</time>
      </trkpt>
      <trkpt lat="46.45242" lon="5.3034">
        <ele>215.2</ele>
        <time>2021-12-23T12:11:18Z</time>
      </trkpt>
      <trkpt lat="46.45233" lon="5.30337">
        <ele>215.4</ele>
        <time>2021-12-23T12:11:20Z</time>
      </trkpt>
      <trkpt lat="46.45206" lon="5.30333">
        <ele>215.6</ele>
        <time>2021-12-23T12:11:26Z</time>
      </trkpt>
      <trkpt lat="46.45201" lon="5.30333">
        <ele>215.8</ele>
        <time>2021-12-23T12:11:27Z</time>
      </trkpt>
      <trkpt lat="46.45193" lon="5.30337">
        <ele>216</ele>
        <time>2021-12-23T12:11:29Z</time>
      </trkpt>
      <trkpt lat="46.45185" lon="5.30344">
        <ele>216</ele>
        <time>2021-12-23T12:11:31Z</time>
      </trkpt>
      <trkpt lat="46.45169" lon="5.30366">
        <ele>216.6</ele>
        <time>2021-12-23T12:11:36Z</time>
      </trkpt>
      <trkpt lat="46.45167" lon="5.30372">
        <ele>216.6</ele>
        <time>2021-12-23T12:11:37Z</time>
      </trkpt>
      <trkpt lat="46.45152" lon="5.30416">
        <ele>217.6</ele>
        <time>2021-12-23T12:11:45Z</time>
      </trkpt>
      <trkpt lat="46.4515" lon="5.30422">
        <ele>217.8</ele>
        <time>2021-12-23T12:11:46Z</time>
      </trkpt>
      <trkpt lat="46.45145" lon="5.30439">
        <ele>218.6</ele>
        <time>2021-12-23T12:11:49Z</time>
      </trkpt>
      <trkpt lat="46.45134" lon="5.30468">
        <ele>219.6</ele>
        <time>2021-12-23T12:11:54Z</time>
      </trkpt>
      <trkpt lat="46.4513" lon="5.30479">
        <ele>220.2</ele>
        <time>2021-12-23T12:11:56Z</time>
      </trkpt>
      <trkpt lat="46.45125" lon="5.30488">
        <ele>220.4</ele>
        <time>2021-12-23T12:11:58Z</time>
      </trkpt>
      <trkpt lat="46.45118" lon="5.30495">
        <ele>220.6</ele>
        <time>2021-12-23T12:12:00Z</time>
      </trkpt>
      <trkpt lat="46.45115" lon="5.30498">
        <ele>220.8</ele>
        <time>2021-12-23T12:12:01Z</time>
      </trkpt>
      <trkpt lat="46.45111" lon="5.305">
        <ele>221</ele>
        <time>2021-12-23T12:12:02Z</time>
      </trkpt>
      <trkpt lat="46.45099" lon="5.30502">
        <ele>221.4</ele>
        <time>2021-12-23T12:12:05Z</time>
      </trkpt>
      <trkpt lat="46.4508" lon="5.305">
        <ele>222.2</ele>
        <time>2021-12-23T12:12:10Z</time>
      </trkpt>
      <trkpt lat="46.45073" lon="5.30499">
        <ele>222.4</ele>
        <time>2021-12-23T12:12:12Z</time>
      </trkpt>
      <trkpt lat="46.45059" lon="5.30494">
        <ele>223.4</ele>
        <time>2021-12-23T12:12:16Z</time>
      </trkpt>
      <trkpt lat="46.45048" lon="5.30492">
        <ele>224.4</ele>
        <time>2021-12-23T12:12:19Z</time>
      </trkpt>
      <trkpt lat="46.45041" lon="5.30491">
        <ele>224.8</ele>
        <time>2021-12-23T12:12:21Z</time>
      </trkpt>
      <trkpt lat="46.45025" lon="5.30486">
        <ele>225.8</ele>
        <time>2021-12-23T12:12:26Z</time>
      </trkpt>
      <trkpt lat="46.45019" lon="5.30484">
        <ele>226.2</ele>
        <time>2021-12-23T12:12:28Z</time>
      </trkpt>
      <trkpt lat="46.45007" lon="5.30484">
        <ele>226.8</ele>
        <time>2021-12-23T12:12:31Z</time>
      </trkpt>
      <trkpt lat="46.44999" lon="5.30485">
        <ele>227.2</ele>
        <time>2021-12-23T12:12:33Z</time>
      </trkpt>
      <trkpt lat="46.44982" lon="5.3049">
        <ele>227.8</ele>
        <time>2021-12-23T12:12:37Z</time>
      </trkpt>
      <trkpt lat="46.44974" lon="5.30492">
        <ele>228.2</ele>
        <time>2021-12-23T12:12:39Z</time>
      </trkpt>
      <trkpt lat="46.44943" lon="5.30503">
        <ele>229.2</ele>
        <time>2021-12-23T12:12:47Z</time>
      </trkpt>
      <trkpt lat="46.44939" lon="5.30505">
        <ele>229.2</ele>
        <time>2021-12-23T12:12:48Z</time>
      </trkpt>
      <trkpt lat="46.44909" lon="5.30512">
        <ele>229.6</ele>
        <time>2021-12-23T12:12:55Z</time>
      </trkpt>
      <trkpt lat="46.44885" lon="5.30514">
        <ele>230.2</ele>
        <time>2021-12-23T12:13:01Z</time>
      </trkpt>
      <trkpt lat="46.44873" lon="5.30515">
        <ele>230.4</ele>
        <time>2021-12-23T12:13:04Z</time>
      </trkpt>
      <trkpt lat="46.44858" lon="5.30515">
        <ele>231.4</ele>
        <time>2021-12-23T12:13:08Z</time>
      </trkpt>
      <trkpt lat="46.44843" lon="5.30516">
        <ele>232.2</ele>
        <time>2021-12-23T12:13:12Z</time>
      </trkpt>
      <trkpt lat="46.44836" lon="5.30516">
        <ele>232.8</ele>
        <time>2021-12-23T12:13:14Z</time>
      </trkpt>
      <trkpt lat="46.44813" lon="5.30516">
        <ele>233.4</ele>
        <time>2021-12-23T12:13:20Z</time>
      </trkpt>
      <trkpt lat="46.44801" lon="5.30516">
        <ele>234</ele>
        <time>2021-12-23T12:13:23Z</time>
      </trkpt>
      <trkpt lat="46.4478" lon="5.30516">
        <ele>234.8</ele>
        <time>2021-12-23T12:13:28Z</time>
      </trkpt>
      <trkpt lat="46.44771" lon="5.30516">
        <ele>235</ele>
        <time>2021-12-23T12:13:30Z</time>
      </trkpt>
      <trkpt lat="46.44749" lon="5.30516">
        <ele>235.2</ele>
        <time>2021-12-23T12:13:35Z</time>
      </trkpt>
      <trkpt lat="46.44732" lon="5.30515">
        <ele>235.4</ele>
        <time>2021-12-23T12:13:40Z</time>
      </trkpt>
      <trkpt lat="46.44729" lon="5.30514">
        <ele>235.4</ele>
        <time>2021-12-23T12:13:44Z</time>
      </trkpt>
      <trkpt lat="46.44729" lon="5.30514">
        <ele>235.2</ele>
        <time>2021-12-23T12:13:45Z</time>
      </trkpt>
      <trkpt lat="46.44725" lon="5.30515">
        <ele>227.2</ele>
        <time>2021-12-23T12:15:25Z</time>
      </trkpt>
      <trkpt lat="46.44722" lon="5.30515">
        <ele>235.6</ele>
        <time>2021-12-23T12:15:27Z</time>
      </trkpt>
      <trkpt lat="46.44705" lon="5.30516">
        <ele>235.4</ele>
        <time>2021-12-23T12:15:32Z</time>
      </trkpt>
      <trkpt lat="46.44684" lon="5.30516">
        <ele>235.4</ele>
        <time>2021-12-23T12:15:36Z</time>
      </trkpt>
      <trkpt lat="46.44645" lon="5.30517">
        <ele>235.8</ele>
        <time>2021-12-23T12:15:43Z</time>
      </trkpt>
      <trkpt lat="46.44601" lon="5.30517">
        <ele>236.4</ele>
        <time>2021-12-23T12:15:51Z</time>
      </trkpt>
      <trkpt lat="46.44585" lon="5.30519">
        <ele>236.8</ele>
        <time>2021-12-23T12:15:54Z</time>
      </trkpt>
      <trkpt lat="46.4458" lon="5.3052">
        <ele>236.8</ele>
        <time>2021-12-23T12:15:55Z</time>
      </trkpt>
      <trkpt lat="46.44561" lon="5.30528">
        <ele>237.2</ele>
        <time>2021-12-23T12:15:59Z</time>
      </trkpt>
      <trkpt lat="46.44557" lon="5.3053">
        <ele>237.4</ele>
        <time>2021-12-23T12:16:00Z</time>
      </trkpt>
      <trkpt lat="46.44541" lon="5.3054">
        <ele>237.8</ele>
        <time>2021-12-23T12:16:05Z</time>
      </trkpt>
      <trkpt lat="46.44522" lon="5.30552">
        <ele>238.4</ele>
        <time>2021-12-23T12:16:09Z</time>
      </trkpt>
      <trkpt lat="46.44512" lon="5.30557">
        <ele>238.6</ele>
        <time>2021-12-23T12:16:11Z</time>
      </trkpt>
      <trkpt lat="46.44492" lon="5.30565">
        <ele>239.6</ele>
        <time>2021-12-23T12:16:15Z</time>
      </trkpt>
      <trkpt lat="46.44471" lon="5.30569">
        <ele>239.8</ele>
        <time>2021-12-23T12:16:19Z</time>
      </trkpt>
      <trkpt lat="46.44435" lon="5.30568">
        <ele>240.4</ele>
        <time>2021-12-23T12:16:26Z</time>
      </trkpt>
      <trkpt lat="46.44425" lon="5.30572">
        <ele>240.4</ele>
        <time>2021-12-23T12:16:28Z</time>
      </trkpt>
      <trkpt lat="46.44415" lon="5.30578">
        <ele>240.6</ele>
        <time>2021-12-23T12:16:30Z</time>
      </trkpt>
      <trkpt lat="46.4441" lon="5.30582">
        <ele>240.8</ele>
        <time>2021-12-23T12:16:31Z</time>
      </trkpt>
      <trkpt lat="46.44406" lon="5.30585">
        <ele>240.8</ele>
        <time>2021-12-23T12:16:32Z</time>
      </trkpt>
      <trkpt lat="46.44395" lon="5.30591">
        <ele>241</ele>
        <time>2021-12-23T12:16:34Z</time>
      </trkpt>
      <trkpt lat="46.44384" lon="5.30597">
        <ele>241</ele>
        <time>2021-12-23T12:16:36Z</time>
      </trkpt>
      <trkpt lat="46.44359" lon="5.306">
        <ele>241.2</ele>
        <time>2021-12-23T12:16:40Z</time>
      </trkpt>
      <trkpt lat="46.44353" lon="5.30599">
        <ele>241.2</ele>
        <time>2021-12-23T12:16:41Z</time>
      </trkpt>
      <trkpt lat="46.44342" lon="5.30596">
        <ele>241.4</ele>
        <time>2021-12-23T12:16:43Z</time>
      </trkpt>
      <trkpt lat="46.4433" lon="5.30598">
        <ele>241.6</ele>
        <time>2021-12-23T12:16:45Z</time>
      </trkpt>
      <trkpt lat="46.44325" lon="5.306">
        <ele>241.6</ele>
        <time>2021-12-23T12:16:46Z</time>
      </trkpt>
      <trkpt lat="46.44315" lon="5.30608">
        <ele>241.8</ele>
        <time>2021-12-23T12:16:48Z</time>
      </trkpt>
      <trkpt lat="46.44307" lon="5.30617">
        <ele>242</ele>
        <time>2021-12-23T12:16:50Z</time>
      </trkpt>
      <trkpt lat="46.44303" lon="5.30621">
        <ele>242</ele>
        <time>2021-12-23T12:16:51Z</time>
      </trkpt>
      <trkpt lat="46.44282" lon="5.30643">
        <ele>242.2</ele>
        <time>2021-12-23T12:16:56Z</time>
      </trkpt>
      <trkpt lat="46.44246" lon="5.30662">
        <ele>242.2</ele>
        <time>2021-12-23T12:17:03Z</time>
      </trkpt>
      <trkpt lat="46.44197" lon="5.30671">
        <ele>242.2</ele>
        <time>2021-12-23T12:17:12Z</time>
      </trkpt>
      <trkpt lat="46.4416" lon="5.30669">
        <ele>242.6</ele>
        <time>2021-12-23T12:17:19Z</time>
      </trkpt>
      <trkpt lat="46.44125" lon="5.30652">
        <ele>242.8</ele>
        <time>2021-12-23T12:17:26Z</time>
      </trkpt>
      <trkpt lat="46.44086" lon="5.30622">
        <ele>242.8</ele>
        <time>2021-12-23T12:17:34Z</time>
      </trkpt>
      <trkpt lat="46.4408" lon="5.3062">
        <ele>242.6</ele>
        <time>2021-12-23T12:17:35Z</time>
      </trkpt>
      <trkpt lat="46.44075" lon="5.30618">
        <ele>242.6</ele>
        <time>2021-12-23T12:17:36Z</time>
      </trkpt>
      <trkpt lat="46.44063" lon="5.30618">
        <ele>242.6</ele>
        <time>2021-12-23T12:17:38Z</time>
      </trkpt>
      <trkpt lat="46.44058" lon="5.3062">
        <ele>242.6</ele>
        <time>2021-12-23T12:17:39Z</time>
      </trkpt>
      <trkpt lat="46.44052" lon="5.30623">
        <ele>242.6</ele>
        <time>2021-12-23T12:17:40Z</time>
      </trkpt>
      <trkpt lat="46.44032" lon="5.30639">
        <ele>242.6</ele>
        <time>2021-12-23T12:17:44Z</time>
      </trkpt>
      <trkpt lat="46.44022" lon="5.30648">
        <ele>242.6</ele>
        <time>2021-12-23T12:17:46Z</time>
      </trkpt>
      <trkpt lat="46.44004" lon="5.30666">
        <ele>243</ele>
        <time>2021-12-23T12:17:50Z</time>
      </trkpt>
      <trkpt lat="46.43998" lon="5.30669">
        <ele>243</ele>
        <time>2021-12-23T12:17:51Z</time>
      </trkpt>
      <trkpt lat="46.43988" lon="5.30667">
        <ele>243</ele>
        <time>2021-12-23T12:17:53Z</time>
      </trkpt>
      <trkpt lat="46.43986" lon="5.30656">
        <ele>243</ele>
        <time>2021-12-23T12:17:55Z</time>
      </trkpt>
      <trkpt lat="46.43992" lon="5.30624">
        <ele>243.2</ele>
        <time>2021-12-23T12:17:59Z</time>
      </trkpt>
      <trkpt lat="46.43995" lon="5.30564">
        <ele>243.4</ele>
        <time>2021-12-23T12:18:06Z</time>
      </trkpt>
      <trkpt lat="46.43988" lon="5.30483">
        <ele>243.6</ele>
        <time>2021-12-23T12:18:15Z</time>
      </trkpt>
      <trkpt lat="46.43987" lon="5.30474">
        <ele>243.6</ele>
        <time>2021-12-23T12:18:16Z</time>
      </trkpt>
      <trkpt lat="46.43979" lon="5.3039">
        <ele>243.2</ele>
        <time>2021-12-23T12:18:25Z</time>
      </trkpt>
      <trkpt lat="46.4397" lon="5.30316">
        <ele>242.8</ele>
        <time>2021-12-23T12:18:33Z</time>
      </trkpt>
      <trkpt lat="46.43953" lon="5.30246">
        <ele>242.2</ele>
        <time>2021-12-23T12:18:41Z</time>
      </trkpt>
      <trkpt lat="46.43946" lon="5.3022">
        <ele>242.2</ele>
        <time>2021-12-23T12:18:44Z</time>
      </trkpt>
      <trkpt lat="46.43932" lon="5.30164">
        <ele>242.4</ele>
        <time>2021-12-23T12:18:51Z</time>
      </trkpt>
      <trkpt lat="46.43909" lon="5.30098">
        <ele>242.6</ele>
        <time>2021-12-23T12:19:00Z</time>
      </trkpt>
      <trkpt lat="46.43882" lon="5.30035">
        <ele>242.4</ele>
        <time>2021-12-23T12:19:09Z</time>
      </trkpt>
      <trkpt lat="46.43859" lon="5.30012">
        <ele>242.4</ele>
        <time>2021-12-23T12:19:14Z</time>
      </trkpt>
      <trkpt lat="46.43806" lon="5.29975">
        <ele>241.8</ele>
        <time>2021-12-23T12:19:24Z</time>
      </trkpt>
      <trkpt lat="46.43796" lon="5.29968">
        <ele>241.8</ele>
        <time>2021-12-23T12:19:26Z</time>
      </trkpt>
      <trkpt lat="46.43748" lon="5.29936">
        <ele>241.8</ele>
        <time>2021-12-23T12:19:35Z</time>
      </trkpt>
      <trkpt lat="46.43737" lon="5.2993">
        <ele>241.8</ele>
        <time>2021-12-23T12:19:37Z</time>
      </trkpt>
      <trkpt lat="46.43725" lon="5.29929">
        <ele>241.8</ele>
        <time>2021-12-23T12:19:39Z</time>
      </trkpt>
      <trkpt lat="46.43675" lon="5.29928">
        <ele>241.2</ele>
        <time>2021-12-23T12:19:47Z</time>
      </trkpt>
      <trkpt lat="46.43616" lon="5.29924">
        <ele>241</ele>
        <time>2021-12-23T12:19:57Z</time>
      </trkpt>
      <trkpt lat="46.43572" lon="5.29924">
        <ele>241.2</ele>
        <time>2021-12-23T12:20:04Z</time>
      </trkpt>
      <trkpt lat="46.43558" lon="5.2993">
        <ele>241</ele>
        <time>2021-12-23T12:20:06Z</time>
      </trkpt>
      <trkpt lat="46.43543" lon="5.29941">
        <ele>241</ele>
        <time>2021-12-23T12:20:08Z</time>
      </trkpt>
      <trkpt lat="46.43519" lon="5.29963">
        <ele>240.2</ele>
        <time>2021-12-23T12:20:11Z</time>
      </trkpt>
      <trkpt lat="46.43501" lon="5.2998">
        <ele>239</ele>
        <time>2021-12-23T12:20:13Z</time>
      </trkpt>
      <trkpt lat="46.43483" lon="5.29996">
        <ele>237.2</ele>
        <time>2021-12-23T12:20:15Z</time>
      </trkpt>
      <trkpt lat="46.43462" lon="5.3001">
        <ele>235.4</ele>
        <time>2021-12-23T12:20:17Z</time>
      </trkpt>
      <trkpt lat="46.43451" lon="5.30015">
        <ele>235</ele>
        <time>2021-12-23T12:20:18Z</time>
      </trkpt>
      <trkpt lat="46.43439" lon="5.30016">
        <ele>234.4</ele>
        <time>2021-12-23T12:20:19Z</time>
      </trkpt>
      <trkpt lat="46.43428" lon="5.30016">
        <ele>233.8</ele>
        <time>2021-12-23T12:20:20Z</time>
      </trkpt>
      <trkpt lat="46.43417" lon="5.30016">
        <ele>232.8</ele>
        <time>2021-12-23T12:20:21Z</time>
      </trkpt>
      <trkpt lat="46.43396" lon="5.30018">
        <ele>231.6</ele>
        <time>2021-12-23T12:20:23Z</time>
      </trkpt>
      <trkpt lat="46.43386" lon="5.30019">
        <ele>230.4</ele>
        <time>2021-12-23T12:20:24Z</time>
      </trkpt>
      <trkpt lat="46.43376" lon="5.30021">
        <ele>229.8</ele>
        <time>2021-12-23T12:20:25Z</time>
      </trkpt>
      <trkpt lat="46.43367" lon="5.30025">
        <ele>228.6</ele>
        <time>2021-12-23T12:20:26Z</time>
      </trkpt>
      <trkpt lat="46.43348" lon="5.30033">
        <ele>227.6</ele>
        <time>2021-12-23T12:20:28Z</time>
      </trkpt>
      <trkpt lat="46.43338" lon="5.30038">
        <ele>227.4</ele>
        <time>2021-12-23T12:20:29Z</time>
      </trkpt>
      <trkpt lat="46.43318" lon="5.30043">
        <ele>226.2</ele>
        <time>2021-12-23T12:20:31Z</time>
      </trkpt>
      <trkpt lat="46.43307" lon="5.30042">
        <ele>225.8</ele>
        <time>2021-12-23T12:20:32Z</time>
      </trkpt>
      <trkpt lat="46.43296" lon="5.30042">
        <ele>225.2</ele>
        <time>2021-12-23T12:20:33Z</time>
      </trkpt>
      <trkpt lat="46.43275" lon="5.30046">
        <ele>224.2</ele>
        <time>2021-12-23T12:20:35Z</time>
      </trkpt>
      <trkpt lat="46.43266" lon="5.30048">
        <ele>223.6</ele>
        <time>2021-12-23T12:20:36Z</time>
      </trkpt>
      <trkpt lat="46.43257" lon="5.30049">
        <ele>222.4</ele>
        <time>2021-12-23T12:20:37Z</time>
      </trkpt>
      <trkpt lat="46.43248" lon="5.30048">
        <ele>222.2</ele>
        <time>2021-12-23T12:20:38Z</time>
      </trkpt>
      <trkpt lat="46.43241" lon="5.30046">
        <ele>221.8</ele>
        <time>2021-12-23T12:20:39Z</time>
      </trkpt>
      <trkpt lat="46.43234" lon="5.30043">
        <ele>221.4</ele>
        <time>2021-12-23T12:20:40Z</time>
      </trkpt>
      <trkpt lat="46.43229" lon="5.30039">
        <ele>221.2</ele>
        <time>2021-12-23T12:20:41Z</time>
      </trkpt>
      <trkpt lat="46.43223" lon="5.30036">
        <ele>221.2</ele>
        <time>2021-12-23T12:20:42Z</time>
      </trkpt>
      <trkpt lat="46.43214" lon="5.30029">
        <ele>221.4</ele>
        <time>2021-12-23T12:20:44Z</time>
      </trkpt>
      <trkpt lat="46.4321" lon="5.30027">
        <ele>221.8</ele>
        <time>2021-12-23T12:20:45Z</time>
      </trkpt>
      <trkpt lat="46.43202" lon="5.30023">
        <ele>223</ele>
        <time>2021-12-23T12:20:47Z</time>
      </trkpt>
      <trkpt lat="46.4319" lon="5.3002">
        <ele>224.4</ele>
        <time>2021-12-23T12:20:50Z</time>
      </trkpt>
      <trkpt lat="46.43186" lon="5.30019">
        <ele>225</ele>
        <time>2021-12-23T12:20:51Z</time>
      </trkpt>
      <trkpt lat="46.4318" lon="5.30017">
        <ele>225.8</ele>
        <time>2021-12-23T12:20:53Z</time>
      </trkpt>
      <trkpt lat="46.43171" lon="5.30014">
        <ele>227.6</ele>
        <time>2021-12-23T12:20:56Z</time>
      </trkpt>
      <trkpt lat="46.43168" lon="5.30013">
        <ele>228</ele>
        <time>2021-12-23T12:20:57Z</time>
      </trkpt>
      <trkpt lat="46.43162" lon="5.30011">
        <ele>228.6</ele>
        <time>2021-12-23T12:20:59Z</time>
      </trkpt>
      <trkpt lat="46.43153" lon="5.30009">
        <ele>229.8</ele>
        <time>2021-12-23T12:21:02Z</time>
      </trkpt>
      <trkpt lat="46.43145" lon="5.30006">
        <ele>231.2</ele>
        <time>2021-12-23T12:21:05Z</time>
      </trkpt>
      <trkpt lat="46.43133" lon="5.30002">
        <ele>232.6</ele>
        <time>2021-12-23T12:21:09Z</time>
      </trkpt>
      <trkpt lat="46.43125" lon="5.29999">
        <ele>234</ele>
        <time>2021-12-23T12:21:12Z</time>
      </trkpt>
      <trkpt lat="46.43119" lon="5.29997">
        <ele>234.4</ele>
        <time>2021-12-23T12:21:14Z</time>
      </trkpt>
      <trkpt lat="46.43113" lon="5.29994">
        <ele>235.2</ele>
        <time>2021-12-23T12:21:16Z</time>
      </trkpt>
      <trkpt lat="46.43101" lon="5.2999">
        <ele>236</ele>
        <time>2021-12-23T12:21:20Z</time>
      </trkpt>
      <trkpt lat="46.43091" lon="5.29989">
        <ele>236.4</ele>
        <time>2021-12-23T12:21:23Z</time>
      </trkpt>
      <trkpt lat="46.43083" lon="5.2999">
        <ele>236.8</ele>
        <time>2021-12-23T12:21:25Z</time>
      </trkpt>
      <trkpt lat="46.43052" lon="5.29993">
        <ele>237.6</ele>
        <time>2021-12-23T12:21:32Z</time>
      </trkpt>
      <trkpt lat="46.43015" lon="5.30006">
        <ele>238</ele>
        <time>2021-12-23T12:21:41Z</time>
      </trkpt>
      <trkpt lat="46.42977" lon="5.30012">
        <ele>238.6</ele>
        <time>2021-12-23T12:21:50Z</time>
      </trkpt>
      <trkpt lat="46.42968" lon="5.30012">
        <ele>238.8</ele>
        <time>2021-12-23T12:21:52Z</time>
      </trkpt>
      <trkpt lat="46.42936" lon="5.30013">
        <ele>239.8</ele>
        <time>2021-12-23T12:21:59Z</time>
      </trkpt>
      <trkpt lat="46.42917" lon="5.30012">
        <ele>240.2</ele>
        <time>2021-12-23T12:22:03Z</time>
      </trkpt>
      <trkpt lat="46.42876" lon="5.30006">
        <ele>240.6</ele>
        <time>2021-12-23T12:22:11Z</time>
      </trkpt>
      <trkpt lat="46.42855" lon="5.30002">
        <ele>240.6</ele>
        <time>2021-12-23T12:22:15Z</time>
      </trkpt>
      <trkpt lat="46.42846" lon="5.30001">
        <ele>240.6</ele>
        <time>2021-12-23T12:22:17Z</time>
      </trkpt>
      <trkpt lat="46.42831" lon="5.30003">
        <ele>240.6</ele>
        <time>2021-12-23T12:22:20Z</time>
      </trkpt>
      <trkpt lat="46.42821" lon="5.30007">
        <ele>240.8</ele>
        <time>2021-12-23T12:22:22Z</time>
      </trkpt>
      <trkpt lat="46.42816" lon="5.3001">
        <ele>240.8</ele>
        <time>2021-12-23T12:22:23Z</time>
      </trkpt>
      <trkpt lat="46.42812" lon="5.30013">
        <ele>241</ele>
        <time>2021-12-23T12:22:24Z</time>
      </trkpt>
      <trkpt lat="46.4279" lon="5.30035">
        <ele>241.4</ele>
        <time>2021-12-23T12:22:29Z</time>
      </trkpt>
      <trkpt lat="46.42755" lon="5.30064">
        <ele>242</ele>
        <time>2021-12-23T12:22:36Z</time>
      </trkpt>
      <trkpt lat="46.42713" lon="5.30082">
        <ele>242.4</ele>
        <time>2021-12-23T12:22:44Z</time>
      </trkpt>
      <trkpt lat="46.42674" lon="5.301">
        <ele>242.6</ele>
        <time>2021-12-23T12:22:51Z</time>
      </trkpt>
      <trkpt lat="46.42659" lon="5.30105">
        <ele>242.6</ele>
        <time>2021-12-23T12:22:54Z</time>
      </trkpt>
      <trkpt lat="46.42654" lon="5.30107">
        <ele>242.6</ele>
        <time>2021-12-23T12:22:55Z</time>
      </trkpt>
      <trkpt lat="46.42612" lon="5.30124">
        <ele>242.8</ele>
        <time>2021-12-23T12:23:03Z</time>
      </trkpt>
      <trkpt lat="46.42574" lon="5.30139">
        <ele>242.6</ele>
        <time>2021-12-23T12:23:10Z</time>
      </trkpt>
      <trkpt lat="46.42549" lon="5.30151">
        <ele>242.6</ele>
        <time>2021-12-23T12:23:15Z</time>
      </trkpt>
      <trkpt lat="46.42544" lon="5.30153">
        <ele>242.4</ele>
        <time>2021-12-23T12:23:16Z</time>
      </trkpt>
      <trkpt lat="46.42524" lon="5.30164">
        <ele>242.4</ele>
        <time>2021-12-23T12:23:20Z</time>
      </trkpt>
      <trkpt lat="46.42519" lon="5.30166">
        <ele>242.4</ele>
        <time>2021-12-23T12:23:21Z</time>
      </trkpt>
      <trkpt lat="46.42513" lon="5.30166">
        <ele>242.2</ele>
        <time>2021-12-23T12:23:22Z</time>
      </trkpt>
      <trkpt lat="46.42503" lon="5.3016">
        <ele>242.2</ele>
        <time>2021-12-23T12:23:24Z</time>
      </trkpt>
      <trkpt lat="46.4247" lon="5.30108">
        <ele>241.6</ele>
        <time>2021-12-23T12:23:32Z</time>
      </trkpt>
      <trkpt lat="46.42455" lon="5.30088">
        <ele>240.6</ele>
        <time>2021-12-23T12:23:35Z</time>
      </trkpt>
      <trkpt lat="46.42433" lon="5.30059">
        <ele>239.8</ele>
        <time>2021-12-23T12:23:39Z</time>
      </trkpt>
      <trkpt lat="46.42427" lon="5.30052">
        <ele>239.6</ele>
        <time>2021-12-23T12:23:40Z</time>
      </trkpt>
      <trkpt lat="46.42406" lon="5.30032">
        <ele>238.4</ele>
        <time>2021-12-23T12:23:43Z</time>
      </trkpt>
      <trkpt lat="46.42393" lon="5.30018">
        <ele>237.6</ele>
        <time>2021-12-23T12:23:45Z</time>
      </trkpt>
      <trkpt lat="46.42385" lon="5.30011">
        <ele>237.2</ele>
        <time>2021-12-23T12:23:46Z</time>
      </trkpt>
      <trkpt lat="46.42361" lon="5.29993">
        <ele>235.4</ele>
        <time>2021-12-23T12:23:49Z</time>
      </trkpt>
      <trkpt lat="46.42345" lon="5.2998">
        <ele>234.2</ele>
        <time>2021-12-23T12:23:51Z</time>
      </trkpt>
      <trkpt lat="46.42319" lon="5.29961">
        <ele>232.4</ele>
        <time>2021-12-23T12:23:54Z</time>
      </trkpt>
      <trkpt lat="46.42302" lon="5.29948">
        <ele>231.6</ele>
        <time>2021-12-23T12:23:56Z</time>
      </trkpt>
      <trkpt lat="46.42293" lon="5.29941">
        <ele>231.2</ele>
        <time>2021-12-23T12:23:57Z</time>
      </trkpt>
      <trkpt lat="46.42275" lon="5.29928">
        <ele>230.2</ele>
        <time>2021-12-23T12:23:59Z</time>
      </trkpt>
      <trkpt lat="46.42257" lon="5.29914">
        <ele>228.6</ele>
        <time>2021-12-23T12:24:01Z</time>
      </trkpt>
      <trkpt lat="46.42239" lon="5.299">
        <ele>227.2</ele>
        <time>2021-12-23T12:24:03Z</time>
      </trkpt>
      <trkpt lat="46.42221" lon="5.29884">
        <ele>226.2</ele>
        <time>2021-12-23T12:24:05Z</time>
      </trkpt>
      <trkpt lat="46.42202" lon="5.29869">
        <ele>224.6</ele>
        <time>2021-12-23T12:24:07Z</time>
      </trkpt>
      <trkpt lat="46.42185" lon="5.29853">
        <ele>223.6</ele>
        <time>2021-12-23T12:24:09Z</time>
      </trkpt>
      <trkpt lat="46.42168" lon="5.29838">
        <ele>222.8</ele>
        <time>2021-12-23T12:24:11Z</time>
      </trkpt>
      <trkpt lat="46.4216" lon="5.29831">
        <ele>222</ele>
        <time>2021-12-23T12:24:12Z</time>
      </trkpt>
      <trkpt lat="46.42146" lon="5.29815">
        <ele>221</ele>
        <time>2021-12-23T12:24:14Z</time>
      </trkpt>
      <trkpt lat="46.4214" lon="5.29808">
        <ele>220.8</ele>
        <time>2021-12-23T12:24:15Z</time>
      </trkpt>
      <trkpt lat="46.42129" lon="5.29794">
        <ele>219.6</ele>
        <time>2021-12-23T12:24:17Z</time>
      </trkpt>
      <trkpt lat="46.42116" lon="5.29774">
        <ele>219</ele>
        <time>2021-12-23T12:24:20Z</time>
      </trkpt>
      <trkpt lat="46.42095" lon="5.29743">
        <ele>219.6</ele>
        <time>2021-12-23T12:24:26Z</time>
      </trkpt>
      <trkpt lat="46.42078" lon="5.29717">
        <ele>221</ele>
        <time>2021-12-23T12:24:32Z</time>
      </trkpt>
      <trkpt lat="46.42072" lon="5.29709">
        <ele>221.4</ele>
        <time>2021-12-23T12:24:34Z</time>
      </trkpt>
      <trkpt lat="46.42067" lon="5.29701">
        <ele>222</ele>
        <time>2021-12-23T12:24:36Z</time>
      </trkpt>
      <trkpt lat="46.42058" lon="5.29689">
        <ele>223.4</ele>
        <time>2021-12-23T12:24:39Z</time>
      </trkpt>
      <trkpt lat="46.42051" lon="5.29678">
        <ele>224.6</ele>
        <time>2021-12-23T12:24:42Z</time>
      </trkpt>
      <trkpt lat="46.42039" lon="5.2966">
        <ele>225.6</ele>
        <time>2021-12-23T12:24:47Z</time>
      </trkpt>
      <trkpt lat="46.42031" lon="5.2965">
        <ele>226.4</ele>
        <time>2021-12-23T12:24:50Z</time>
      </trkpt>
      <trkpt lat="46.42027" lon="5.29643">
        <ele>226.6</ele>
        <time>2021-12-23T12:24:52Z</time>
      </trkpt>
      <trkpt lat="46.42015" lon="5.29626">
        <ele>227.8</ele>
        <time>2021-12-23T12:24:57Z</time>
      </trkpt>
      <trkpt lat="46.42012" lon="5.29622">
        <ele>228.2</ele>
        <time>2021-12-23T12:24:58Z</time>
      </trkpt>
      <trkpt lat="46.42003" lon="5.29608">
        <ele>229</ele>
        <time>2021-12-23T12:25:02Z</time>
      </trkpt>
      <trkpt lat="46.41991" lon="5.29592">
        <ele>230.2</ele>
        <time>2021-12-23T12:25:07Z</time>
      </trkpt>
      <trkpt lat="46.41989" lon="5.29588">
        <ele>230.4</ele>
        <time>2021-12-23T12:25:08Z</time>
      </trkpt>
      <trkpt lat="46.4198" lon="5.29575">
        <ele>231.4</ele>
        <time>2021-12-23T12:25:12Z</time>
      </trkpt>
      <trkpt lat="46.41971" lon="5.29561">
        <ele>232.6</ele>
        <time>2021-12-23T12:25:16Z</time>
      </trkpt>
      <trkpt lat="46.41969" lon="5.29558">
        <ele>232.6</ele>
        <time>2021-12-23T12:25:17Z</time>
      </trkpt>
      <trkpt lat="46.41957" lon="5.29536">
        <ele>233.8</ele>
        <time>2021-12-23T12:25:23Z</time>
      </trkpt>
      <trkpt lat="46.41955" lon="5.29532">
        <ele>234</ele>
        <time>2021-12-23T12:25:24Z</time>
      </trkpt>
      <trkpt lat="46.41951" lon="5.29519">
        <ele>235.2</ele>
        <time>2021-12-23T12:25:27Z</time>
      </trkpt>
      <trkpt lat="46.41944" lon="5.29498">
        <ele>236.6</ele>
        <time>2021-12-23T12:25:32Z</time>
      </trkpt>
      <trkpt lat="46.41942" lon="5.29493">
        <ele>236.6</ele>
        <time>2021-12-23T12:25:33Z</time>
      </trkpt>
      <trkpt lat="46.41937" lon="5.29476">
        <ele>237.6</ele>
        <time>2021-12-23T12:25:37Z</time>
      </trkpt>
      <trkpt lat="46.4193" lon="5.29459">
        <ele>238.2</ele>
        <time>2021-12-23T12:25:41Z</time>
      </trkpt>
      <trkpt lat="46.41927" lon="5.29457">
        <ele>238.4</ele>
        <time>2021-12-23T12:25:42Z</time>
      </trkpt>
      <trkpt lat="46.41919" lon="5.29457">
        <ele>238.6</ele>
        <time>2021-12-23T12:25:44Z</time>
      </trkpt>
      <trkpt lat="46.41906" lon="5.29459">
        <ele>239.6</ele>
        <time>2021-12-23T12:25:47Z</time>
      </trkpt>
      <trkpt lat="46.41902" lon="5.2946">
        <ele>240</ele>
        <time>2021-12-23T12:25:48Z</time>
      </trkpt>
      <trkpt lat="46.41875" lon="5.29465">
        <ele>241</ele>
        <time>2021-12-23T12:25:54Z</time>
      </trkpt>
      <trkpt lat="46.41865" lon="5.29467">
        <ele>241</ele>
        <time>2021-12-23T12:25:56Z</time>
      </trkpt>
      <trkpt lat="46.4184" lon="5.29472">
        <ele>241.4</ele>
        <time>2021-12-23T12:26:01Z</time>
      </trkpt>
      <trkpt lat="46.41825" lon="5.29478">
        <ele>241</ele>
        <time>2021-12-23T12:26:04Z</time>
      </trkpt>
      <trkpt lat="46.41809" lon="5.29485">
        <ele>240.4</ele>
        <time>2021-12-23T12:26:07Z</time>
      </trkpt>
      <trkpt lat="46.41803" lon="5.29488">
        <ele>239.6</ele>
        <time>2021-12-23T12:26:08Z</time>
      </trkpt>
      <trkpt lat="46.41798" lon="5.2949">
        <ele>239.2</ele>
        <time>2021-12-23T12:26:09Z</time>
      </trkpt>
      <trkpt lat="46.41786" lon="5.29492">
        <ele>238.8</ele>
        <time>2021-12-23T12:26:11Z</time>
      </trkpt>
      <trkpt lat="46.41774" lon="5.29493">
        <ele>238.6</ele>
        <time>2021-12-23T12:26:13Z</time>
      </trkpt>
      <trkpt lat="46.41732" lon="5.29494">
        <ele>237.4</ele>
        <time>2021-12-23T12:26:20Z</time>
      </trkpt>
      <trkpt lat="46.41726" lon="5.29493">
        <ele>237.4</ele>
        <time>2021-12-23T12:26:21Z</time>
      </trkpt>
      <trkpt lat="46.41699" lon="5.29493">
        <ele>237</ele>
        <time>2021-12-23T12:26:26Z</time>
      </trkpt>
      <trkpt lat="46.41694" lon="5.29494">
        <ele>237</ele>
        <time>2021-12-23T12:26:27Z</time>
      </trkpt>
      <trkpt lat="46.41689" lon="5.29496">
        <ele>237</ele>
        <time>2021-12-23T12:26:28Z</time>
      </trkpt>
      <trkpt lat="46.41672" lon="5.29509">
        <ele>237</ele>
        <time>2021-12-23T12:26:32Z</time>
      </trkpt>
      <trkpt lat="46.41668" lon="5.29513">
        <ele>237</ele>
        <time>2021-12-23T12:26:33Z</time>
      </trkpt>
      <trkpt lat="46.41661" lon="5.29522">
        <ele>237</ele>
        <time>2021-12-23T12:26:35Z</time>
      </trkpt>
      <trkpt lat="46.41656" lon="5.29533">
        <ele>237.2</ele>
        <time>2021-12-23T12:26:37Z</time>
      </trkpt>
      <trkpt lat="46.41653" lon="5.2954">
        <ele>237.2</ele>
        <time>2021-12-23T12:26:38Z</time>
      </trkpt>
      <trkpt lat="46.41645" lon="5.29567">
        <ele>237.4</ele>
        <time>2021-12-23T12:26:42Z</time>
      </trkpt>
      <trkpt lat="46.41639" lon="5.29579">
        <ele>237.4</ele>
        <time>2021-12-23T12:26:44Z</time>
      </trkpt>
      <trkpt lat="46.41621" lon="5.29598">
        <ele>237.2</ele>
        <time>2021-12-23T12:26:48Z</time>
      </trkpt>
      <trkpt lat="46.41616" lon="5.29601">
        <ele>237.2</ele>
        <time>2021-12-23T12:26:49Z</time>
      </trkpt>
      <trkpt lat="46.41578" lon="5.29619">
        <ele>237</ele>
        <time>2021-12-23T12:26:56Z</time>
      </trkpt>
      <trkpt lat="46.41547" lon="5.2963">
        <ele>236.8</ele>
        <time>2021-12-23T12:27:02Z</time>
      </trkpt>
      <trkpt lat="46.41542" lon="5.29632">
        <ele>236.8</ele>
        <time>2021-12-23T12:27:03Z</time>
      </trkpt>
      <trkpt lat="46.41536" lon="5.29633">
        <ele>236.8</ele>
        <time>2021-12-23T12:27:04Z</time>
      </trkpt>
      <trkpt lat="46.41516" lon="5.29634">
        <ele>237</ele>
        <time>2021-12-23T12:27:08Z</time>
      </trkpt>
      <trkpt lat="46.41466" lon="5.29639">
        <ele>238</ele>
        <time>2021-12-23T12:27:18Z</time>
      </trkpt>
      <trkpt lat="46.41453" lon="5.2964">
        <ele>238.4</ele>
        <time>2021-12-23T12:27:21Z</time>
      </trkpt>
      <trkpt lat="46.41417" lon="5.29648">
        <ele>238.8</ele>
        <time>2021-12-23T12:27:29Z</time>
      </trkpt>
      <trkpt lat="46.41373" lon="5.2966">
        <ele>239.4</ele>
        <time>2021-12-23T12:27:39Z</time>
      </trkpt>
      <trkpt lat="46.41346" lon="5.29669">
        <ele>239.8</ele>
        <time>2021-12-23T12:27:45Z</time>
      </trkpt>
      <trkpt lat="46.41333" lon="5.29673">
        <ele>239.8</ele>
        <time>2021-12-23T12:27:48Z</time>
      </trkpt>
      <trkpt lat="46.41315" lon="5.29682">
        <ele>240.6</ele>
        <time>2021-12-23T12:27:52Z</time>
      </trkpt>
      <trkpt lat="46.41307" lon="5.2969">
        <ele>240.6</ele>
        <time>2021-12-23T12:27:54Z</time>
      </trkpt>
      <trkpt lat="46.41297" lon="5.29704">
        <ele>240.6</ele>
        <time>2021-12-23T12:27:57Z</time>
      </trkpt>
      <trkpt lat="46.41288" lon="5.29722">
        <ele>240.4</ele>
        <time>2021-12-23T12:28:00Z</time>
      </trkpt>
      <trkpt lat="46.41273" lon="5.2976">
        <ele>240</ele>
        <time>2021-12-23T12:28:06Z</time>
      </trkpt>
      <trkpt lat="46.41272" lon="5.29768">
        <ele>239.8</ele>
        <time>2021-12-23T12:28:07Z</time>
      </trkpt>
      <trkpt lat="46.41271" lon="5.29813">
        <ele>239.4</ele>
        <time>2021-12-23T12:28:13Z</time>
      </trkpt>
      <trkpt lat="46.41274" lon="5.29871">
        <ele>239</ele>
        <time>2021-12-23T12:28:20Z</time>
      </trkpt>
      <trkpt lat="46.41273" lon="5.29879">
        <ele>239</ele>
        <time>2021-12-23T12:28:21Z</time>
      </trkpt>
      <trkpt lat="46.41271" lon="5.29888">
        <ele>238.8</ele>
        <time>2021-12-23T12:28:22Z</time>
      </trkpt>
      <trkpt lat="46.41266" lon="5.29903">
        <ele>238.6</ele>
        <time>2021-12-23T12:28:24Z</time>
      </trkpt>
      <trkpt lat="46.4126" lon="5.29915">
        <ele>238.6</ele>
        <time>2021-12-23T12:28:26Z</time>
      </trkpt>
      <trkpt lat="46.41252" lon="5.29924">
        <ele>239</ele>
        <time>2021-12-23T12:28:28Z</time>
      </trkpt>
      <trkpt lat="46.41227" lon="5.29942">
        <ele>239.6</ele>
        <time>2021-12-23T12:28:34Z</time>
      </trkpt>
      <trkpt lat="46.41215" lon="5.29952">
        <ele>240</ele>
        <time>2021-12-23T12:28:37Z</time>
      </trkpt>
      <trkpt lat="46.41194" lon="5.29968">
        <ele>240.8</ele>
        <time>2021-12-23T12:28:42Z</time>
      </trkpt>
      <trkpt lat="46.41183" lon="5.29972">
        <ele>241</ele>
        <time>2021-12-23T12:28:44Z</time>
      </trkpt>
      <trkpt lat="46.41167" lon="5.29977">
        <ele>241.4</ele>
        <time>2021-12-23T12:28:47Z</time>
      </trkpt>
      <trkpt lat="46.41133" lon="5.29981">
        <ele>242</ele>
        <time>2021-12-23T12:28:53Z</time>
      </trkpt>
      <trkpt lat="46.41127" lon="5.29981">
        <ele>242</ele>
        <time>2021-12-23T12:28:54Z</time>
      </trkpt>
      <trkpt lat="46.41108" lon="5.29983">
        <ele>241.8</ele>
        <time>2021-12-23T12:28:57Z</time>
      </trkpt>
      <trkpt lat="46.41102" lon="5.29983">
        <ele>241.8</ele>
        <time>2021-12-23T12:28:58Z</time>
      </trkpt>
      <trkpt lat="46.41095" lon="5.29985">
        <ele>241.8</ele>
        <time>2021-12-23T12:28:59Z</time>
      </trkpt>
      <trkpt lat="46.4107" lon="5.29991">
        <ele>241.8</ele>
        <time>2021-12-23T12:29:03Z</time>
      </trkpt>
      <trkpt lat="46.41036" lon="5.29995">
        <ele>241.8</ele>
        <time>2021-12-23T12:29:09Z</time>
      </trkpt>
      <trkpt lat="46.40998" lon="5.3">
        <ele>241.6</ele>
        <time>2021-12-23T12:29:16Z</time>
      </trkpt>
      <trkpt lat="46.40961" lon="5.30005">
        <ele>241.6</ele>
        <time>2021-12-23T12:29:23Z</time>
      </trkpt>
      <trkpt lat="46.40952" lon="5.30004">
        <ele>241.6</ele>
        <time>2021-12-23T12:29:25Z</time>
      </trkpt>
      <trkpt lat="46.40943" lon="5.30003">
        <ele>241.8</ele>
        <time>2021-12-23T12:29:27Z</time>
      </trkpt>
      <trkpt lat="46.40938" lon="5.30002">
        <ele>242</ele>
        <time>2021-12-23T12:29:28Z</time>
      </trkpt>
      <trkpt lat="46.40928" lon="5.3">
        <ele>242</ele>
        <time>2021-12-23T12:29:30Z</time>
      </trkpt>
      <trkpt lat="46.40906" lon="5.29998">
        <ele>242.2</ele>
        <time>2021-12-23T12:29:34Z</time>
      </trkpt>
      <trkpt lat="46.40865" lon="5.29996">
        <ele>242.6</ele>
        <time>2021-12-23T12:29:42Z</time>
      </trkpt>
      <trkpt lat="46.40854" lon="5.29994">
        <ele>243.2</ele>
        <time>2021-12-23T12:29:44Z</time>
      </trkpt>
      <trkpt lat="46.40848" lon="5.29993">
        <ele>243.4</ele>
        <time>2021-12-23T12:29:45Z</time>
      </trkpt>
      <trkpt lat="46.40836" lon="5.29988">
        <ele>243.4</ele>
        <time>2021-12-23T12:29:47Z</time>
      </trkpt>
      <trkpt lat="46.40824" lon="5.29983">
        <ele>243.6</ele>
        <time>2021-12-23T12:29:49Z</time>
      </trkpt>
      <trkpt lat="46.40806" lon="5.29974">
        <ele>243.6</ele>
        <time>2021-12-23T12:29:52Z</time>
      </trkpt>
      <trkpt lat="46.40767" lon="5.29961">
        <ele>243</ele>
        <time>2021-12-23T12:29:58Z</time>
      </trkpt>
      <trkpt lat="46.40754" lon="5.29953">
        <ele>243</ele>
        <time>2021-12-23T12:30:00Z</time>
      </trkpt>
      <trkpt lat="46.40737" lon="5.29945">
        <ele>243</ele>
        <time>2021-12-23T12:30:03Z</time>
      </trkpt>
      <trkpt lat="46.40692" lon="5.29925">
        <ele>242.8</ele>
        <time>2021-12-23T12:30:11Z</time>
      </trkpt>
      <trkpt lat="46.40674" lon="5.29912">
        <ele>243.2</ele>
        <time>2021-12-23T12:30:15Z</time>
      </trkpt>
      <trkpt lat="46.40665" lon="5.29904">
        <ele>243.4</ele>
        <time>2021-12-23T12:30:17Z</time>
      </trkpt>
      <trkpt lat="46.4066" lon="5.29901">
        <ele>243.4</ele>
        <time>2021-12-23T12:30:18Z</time>
      </trkpt>
      <trkpt lat="46.40635" lon="5.29874">
        <ele>243.4</ele>
        <time>2021-12-23T12:30:24Z</time>
      </trkpt>
      <trkpt lat="46.4061" lon="5.29845">
        <ele>244.2</ele>
        <time>2021-12-23T12:30:30Z</time>
      </trkpt>
      <trkpt lat="46.40606" lon="5.29841">
        <ele>244.2</ele>
        <time>2021-12-23T12:30:31Z</time>
      </trkpt>
      <trkpt lat="46.40588" lon="5.29828">
        <ele>244.4</ele>
        <time>2021-12-23T12:30:35Z</time>
      </trkpt>
      <trkpt lat="46.40583" lon="5.29826">
        <ele>244.4</ele>
        <time>2021-12-23T12:30:36Z</time>
      </trkpt>
      <trkpt lat="46.40543" lon="5.29822">
        <ele>244.8</ele>
        <time>2021-12-23T12:30:44Z</time>
      </trkpt>
      <trkpt lat="46.40518" lon="5.29822">
        <ele>245.4</ele>
        <time>2021-12-23T12:30:49Z</time>
      </trkpt>
      <trkpt lat="46.40503" lon="5.29821">
        <ele>245.6</ele>
        <time>2021-12-23T12:30:52Z</time>
      </trkpt>
      <trkpt lat="46.40451" lon="5.29816">
        <ele>245</ele>
        <time>2021-12-23T12:31:02Z</time>
      </trkpt>
      <trkpt lat="46.40397" lon="5.29809">
        <ele>245.4</ele>
        <time>2021-12-23T12:31:13Z</time>
      </trkpt>
      <trkpt lat="46.40342" lon="5.29802">
        <ele>245.4</ele>
        <time>2021-12-23T12:31:24Z</time>
      </trkpt>
      <trkpt lat="46.40292" lon="5.29795">
        <ele>245</ele>
        <time>2021-12-23T12:31:34Z</time>
      </trkpt>
      <trkpt lat="46.40236" lon="5.29786">
        <ele>244.8</ele>
        <time>2021-12-23T12:31:45Z</time>
      </trkpt>
      <trkpt lat="46.4021" lon="5.29782">
        <ele>245</ele>
        <time>2021-12-23T12:31:51Z</time>
      </trkpt>
      <trkpt lat="46.40206" lon="5.29781">
        <ele>245</ele>
        <time>2021-12-23T12:31:52Z</time>
      </trkpt>
      <trkpt lat="46.40193" lon="5.2978">
        <ele>244.4</ele>
        <time>2021-12-23T12:31:55Z</time>
      </trkpt>
      <trkpt lat="46.4019" lon="5.2978">
        <ele>244.4</ele>
        <time>2021-12-23T12:31:56Z</time>
      </trkpt>
      <trkpt lat="46.40185" lon="5.2978">
        <ele>244.2</ele>
        <time>2021-12-23T12:31:57Z</time>
      </trkpt>
      <trkpt lat="46.40179" lon="5.29779">
        <ele>244</ele>
        <time>2021-12-23T12:31:58Z</time>
      </trkpt>
      <trkpt lat="46.40168" lon="5.29778">
        <ele>244</ele>
        <time>2021-12-23T12:32:00Z</time>
      </trkpt>
      <trkpt lat="46.40158" lon="5.29779">
        <ele>243.8</ele>
        <time>2021-12-23T12:32:02Z</time>
      </trkpt>
      <trkpt lat="46.40118" lon="5.29784">
        <ele>244</ele>
        <time>2021-12-23T12:32:10Z</time>
      </trkpt>
      <trkpt lat="46.40071" lon="5.29789">
        <ele>244.6</ele>
        <time>2021-12-23T12:32:20Z</time>
      </trkpt>
      <trkpt lat="46.40019" lon="5.29796">
        <ele>243.8</ele>
        <time>2021-12-23T12:32:31Z</time>
      </trkpt>
      <trkpt lat="46.39988" lon="5.298">
        <ele>243.4</ele>
        <time>2021-12-23T12:32:37Z</time>
      </trkpt>
      <trkpt lat="46.39961" lon="5.29803">
        <ele>243</ele>
        <time>2021-12-23T12:32:42Z</time>
      </trkpt>
      <trkpt lat="46.39923" lon="5.29808">
        <ele>242.4</ele>
        <time>2021-12-23T12:32:49Z</time>
      </trkpt>
      <trkpt lat="46.3991" lon="5.2981">
        <ele>241.8</ele>
        <time>2021-12-23T12:32:51Z</time>
      </trkpt>
      <trkpt lat="46.39885" lon="5.29813">
        <ele>241.4</ele>
        <time>2021-12-23T12:32:55Z</time>
      </trkpt>
      <trkpt lat="46.39865" lon="5.29815">
        <ele>240</ele>
        <time>2021-12-23T12:32:58Z</time>
      </trkpt>
      <trkpt lat="46.39838" lon="5.29814">
        <ele>239</ele>
        <time>2021-12-23T12:33:02Z</time>
      </trkpt>
      <trkpt lat="46.39824" lon="5.29815">
        <ele>238.8</ele>
        <time>2021-12-23T12:33:04Z</time>
      </trkpt>
      <trkpt lat="46.39806" lon="5.29818">
        <ele>238</ele>
        <time>2021-12-23T12:33:06Z</time>
      </trkpt>
      <trkpt lat="46.39789" lon="5.29821">
        <ele>236.6</ele>
        <time>2021-12-23T12:33:08Z</time>
      </trkpt>
      <trkpt lat="46.39782" lon="5.29822">
        <ele>236</ele>
        <time>2021-12-23T12:33:09Z</time>
      </trkpt>
      <trkpt lat="46.39773" lon="5.29823">
        <ele>235.4</ele>
        <time>2021-12-23T12:33:10Z</time>
      </trkpt>
      <trkpt lat="46.39753" lon="5.29827">
        <ele>233.8</ele>
        <time>2021-12-23T12:33:12Z</time>
      </trkpt>
      <trkpt lat="46.39743" lon="5.29828">
        <ele>232.6</ele>
        <time>2021-12-23T12:33:13Z</time>
      </trkpt>
      <trkpt lat="46.39725" lon="5.29829">
        <ele>231.2</ele>
        <time>2021-12-23T12:33:15Z</time>
      </trkpt>
      <trkpt lat="46.39704" lon="5.2983">
        <ele>229.8</ele>
        <time>2021-12-23T12:33:17Z</time>
      </trkpt>
      <trkpt lat="46.39695" lon="5.2983">
        <ele>228.4</ele>
        <time>2021-12-23T12:33:18Z</time>
      </trkpt>
      <trkpt lat="46.39677" lon="5.29828">
        <ele>227</ele>
        <time>2021-12-23T12:33:20Z</time>
      </trkpt>
      <trkpt lat="46.39665" lon="5.29822">
        <ele>226.4</ele>
        <time>2021-12-23T12:33:21Z</time>
      </trkpt>
      <trkpt lat="46.39656" lon="5.29814">
        <ele>226</ele>
        <time>2021-12-23T12:33:22Z</time>
      </trkpt>
      <trkpt lat="46.39639" lon="5.29793">
        <ele>224.4</ele>
        <time>2021-12-23T12:33:24Z</time>
      </trkpt>
      <trkpt lat="46.39633" lon="5.29785">
        <ele>223.2</ele>
        <time>2021-12-23T12:33:25Z</time>
      </trkpt>
      <trkpt lat="46.39617" lon="5.2976">
        <ele>221</ele>
        <time>2021-12-23T12:33:27Z</time>
      </trkpt>
      <trkpt lat="46.39604" lon="5.29742">
        <ele>219.4</ele>
        <time>2021-12-23T12:33:29Z</time>
      </trkpt>
      <trkpt lat="46.39596" lon="5.29733">
        <ele>218.4</ele>
        <time>2021-12-23T12:33:30Z</time>
      </trkpt>
      <trkpt lat="46.39587" lon="5.29725">
        <ele>218</ele>
        <time>2021-12-23T12:33:31Z</time>
      </trkpt>
      <trkpt lat="46.39572" lon="5.29716">
        <ele>217.6</ele>
        <time>2021-12-23T12:33:33Z</time>
      </trkpt>
      <trkpt lat="46.39564" lon="5.29713">
        <ele>217</ele>
        <time>2021-12-23T12:33:34Z</time>
      </trkpt>
      <trkpt lat="46.39547" lon="5.29711">
        <ele>216.8</ele>
        <time>2021-12-23T12:33:36Z</time>
      </trkpt>
      <trkpt lat="46.39506" lon="5.29711">
        <ele>216.6</ele>
        <time>2021-12-23T12:33:42Z</time>
      </trkpt>
      <trkpt lat="46.39474" lon="5.29708">
        <ele>217.6</ele>
        <time>2021-12-23T12:33:48Z</time>
      </trkpt>
      <trkpt lat="46.39464" lon="5.29707">
        <ele>218.4</ele>
        <time>2021-12-23T12:33:50Z</time>
      </trkpt>
      <trkpt lat="46.39448" lon="5.29706">
        <ele>219.6</ele>
        <time>2021-12-23T12:33:54Z</time>
      </trkpt>
      <trkpt lat="46.39443" lon="5.29706">
        <ele>219.8</ele>
        <time>2021-12-23T12:33:55Z</time>
      </trkpt>
      <trkpt lat="46.39429" lon="5.29708">
        <ele>220.8</ele>
        <time>2021-12-23T12:33:59Z</time>
      </trkpt>
      <trkpt lat="46.39422" lon="5.2971">
        <ele>221.4</ele>
        <time>2021-12-23T12:34:01Z</time>
      </trkpt>
      <trkpt lat="46.39417" lon="5.29714">
        <ele>221.8</ele>
        <time>2021-12-23T12:34:03Z</time>
      </trkpt>
      <trkpt lat="46.39409" lon="5.2972">
        <ele>222.6</ele>
        <time>2021-12-23T12:34:06Z</time>
      </trkpt>
      <trkpt lat="46.39405" lon="5.29725">
        <ele>223</ele>
        <time>2021-12-23T12:34:08Z</time>
      </trkpt>
      <trkpt lat="46.39399" lon="5.29733">
        <ele>223.4</ele>
        <time>2021-12-23T12:34:11Z</time>
      </trkpt>
      <trkpt lat="46.39395" lon="5.29737">
        <ele>224.4</ele>
        <time>2021-12-23T12:34:13Z</time>
      </trkpt>
      <trkpt lat="46.39386" lon="5.29749">
        <ele>225</ele>
        <time>2021-12-23T12:34:17Z</time>
      </trkpt>
      <trkpt lat="46.39381" lon="5.29755">
        <ele>225.4</ele>
        <time>2021-12-23T12:34:19Z</time>
      </trkpt>
      <trkpt lat="46.39367" lon="5.29773">
        <ele>226.8</ele>
        <time>2021-12-23T12:34:24Z</time>
      </trkpt>
      <trkpt lat="46.39359" lon="5.2979">
        <ele>228</ele>
        <time>2021-12-23T12:34:28Z</time>
      </trkpt>
      <trkpt lat="46.39352" lon="5.2981">
        <ele>228.6</ele>
        <time>2021-12-23T12:34:32Z</time>
      </trkpt>
      <trkpt lat="46.3935" lon="5.29819">
        <ele>229</ele>
        <time>2021-12-23T12:34:34Z</time>
      </trkpt>
      <trkpt lat="46.39338" lon="5.29854">
        <ele>230</ele>
        <time>2021-12-23T12:34:42Z</time>
      </trkpt>
      <trkpt lat="46.39336" lon="5.29858">
        <ele>230.4</ele>
        <time>2021-12-23T12:34:43Z</time>
      </trkpt>
      <trkpt lat="46.39322" lon="5.29881">
        <ele>231.2</ele>
        <time>2021-12-23T12:34:49Z</time>
      </trkpt>
      <trkpt lat="46.39319" lon="5.29885">
        <ele>231.4</ele>
        <time>2021-12-23T12:34:50Z</time>
      </trkpt>
      <trkpt lat="46.39302" lon="5.299">
        <ele>232.4</ele>
        <time>2021-12-23T12:34:56Z</time>
      </trkpt>
      <trkpt lat="46.39299" lon="5.29902">
        <ele>232.4</ele>
        <time>2021-12-23T12:34:57Z</time>
      </trkpt>
      <trkpt lat="46.39285" lon="5.29906">
        <ele>233.6</ele>
        <time>2021-12-23T12:35:01Z</time>
      </trkpt>
      <trkpt lat="46.39268" lon="5.29911">
        <ele>234</ele>
        <time>2021-12-23T12:35:05Z</time>
      </trkpt>
      <trkpt lat="46.39234" lon="5.29921">
        <ele>233.6</ele>
        <time>2021-12-23T12:35:12Z</time>
      </trkpt>
      <trkpt lat="46.39188" lon="5.2993">
        <ele>232.8</ele>
        <time>2021-12-23T12:35:20Z</time>
      </trkpt>
      <trkpt lat="46.39184" lon="5.29931">
        <ele>232.4</ele>
        <time>2021-12-23T12:35:21Z</time>
      </trkpt>
      <trkpt lat="46.39164" lon="5.29932">
        <ele>231.8</ele>
        <time>2021-12-23T12:35:24Z</time>
      </trkpt>
      <trkpt lat="46.39153" lon="5.29928">
        <ele>231.2</ele>
        <time>2021-12-23T12:35:26Z</time>
      </trkpt>
      <trkpt lat="46.3914" lon="5.29922">
        <ele>230.8</ele>
        <time>2021-12-23T12:35:28Z</time>
      </trkpt>
      <trkpt lat="46.39125" lon="5.29909">
        <ele>230.2</ele>
        <time>2021-12-23T12:35:31Z</time>
      </trkpt>
      <trkpt lat="46.39119" lon="5.29903">
        <ele>230</ele>
        <time>2021-12-23T12:35:32Z</time>
      </trkpt>
      <trkpt lat="46.39091" lon="5.29884">
        <ele>228.8</ele>
        <time>2021-12-23T12:35:36Z</time>
      </trkpt>
      <trkpt lat="46.3906" lon="5.29872">
        <ele>228</ele>
        <time>2021-12-23T12:35:40Z</time>
      </trkpt>
      <trkpt lat="46.39052" lon="5.29869">
        <ele>227.6</ele>
        <time>2021-12-23T12:35:41Z</time>
      </trkpt>
      <trkpt lat="46.39035" lon="5.29864">
        <ele>226.6</ele>
        <time>2021-12-23T12:35:43Z</time>
      </trkpt>
      <trkpt lat="46.39026" lon="5.29862">
        <ele>225.6</ele>
        <time>2021-12-23T12:35:44Z</time>
      </trkpt>
      <trkpt lat="46.39007" lon="5.29858">
        <ele>224.2</ele>
        <time>2021-12-23T12:35:46Z</time>
      </trkpt>
      <trkpt lat="46.38989" lon="5.29857">
        <ele>222.6</ele>
        <time>2021-12-23T12:35:48Z</time>
      </trkpt>
      <trkpt lat="46.38979" lon="5.29856">
        <ele>221.6</ele>
        <time>2021-12-23T12:35:49Z</time>
      </trkpt>
      <trkpt lat="46.38961" lon="5.29856">
        <ele>220</ele>
        <time>2021-12-23T12:35:51Z</time>
      </trkpt>
      <trkpt lat="46.38944" lon="5.29855">
        <ele>219</ele>
        <time>2021-12-23T12:35:53Z</time>
      </trkpt>
      <trkpt lat="46.38936" lon="5.29854">
        <ele>217.8</ele>
        <time>2021-12-23T12:35:54Z</time>
      </trkpt>
      <trkpt lat="46.38914" lon="5.29853">
        <ele>216.6</ele>
        <time>2021-12-23T12:35:57Z</time>
      </trkpt>
      <trkpt lat="46.389" lon="5.29853">
        <ele>216</ele>
        <time>2021-12-23T12:35:59Z</time>
      </trkpt>
      <trkpt lat="46.3888" lon="5.29852">
        <ele>215.8</ele>
        <time>2021-12-23T12:36:02Z</time>
      </trkpt>
      <trkpt lat="46.38843" lon="5.29851">
        <ele>215.4</ele>
        <time>2021-12-23T12:36:08Z</time>
      </trkpt>
      <trkpt lat="46.38798" lon="5.2985">
        <ele>215.4</ele>
        <time>2021-12-23T12:36:16Z</time>
      </trkpt>
      <trkpt lat="46.38757" lon="5.29846">
        <ele>215.4</ele>
        <time>2021-12-23T12:36:24Z</time>
      </trkpt>
      <trkpt lat="46.38752" lon="5.29843">
        <ele>215.4</ele>
        <time>2021-12-23T12:36:25Z</time>
      </trkpt>
      <trkpt lat="46.38749" lon="5.29838">
        <ele>215.2</ele>
        <time>2021-12-23T12:36:26Z</time>
      </trkpt>
      <trkpt lat="46.38748" lon="5.29832">
        <ele>215.2</ele>
        <time>2021-12-23T12:36:27Z</time>
      </trkpt>
      <trkpt lat="46.38749" lon="5.29825">
        <ele>215.2</ele>
        <time>2021-12-23T12:36:28Z</time>
      </trkpt>
      <trkpt lat="46.38754" lon="5.2981">
        <ele>215.4</ele>
        <time>2021-12-23T12:36:30Z</time>
      </trkpt>
      <trkpt lat="46.38763" lon="5.29779">
        <ele>215.4</ele>
        <time>2021-12-23T12:36:34Z</time>
      </trkpt>
      <trkpt lat="46.38765" lon="5.29762">
        <ele>215.4</ele>
        <time>2021-12-23T12:36:36Z</time>
      </trkpt>
      <trkpt lat="46.38763" lon="5.29745">
        <ele>215.2</ele>
        <time>2021-12-23T12:36:38Z</time>
      </trkpt>
      <trkpt lat="46.38761" lon="5.29737">
        <ele>215.2</ele>
        <time>2021-12-23T12:36:39Z</time>
      </trkpt>
      <trkpt lat="46.38759" lon="5.2973">
        <ele>215.2</ele>
        <time>2021-12-23T12:36:40Z</time>
      </trkpt>
      <trkpt lat="46.38748" lon="5.2971">
        <ele>215.4</ele>
        <time>2021-12-23T12:36:43Z</time>
      </trkpt>
      <trkpt lat="46.3873" lon="5.29693">
        <ele>215.4</ele>
        <time>2021-12-23T12:36:47Z</time>
      </trkpt>
      <trkpt lat="46.38713" lon="5.29679">
        <ele>215.6</ele>
        <time>2021-12-23T12:36:52Z</time>
      </trkpt>
      <trkpt lat="46.38698" lon="5.29663">
        <ele>216.8</ele>
        <time>2021-12-23T12:36:57Z</time>
      </trkpt>
      <trkpt lat="46.38691" lon="5.29652">
        <ele>217.4</ele>
        <time>2021-12-23T12:37:00Z</time>
      </trkpt>
      <trkpt lat="46.38686" lon="5.29639">
        <ele>217.8</ele>
        <time>2021-12-23T12:37:03Z</time>
      </trkpt>
      <trkpt lat="46.38683" lon="5.29624">
        <ele>218.8</ele>
        <time>2021-12-23T12:37:06Z</time>
      </trkpt>
      <trkpt lat="46.38682" lon="5.29619">
        <ele>219.2</ele>
        <time>2021-12-23T12:37:07Z</time>
      </trkpt>
      <trkpt lat="46.3868" lon="5.29593">
        <ele>220.2</ele>
        <time>2021-12-23T12:37:12Z</time>
      </trkpt>
      <trkpt lat="46.38679" lon="5.29575">
        <ele>221.6</ele>
        <time>2021-12-23T12:37:16Z</time>
      </trkpt>
      <trkpt lat="46.38677" lon="5.29555">
        <ele>222.8</ele>
        <time>2021-12-23T12:37:20Z</time>
      </trkpt>
      <trkpt lat="46.38676" lon="5.29539">
        <ele>224</ele>
        <time>2021-12-23T12:37:23Z</time>
      </trkpt>
      <trkpt lat="46.38676" lon="5.29533">
        <ele>224.2</ele>
        <time>2021-12-23T12:37:24Z</time>
      </trkpt>
      <trkpt lat="46.38678" lon="5.29503">
        <ele>225</ele>
        <time>2021-12-23T12:37:30Z</time>
      </trkpt>
      <trkpt lat="46.38679" lon="5.29494">
        <ele>225.2</ele>
        <time>2021-12-23T12:37:32Z</time>
      </trkpt>
      <trkpt lat="46.3868" lon="5.2948">
        <ele>226</ele>
        <time>2021-12-23T12:37:35Z</time>
      </trkpt>
      <trkpt lat="46.38683" lon="5.29457">
        <ele>227.2</ele>
        <time>2021-12-23T12:37:40Z</time>
      </trkpt>
      <trkpt lat="46.38683" lon="5.29452">
        <ele>227.8</ele>
        <time>2021-12-23T12:37:41Z</time>
      </trkpt>
      <trkpt lat="46.38684" lon="5.29443">
        <ele>228.4</ele>
        <time>2021-12-23T12:37:43Z</time>
      </trkpt>
      <trkpt lat="46.38686" lon="5.29416">
        <ele>229.6</ele>
        <time>2021-12-23T12:37:49Z</time>
      </trkpt>
      <trkpt lat="46.38686" lon="5.29394">
        <ele>230.8</ele>
        <time>2021-12-23T12:37:54Z</time>
      </trkpt>
      <trkpt lat="46.38685" lon="5.2938">
        <ele>231.4</ele>
        <time>2021-12-23T12:37:57Z</time>
      </trkpt>
      <trkpt lat="46.38685" lon="5.29371">
        <ele>231.8</ele>
        <time>2021-12-23T12:37:59Z</time>
      </trkpt>
      <trkpt lat="46.38684" lon="5.29337">
        <ele>233.2</ele>
        <time>2021-12-23T12:38:06Z</time>
      </trkpt>
      <trkpt lat="46.38684" lon="5.29332">
        <ele>233.4</ele>
        <time>2021-12-23T12:38:07Z</time>
      </trkpt>
      <trkpt lat="46.38688" lon="5.29308">
        <ele>234.6</ele>
        <time>2021-12-23T12:38:12Z</time>
      </trkpt>
      <trkpt lat="46.38699" lon="5.29276">
        <ele>234.8</ele>
        <time>2021-12-23T12:38:19Z</time>
      </trkpt>
      <trkpt lat="46.38703" lon="5.29248">
        <ele>235.4</ele>
        <time>2021-12-23T12:38:25Z</time>
      </trkpt>
      <trkpt lat="46.38705" lon="5.29238">
        <ele>235.6</ele>
        <time>2021-12-23T12:38:27Z</time>
      </trkpt>
      <trkpt lat="46.38705" lon="5.29217">
        <ele>236.2</ele>
        <time>2021-12-23T12:38:31Z</time>
      </trkpt>
      <trkpt lat="46.38704" lon="5.292">
        <ele>236.8</ele>
        <time>2021-12-23T12:38:34Z</time>
      </trkpt>
      <trkpt lat="46.38701" lon="5.29164">
        <ele>237.4</ele>
        <time>2021-12-23T12:38:40Z</time>
      </trkpt>
      <trkpt lat="46.38697" lon="5.2914">
        <ele>237.8</ele>
        <time>2021-12-23T12:38:44Z</time>
      </trkpt>
      <trkpt lat="46.38692" lon="5.29121">
        <ele>238.2</ele>
        <time>2021-12-23T12:38:47Z</time>
      </trkpt>
      <trkpt lat="46.38691" lon="5.29115">
        <ele>238.2</ele>
        <time>2021-12-23T12:38:48Z</time>
      </trkpt>
      <trkpt lat="46.38688" lon="5.29089">
        <ele>238.2</ele>
        <time>2021-12-23T12:38:52Z</time>
      </trkpt>
      <trkpt lat="46.38685" lon="5.29066">
        <ele>238.4</ele>
        <time>2021-12-23T12:38:56Z</time>
      </trkpt>
      <trkpt lat="46.38683" lon="5.29041">
        <ele>238.6</ele>
        <time>2021-12-23T12:39:00Z</time>
      </trkpt>
      <trkpt lat="46.38679" lon="5.29021">
        <ele>239</ele>
        <time>2021-12-23T12:39:03Z</time>
      </trkpt>
      <trkpt lat="46.38665" lon="5.28965">
        <ele>239.2</ele>
        <time>2021-12-23T12:39:11Z</time>
      </trkpt>
      <trkpt lat="46.38655" lon="5.28923">
        <ele>238.8</ele>
        <time>2021-12-23T12:39:17Z</time>
      </trkpt>
      <trkpt lat="46.38654" lon="5.28917">
        <ele>238.8</ele>
        <time>2021-12-23T12:39:18Z</time>
      </trkpt>
      <trkpt lat="46.38653" lon="5.28911">
        <ele>239</ele>
        <time>2021-12-23T12:39:19Z</time>
      </trkpt>
      <trkpt lat="46.38647" lon="5.28894">
        <ele>239</ele>
        <time>2021-12-23T12:39:22Z</time>
      </trkpt>
      <trkpt lat="46.38638" lon="5.28878">
        <ele>239.2</ele>
        <time>2021-12-23T12:39:25Z</time>
      </trkpt>
      <trkpt lat="46.38632" lon="5.28868">
        <ele>239.2</ele>
        <time>2021-12-23T12:39:27Z</time>
      </trkpt>
      <trkpt lat="46.38628" lon="5.28864">
        <ele>239.2</ele>
        <time>2021-12-23T12:39:28Z</time>
      </trkpt>
      <trkpt lat="46.38625" lon="5.28861">
        <ele>239.2</ele>
        <time>2021-12-23T12:39:29Z</time>
      </trkpt>
      <trkpt lat="46.3862" lon="5.28852">
        <ele>239.4</ele>
        <time>2021-12-23T12:39:31Z</time>
      </trkpt>
      <trkpt lat="46.38611" lon="5.28839">
        <ele>239.6</ele>
        <time>2021-12-23T12:39:33Z</time>
      </trkpt>
      <trkpt lat="46.386" lon="5.28812">
        <ele>239.8</ele>
        <time>2021-12-23T12:39:37Z</time>
      </trkpt>
      <trkpt lat="46.38598" lon="5.28805">
        <ele>240</ele>
        <time>2021-12-23T12:39:38Z</time>
      </trkpt>
      <trkpt lat="46.38595" lon="5.28792">
        <ele>240.2</ele>
        <time>2021-12-23T12:39:40Z</time>
      </trkpt>
      <trkpt lat="46.38593" lon="5.28773">
        <ele>240.4</ele>
        <time>2021-12-23T12:39:43Z</time>
      </trkpt>
      <trkpt lat="46.38593" lon="5.28752">
        <ele>240.6</ele>
        <time>2021-12-23T12:39:46Z</time>
      </trkpt>
      <trkpt lat="46.38593" lon="5.28738">
        <ele>241</ele>
        <time>2021-12-23T12:39:48Z</time>
      </trkpt>
      <trkpt lat="46.38593" lon="5.28732">
        <ele>241.2</ele>
        <time>2021-12-23T12:39:49Z</time>
      </trkpt>
      <trkpt lat="46.38591" lon="5.28705">
        <ele>242.2</ele>
        <time>2021-12-23T12:39:53Z</time>
      </trkpt>
      <trkpt lat="46.3859" lon="5.28697">
        <ele>242.4</ele>
        <time>2021-12-23T12:39:54Z</time>
      </trkpt>
      <trkpt lat="46.38588" lon="5.28691">
        <ele>242.6</ele>
        <time>2021-12-23T12:39:55Z</time>
      </trkpt>
      <trkpt lat="46.38587" lon="5.28683">
        <ele>243</ele>
        <time>2021-12-23T12:39:57Z</time>
      </trkpt>
      <trkpt lat="46.38587" lon="5.2866">
        <ele>243.4</ele>
        <time>2021-12-23T12:40:01Z</time>
      </trkpt>
      <trkpt lat="46.38587" lon="5.28654">
        <ele>243.6</ele>
        <time>2021-12-23T12:40:02Z</time>
      </trkpt>
      <trkpt lat="46.38578" lon="5.28625">
        <ele>244.4</ele>
        <time>2021-12-23T12:40:06Z</time>
      </trkpt>
      <trkpt lat="46.38576" lon="5.2862">
        <ele>244.6</ele>
        <time>2021-12-23T12:40:07Z</time>
      </trkpt>
      <trkpt lat="46.38557" lon="5.28603">
        <ele>245.2</ele>
        <time>2021-12-23T12:40:11Z</time>
      </trkpt>
      <trkpt lat="46.38546" lon="5.28596">
        <ele>245.2</ele>
        <time>2021-12-23T12:40:13Z</time>
      </trkpt>
      <trkpt lat="46.38533" lon="5.28591">
        <ele>245.2</ele>
        <time>2021-12-23T12:40:16Z</time>
      </trkpt>
      <trkpt lat="46.38527" lon="5.28589">
        <ele>245.2</ele>
        <time>2021-12-23T12:40:17Z</time>
      </trkpt>
      <trkpt lat="46.38507" lon="5.28589">
        <ele>245.4</ele>
        <time>2021-12-23T12:40:21Z</time>
      </trkpt>
      <trkpt lat="46.38486" lon="5.2858">
        <ele>245.4</ele>
        <time>2021-12-23T12:40:25Z</time>
      </trkpt>
      <trkpt lat="46.38464" lon="5.28576">
        <ele>245.2</ele>
        <time>2021-12-23T12:40:29Z</time>
      </trkpt>
      <trkpt lat="46.3846" lon="5.28573">
        <ele>245.2</ele>
        <time>2021-12-23T12:40:30Z</time>
      </trkpt>
      <trkpt lat="46.38451" lon="5.28569">
        <ele>245.2</ele>
        <time>2021-12-23T12:40:32Z</time>
      </trkpt>
      <trkpt lat="46.38436" lon="5.28565">
        <ele>245</ele>
        <time>2021-12-23T12:40:35Z</time>
      </trkpt>
      <trkpt lat="46.38424" lon="5.28561">
        <ele>244.8</ele>
        <time>2021-12-23T12:40:37Z</time>
      </trkpt>
      <trkpt lat="46.38406" lon="5.28559">
        <ele>244.6</ele>
        <time>2021-12-23T12:40:40Z</time>
      </trkpt>
      <trkpt lat="46.38388" lon="5.28556">
        <ele>244.6</ele>
        <time>2021-12-23T12:40:43Z</time>
      </trkpt>
      <trkpt lat="46.38377" lon="5.28555">
        <ele>244.6</ele>
        <time>2021-12-23T12:40:45Z</time>
      </trkpt>
      <trkpt lat="46.38371" lon="5.28554">
        <ele>244.6</ele>
        <time>2021-12-23T12:40:46Z</time>
      </trkpt>
      <trkpt lat="46.38363" lon="5.2855">
        <ele>244.6</ele>
        <time>2021-12-23T12:40:47Z</time>
      </trkpt>
      <trkpt lat="46.38346" lon="5.28534">
        <ele>244.6</ele>
        <time>2021-12-23T12:40:50Z</time>
      </trkpt>
      <trkpt lat="46.38341" lon="5.28527">
        <ele>244.6</ele>
        <time>2021-12-23T12:40:51Z</time>
      </trkpt>
      <trkpt lat="46.38323" lon="5.28504">
        <ele>244.6</ele>
        <time>2021-12-23T12:40:55Z</time>
      </trkpt>
      <trkpt lat="46.38285" lon="5.28459">
        <ele>244.8</ele>
        <time>2021-12-23T12:41:04Z</time>
      </trkpt>
      <trkpt lat="46.38242" lon="5.2841">
        <ele>244</ele>
        <time>2021-12-23T12:41:13Z</time>
      </trkpt>
      <trkpt lat="46.38237" lon="5.28404">
        <ele>243.6</ele>
        <time>2021-12-23T12:41:14Z</time>
      </trkpt>
      <trkpt lat="46.38228" lon="5.2839">
        <ele>243.2</ele>
        <time>2021-12-23T12:41:16Z</time>
      </trkpt>
      <trkpt lat="46.38207" lon="5.28358">
        <ele>242</ele>
        <time>2021-12-23T12:41:20Z</time>
      </trkpt>
      <trkpt lat="46.38191" lon="5.28334">
        <ele>241</ele>
        <time>2021-12-23T12:41:23Z</time>
      </trkpt>
      <trkpt lat="46.38178" lon="5.28323">
        <ele>240.2</ele>
        <time>2021-12-23T12:41:25Z</time>
      </trkpt>
      <trkpt lat="46.38164" lon="5.28313">
        <ele>239.8</ele>
        <time>2021-12-23T12:41:27Z</time>
      </trkpt>
      <trkpt lat="46.38135" lon="5.28297">
        <ele>238.6</ele>
        <time>2021-12-23T12:41:31Z</time>
      </trkpt>
      <trkpt lat="46.38098" lon="5.28268">
        <ele>237.2</ele>
        <time>2021-12-23T12:41:36Z</time>
      </trkpt>
      <trkpt lat="46.38091" lon="5.28261">
        <ele>236.8</ele>
        <time>2021-12-23T12:41:37Z</time>
      </trkpt>
      <trkpt lat="46.38076" lon="5.28247">
        <ele>235.8</ele>
        <time>2021-12-23T12:41:39Z</time>
      </trkpt>
      <trkpt lat="46.38053" lon="5.28225">
        <ele>234.8</ele>
        <time>2021-12-23T12:41:42Z</time>
      </trkpt>
      <trkpt lat="46.3804" lon="5.2821">
        <ele>233.8</ele>
        <time>2021-12-23T12:41:44Z</time>
      </trkpt>
      <trkpt lat="46.38034" lon="5.28202">
        <ele>233.6</ele>
        <time>2021-12-23T12:41:45Z</time>
      </trkpt>
      <trkpt lat="46.38029" lon="5.28195">
        <ele>232.8</ele>
        <time>2021-12-23T12:41:46Z</time>
      </trkpt>
      <trkpt lat="46.38024" lon="5.28189">
        <ele>232.6</ele>
        <time>2021-12-23T12:41:47Z</time>
      </trkpt>
      <trkpt lat="46.38018" lon="5.28186">
        <ele>232.2</ele>
        <time>2021-12-23T12:41:48Z</time>
      </trkpt>
      <trkpt lat="46.38007" lon="5.28184">
        <ele>231.2</ele>
        <time>2021-12-23T12:41:50Z</time>
      </trkpt>
      <trkpt lat="46.37997" lon="5.28187">
        <ele>230.2</ele>
        <time>2021-12-23T12:41:52Z</time>
      </trkpt>
      <trkpt lat="46.37992" lon="5.2819">
        <ele>230</ele>
        <time>2021-12-23T12:41:53Z</time>
      </trkpt>
      <trkpt lat="46.37988" lon="5.28193">
        <ele>229.8</ele>
        <time>2021-12-23T12:41:54Z</time>
      </trkpt>
      <trkpt lat="46.37978" lon="5.28197">
        <ele>229.6</ele>
        <time>2021-12-23T12:41:56Z</time>
      </trkpt>
      <trkpt lat="46.37968" lon="5.28195">
        <ele>229.6</ele>
        <time>2021-12-23T12:41:58Z</time>
      </trkpt>
      <trkpt lat="46.37938" lon="5.28179">
        <ele>230.4</ele>
        <time>2021-12-23T12:42:04Z</time>
      </trkpt>
      <trkpt lat="46.37923" lon="5.28169">
        <ele>231.2</ele>
        <time>2021-12-23T12:42:07Z</time>
      </trkpt>
      <trkpt lat="46.37902" lon="5.28152">
        <ele>232</ele>
        <time>2021-12-23T12:42:11Z</time>
      </trkpt>
      <trkpt lat="46.37884" lon="5.28137">
        <ele>232.2</ele>
        <time>2021-12-23T12:42:14Z</time>
      </trkpt>
      <trkpt lat="46.3787" lon="5.28128">
        <ele>231.6</ele>
        <time>2021-12-23T12:42:16Z</time>
      </trkpt>
      <trkpt lat="46.37846" lon="5.28113">
        <ele>231</ele>
        <time>2021-12-23T12:42:20Z</time>
      </trkpt>
      <trkpt lat="46.37834" lon="5.28108">
        <ele>230.8</ele>
        <time>2021-12-23T12:42:22Z</time>
      </trkpt>
      <trkpt lat="46.37801" lon="5.28087">
        <ele>230.8</ele>
        <time>2021-12-23T12:42:28Z</time>
      </trkpt>
      <trkpt lat="46.37792" lon="5.28076">
        <ele>231.2</ele>
        <time>2021-12-23T12:42:30Z</time>
      </trkpt>
      <trkpt lat="46.37786" lon="5.28064">
        <ele>231.4</ele>
        <time>2021-12-23T12:42:32Z</time>
      </trkpt>
      <trkpt lat="46.37782" lon="5.28057">
        <ele>231.6</ele>
        <time>2021-12-23T12:42:33Z</time>
      </trkpt>
      <trkpt lat="46.37777" lon="5.28046">
        <ele>232</ele>
        <time>2021-12-23T12:42:35Z</time>
      </trkpt>
      <trkpt lat="46.37771" lon="5.28033">
        <ele>232.4</ele>
        <time>2021-12-23T12:42:37Z</time>
      </trkpt>
      <trkpt lat="46.37769" lon="5.28027">
        <ele>232.6</ele>
        <time>2021-12-23T12:42:38Z</time>
      </trkpt>
      <trkpt lat="46.37764" lon="5.28017">
        <ele>233</ele>
        <time>2021-12-23T12:42:40Z</time>
      </trkpt>
      <trkpt lat="46.37757" lon="5.28005">
        <ele>233.6</ele>
        <time>2021-12-23T12:42:42Z</time>
      </trkpt>
      <trkpt lat="46.37749" lon="5.27994">
        <ele>234</ele>
        <time>2021-12-23T12:42:44Z</time>
      </trkpt>
      <trkpt lat="46.37738" lon="5.27975">
        <ele>234.6</ele>
        <time>2021-12-23T12:42:47Z</time>
      </trkpt>
      <trkpt lat="46.37731" lon="5.27962">
        <ele>234.8</ele>
        <time>2021-12-23T12:42:49Z</time>
      </trkpt>
      <trkpt lat="46.37723" lon="5.27948">
        <ele>234.8</ele>
        <time>2021-12-23T12:42:51Z</time>
      </trkpt>
      <trkpt lat="46.37714" lon="5.27935">
        <ele>234.6</ele>
        <time>2021-12-23T12:42:53Z</time>
      </trkpt>
      <trkpt lat="46.37708" lon="5.27927">
        <ele>234.6</ele>
        <time>2021-12-23T12:42:54Z</time>
      </trkpt>
      <trkpt lat="46.37697" lon="5.27917">
        <ele>234</ele>
        <time>2021-12-23T12:42:56Z</time>
      </trkpt>
      <trkpt lat="46.3769" lon="5.27912">
        <ele>233.6</ele>
        <time>2021-12-23T12:42:57Z</time>
      </trkpt>
      <trkpt lat="46.37685" lon="5.27909">
        <ele>233.4</ele>
        <time>2021-12-23T12:42:58Z</time>
      </trkpt>
      <trkpt lat="46.37651" lon="5.27884">
        <ele>232.8</ele>
        <time>2021-12-23T12:43:04Z</time>
      </trkpt>
      <trkpt lat="46.37629" lon="5.2786">
        <ele>233.6</ele>
        <time>2021-12-23T12:43:10Z</time>
      </trkpt>
      <trkpt lat="46.37621" lon="5.27851">
        <ele>234</ele>
        <time>2021-12-23T12:43:12Z</time>
      </trkpt>
      <trkpt lat="46.37613" lon="5.27838">
        <ele>234.4</ele>
        <time>2021-12-23T12:43:14Z</time>
      </trkpt>
      <trkpt lat="46.3761" lon="5.27829">
        <ele>234.8</ele>
        <time>2021-12-23T12:43:15Z</time>
      </trkpt>
      <trkpt lat="46.37599" lon="5.278">
        <ele>235</ele>
        <time>2021-12-23T12:43:19Z</time>
      </trkpt>
      <trkpt lat="46.37596" lon="5.2779">
        <ele>235</ele>
        <time>2021-12-23T12:43:20Z</time>
      </trkpt>
      <trkpt lat="46.37583" lon="5.27747">
        <ele>235</ele>
        <time>2021-12-23T12:43:25Z</time>
      </trkpt>
      <trkpt lat="46.37579" lon="5.27738">
        <ele>234.6</ele>
        <time>2021-12-23T12:43:26Z</time>
      </trkpt>
      <trkpt lat="46.37571" lon="5.27722">
        <ele>234.2</ele>
        <time>2021-12-23T12:43:28Z</time>
      </trkpt>
      <trkpt lat="46.37559" lon="5.27711">
        <ele>233.6</ele>
        <time>2021-12-23T12:43:30Z</time>
      </trkpt>
      <trkpt lat="46.37553" lon="5.27708">
        <ele>233.4</ele>
        <time>2021-12-23T12:43:31Z</time>
      </trkpt>
      <trkpt lat="46.37539" lon="5.27705">
        <ele>232.8</ele>
        <time>2021-12-23T12:43:33Z</time>
      </trkpt>
      <trkpt lat="46.37526" lon="5.27703">
        <ele>232.6</ele>
        <time>2021-12-23T12:43:35Z</time>
      </trkpt>
      <trkpt lat="46.37513" lon="5.27702">
        <ele>232.6</ele>
        <time>2021-12-23T12:43:37Z</time>
      </trkpt>
      <trkpt lat="46.3747" lon="5.2769">
        <ele>232.4</ele>
        <time>2021-12-23T12:43:44Z</time>
      </trkpt>
      <trkpt lat="46.37437" lon="5.2767">
        <ele>232.8</ele>
        <time>2021-12-23T12:43:50Z</time>
      </trkpt>
      <trkpt lat="46.37417" lon="5.27655">
        <ele>233.2</ele>
        <time>2021-12-23T12:43:54Z</time>
      </trkpt>
      <trkpt lat="46.37406" lon="5.2765">
        <ele>233.4</ele>
        <time>2021-12-23T12:43:56Z</time>
      </trkpt>
      <trkpt lat="46.37385" lon="5.27644">
        <ele>233.6</ele>
        <time>2021-12-23T12:44:00Z</time>
      </trkpt>
      <trkpt lat="46.37366" lon="5.27635">
        <ele>233.8</ele>
        <time>2021-12-23T12:44:04Z</time>
      </trkpt>
      <trkpt lat="46.37358" lon="5.27625">
        <ele>233.8</ele>
        <time>2021-12-23T12:44:06Z</time>
      </trkpt>
      <trkpt lat="46.37357" lon="5.27617">
        <ele>233.8</ele>
        <time>2021-12-23T12:44:07Z</time>
      </trkpt>
      <trkpt lat="46.37357" lon="5.27608">
        <ele>233.8</ele>
        <time>2021-12-23T12:44:08Z</time>
      </trkpt>
      <trkpt lat="46.37359" lon="5.27588">
        <ele>233.6</ele>
        <time>2021-12-23T12:44:10Z</time>
      </trkpt>
      <trkpt lat="46.37366" lon="5.27542">
        <ele>232.2</ele>
        <time>2021-12-23T12:44:14Z</time>
      </trkpt>
      <trkpt lat="46.37368" lon="5.2753">
        <ele>231.8</ele>
        <time>2021-12-23T12:44:15Z</time>
      </trkpt>
      <trkpt lat="46.3737" lon="5.27518">
        <ele>231.2</ele>
        <time>2021-12-23T12:44:16Z</time>
      </trkpt>
      <trkpt lat="46.37376" lon="5.27497">
        <ele>230</ele>
        <time>2021-12-23T12:44:18Z</time>
      </trkpt>
      <trkpt lat="46.37388" lon="5.27459">
        <ele>229.4</ele>
        <time>2021-12-23T12:44:22Z</time>
      </trkpt>
      <trkpt lat="46.37388" lon="5.27459">
        <ele>229.2</ele>
        <time>2021-12-23T12:44:23Z</time>
      </trkpt>
      <trkpt lat="46.37397" lon="5.27442">
        <ele>229.2</ele>
        <time>2021-12-23T12:44:24Z</time>
      </trkpt>
      <trkpt lat="46.3741" lon="5.27428">
        <ele>229</ele>
        <time>2021-12-23T12:44:26Z</time>
      </trkpt>
      <trkpt lat="46.37431" lon="5.27413">
        <ele>229</ele>
        <time>2021-12-23T12:44:29Z</time>
      </trkpt>
      <trkpt lat="46.37442" lon="5.27401">
        <ele>229</ele>
        <time>2021-12-23T12:44:31Z</time>
      </trkpt>
      <trkpt lat="46.37455" lon="5.27378">
        <ele>229</ele>
        <time>2021-12-23T12:44:34Z</time>
      </trkpt>
      <trkpt lat="46.37464" lon="5.27359">
        <ele>229</ele>
        <time>2021-12-23T12:44:36Z</time>
      </trkpt>
      <trkpt lat="46.37469" lon="5.27336">
        <ele>228.8</ele>
        <time>2021-12-23T12:44:38Z</time>
      </trkpt>
      <trkpt lat="46.37472" lon="5.27311">
        <ele>228.6</ele>
        <time>2021-12-23T12:44:40Z</time>
      </trkpt>
      <trkpt lat="46.3747" lon="5.27272">
        <ele>227.6</ele>
        <time>2021-12-23T12:44:43Z</time>
      </trkpt>
      <trkpt lat="46.3747" lon="5.27258">
        <ele>227.2</ele>
        <time>2021-12-23T12:44:44Z</time>
      </trkpt>
      <trkpt lat="46.37472" lon="5.27244">
        <ele>226.8</ele>
        <time>2021-12-23T12:44:45Z</time>
      </trkpt>
      <trkpt lat="46.37475" lon="5.2723">
        <ele>226.4</ele>
        <time>2021-12-23T12:44:46Z</time>
      </trkpt>
      <trkpt lat="46.37479" lon="5.27203">
        <ele>225.4</ele>
        <time>2021-12-23T12:44:48Z</time>
      </trkpt>
      <trkpt lat="46.37479" lon="5.27189">
        <ele>225</ele>
        <time>2021-12-23T12:44:49Z</time>
      </trkpt>
      <trkpt lat="46.37477" lon="5.27175">
        <ele>224.6</ele>
        <time>2021-12-23T12:44:50Z</time>
      </trkpt>
      <trkpt lat="46.37475" lon="5.27162">
        <ele>223.8</ele>
        <time>2021-12-23T12:44:51Z</time>
      </trkpt>
      <trkpt lat="46.3747" lon="5.27137">
        <ele>223.4</ele>
        <time>2021-12-23T12:44:53Z</time>
      </trkpt>
      <trkpt lat="46.37457" lon="5.2708">
        <ele>222.8</ele>
        <time>2021-12-23T12:44:58Z</time>
      </trkpt>
      <trkpt lat="46.37454" lon="5.27069">
        <ele>222.8</ele>
        <time>2021-12-23T12:44:59Z</time>
      </trkpt>
      <trkpt lat="46.3745" lon="5.2706">
        <ele>222.8</ele>
        <time>2021-12-23T12:45:00Z</time>
      </trkpt>
      <trkpt lat="46.37444" lon="5.27051">
        <ele>222.6</ele>
        <time>2021-12-23T12:45:01Z</time>
      </trkpt>
      <trkpt lat="46.37428" lon="5.27044">
        <ele>222.4</ele>
        <time>2021-12-23T12:45:03Z</time>
      </trkpt>
      <trkpt lat="46.37412" lon="5.2705">
        <ele>222.2</ele>
        <time>2021-12-23T12:45:05Z</time>
      </trkpt>
      <trkpt lat="46.37406" lon="5.27057">
        <ele>222.2</ele>
        <time>2021-12-23T12:45:06Z</time>
      </trkpt>
      <trkpt lat="46.37393" lon="5.27073">
        <ele>221.4</ele>
        <time>2021-12-23T12:45:08Z</time>
      </trkpt>
      <trkpt lat="46.37371" lon="5.27096">
        <ele>220.4</ele>
        <time>2021-12-23T12:45:11Z</time>
      </trkpt>
      <trkpt lat="46.37363" lon="5.27103">
        <ele>220</ele>
        <time>2021-12-23T12:45:12Z</time>
      </trkpt>
      <trkpt lat="46.37347" lon="5.27113">
        <ele>218.6</ele>
        <time>2021-12-23T12:45:14Z</time>
      </trkpt>
      <trkpt lat="46.37314" lon="5.27135">
        <ele>217.4</ele>
        <time>2021-12-23T12:45:18Z</time>
      </trkpt>
      <trkpt lat="46.37298" lon="5.27146">
        <ele>216.6</ele>
        <time>2021-12-23T12:45:20Z</time>
      </trkpt>
      <trkpt lat="46.3729" lon="5.27151">
        <ele>216.2</ele>
        <time>2021-12-23T12:45:21Z</time>
      </trkpt>
      <trkpt lat="46.37263" lon="5.2717">
        <ele>215</ele>
        <time>2021-12-23T12:45:25Z</time>
      </trkpt>
      <trkpt lat="46.37256" lon="5.27174">
        <ele>214.8</ele>
        <time>2021-12-23T12:45:26Z</time>
      </trkpt>
      <trkpt lat="46.37217" lon="5.27199">
        <ele>214</ele>
        <time>2021-12-23T12:45:32Z</time>
      </trkpt>
      <trkpt lat="46.37192" lon="5.27211">
        <ele>213.4</ele>
        <time>2021-12-23T12:45:36Z</time>
      </trkpt>
      <trkpt lat="46.37186" lon="5.27212">
        <ele>213.4</ele>
        <time>2021-12-23T12:45:37Z</time>
      </trkpt>
      <trkpt lat="46.37179" lon="5.27211">
        <ele>213.4</ele>
        <time>2021-12-23T12:45:38Z</time>
      </trkpt>
      <trkpt lat="46.37169" lon="5.27205">
        <ele>213.4</ele>
        <time>2021-12-23T12:45:40Z</time>
      </trkpt>
      <trkpt lat="46.3715" lon="5.27192">
        <ele>213.4</ele>
        <time>2021-12-23T12:45:43Z</time>
      </trkpt>
      <trkpt lat="46.37139" lon="5.27189">
        <ele>213.4</ele>
        <time>2021-12-23T12:45:45Z</time>
      </trkpt>
      <trkpt lat="46.37125" lon="5.27189">
        <ele>213.4</ele>
        <time>2021-12-23T12:45:47Z</time>
      </trkpt>
      <trkpt lat="46.37112" lon="5.27193">
        <ele>213.4</ele>
        <time>2021-12-23T12:45:49Z</time>
      </trkpt>
      <trkpt lat="46.37081" lon="5.27202">
        <ele>213</ele>
        <time>2021-12-23T12:45:54Z</time>
      </trkpt>
      <trkpt lat="46.3703" lon="5.27213">
        <ele>212.4</ele>
        <time>2021-12-23T12:46:02Z</time>
      </trkpt>
      <trkpt lat="46.36999" lon="5.27217">
        <ele>212.6</ele>
        <time>2021-12-23T12:46:07Z</time>
      </trkpt>
      <trkpt lat="46.36988" lon="5.27211">
        <ele>212.8</ele>
        <time>2021-12-23T12:46:09Z</time>
      </trkpt>
      <trkpt lat="46.36979" lon="5.272">
        <ele>212.8</ele>
        <time>2021-12-23T12:46:11Z</time>
      </trkpt>
      <trkpt lat="46.36976" lon="5.27192">
        <ele>212.8</ele>
        <time>2021-12-23T12:46:12Z</time>
      </trkpt>
      <trkpt lat="46.36951" lon="5.27133">
        <ele>213.2</ele>
        <time>2021-12-23T12:46:20Z</time>
      </trkpt>
      <trkpt lat="46.36941" lon="5.27116">
        <ele>213</ele>
        <time>2021-12-23T12:46:22Z</time>
      </trkpt>
      <trkpt lat="46.36932" lon="5.27105">
        <ele>213</ele>
        <time>2021-12-23T12:46:24Z</time>
      </trkpt>
      <trkpt lat="46.36926" lon="5.27099">
        <ele>213</ele>
        <time>2021-12-23T12:46:25Z</time>
      </trkpt>
      <trkpt lat="46.3692" lon="5.27095">
        <ele>213</ele>
        <time>2021-12-23T12:46:26Z</time>
      </trkpt>
      <trkpt lat="46.36901" lon="5.2709">
        <ele>212.8</ele>
        <time>2021-12-23T12:46:29Z</time>
      </trkpt>
      <trkpt lat="46.36872" lon="5.27085">
        <ele>212.4</ele>
        <time>2021-12-23T12:46:34Z</time>
      </trkpt>
      <trkpt lat="46.36845" lon="5.27069">
        <ele>212.2</ele>
        <time>2021-12-23T12:46:39Z</time>
      </trkpt>
      <trkpt lat="46.36838" lon="5.27064">
        <ele>212.4</ele>
        <time>2021-12-23T12:46:40Z</time>
      </trkpt>
      <trkpt lat="46.36787" lon="5.27028">
        <ele>212.4</ele>
        <time>2021-12-23T12:46:50Z</time>
      </trkpt>
      <trkpt lat="46.36751" lon="5.27003">
        <ele>212.2</ele>
        <time>2021-12-23T12:46:57Z</time>
      </trkpt>
      <trkpt lat="46.36736" lon="5.26989">
        <ele>212.2</ele>
        <time>2021-12-23T12:47:00Z</time>
      </trkpt>
      <trkpt lat="46.36728" lon="5.26977">
        <ele>212.2</ele>
        <time>2021-12-23T12:47:02Z</time>
      </trkpt>
      <trkpt lat="46.36725" lon="5.26972">
        <ele>212.4</ele>
        <time>2021-12-23T12:47:03Z</time>
      </trkpt>
      <trkpt lat="46.36721" lon="5.26955">
        <ele>212.4</ele>
        <time>2021-12-23T12:47:05Z</time>
      </trkpt>
      <trkpt lat="46.3672" lon="5.26947">
        <ele>212.4</ele>
        <time>2021-12-23T12:47:06Z</time>
      </trkpt>
      <trkpt lat="46.36719" lon="5.2691">
        <ele>212.4</ele>
        <time>2021-12-23T12:47:10Z</time>
      </trkpt>
      <trkpt lat="46.36721" lon="5.26895">
        <ele>212.2</ele>
        <time>2021-12-23T12:47:12Z</time>
      </trkpt>
      <trkpt lat="46.36725" lon="5.26868">
        <ele>212.2</ele>
        <time>2021-12-23T12:47:15Z</time>
      </trkpt>
      <trkpt lat="46.36728" lon="5.26852">
        <ele>212.2</ele>
        <time>2021-12-23T12:47:17Z</time>
      </trkpt>
      <trkpt lat="46.36733" lon="5.26832">
        <ele>212.2</ele>
        <time>2021-12-23T12:47:20Z</time>
      </trkpt>
      <trkpt lat="46.36734" lon="5.26831">
        <ele>212</ele>
        <time>2021-12-23T12:47:22Z</time>
      </trkpt>
      <trkpt lat="46.36735" lon="5.26824">
        <ele>212.2</ele>
        <time>2021-12-23T12:48:24Z</time>
      </trkpt>
      <trkpt lat="46.36737" lon="5.26813">
        <ele>212.2</ele>
        <time>2021-12-23T12:48:26Z</time>
      </trkpt>
      <trkpt lat="46.36738" lon="5.268">
        <ele>212.2</ele>
        <time>2021-12-23T12:48:28Z</time>
      </trkpt>
      <trkpt lat="46.36738" lon="5.26782">
        <ele>212.4</ele>
        <time>2021-12-23T12:48:30Z</time>
      </trkpt>
      <trkpt lat="46.36737" lon="5.26773">
        <ele>212.4</ele>
        <time>2021-12-23T12:48:31Z</time>
      </trkpt>
      <trkpt lat="46.36731" lon="5.2675">
        <ele>212.4</ele>
        <time>2021-12-23T12:48:34Z</time>
      </trkpt>
      <trkpt lat="46.36728" lon="5.26744">
        <ele>212.4</ele>
        <time>2021-12-23T12:48:35Z</time>
      </trkpt>
      <trkpt lat="46.36703" lon="5.2671">
        <ele>212.6</ele>
        <time>2021-12-23T12:48:41Z</time>
      </trkpt>
      <trkpt lat="46.36686" lon="5.26696">
        <ele>212.6</ele>
        <time>2021-12-23T12:48:44Z</time>
      </trkpt>
      <trkpt lat="46.36675" lon="5.26694">
        <ele>212.4</ele>
        <time>2021-12-23T12:48:46Z</time>
      </trkpt>
      <trkpt lat="46.36623" lon="5.267">
        <ele>212.2</ele>
        <time>2021-12-23T12:48:55Z</time>
      </trkpt>
      <trkpt lat="46.36576" lon="5.26699">
        <ele>212.4</ele>
        <time>2021-12-23T12:49:03Z</time>
      </trkpt>
      <trkpt lat="46.36522" lon="5.2669">
        <ele>212.6</ele>
        <time>2021-12-23T12:49:12Z</time>
      </trkpt>
      <trkpt lat="46.3647" lon="5.2667">
        <ele>213.2</ele>
        <time>2021-12-23T12:49:21Z</time>
      </trkpt>
      <trkpt lat="46.36452" lon="5.26662">
        <ele>213.2</ele>
        <time>2021-12-23T12:49:24Z</time>
      </trkpt>
      <trkpt lat="46.3642" lon="5.26645">
        <ele>213.6</ele>
        <time>2021-12-23T12:49:30Z</time>
      </trkpt>
      <trkpt lat="46.36376" lon="5.26615">
        <ele>214.6</ele>
        <time>2021-12-23T12:49:39Z</time>
      </trkpt>
      <trkpt lat="46.36371" lon="5.26612">
        <ele>214.6</ele>
        <time>2021-12-23T12:49:40Z</time>
      </trkpt>
      <trkpt lat="46.36356" lon="5.26603">
        <ele>214.8</ele>
        <time>2021-12-23T12:49:43Z</time>
      </trkpt>
      <trkpt lat="46.3634" lon="5.26599">
        <ele>215</ele>
        <time>2021-12-23T12:49:46Z</time>
      </trkpt>
      <trkpt lat="46.36311" lon="5.26602">
        <ele>215.2</ele>
        <time>2021-12-23T12:49:51Z</time>
      </trkpt>
      <trkpt lat="46.36306" lon="5.26603">
        <ele>215.2</ele>
        <time>2021-12-23T12:49:52Z</time>
      </trkpt>
      <trkpt lat="46.36251" lon="5.26621">
        <ele>215.4</ele>
        <time>2021-12-23T12:50:02Z</time>
      </trkpt>
      <trkpt lat="46.36246" lon="5.26622">
        <ele>215.4</ele>
        <time>2021-12-23T12:50:03Z</time>
      </trkpt>
      <trkpt lat="46.36214" lon="5.26625">
        <ele>215.6</ele>
        <time>2021-12-23T12:50:09Z</time>
      </trkpt>
      <trkpt lat="46.36208" lon="5.26625">
        <ele>215.6</ele>
        <time>2021-12-23T12:50:10Z</time>
      </trkpt>
      <trkpt lat="46.3617" lon="5.2662">
        <ele>216</ele>
        <time>2021-12-23T12:50:17Z</time>
      </trkpt>
      <trkpt lat="46.36159" lon="5.26615">
        <ele>216.4</ele>
        <time>2021-12-23T12:50:19Z</time>
      </trkpt>
      <trkpt lat="46.3615" lon="5.26609">
        <ele>216.8</ele>
        <time>2021-12-23T12:50:21Z</time>
      </trkpt>
      <trkpt lat="46.36145" lon="5.26607">
        <ele>216.8</ele>
        <time>2021-12-23T12:50:22Z</time>
      </trkpt>
      <trkpt lat="46.36141" lon="5.26605">
        <ele>217</ele>
        <time>2021-12-23T12:50:23Z</time>
      </trkpt>
      <trkpt lat="46.3613" lon="5.26596">
        <ele>217.6</ele>
        <time>2021-12-23T12:50:26Z</time>
      </trkpt>
      <trkpt lat="46.36127" lon="5.26592">
        <ele>217.8</ele>
        <time>2021-12-23T12:50:27Z</time>
      </trkpt>
      <trkpt lat="46.36124" lon="5.26587">
        <ele>218</ele>
        <time>2021-12-23T12:50:28Z</time>
      </trkpt>
      <trkpt lat="46.36115" lon="5.26567">
        <ele>219</ele>
        <time>2021-12-23T12:50:32Z</time>
      </trkpt>
      <trkpt lat="46.36113" lon="5.26562">
        <ele>219.2</ele>
        <time>2021-12-23T12:50:33Z</time>
      </trkpt>
      <trkpt lat="46.36106" lon="5.26542">
        <ele>220.2</ele>
        <time>2021-12-23T12:50:37Z</time>
      </trkpt>
      <trkpt lat="46.361" lon="5.26527">
        <ele>220.6</ele>
        <time>2021-12-23T12:50:40Z</time>
      </trkpt>
      <trkpt lat="46.36096" lon="5.26516">
        <ele>221</ele>
        <time>2021-12-23T12:50:42Z</time>
      </trkpt>
      <trkpt lat="46.36092" lon="5.26508">
        <ele>221.2</ele>
        <time>2021-12-23T12:50:44Z</time>
      </trkpt>
      <trkpt lat="46.3608" lon="5.26491">
        <ele>222.6</ele>
        <time>2021-12-23T12:50:49Z</time>
      </trkpt>
      <trkpt lat="46.36077" lon="5.26488">
        <ele>223</ele>
        <time>2021-12-23T12:50:50Z</time>
      </trkpt>
      <trkpt lat="46.36071" lon="5.26483">
        <ele>223.6</ele>
        <time>2021-12-23T12:50:52Z</time>
      </trkpt>
      <trkpt lat="46.36061" lon="5.26471">
        <ele>224.8</ele>
        <time>2021-12-23T12:50:56Z</time>
      </trkpt>
      <trkpt lat="46.36055" lon="5.26466">
        <ele>225.4</ele>
        <time>2021-12-23T12:50:58Z</time>
      </trkpt>
      <trkpt lat="46.36049" lon="5.26461">
        <ele>226</ele>
        <time>2021-12-23T12:51:00Z</time>
      </trkpt>
      <trkpt lat="46.36037" lon="5.26449">
        <ele>227</ele>
        <time>2021-12-23T12:51:04Z</time>
      </trkpt>
      <trkpt lat="46.36034" lon="5.26446">
        <ele>227.2</ele>
        <time>2021-12-23T12:51:05Z</time>
      </trkpt>
      <trkpt lat="46.36026" lon="5.26435">
        <ele>228</ele>
        <time>2021-12-23T12:51:08Z</time>
      </trkpt>
      <trkpt lat="46.36012" lon="5.26419">
        <ele>229.2</ele>
        <time>2021-12-23T12:51:13Z</time>
      </trkpt>
      <trkpt lat="46.36004" lon="5.26409">
        <ele>229.6</ele>
        <time>2021-12-23T12:51:16Z</time>
      </trkpt>
      <trkpt lat="46.35994" lon="5.26397">
        <ele>230.4</ele>
        <time>2021-12-23T12:51:20Z</time>
      </trkpt>
      <trkpt lat="46.35977" lon="5.2638">
        <ele>231.6</ele>
        <time>2021-12-23T12:51:26Z</time>
      </trkpt>
      <trkpt lat="46.35948" lon="5.26365">
        <ele>232.8</ele>
        <time>2021-12-23T12:51:35Z</time>
      </trkpt>
      <trkpt lat="46.3592" lon="5.26358">
        <ele>234</ele>
        <time>2021-12-23T12:51:42Z</time>
      </trkpt>
      <trkpt lat="46.35907" lon="5.26355">
        <ele>234.6</ele>
        <time>2021-12-23T12:51:45Z</time>
      </trkpt>
      <trkpt lat="46.35876" lon="5.26357">
        <ele>235.2</ele>
        <time>2021-12-23T12:51:52Z</time>
      </trkpt>
      <trkpt lat="46.35872" lon="5.26357">
        <ele>235.2</ele>
        <time>2021-12-23T12:51:53Z</time>
      </trkpt>
      <trkpt lat="46.35842" lon="5.26362">
        <ele>236</ele>
        <time>2021-12-23T12:52:00Z</time>
      </trkpt>
      <trkpt lat="46.35838" lon="5.26362">
        <ele>236.2</ele>
        <time>2021-12-23T12:52:01Z</time>
      </trkpt>
      <trkpt lat="46.35834" lon="5.26361">
        <ele>236.2</ele>
        <time>2021-12-23T12:52:02Z</time>
      </trkpt>
      <trkpt lat="46.35815" lon="5.26358">
        <ele>237.4</ele>
        <time>2021-12-23T12:52:07Z</time>
      </trkpt>
      <trkpt lat="46.35798" lon="5.26354">
        <ele>238.2</ele>
        <time>2021-12-23T12:52:12Z</time>
      </trkpt>
      <trkpt lat="46.35791" lon="5.26352">
        <ele>238.6</ele>
        <time>2021-12-23T12:52:14Z</time>
      </trkpt>
      <trkpt lat="46.35775" lon="5.26349">
        <ele>239.8</ele>
        <time>2021-12-23T12:52:19Z</time>
      </trkpt>
      <trkpt lat="46.35763" lon="5.26345">
        <ele>241.2</ele>
        <time>2021-12-23T12:52:23Z</time>
      </trkpt>
      <trkpt lat="46.35753" lon="5.26343">
        <ele>242.2</ele>
        <time>2021-12-23T12:52:26Z</time>
      </trkpt>
      <trkpt lat="46.35737" lon="5.26338">
        <ele>243.6</ele>
        <time>2021-12-23T12:52:31Z</time>
      </trkpt>
      <trkpt lat="46.35721" lon="5.26333">
        <ele>244.4</ele>
        <time>2021-12-23T12:52:35Z</time>
      </trkpt>
      <trkpt lat="46.35712" lon="5.26328">
        <ele>244.6</ele>
        <time>2021-12-23T12:52:37Z</time>
      </trkpt>
      <trkpt lat="46.35693" lon="5.26319">
        <ele>244.8</ele>
        <time>2021-12-23T12:52:41Z</time>
      </trkpt>
      <trkpt lat="46.35665" lon="5.26314">
        <ele>244.6</ele>
        <time>2021-12-23T12:52:46Z</time>
      </trkpt>
      <trkpt lat="46.35614" lon="5.26308">
        <ele>243.6</ele>
        <time>2021-12-23T12:52:54Z</time>
      </trkpt>
      <trkpt lat="46.35556" lon="5.26299">
        <ele>242.6</ele>
        <time>2021-12-23T12:53:04Z</time>
      </trkpt>
      <trkpt lat="46.3555" lon="5.26298">
        <ele>242.6</ele>
        <time>2021-12-23T12:53:05Z</time>
      </trkpt>
      <trkpt lat="46.35505" lon="5.26303">
        <ele>242.4</ele>
        <time>2021-12-23T12:53:13Z</time>
      </trkpt>
      <trkpt lat="46.35462" lon="5.26302">
        <ele>243</ele>
        <time>2021-12-23T12:53:21Z</time>
      </trkpt>
      <trkpt lat="46.35434" lon="5.263">
        <ele>243.6</ele>
        <time>2021-12-23T12:53:26Z</time>
      </trkpt>
      <trkpt lat="46.35402" lon="5.26296">
        <ele>244.2</ele>
        <time>2021-12-23T12:53:32Z</time>
      </trkpt>
      <trkpt lat="46.35382" lon="5.26293">
        <ele>244.6</ele>
        <time>2021-12-23T12:53:36Z</time>
      </trkpt>
      <trkpt lat="46.35372" lon="5.26289">
        <ele>244.8</ele>
        <time>2021-12-23T12:53:38Z</time>
      </trkpt>
      <trkpt lat="46.35358" lon="5.26281">
        <ele>244.8</ele>
        <time>2021-12-23T12:53:41Z</time>
      </trkpt>
      <trkpt lat="46.35349" lon="5.26273">
        <ele>245</ele>
        <time>2021-12-23T12:53:43Z</time>
      </trkpt>
      <trkpt lat="46.35345" lon="5.26268">
        <ele>245</ele>
        <time>2021-12-23T12:53:44Z</time>
      </trkpt>
      <trkpt lat="46.35334" lon="5.26253">
        <ele>245.2</ele>
        <time>2021-12-23T12:53:47Z</time>
      </trkpt>
      <trkpt lat="46.35328" lon="5.26241">
        <ele>245.2</ele>
        <time>2021-12-23T12:53:49Z</time>
      </trkpt>
      <trkpt lat="46.35314" lon="5.26213">
        <ele>245.4</ele>
        <time>2021-12-23T12:53:54Z</time>
      </trkpt>
      <trkpt lat="46.35311" lon="5.26208">
        <ele>245.6</ele>
        <time>2021-12-23T12:53:55Z</time>
      </trkpt>
      <trkpt lat="46.35307" lon="5.26205">
        <ele>245.6</ele>
        <time>2021-12-23T12:53:56Z</time>
      </trkpt>
      <trkpt lat="46.35292" lon="5.26197">
        <ele>246.2</ele>
        <time>2021-12-23T12:53:59Z</time>
      </trkpt>
      <trkpt lat="46.35276" lon="5.26191">
        <ele>246.4</ele>
        <time>2021-12-23T12:54:02Z</time>
      </trkpt>
      <trkpt lat="46.35254" lon="5.26187">
        <ele>246.8</ele>
        <time>2021-12-23T12:54:06Z</time>
      </trkpt>
      <trkpt lat="46.352" lon="5.26175">
        <ele>247.2</ele>
        <time>2021-12-23T12:54:16Z</time>
      </trkpt>
      <trkpt lat="46.35146" lon="5.26159">
        <ele>247</ele>
        <time>2021-12-23T12:54:26Z</time>
      </trkpt>
      <trkpt lat="46.35141" lon="5.26158">
        <ele>247</ele>
        <time>2021-12-23T12:54:27Z</time>
      </trkpt>
      <trkpt lat="46.35087" lon="5.26144">
        <ele>247.2</ele>
        <time>2021-12-23T12:54:37Z</time>
      </trkpt>
      <trkpt lat="46.35076" lon="5.26141">
        <ele>247.2</ele>
        <time>2021-12-23T12:54:39Z</time>
      </trkpt>
      <trkpt lat="46.35032" lon="5.2612">
        <ele>246.8</ele>
        <time>2021-12-23T12:54:47Z</time>
      </trkpt>
      <trkpt lat="46.35013" lon="5.2611">
        <ele>246.4</ele>
        <time>2021-12-23T12:54:50Z</time>
      </trkpt>
      <trkpt lat="46.34993" lon="5.26106">
        <ele>246</ele>
        <time>2021-12-23T12:54:53Z</time>
      </trkpt>
      <trkpt lat="46.34979" lon="5.26106">
        <ele>245.6</ele>
        <time>2021-12-23T12:54:55Z</time>
      </trkpt>
      <trkpt lat="46.3494" lon="5.26109">
        <ele>244.6</ele>
        <time>2021-12-23T12:55:01Z</time>
      </trkpt>
      <trkpt lat="46.34934" lon="5.26109">
        <ele>244.4</ele>
        <time>2021-12-23T12:55:02Z</time>
      </trkpt>
      <trkpt lat="46.34894" lon="5.26105">
        <ele>244.2</ele>
        <time>2021-12-23T12:55:08Z</time>
      </trkpt>
      <trkpt lat="46.34844" lon="5.26088">
        <ele>243.6</ele>
        <time>2021-12-23T12:55:16Z</time>
      </trkpt>
      <trkpt lat="46.348" lon="5.26081">
        <ele>243</ele>
        <time>2021-12-23T12:55:23Z</time>
      </trkpt>
      <trkpt lat="46.3478" lon="5.2608">
        <ele>242.6</ele>
        <time>2021-12-23T12:55:26Z</time>
      </trkpt>
      <trkpt lat="46.34759" lon="5.26078">
        <ele>242.2</ele>
        <time>2021-12-23T12:55:29Z</time>
      </trkpt>
      <trkpt lat="46.34743" lon="5.26077">
        <ele>241.2</ele>
        <time>2021-12-23T12:55:31Z</time>
      </trkpt>
      <trkpt lat="46.34719" lon="5.26076">
        <ele>239.6</ele>
        <time>2021-12-23T12:55:34Z</time>
      </trkpt>
      <trkpt lat="46.34703" lon="5.26075">
        <ele>238.6</ele>
        <time>2021-12-23T12:55:36Z</time>
      </trkpt>
      <trkpt lat="46.34689" lon="5.26074">
        <ele>237</ele>
        <time>2021-12-23T12:55:39Z</time>
      </trkpt>
      <trkpt lat="46.34678" lon="5.26073">
        <ele>235.4</ele>
        <time>2021-12-23T12:55:41Z</time>
      </trkpt>
      <trkpt lat="46.34673" lon="5.26071">
        <ele>234.4</ele>
        <time>2021-12-23T12:55:42Z</time>
      </trkpt>
      <trkpt lat="46.34668" lon="5.26067">
        <ele>233.8</ele>
        <time>2021-12-23T12:55:43Z</time>
      </trkpt>
      <trkpt lat="46.34664" lon="5.2606">
        <ele>232.8</ele>
        <time>2021-12-23T12:55:44Z</time>
      </trkpt>
      <trkpt lat="46.34662" lon="5.26053">
        <ele>232.4</ele>
        <time>2021-12-23T12:55:45Z</time>
      </trkpt>
      <trkpt lat="46.34651" lon="5.26029">
        <ele>231</ele>
        <time>2021-12-23T12:55:48Z</time>
      </trkpt>
      <trkpt lat="46.34643" lon="5.26015">
        <ele>230.6</ele>
        <time>2021-12-23T12:55:50Z</time>
      </trkpt>
      <trkpt lat="46.34614" lon="5.25961">
        <ele>230.6</ele>
        <time>2021-12-23T12:55:58Z</time>
      </trkpt>
      <trkpt lat="46.3461" lon="5.25954">
        <ele>230.8</ele>
        <time>2021-12-23T12:55:59Z</time>
      </trkpt>
      <trkpt lat="46.34595" lon="5.25932">
        <ele>231</ele>
        <time>2021-12-23T12:56:03Z</time>
      </trkpt>
      <trkpt lat="46.34566" lon="5.25887">
        <ele>232</ele>
        <time>2021-12-23T12:56:11Z</time>
      </trkpt>
      <trkpt lat="46.3456" lon="5.25877">
        <ele>232.2</ele>
        <time>2021-12-23T12:56:13Z</time>
      </trkpt>
      <trkpt lat="46.34557" lon="5.25872">
        <ele>232.4</ele>
        <time>2021-12-23T12:56:14Z</time>
      </trkpt>
      <trkpt lat="46.34551" lon="5.25862">
        <ele>232.6</ele>
        <time>2021-12-23T12:56:16Z</time>
      </trkpt>
      <trkpt lat="46.3455" lon="5.25856">
        <ele>232.6</ele>
        <time>2021-12-23T12:56:17Z</time>
      </trkpt>
      <trkpt lat="46.3455" lon="5.25852">
        <ele>232.8</ele>
        <time>2021-12-23T12:56:18Z</time>
      </trkpt>
      <trkpt lat="46.34551" lon="5.25849">
        <ele>233</ele>
        <time>2021-12-23T12:56:19Z</time>
      </trkpt>
      <trkpt lat="46.34553" lon="5.25848">
        <ele>233.2</ele>
        <time>2021-12-23T12:56:20Z</time>
      </trkpt>
      <trkpt lat="46.34563" lon="5.25846">
        <ele>234.2</ele>
        <time>2021-12-23T12:56:25Z</time>
      </trkpt>
      <trkpt lat="46.34566" lon="5.25846">
        <ele>234.4</ele>
        <time>2021-12-23T12:56:27Z</time>
      </trkpt>
      <trkpt lat="46.34569" lon="5.25847">
        <ele>234.6</ele>
        <time>2021-12-23T12:56:30Z</time>
      </trkpt>
      <trkpt lat="46.3457" lon="5.25846">
        <ele>234.6</ele>
        <time>2021-12-23T12:56:31Z</time>
      </trkpt>
      <trkpt lat="46.34584" lon="5.25848">
        <ele>234.8</ele>
        <time>2021-12-23T12:56:36Z</time>
      </trkpt>
      <trkpt lat="46.3461" lon="5.25851">
        <ele>235.2</ele>
        <time>2021-12-23T12:56:42Z</time>
      </trkpt>
      <trkpt lat="46.34623" lon="5.25851">
        <ele>235.4</ele>
        <time>2021-12-23T12:56:45Z</time>
      </trkpt>
      <trkpt lat="46.34646" lon="5.25851">
        <ele>236.4</ele>
        <time>2021-12-23T12:56:50Z</time>
      </trkpt>
      <trkpt lat="46.34651" lon="5.25851">
        <ele>236.4</ele>
        <time>2021-12-23T12:56:51Z</time>
      </trkpt>
      <trkpt lat="46.34669" lon="5.2585">
        <ele>237.6</ele>
        <time>2021-12-23T12:56:55Z</time>
      </trkpt>
      <trkpt lat="46.34681" lon="5.25845">
        <ele>238.4</ele>
        <time>2021-12-23T12:56:58Z</time>
      </trkpt>
      <trkpt lat="46.34685" lon="5.25843">
        <ele>238.8</ele>
        <time>2021-12-23T12:56:59Z</time>
      </trkpt>
      <trkpt lat="46.34701" lon="5.25834">
        <ele>239.6</ele>
        <time>2021-12-23T12:57:03Z</time>
      </trkpt>
      <trkpt lat="46.34704" lon="5.25831">
        <ele>240.2</ele>
        <time>2021-12-23T12:57:04Z</time>
      </trkpt>
      <trkpt lat="46.34708" lon="5.25829">
        <ele>240.4</ele>
        <time>2021-12-23T12:57:05Z</time>
      </trkpt>
      <trkpt lat="46.3472" lon="5.25823">
        <ele>241.2</ele>
        <time>2021-12-23T12:57:08Z</time>
      </trkpt>
      <trkpt lat="46.34742" lon="5.25812">
        <ele>242.4</ele>
        <time>2021-12-23T12:57:13Z</time>
      </trkpt>
      <trkpt lat="46.3476" lon="5.25802">
        <ele>243</ele>
        <time>2021-12-23T12:57:17Z</time>
      </trkpt>
      <trkpt lat="46.34786" lon="5.25789">
        <ele>243.6</ele>
        <time>2021-12-23T12:57:22Z</time>
      </trkpt>
      <trkpt lat="46.34797" lon="5.25784">
        <ele>243.6</ele>
        <time>2021-12-23T12:57:24Z</time>
      </trkpt>
      <trkpt lat="46.34841" lon="5.25768">
        <ele>243.6</ele>
        <time>2021-12-23T12:57:31Z</time>
      </trkpt>
      <trkpt lat="46.34888" lon="5.25751">
        <ele>242.6</ele>
        <time>2021-12-23T12:57:38Z</time>
      </trkpt>
      <trkpt lat="46.3491" lon="5.25743">
        <ele>242.2</ele>
        <time>2021-12-23T12:57:41Z</time>
      </trkpt>
      <trkpt lat="46.34946" lon="5.25731">
        <ele>241.4</ele>
        <time>2021-12-23T12:57:46Z</time>
      </trkpt>
      <trkpt lat="46.34983" lon="5.2572">
        <ele>240.4</ele>
        <time>2021-12-23T12:57:51Z</time>
      </trkpt>
      <trkpt lat="46.3499" lon="5.25718">
        <ele>240.4</ele>
        <time>2021-12-23T12:57:52Z</time>
      </trkpt>
      <trkpt lat="46.35043" lon="5.25706">
        <ele>239.2</ele>
        <time>2021-12-23T12:57:59Z</time>
      </trkpt>
      <trkpt lat="46.35099" lon="5.25693">
        <ele>238</ele>
        <time>2021-12-23T12:58:06Z</time>
      </trkpt>
      <trkpt lat="46.35137" lon="5.25684">
        <ele>236.8</ele>
        <time>2021-12-23T12:58:10Z</time>
      </trkpt>
      <trkpt lat="46.35157" lon="5.25679">
        <ele>236.4</ele>
        <time>2021-12-23T12:58:12Z</time>
      </trkpt>
      <trkpt lat="46.35168" lon="5.25677">
        <ele>235.4</ele>
        <time>2021-12-23T12:58:13Z</time>
      </trkpt>
      <trkpt lat="46.35191" lon="5.25672">
        <ele>234.4</ele>
        <time>2021-12-23T12:58:15Z</time>
      </trkpt>
      <trkpt lat="46.35214" lon="5.25667">
        <ele>232.8</ele>
        <time>2021-12-23T12:58:17Z</time>
      </trkpt>
      <trkpt lat="46.35225" lon="5.25665">
        <ele>232.2</ele>
        <time>2021-12-23T12:58:18Z</time>
      </trkpt>
      <trkpt lat="46.35237" lon="5.25662">
        <ele>231.8</ele>
        <time>2021-12-23T12:58:19Z</time>
      </trkpt>
      <trkpt lat="46.3526" lon="5.25657">
        <ele>230.6</ele>
        <time>2021-12-23T12:58:21Z</time>
      </trkpt>
      <trkpt lat="46.35283" lon="5.25652">
        <ele>229.2</ele>
        <time>2021-12-23T12:58:23Z</time>
      </trkpt>
      <trkpt lat="46.35305" lon="5.25648">
        <ele>228.2</ele>
        <time>2021-12-23T12:58:25Z</time>
      </trkpt>
      <trkpt lat="46.35315" lon="5.25646">
        <ele>227.8</ele>
        <time>2021-12-23T12:58:26Z</time>
      </trkpt>
      <trkpt lat="46.35347" lon="5.25639">
        <ele>227</ele>
        <time>2021-12-23T12:58:29Z</time>
      </trkpt>
      <trkpt lat="46.35395" lon="5.25629">
        <ele>226</ele>
        <time>2021-12-23T12:58:34Z</time>
      </trkpt>
      <trkpt lat="46.35456" lon="5.25616">
        <ele>226</ele>
        <time>2021-12-23T12:58:41Z</time>
      </trkpt>
      <trkpt lat="46.35465" lon="5.25612">
        <ele>226</ele>
        <time>2021-12-23T12:58:42Z</time>
      </trkpt>
      <trkpt lat="46.35483" lon="5.25601">
        <ele>226</ele>
        <time>2021-12-23T12:58:44Z</time>
      </trkpt>
      <trkpt lat="46.35491" lon="5.25593">
        <ele>225.8</ele>
        <time>2021-12-23T12:58:45Z</time>
      </trkpt>
      <trkpt lat="46.35522" lon="5.25555">
        <ele>225.6</ele>
        <time>2021-12-23T12:58:49Z</time>
      </trkpt>
      <trkpt lat="46.35537" lon="5.25536">
        <ele>224.8</ele>
        <time>2021-12-23T12:58:51Z</time>
      </trkpt>
      <trkpt lat="46.35579" lon="5.25481">
        <ele>223.8</ele>
        <time>2021-12-23T12:58:57Z</time>
      </trkpt>
      <trkpt lat="46.35586" lon="5.25472">
        <ele>223.8</ele>
        <time>2021-12-23T12:58:58Z</time>
      </trkpt>
      <trkpt lat="46.35618" lon="5.25438">
        <ele>224</ele>
        <time>2021-12-23T12:59:03Z</time>
      </trkpt>
      <trkpt lat="46.35642" lon="5.25418">
        <ele>225</ele>
        <time>2021-12-23T12:59:07Z</time>
      </trkpt>
      <trkpt lat="46.35647" lon="5.25414">
        <ele>225.2</ele>
        <time>2021-12-23T12:59:08Z</time>
      </trkpt>
      <trkpt lat="46.35668" lon="5.25398">
        <ele>226.4</ele>
        <time>2021-12-23T12:59:12Z</time>
      </trkpt>
      <trkpt lat="46.35683" lon="5.25386">
        <ele>227.4</ele>
        <time>2021-12-23T12:59:15Z</time>
      </trkpt>
      <trkpt lat="46.35688" lon="5.25382">
        <ele>227.8</ele>
        <time>2021-12-23T12:59:16Z</time>
      </trkpt>
      <trkpt lat="46.35703" lon="5.25371">
        <ele>229</ele>
        <time>2021-12-23T12:59:19Z</time>
      </trkpt>
      <trkpt lat="46.35726" lon="5.25356">
        <ele>230</ele>
        <time>2021-12-23T12:59:23Z</time>
      </trkpt>
      <trkpt lat="46.35774" lon="5.25329">
        <ele>231</ele>
        <time>2021-12-23T12:59:31Z</time>
      </trkpt>
      <trkpt lat="46.35781" lon="5.25327">
        <ele>231</ele>
        <time>2021-12-23T12:59:32Z</time>
      </trkpt>
      <trkpt lat="46.35822" lon="5.25321">
        <ele>231.2</ele>
        <time>2021-12-23T12:59:38Z</time>
      </trkpt>
      <trkpt lat="46.35879" lon="5.25313">
        <ele>231.6</ele>
        <time>2021-12-23T12:59:46Z</time>
      </trkpt>
      <trkpt lat="46.35919" lon="5.25294">
        <ele>232</ele>
        <time>2021-12-23T12:59:52Z</time>
      </trkpt>
      <trkpt lat="46.35926" lon="5.2529">
        <ele>232</ele>
        <time>2021-12-23T12:59:53Z</time>
      </trkpt>
      <trkpt lat="46.35979" lon="5.25263">
        <ele>232.2</ele>
        <time>2021-12-23T13:00:00Z</time>
      </trkpt>
      <trkpt lat="46.3602" lon="5.25259">
        <ele>231.6</ele>
        <time>2021-12-23T13:00:05Z</time>
      </trkpt>
      <trkpt lat="46.36073" lon="5.25263">
        <ele>231.8</ele>
        <time>2021-12-23T13:00:12Z</time>
      </trkpt>
      <trkpt lat="46.36106" lon="5.25267">
        <ele>232.6</ele>
        <time>2021-12-23T13:00:17Z</time>
      </trkpt>
      <trkpt lat="46.36124" lon="5.25269">
        <ele>233.4</ele>
        <time>2021-12-23T13:00:20Z</time>
      </trkpt>
      <trkpt lat="46.36141" lon="5.25272">
        <ele>234.6</ele>
        <time>2021-12-23T13:00:23Z</time>
      </trkpt>
      <trkpt lat="46.36174" lon="5.25277">
        <ele>236</ele>
        <time>2021-12-23T13:00:28Z</time>
      </trkpt>
      <trkpt lat="46.36189" lon="5.25279">
        <ele>236</ele>
        <time>2021-12-23T13:00:30Z</time>
      </trkpt>
      <trkpt lat="46.36238" lon="5.25278">
        <ele>235.8</ele>
        <time>2021-12-23T13:00:36Z</time>
      </trkpt>
      <trkpt lat="46.36264" lon="5.25279">
        <ele>234.8</ele>
        <time>2021-12-23T13:00:39Z</time>
      </trkpt>
      <trkpt lat="46.36281" lon="5.25282">
        <ele>234.2</ele>
        <time>2021-12-23T13:00:41Z</time>
      </trkpt>
      <trkpt lat="46.36306" lon="5.25291">
        <ele>233.6</ele>
        <time>2021-12-23T13:00:44Z</time>
      </trkpt>
      <trkpt lat="46.36336" lon="5.25304">
        <ele>233.6</ele>
        <time>2021-12-23T13:00:48Z</time>
      </trkpt>
      <trkpt lat="46.3637" lon="5.2532">
        <ele>233.8</ele>
        <time>2021-12-23T13:00:53Z</time>
      </trkpt>
      <trkpt lat="46.36404" lon="5.25334">
        <ele>234.6</ele>
        <time>2021-12-23T13:00:59Z</time>
      </trkpt>
      <trkpt lat="46.36408" lon="5.25337">
        <ele>235</ele>
        <time>2021-12-23T13:01:00Z</time>
      </trkpt>
      <trkpt lat="46.36418" lon="5.25341">
        <ele>235.6</ele>
        <time>2021-12-23T13:01:02Z</time>
      </trkpt>
      <trkpt lat="46.36443" lon="5.25351">
        <ele>236.8</ele>
        <time>2021-12-23T13:01:07Z</time>
      </trkpt>
      <trkpt lat="46.36448" lon="5.25352">
        <ele>237</ele>
        <time>2021-12-23T13:01:08Z</time>
      </trkpt>
      <trkpt lat="46.36463" lon="5.25358">
        <ele>237.8</ele>
        <time>2021-12-23T13:01:11Z</time>
      </trkpt>
      <trkpt lat="46.36486" lon="5.25368">
        <ele>239.2</ele>
        <time>2021-12-23T13:01:16Z</time>
      </trkpt>
      <trkpt lat="46.36503" lon="5.25377">
        <ele>240.2</ele>
        <time>2021-12-23T13:01:20Z</time>
      </trkpt>
      <trkpt lat="46.3652" lon="5.25385">
        <ele>241.6</ele>
        <time>2021-12-23T13:01:24Z</time>
      </trkpt>
      <trkpt lat="46.36543" lon="5.25396">
        <ele>242.8</ele>
        <time>2021-12-23T13:01:29Z</time>
      </trkpt>
      <trkpt lat="46.36556" lon="5.25403">
        <ele>244</ele>
        <time>2021-12-23T13:01:32Z</time>
      </trkpt>
      <trkpt lat="46.36561" lon="5.25406">
        <ele>244.2</ele>
        <time>2021-12-23T13:01:33Z</time>
      </trkpt>
      <trkpt lat="46.36583" lon="5.25422">
        <ele>245</ele>
        <time>2021-12-23T13:01:38Z</time>
      </trkpt>
      <trkpt lat="46.36599" lon="5.25435">
        <ele>245.6</ele>
        <time>2021-12-23T13:01:41Z</time>
      </trkpt>
      <trkpt lat="46.36648" lon="5.25474">
        <ele>245.8</ele>
        <time>2021-12-23T13:01:50Z</time>
      </trkpt>
      <trkpt lat="46.36696" lon="5.25513">
        <ele>245.2</ele>
        <time>2021-12-23T13:01:58Z</time>
      </trkpt>
      <trkpt lat="46.36738" lon="5.25545">
        <ele>244.6</ele>
        <time>2021-12-23T13:02:04Z</time>
      </trkpt>
      <trkpt lat="46.36767" lon="5.25566">
        <ele>243.4</ele>
        <time>2021-12-23T13:02:08Z</time>
      </trkpt>
      <trkpt lat="46.36791" lon="5.25581">
        <ele>242</ele>
        <time>2021-12-23T13:02:11Z</time>
      </trkpt>
      <trkpt lat="46.3681" lon="5.25585">
        <ele>241.6</ele>
        <time>2021-12-23T13:02:13Z</time>
      </trkpt>
      <trkpt lat="46.36819" lon="5.25585">
        <ele>241.4</ele>
        <time>2021-12-23T13:02:14Z</time>
      </trkpt>
      <trkpt lat="46.36829" lon="5.25583">
        <ele>241</ele>
        <time>2021-12-23T13:02:15Z</time>
      </trkpt>
      <trkpt lat="46.3685" lon="5.25575">
        <ele>240</ele>
        <time>2021-12-23T13:02:17Z</time>
      </trkpt>
      <trkpt lat="46.36861" lon="5.2557">
        <ele>239.6</ele>
        <time>2021-12-23T13:02:18Z</time>
      </trkpt>
      <trkpt lat="46.36882" lon="5.2556">
        <ele>238.4</ele>
        <time>2021-12-23T13:02:20Z</time>
      </trkpt>
      <trkpt lat="46.36915" lon="5.25544">
        <ele>237.2</ele>
        <time>2021-12-23T13:02:23Z</time>
      </trkpt>
      <trkpt lat="46.36927" lon="5.25539">
        <ele>236.4</ele>
        <time>2021-12-23T13:02:24Z</time>
      </trkpt>
      <trkpt lat="46.36938" lon="5.25535">
        <ele>236</ele>
        <time>2021-12-23T13:02:25Z</time>
      </trkpt>
      <trkpt lat="46.36961" lon="5.2553">
        <ele>234.6</ele>
        <time>2021-12-23T13:02:27Z</time>
      </trkpt>
      <trkpt lat="46.36973" lon="5.2553">
        <ele>234.4</ele>
        <time>2021-12-23T13:02:28Z</time>
      </trkpt>
      <trkpt lat="46.36996" lon="5.2553">
        <ele>233</ele>
        <time>2021-12-23T13:02:30Z</time>
      </trkpt>
      <trkpt lat="46.37018" lon="5.25532">
        <ele>231.8</ele>
        <time>2021-12-23T13:02:32Z</time>
      </trkpt>
      <trkpt lat="46.3704" lon="5.25534">
        <ele>231.2</ele>
        <time>2021-12-23T13:02:34Z</time>
      </trkpt>
      <trkpt lat="46.3705" lon="5.25534">
        <ele>230.8</ele>
        <time>2021-12-23T13:02:35Z</time>
      </trkpt>
      <trkpt lat="46.37102" lon="5.25538">
        <ele>230</ele>
        <time>2021-12-23T13:02:40Z</time>
      </trkpt>
      <trkpt lat="46.37121" lon="5.2554">
        <ele>229.8</ele>
        <time>2021-12-23T13:02:42Z</time>
      </trkpt>
      <trkpt lat="46.37158" lon="5.25545">
        <ele>229.6</ele>
        <time>2021-12-23T13:02:46Z</time>
      </trkpt>
      <trkpt lat="46.37209" lon="5.25558">
        <ele>230.4</ele>
        <time>2021-12-23T13:02:52Z</time>
      </trkpt>
      <trkpt lat="46.37243" lon="5.25565">
        <ele>231</ele>
        <time>2021-12-23T13:02:56Z</time>
      </trkpt>
      <trkpt lat="46.3726" lon="5.25566">
        <ele>231.4</ele>
        <time>2021-12-23T13:02:58Z</time>
      </trkpt>
      <trkpt lat="46.37302" lon="5.25556">
        <ele>231.4</ele>
        <time>2021-12-23T13:03:04Z</time>
      </trkpt>
      <trkpt lat="46.37357" lon="5.25532">
        <ele>230.2</ele>
        <time>2021-12-23T13:03:09Z</time>
      </trkpt>
      <trkpt lat="46.37366" lon="5.25528">
        <ele>229.8</ele>
        <time>2021-12-23T13:03:10Z</time>
      </trkpt>
      <trkpt lat="46.37387" lon="5.25518">
        <ele>228.8</ele>
        <time>2021-12-23T13:03:12Z</time>
      </trkpt>
      <trkpt lat="46.37418" lon="5.25499">
        <ele>227.6</ele>
        <time>2021-12-23T13:03:15Z</time>
      </trkpt>
      <trkpt lat="46.37461" lon="5.25466">
        <ele>226.2</ele>
        <time>2021-12-23T13:03:19Z</time>
      </trkpt>
      <trkpt lat="46.37492" lon="5.25442">
        <ele>224.6</ele>
        <time>2021-12-23T13:03:22Z</time>
      </trkpt>
      <trkpt lat="46.37513" lon="5.25426">
        <ele>223.2</ele>
        <time>2021-12-23T13:03:24Z</time>
      </trkpt>
      <trkpt lat="46.37534" lon="5.25411">
        <ele>221.8</ele>
        <time>2021-12-23T13:03:26Z</time>
      </trkpt>
      <trkpt lat="46.37565" lon="5.25393">
        <ele>220.6</ele>
        <time>2021-12-23T13:03:29Z</time>
      </trkpt>
      <trkpt lat="46.37607" lon="5.25376">
        <ele>219.6</ele>
        <time>2021-12-23T13:03:33Z</time>
      </trkpt>
      <trkpt lat="46.37617" lon="5.25372">
        <ele>219.4</ele>
        <time>2021-12-23T13:03:34Z</time>
      </trkpt>
      <trkpt lat="46.37647" lon="5.2536">
        <ele>218.4</ele>
        <time>2021-12-23T13:03:37Z</time>
      </trkpt>
      <trkpt lat="46.37699" lon="5.25341">
        <ele>217.6</ele>
        <time>2021-12-23T13:03:42Z</time>
      </trkpt>
      <trkpt lat="46.3771" lon="5.25337">
        <ele>217.4</ele>
        <time>2021-12-23T13:03:43Z</time>
      </trkpt>
      <trkpt lat="46.37743" lon="5.25325">
        <ele>216.2</ele>
        <time>2021-12-23T13:03:46Z</time>
      </trkpt>
      <trkpt lat="46.37805" lon="5.25301">
        <ele>215.4</ele>
        <time>2021-12-23T13:03:52Z</time>
      </trkpt>
      <trkpt lat="46.37824" lon="5.25293">
        <ele>215.2</ele>
        <time>2021-12-23T13:03:54Z</time>
      </trkpt>
      <trkpt lat="46.3785" lon="5.25283">
        <ele>215.2</ele>
        <time>2021-12-23T13:03:57Z</time>
      </trkpt>
      <trkpt lat="46.37901" lon="5.25264">
        <ele>216.2</ele>
        <time>2021-12-23T13:04:03Z</time>
      </trkpt>
      <trkpt lat="46.37939" lon="5.25252">
        <ele>217.4</ele>
        <time>2021-12-23T13:04:08Z</time>
      </trkpt>
      <trkpt lat="46.37952" lon="5.25246">
        <ele>218</ele>
        <time>2021-12-23T13:04:10Z</time>
      </trkpt>
      <trkpt lat="46.37975" lon="5.25238">
        <ele>218.4</ele>
        <time>2021-12-23T13:04:13Z</time>
      </trkpt>
      <trkpt lat="46.37994" lon="5.25231">
        <ele>218.8</ele>
        <time>2021-12-23T13:04:16Z</time>
      </trkpt>
      <trkpt lat="46.38021" lon="5.25218">
        <ele>219.6</ele>
        <time>2021-12-23T13:04:20Z</time>
      </trkpt>
      <trkpt lat="46.38044" lon="5.25206">
        <ele>220.2</ele>
        <time>2021-12-23T13:04:23Z</time>
      </trkpt>
      <trkpt lat="46.3809" lon="5.25178">
        <ele>219.8</ele>
        <time>2021-12-23T13:04:29Z</time>
      </trkpt>
      <trkpt lat="46.38139" lon="5.25147">
        <ele>218.6</ele>
        <time>2021-12-23T13:04:35Z</time>
      </trkpt>
      <trkpt lat="46.38154" lon="5.25138">
        <ele>218.6</ele>
        <time>2021-12-23T13:04:37Z</time>
      </trkpt>
      <trkpt lat="46.38205" lon="5.25108">
        <ele>219</ele>
        <time>2021-12-23T13:04:44Z</time>
      </trkpt>
      <trkpt lat="46.38212" lon="5.25103">
        <ele>219</ele>
        <time>2021-12-23T13:04:45Z</time>
      </trkpt>
      <trkpt lat="46.38262" lon="5.25073">
        <ele>219.4</ele>
        <time>2021-12-23T13:04:52Z</time>
      </trkpt>
      <trkpt lat="46.3827" lon="5.25068">
        <ele>219.4</ele>
        <time>2021-12-23T13:04:53Z</time>
      </trkpt>
      <trkpt lat="46.38325" lon="5.25033">
        <ele>219</ele>
        <time>2021-12-23T13:05:00Z</time>
      </trkpt>
      <trkpt lat="46.38332" lon="5.25028">
        <ele>219.2</ele>
        <time>2021-12-23T13:05:01Z</time>
      </trkpt>
      <trkpt lat="46.38387" lon="5.24994">
        <ele>218.8</ele>
        <time>2021-12-23T13:05:08Z</time>
      </trkpt>
      <trkpt lat="46.38417" lon="5.24974">
        <ele>218.6</ele>
        <time>2021-12-23T13:05:12Z</time>
      </trkpt>
      <trkpt lat="46.38472" lon="5.2494">
        <ele>218.6</ele>
        <time>2021-12-23T13:05:19Z</time>
      </trkpt>
      <trkpt lat="46.38509" lon="5.24916">
        <ele>218.6</ele>
        <time>2021-12-23T13:05:24Z</time>
      </trkpt>
      <trkpt lat="46.38561" lon="5.24884">
        <ele>218.6</ele>
        <time>2021-12-23T13:05:31Z</time>
      </trkpt>
      <trkpt lat="46.38582" lon="5.2487">
        <ele>218.8</ele>
        <time>2021-12-23T13:05:34Z</time>
      </trkpt>
      <trkpt lat="46.38634" lon="5.24837">
        <ele>219.2</ele>
        <time>2021-12-23T13:05:41Z</time>
      </trkpt>
      <trkpt lat="46.38644" lon="5.24831">
        <ele>219</ele>
        <time>2021-12-23T13:05:42Z</time>
      </trkpt>
      <trkpt lat="46.38697" lon="5.24797">
        <ele>218.4</ele>
        <time>2021-12-23T13:05:48Z</time>
      </trkpt>
      <trkpt lat="46.38716" lon="5.24785">
        <ele>217.6</ele>
        <time>2021-12-23T13:05:50Z</time>
      </trkpt>
      <trkpt lat="46.38744" lon="5.24767">
        <ele>216.4</ele>
        <time>2021-12-23T13:05:53Z</time>
      </trkpt>
      <trkpt lat="46.3877" lon="5.2475">
        <ele>215.8</ele>
        <time>2021-12-23T13:05:56Z</time>
      </trkpt>
      <trkpt lat="46.38815" lon="5.24721">
        <ele>215.8</ele>
        <time>2021-12-23T13:06:02Z</time>
      </trkpt>
      <trkpt lat="46.38844" lon="5.24702">
        <ele>217.6</ele>
        <time>2021-12-23T13:06:07Z</time>
      </trkpt>
      <trkpt lat="46.3885" lon="5.24698">
        <ele>217.8</ele>
        <time>2021-12-23T13:06:08Z</time>
      </trkpt>
      <trkpt lat="46.38876" lon="5.24683">
        <ele>218.8</ele>
        <time>2021-12-23T13:06:13Z</time>
      </trkpt>
      <trkpt lat="46.38892" lon="5.24674">
        <ele>220.2</ele>
        <time>2021-12-23T13:06:16Z</time>
      </trkpt>
      <trkpt lat="46.38914" lon="5.2466">
        <ele>221.6</ele>
        <time>2021-12-23T13:06:20Z</time>
      </trkpt>
      <trkpt lat="46.38941" lon="5.24641">
        <ele>222.4</ele>
        <time>2021-12-23T13:06:25Z</time>
      </trkpt>
      <trkpt lat="46.38946" lon="5.24638">
        <ele>222.6</ele>
        <time>2021-12-23T13:06:26Z</time>
      </trkpt>
      <trkpt lat="46.38982" lon="5.24617">
        <ele>223.8</ele>
        <time>2021-12-23T13:06:32Z</time>
      </trkpt>
      <trkpt lat="46.38993" lon="5.24611">
        <ele>223.8</ele>
        <time>2021-12-23T13:06:34Z</time>
      </trkpt>
      <trkpt lat="46.39041" lon="5.24589">
        <ele>224.4</ele>
        <time>2021-12-23T13:06:41Z</time>
      </trkpt>
      <trkpt lat="46.39092" lon="5.24566">
        <ele>223</ele>
        <time>2021-12-23T13:06:47Z</time>
      </trkpt>
      <trkpt lat="46.39101" lon="5.24561">
        <ele>222.6</ele>
        <time>2021-12-23T13:06:48Z</time>
      </trkpt>
      <trkpt lat="46.3914" lon="5.24542">
        <ele>221.2</ele>
        <time>2021-12-23T13:06:52Z</time>
      </trkpt>
      <trkpt lat="46.39151" lon="5.24537">
        <ele>220.8</ele>
        <time>2021-12-23T13:06:53Z</time>
      </trkpt>
      <trkpt lat="46.39172" lon="5.24527">
        <ele>219.8</ele>
        <time>2021-12-23T13:06:55Z</time>
      </trkpt>
      <trkpt lat="46.39202" lon="5.24512">
        <ele>218.6</ele>
        <time>2021-12-23T13:06:58Z</time>
      </trkpt>
      <trkpt lat="46.39221" lon="5.24504">
        <ele>218.2</ele>
        <time>2021-12-23T13:07:00Z</time>
      </trkpt>
      <trkpt lat="46.39269" lon="5.24479">
        <ele>218</ele>
        <time>2021-12-23T13:07:06Z</time>
      </trkpt>
      <trkpt lat="46.39321" lon="5.24455">
        <ele>219.2</ele>
        <time>2021-12-23T13:07:13Z</time>
      </trkpt>
      <trkpt lat="46.39336" lon="5.24448">
        <ele>219.4</ele>
        <time>2021-12-23T13:07:15Z</time>
      </trkpt>
      <trkpt lat="46.3935" lon="5.24441">
        <ele>219.8</ele>
        <time>2021-12-23T13:07:17Z</time>
      </trkpt>
      <trkpt lat="46.39407" lon="5.24415">
        <ele>220.6</ele>
        <time>2021-12-23T13:07:25Z</time>
      </trkpt>
      <trkpt lat="46.39414" lon="5.24412">
        <ele>220.8</ele>
        <time>2021-12-23T13:07:26Z</time>
      </trkpt>
      <trkpt lat="46.39421" lon="5.2441">
        <ele>220.8</ele>
        <time>2021-12-23T13:07:27Z</time>
      </trkpt>
      <trkpt lat="46.39467" lon="5.24389">
        <ele>222</ele>
        <time>2021-12-23T13:07:34Z</time>
      </trkpt>
      <trkpt lat="46.39474" lon="5.24386">
        <ele>222.2</ele>
        <time>2021-12-23T13:07:35Z</time>
      </trkpt>
      <trkpt lat="46.39526" lon="5.24361">
        <ele>222.8</ele>
        <time>2021-12-23T13:07:43Z</time>
      </trkpt>
      <trkpt lat="46.39533" lon="5.24359">
        <ele>222.8</ele>
        <time>2021-12-23T13:07:44Z</time>
      </trkpt>
      <trkpt lat="46.39554" lon="5.24352">
        <ele>223.2</ele>
        <time>2021-12-23T13:07:47Z</time>
      </trkpt>
      <trkpt lat="46.39592" lon="5.24339">
        <ele>223.4</ele>
        <time>2021-12-23T13:07:52Z</time>
      </trkpt>
      <trkpt lat="46.39649" lon="5.24323">
        <ele>223</ele>
        <time>2021-12-23T13:07:59Z</time>
      </trkpt>
      <trkpt lat="46.39665" lon="5.24319">
        <ele>223</ele>
        <time>2021-12-23T13:08:01Z</time>
      </trkpt>
      <trkpt lat="46.39719" lon="5.24305">
        <ele>222.8</ele>
        <time>2021-12-23T13:08:08Z</time>
      </trkpt>
      <trkpt lat="46.39727" lon="5.24303">
        <ele>222.8</ele>
        <time>2021-12-23T13:08:09Z</time>
      </trkpt>
      <trkpt lat="46.3978" lon="5.24288">
        <ele>223.8</ele>
        <time>2021-12-23T13:08:17Z</time>
      </trkpt>
      <trkpt lat="46.39793" lon="5.24285">
        <ele>224</ele>
        <time>2021-12-23T13:08:19Z</time>
      </trkpt>
      <trkpt lat="46.39805" lon="5.24282">
        <ele>224.2</ele>
        <time>2021-12-23T13:08:21Z</time>
      </trkpt>
      <trkpt lat="46.39811" lon="5.2428">
        <ele>224.2</ele>
        <time>2021-12-23T13:08:22Z</time>
      </trkpt>
      <trkpt lat="46.39823" lon="5.24277">
        <ele>224.4</ele>
        <time>2021-12-23T13:08:24Z</time>
      </trkpt>
      <trkpt lat="46.39839" lon="5.24272">
        <ele>225</ele>
        <time>2021-12-23T13:08:27Z</time>
      </trkpt>
      <trkpt lat="46.3987" lon="5.24264">
        <ele>225.8</ele>
        <time>2021-12-23T13:08:32Z</time>
      </trkpt>
      <trkpt lat="46.39877" lon="5.24263">
        <ele>226</ele>
        <time>2021-12-23T13:08:33Z</time>
      </trkpt>
      <trkpt lat="46.39895" lon="5.24257">
        <ele>226.6</ele>
        <time>2021-12-23T13:08:36Z</time>
      </trkpt>
      <trkpt lat="46.3991" lon="5.24253">
        <ele>227.2</ele>
        <time>2021-12-23T13:08:38Z</time>
      </trkpt>
      <trkpt lat="46.39958" lon="5.24241">
        <ele>228</ele>
        <time>2021-12-23T13:08:46Z</time>
      </trkpt>
      <trkpt lat="46.3997" lon="5.24238">
        <ele>228.2</ele>
        <time>2021-12-23T13:08:48Z</time>
      </trkpt>
      <trkpt lat="46.39993" lon="5.24232">
        <ele>229</ele>
        <time>2021-12-23T13:08:52Z</time>
      </trkpt>
      <trkpt lat="46.40004" lon="5.2423">
        <ele>229.4</ele>
        <time>2021-12-23T13:08:54Z</time>
      </trkpt>
      <trkpt lat="46.40031" lon="5.24221">
        <ele>229.6</ele>
        <time>2021-12-23T13:08:59Z</time>
      </trkpt>
      <trkpt lat="46.40054" lon="5.24215">
        <ele>229.6</ele>
        <time>2021-12-23T13:09:02Z</time>
      </trkpt>
      <trkpt lat="46.40106" lon="5.24201">
        <ele>228.4</ele>
        <time>2021-12-23T13:09:08Z</time>
      </trkpt>
      <trkpt lat="46.40114" lon="5.24199">
        <ele>228</ele>
        <time>2021-12-23T13:09:09Z</time>
      </trkpt>
      <trkpt lat="46.40157" lon="5.24188">
        <ele>227.4</ele>
        <time>2021-12-23T13:09:14Z</time>
      </trkpt>
      <trkpt lat="46.40173" lon="5.24184">
        <ele>227</ele>
        <time>2021-12-23T13:09:16Z</time>
      </trkpt>
      <trkpt lat="46.40214" lon="5.24173">
        <ele>226.4</ele>
        <time>2021-12-23T13:09:21Z</time>
      </trkpt>
      <trkpt lat="46.4023" lon="5.24169">
        <ele>226</ele>
        <time>2021-12-23T13:09:23Z</time>
      </trkpt>
      <trkpt lat="46.40286" lon="5.24155">
        <ele>225.2</ele>
        <time>2021-12-23T13:09:30Z</time>
      </trkpt>
      <trkpt lat="46.40338" lon="5.24142">
        <ele>225.2</ele>
        <time>2021-12-23T13:09:37Z</time>
      </trkpt>
      <trkpt lat="46.40398" lon="5.24128">
        <ele>225</ele>
        <time>2021-12-23T13:09:45Z</time>
      </trkpt>
      <trkpt lat="46.40405" lon="5.24126">
        <ele>225</ele>
        <time>2021-12-23T13:09:46Z</time>
      </trkpt>
      <trkpt lat="46.40461" lon="5.24111">
        <ele>225.2</ele>
        <time>2021-12-23T13:09:54Z</time>
      </trkpt>
      <trkpt lat="46.40482" lon="5.24106">
        <ele>225.4</ele>
        <time>2021-12-23T13:09:57Z</time>
      </trkpt>
      <trkpt lat="46.40538" lon="5.24092">
        <ele>226</ele>
        <time>2021-12-23T13:10:05Z</time>
      </trkpt>
      <trkpt lat="46.40544" lon="5.24091">
        <ele>226</ele>
        <time>2021-12-23T13:10:06Z</time>
      </trkpt>
      <trkpt lat="46.40601" lon="5.24077">
        <ele>226.8</ele>
        <time>2021-12-23T13:10:14Z</time>
      </trkpt>
      <trkpt lat="46.40615" lon="5.24073">
        <ele>227</ele>
        <time>2021-12-23T13:10:16Z</time>
      </trkpt>
      <trkpt lat="46.40623" lon="5.24071">
        <ele>227</ele>
        <time>2021-12-23T13:10:17Z</time>
      </trkpt>
      <trkpt lat="46.4065" lon="5.24062">
        <ele>228</ele>
        <time>2021-12-23T13:10:21Z</time>
      </trkpt>
      <trkpt lat="46.40669" lon="5.24056">
        <ele>228.4</ele>
        <time>2021-12-23T13:10:24Z</time>
      </trkpt>
      <trkpt lat="46.40714" lon="5.24044">
        <ele>228.6</ele>
        <time>2021-12-23T13:10:30Z</time>
      </trkpt>
      <trkpt lat="46.40776" lon="5.24027">
        <ele>227.4</ele>
        <time>2021-12-23T13:10:37Z</time>
      </trkpt>
      <trkpt lat="46.40794" lon="5.24022">
        <ele>226.6</ele>
        <time>2021-12-23T13:10:39Z</time>
      </trkpt>
      <trkpt lat="46.40826" lon="5.24013">
        <ele>225.4</ele>
        <time>2021-12-23T13:10:43Z</time>
      </trkpt>
      <trkpt lat="46.40852" lon="5.24006">
        <ele>225.2</ele>
        <time>2021-12-23T13:10:47Z</time>
      </trkpt>
      <trkpt lat="46.40869" lon="5.24001">
        <ele>225.8</ele>
        <time>2021-12-23T13:10:51Z</time>
      </trkpt>
      <trkpt lat="46.40874" lon="5.24001">
        <ele>226.8</ele>
        <time>2021-12-23T13:10:53Z</time>
      </trkpt>
      <trkpt lat="46.40882" lon="5.24001">
        <ele>227.6</ele>
        <time>2021-12-23T13:10:56Z</time>
      </trkpt>
      <trkpt lat="46.40886" lon="5.24">
        <ele>228.2</ele>
        <time>2021-12-23T13:10:57Z</time>
      </trkpt>
      <trkpt lat="46.40901" lon="5.23996">
        <ele>229.2</ele>
        <time>2021-12-23T13:11:00Z</time>
      </trkpt>
      <trkpt lat="46.40908" lon="5.23994">
        <ele>229.8</ele>
        <time>2021-12-23T13:11:01Z</time>
      </trkpt>
      <trkpt lat="46.40921" lon="5.2399">
        <ele>230.8</ele>
        <time>2021-12-23T13:11:04Z</time>
      </trkpt>
      <trkpt lat="46.40928" lon="5.23989">
        <ele>231</ele>
        <time>2021-12-23T13:11:05Z</time>
      </trkpt>
      <trkpt lat="46.40945" lon="5.23984">
        <ele>231.8</ele>
        <time>2021-12-23T13:11:08Z</time>
      </trkpt>
      <trkpt lat="46.40977" lon="5.23976">
        <ele>232.6</ele>
        <time>2021-12-23T13:11:12Z</time>
      </trkpt>
      <trkpt lat="46.40993" lon="5.23971">
        <ele>233</ele>
        <time>2021-12-23T13:11:14Z</time>
      </trkpt>
      <trkpt lat="46.41028" lon="5.23962">
        <ele>232.8</ele>
        <time>2021-12-23T13:11:18Z</time>
      </trkpt>
      <trkpt lat="46.41073" lon="5.2395">
        <ele>232.2</ele>
        <time>2021-12-23T13:11:23Z</time>
      </trkpt>
      <trkpt lat="46.41092" lon="5.23946">
        <ele>231.6</ele>
        <time>2021-12-23T13:11:25Z</time>
      </trkpt>
      <trkpt lat="46.41129" lon="5.23937">
        <ele>230.6</ele>
        <time>2021-12-23T13:11:29Z</time>
      </trkpt>
      <trkpt lat="46.4114" lon="5.23936">
        <ele>230.6</ele>
        <time>2021-12-23T13:11:30Z</time>
      </trkpt>
      <trkpt lat="46.41163" lon="5.23929">
        <ele>229.4</ele>
        <time>2021-12-23T13:11:32Z</time>
      </trkpt>
      <trkpt lat="46.41183" lon="5.23924">
        <ele>227.6</ele>
        <time>2021-12-23T13:11:34Z</time>
      </trkpt>
      <trkpt lat="46.41194" lon="5.23921">
        <ele>227</ele>
        <time>2021-12-23T13:11:35Z</time>
      </trkpt>
      <trkpt lat="46.41207" lon="5.23917">
        <ele>226.4</ele>
        <time>2021-12-23T13:11:36Z</time>
      </trkpt>
      <trkpt lat="46.41231" lon="5.23911">
        <ele>224.8</ele>
        <time>2021-12-23T13:11:38Z</time>
      </trkpt>
      <trkpt lat="46.41242" lon="5.23908">
        <ele>224.2</ele>
        <time>2021-12-23T13:11:39Z</time>
      </trkpt>
      <trkpt lat="46.41256" lon="5.23905">
        <ele>223.6</ele>
        <time>2021-12-23T13:11:40Z</time>
      </trkpt>
      <trkpt lat="46.41291" lon="5.23895">
        <ele>221.8</ele>
        <time>2021-12-23T13:11:43Z</time>
      </trkpt>
      <trkpt lat="46.41324" lon="5.23887">
        <ele>221</ele>
        <time>2021-12-23T13:11:46Z</time>
      </trkpt>
      <trkpt lat="46.41334" lon="5.23884">
        <ele>220.4</ele>
        <time>2021-12-23T13:11:47Z</time>
      </trkpt>
      <trkpt lat="46.41393" lon="5.23868">
        <ele>219.8</ele>
        <time>2021-12-23T13:11:53Z</time>
      </trkpt>
      <trkpt lat="46.41448" lon="5.23854">
        <ele>219.6</ele>
        <time>2021-12-23T13:11:59Z</time>
      </trkpt>
      <trkpt lat="46.41467" lon="5.23848">
        <ele>219.6</ele>
        <time>2021-12-23T13:12:01Z</time>
      </trkpt>
      <trkpt lat="46.41487" lon="5.23844">
        <ele>219.4</ele>
        <time>2021-12-23T13:12:03Z</time>
      </trkpt>
      <trkpt lat="46.41518" lon="5.23835">
        <ele>218.4</ele>
        <time>2021-12-23T13:12:06Z</time>
      </trkpt>
      <trkpt lat="46.41537" lon="5.2383">
        <ele>218</ele>
        <time>2021-12-23T13:12:08Z</time>
      </trkpt>
      <trkpt lat="46.41585" lon="5.23818">
        <ele>217.2</ele>
        <time>2021-12-23T13:12:13Z</time>
      </trkpt>
      <trkpt lat="46.41632" lon="5.23805">
        <ele>216.8</ele>
        <time>2021-12-23T13:12:18Z</time>
      </trkpt>
      <trkpt lat="46.41689" lon="5.23791">
        <ele>216.6</ele>
        <time>2021-12-23T13:12:24Z</time>
      </trkpt>
      <trkpt lat="46.41726" lon="5.23782">
        <ele>216.6</ele>
        <time>2021-12-23T13:12:28Z</time>
      </trkpt>
      <trkpt lat="46.41787" lon="5.23765">
        <ele>216.4</ele>
        <time>2021-12-23T13:12:35Z</time>
      </trkpt>
      <trkpt lat="46.41813" lon="5.23758">
        <ele>216.4</ele>
        <time>2021-12-23T13:12:38Z</time>
      </trkpt>
      <trkpt lat="46.41873" lon="5.23742">
        <ele>216.4</ele>
        <time>2021-12-23T13:12:45Z</time>
      </trkpt>
      <trkpt lat="46.41884" lon="5.2374">
        <ele>216.2</ele>
        <time>2021-12-23T13:12:46Z</time>
      </trkpt>
      <trkpt lat="46.41941" lon="5.23725">
        <ele>216</ele>
        <time>2021-12-23T13:12:53Z</time>
      </trkpt>
      <trkpt lat="46.41991" lon="5.23711">
        <ele>217.2</ele>
        <time>2021-12-23T13:13:00Z</time>
      </trkpt>
      <trkpt lat="46.42005" lon="5.23708">
        <ele>217.4</ele>
        <time>2021-12-23T13:13:02Z</time>
      </trkpt>
      <trkpt lat="46.42045" lon="5.23697">
        <ele>218</ele>
        <time>2021-12-23T13:13:08Z</time>
      </trkpt>
      <trkpt lat="46.42085" lon="5.23687">
        <ele>218.6</ele>
        <time>2021-12-23T13:13:14Z</time>
      </trkpt>
      <trkpt lat="46.42119" lon="5.23678">
        <ele>218.6</ele>
        <time>2021-12-23T13:13:19Z</time>
      </trkpt>
      <trkpt lat="46.42175" lon="5.23664">
        <ele>218.8</ele>
        <time>2021-12-23T13:13:27Z</time>
      </trkpt>
      <trkpt lat="46.42183" lon="5.23662">
        <ele>218.8</ele>
        <time>2021-12-23T13:13:28Z</time>
      </trkpt>
      <trkpt lat="46.42224" lon="5.23651">
        <ele>218.2</ele>
        <time>2021-12-23T13:13:33Z</time>
      </trkpt>
      <trkpt lat="46.42263" lon="5.23641">
        <ele>217.4</ele>
        <time>2021-12-23T13:13:37Z</time>
      </trkpt>
      <trkpt lat="46.42291" lon="5.23633">
        <ele>216</ele>
        <time>2021-12-23T13:13:40Z</time>
      </trkpt>
      <trkpt lat="46.42347" lon="5.23619">
        <ele>215.2</ele>
        <time>2021-12-23T13:13:47Z</time>
      </trkpt>
      <trkpt lat="46.42398" lon="5.23607">
        <ele>216.8</ele>
        <time>2021-12-23T13:13:54Z</time>
      </trkpt>
      <trkpt lat="46.42405" lon="5.23605">
        <ele>217</ele>
        <time>2021-12-23T13:13:55Z</time>
      </trkpt>
      <trkpt lat="46.42456" lon="5.23591">
        <ele>218</ele>
        <time>2021-12-23T13:14:02Z</time>
      </trkpt>
      <trkpt lat="46.42504" lon="5.23578">
        <ele>218.4</ele>
        <time>2021-12-23T13:14:08Z</time>
      </trkpt>
      <trkpt lat="46.42553" lon="5.23565">
        <ele>218.2</ele>
        <time>2021-12-23T13:14:14Z</time>
      </trkpt>
      <trkpt lat="46.42607" lon="5.23551">
        <ele>218.6</ele>
        <time>2021-12-23T13:14:21Z</time>
      </trkpt>
      <trkpt lat="46.42614" lon="5.23548">
        <ele>218.6</ele>
        <time>2021-12-23T13:14:22Z</time>
      </trkpt>
      <trkpt lat="46.42657" lon="5.23537">
        <ele>219.4</ele>
        <time>2021-12-23T13:14:28Z</time>
      </trkpt>
      <trkpt lat="46.42665" lon="5.23535">
        <ele>219.4</ele>
        <time>2021-12-23T13:14:29Z</time>
      </trkpt>
      <trkpt lat="46.42708" lon="5.23523">
        <ele>219.4</ele>
        <time>2021-12-23T13:14:34Z</time>
      </trkpt>
      <trkpt lat="46.42745" lon="5.23513">
        <ele>218.2</ele>
        <time>2021-12-23T13:14:38Z</time>
      </trkpt>
      <trkpt lat="46.42778" lon="5.23504">
        <ele>217.2</ele>
        <time>2021-12-23T13:14:41Z</time>
      </trkpt>
      <trkpt lat="46.42789" lon="5.23501">
        <ele>217</ele>
        <time>2021-12-23T13:14:42Z</time>
      </trkpt>
      <trkpt lat="46.4281" lon="5.23495">
        <ele>215.8</ele>
        <time>2021-12-23T13:14:44Z</time>
      </trkpt>
      <trkpt lat="46.42842" lon="5.23487">
        <ele>214.4</ele>
        <time>2021-12-23T13:14:47Z</time>
      </trkpt>
      <trkpt lat="46.42853" lon="5.23484">
        <ele>213.6</ele>
        <time>2021-12-23T13:14:48Z</time>
      </trkpt>
      <trkpt lat="46.42864" lon="5.23481">
        <ele>213.4</ele>
        <time>2021-12-23T13:14:49Z</time>
      </trkpt>
      <trkpt lat="46.42892" lon="5.23474">
        <ele>212.2</ele>
        <time>2021-12-23T13:14:52Z</time>
      </trkpt>
      <trkpt lat="46.42923" lon="5.23466">
        <ele>211.6</ele>
        <time>2021-12-23T13:14:55Z</time>
      </trkpt>
      <trkpt lat="46.42982" lon="5.2345">
        <ele>211.4</ele>
        <time>2021-12-23T13:15:01Z</time>
      </trkpt>
      <trkpt lat="46.43" lon="5.23444">
        <ele>211.2</ele>
        <time>2021-12-23T13:15:03Z</time>
      </trkpt>
      <trkpt lat="46.43053" lon="5.2343">
        <ele>211.4</ele>
        <time>2021-12-23T13:15:09Z</time>
      </trkpt>
      <trkpt lat="46.43062" lon="5.23428">
        <ele>211.4</ele>
        <time>2021-12-23T13:15:10Z</time>
      </trkpt>
      <trkpt lat="46.43101" lon="5.23418">
        <ele>211.8</ele>
        <time>2021-12-23T13:15:15Z</time>
      </trkpt>
      <trkpt lat="46.43147" lon="5.23404">
        <ele>213</ele>
        <time>2021-12-23T13:15:22Z</time>
      </trkpt>
      <trkpt lat="46.43166" lon="5.23399">
        <ele>213.6</ele>
        <time>2021-12-23T13:15:25Z</time>
      </trkpt>
      <trkpt lat="46.43191" lon="5.23395">
        <ele>214.8</ele>
        <time>2021-12-23T13:15:29Z</time>
      </trkpt>
      <trkpt lat="46.43227" lon="5.23393">
        <ele>215.8</ele>
        <time>2021-12-23T13:15:34Z</time>
      </trkpt>
      <trkpt lat="46.43242" lon="5.23392">
        <ele>215.8</ele>
        <time>2021-12-23T13:15:36Z</time>
      </trkpt>
      <trkpt lat="46.43297" lon="5.23388">
        <ele>216</ele>
        <time>2021-12-23T13:15:43Z</time>
      </trkpt>
      <trkpt lat="46.43305" lon="5.23388">
        <ele>216</ele>
        <time>2021-12-23T13:15:44Z</time>
      </trkpt>
      <trkpt lat="46.43361" lon="5.23384">
        <ele>216.2</ele>
        <time>2021-12-23T13:15:52Z</time>
      </trkpt>
      <trkpt lat="46.4339" lon="5.23382">
        <ele>217</ele>
        <time>2021-12-23T13:15:57Z</time>
      </trkpt>
      <trkpt lat="46.43402" lon="5.23382">
        <ele>217.6</ele>
        <time>2021-12-23T13:15:59Z</time>
      </trkpt>
      <trkpt lat="46.43413" lon="5.23381">
        <ele>218.4</ele>
        <time>2021-12-23T13:16:01Z</time>
      </trkpt>
      <trkpt lat="46.4343" lon="5.23379">
        <ele>219.4</ele>
        <time>2021-12-23T13:16:04Z</time>
      </trkpt>
      <trkpt lat="46.43452" lon="5.23377">
        <ele>220.4</ele>
        <time>2021-12-23T13:16:08Z</time>
      </trkpt>
      <trkpt lat="46.43474" lon="5.23377">
        <ele>221.6</ele>
        <time>2021-12-23T13:16:12Z</time>
      </trkpt>
      <trkpt lat="46.43496" lon="5.23375">
        <ele>222.6</ele>
        <time>2021-12-23T13:16:16Z</time>
      </trkpt>
      <trkpt lat="46.43502" lon="5.23374">
        <ele>222.8</ele>
        <time>2021-12-23T13:16:17Z</time>
      </trkpt>
      <trkpt lat="46.43526" lon="5.23372">
        <ele>223.8</ele>
        <time>2021-12-23T13:16:21Z</time>
      </trkpt>
      <trkpt lat="46.43544" lon="5.23371">
        <ele>224.4</ele>
        <time>2021-12-23T13:16:24Z</time>
      </trkpt>
      <trkpt lat="46.43557" lon="5.2337">
        <ele>224.8</ele>
        <time>2021-12-23T13:16:26Z</time>
      </trkpt>
      <trkpt lat="46.43617" lon="5.23366">
        <ele>225</ele>
        <time>2021-12-23T13:16:35Z</time>
      </trkpt>
      <trkpt lat="46.43624" lon="5.23365">
        <ele>225</ele>
        <time>2021-12-23T13:16:36Z</time>
      </trkpt>
      <trkpt lat="46.43671" lon="5.23362">
        <ele>224.6</ele>
        <time>2021-12-23T13:16:42Z</time>
      </trkpt>
      <trkpt lat="46.43698" lon="5.2336">
        <ele>223.6</ele>
        <time>2021-12-23T13:16:45Z</time>
      </trkpt>
      <trkpt lat="46.43728" lon="5.23358">
        <ele>223</ele>
        <time>2021-12-23T13:16:48Z</time>
      </trkpt>
      <trkpt lat="46.43739" lon="5.23357">
        <ele>222.4</ele>
        <time>2021-12-23T13:16:49Z</time>
      </trkpt>
      <trkpt lat="46.4376" lon="5.23355">
        <ele>221.4</ele>
        <time>2021-12-23T13:16:51Z</time>
      </trkpt>
      <trkpt lat="46.43784" lon="5.23354">
        <ele>220.4</ele>
        <time>2021-12-23T13:16:53Z</time>
      </trkpt>
      <trkpt lat="46.43796" lon="5.23353">
        <ele>219.8</ele>
        <time>2021-12-23T13:16:54Z</time>
      </trkpt>
      <trkpt lat="46.43819" lon="5.23352">
        <ele>218.6</ele>
        <time>2021-12-23T13:16:56Z</time>
      </trkpt>
      <trkpt lat="46.43843" lon="5.23351">
        <ele>217.2</ele>
        <time>2021-12-23T13:16:58Z</time>
      </trkpt>
      <trkpt lat="46.43854" lon="5.2335">
        <ele>216</ele>
        <time>2021-12-23T13:16:59Z</time>
      </trkpt>
      <trkpt lat="46.43876" lon="5.23349">
        <ele>214.8</ele>
        <time>2021-12-23T13:17:01Z</time>
      </trkpt>
      <trkpt lat="46.43898" lon="5.23347">
        <ele>214.4</ele>
        <time>2021-12-23T13:17:03Z</time>
      </trkpt>
      <trkpt lat="46.43948" lon="5.23344">
        <ele>213.8</ele>
        <time>2021-12-23T13:17:08Z</time>
      </trkpt>
      <trkpt lat="46.43967" lon="5.23342">
        <ele>213.6</ele>
        <time>2021-12-23T13:17:10Z</time>
      </trkpt>
      <trkpt lat="46.44021" lon="5.23339">
        <ele>213.8</ele>
        <time>2021-12-23T13:17:16Z</time>
      </trkpt>
      <trkpt lat="46.44029" lon="5.23338">
        <ele>214</ele>
        <time>2021-12-23T13:17:17Z</time>
      </trkpt>
      <trkpt lat="46.44078" lon="5.23335">
        <ele>214.4</ele>
        <time>2021-12-23T13:17:23Z</time>
      </trkpt>
      <trkpt lat="46.44101" lon="5.23333">
        <ele>215</ele>
        <time>2021-12-23T13:17:26Z</time>
      </trkpt>
      <trkpt lat="46.44133" lon="5.23331">
        <ele>215.6</ele>
        <time>2021-12-23T13:17:30Z</time>
      </trkpt>
      <trkpt lat="46.44189" lon="5.23328">
        <ele>216</ele>
        <time>2021-12-23T13:17:37Z</time>
      </trkpt>
      <trkpt lat="46.44222" lon="5.23326">
        <ele>215.6</ele>
        <time>2021-12-23T13:17:41Z</time>
      </trkpt>
      <trkpt lat="46.44284" lon="5.23322">
        <ele>214.8</ele>
        <time>2021-12-23T13:17:48Z</time>
      </trkpt>
      <trkpt lat="46.44302" lon="5.2332">
        <ele>214.4</ele>
        <time>2021-12-23T13:17:50Z</time>
      </trkpt>
      <trkpt lat="46.44321" lon="5.23319">
        <ele>214</ele>
        <time>2021-12-23T13:17:52Z</time>
      </trkpt>
      <trkpt lat="46.44378" lon="5.23315">
        <ele>213</ele>
        <time>2021-12-23T13:17:58Z</time>
      </trkpt>
      <trkpt lat="46.4444" lon="5.23311">
        <ele>212.8</ele>
        <time>2021-12-23T13:18:05Z</time>
      </trkpt>
      <trkpt lat="46.445" lon="5.23308">
        <ele>212.4</ele>
        <time>2021-12-23T13:18:12Z</time>
      </trkpt>
      <trkpt lat="46.44517" lon="5.23307">
        <ele>212.6</ele>
        <time>2021-12-23T13:18:14Z</time>
      </trkpt>
      <trkpt lat="46.44572" lon="5.23304">
        <ele>213.2</ele>
        <time>2021-12-23T13:18:21Z</time>
      </trkpt>
      <trkpt lat="46.44604" lon="5.23303">
        <ele>214.4</ele>
        <time>2021-12-23T13:18:26Z</time>
      </trkpt>
      <trkpt lat="46.4461" lon="5.23302">
        <ele>214.4</ele>
        <time>2021-12-23T13:18:27Z</time>
      </trkpt>
      <trkpt lat="46.44627" lon="5.23302">
        <ele>215.4</ele>
        <time>2021-12-23T13:18:30Z</time>
      </trkpt>
      <trkpt lat="46.44648" lon="5.23305">
        <ele>216.4</ele>
        <time>2021-12-23T13:18:34Z</time>
      </trkpt>
      <trkpt lat="46.44663" lon="5.23312">
        <ele>217</ele>
        <time>2021-12-23T13:18:37Z</time>
      </trkpt>
      <trkpt lat="46.44669" lon="5.23313">
        <ele>217.2</ele>
        <time>2021-12-23T13:18:38Z</time>
      </trkpt>
      <trkpt lat="46.44674" lon="5.23311">
        <ele>217.6</ele>
        <time>2021-12-23T13:18:39Z</time>
      </trkpt>
      <trkpt lat="46.44689" lon="5.23302">
        <ele>218.4</ele>
        <time>2021-12-23T13:18:42Z</time>
      </trkpt>
      <trkpt lat="46.44694" lon="5.23299">
        <ele>218.6</ele>
        <time>2021-12-23T13:18:43Z</time>
      </trkpt>
      <trkpt lat="46.44699" lon="5.23297">
        <ele>219</ele>
        <time>2021-12-23T13:18:44Z</time>
      </trkpt>
      <trkpt lat="46.44714" lon="5.23295">
        <ele>219.6</ele>
        <time>2021-12-23T13:18:47Z</time>
      </trkpt>
      <trkpt lat="46.44719" lon="5.23295">
        <ele>220</ele>
        <time>2021-12-23T13:18:48Z</time>
      </trkpt>
      <trkpt lat="46.44737" lon="5.23294">
        <ele>221.2</ele>
        <time>2021-12-23T13:18:52Z</time>
      </trkpt>
      <trkpt lat="46.4475" lon="5.23293">
        <ele>222.2</ele>
        <time>2021-12-23T13:18:55Z</time>
      </trkpt>
      <trkpt lat="46.44754" lon="5.23293">
        <ele>222.2</ele>
        <time>2021-12-23T13:18:56Z</time>
      </trkpt>
      <trkpt lat="46.44764" lon="5.23292">
        <ele>223.6</ele>
        <time>2021-12-23T13:18:59Z</time>
      </trkpt>
      <trkpt lat="46.44766" lon="5.23292">
        <ele>224</ele>
        <time>2021-12-23T13:19:00Z</time>
      </trkpt>
      <trkpt lat="46.44771" lon="5.23291">
        <ele>224.6</ele>
        <time>2021-12-23T13:19:02Z</time>
      </trkpt>
      <trkpt lat="46.44777" lon="5.2329">
        <ele>225.6</ele>
        <time>2021-12-23T13:19:05Z</time>
      </trkpt>
      <trkpt lat="46.4478" lon="5.23289">
        <ele>225.8</ele>
        <time>2021-12-23T13:19:06Z</time>
      </trkpt>
      <trkpt lat="46.44786" lon="5.23289">
        <ele>226.6</ele>
        <time>2021-12-23T13:19:08Z</time>
      </trkpt>
      <trkpt lat="46.448" lon="5.23287">
        <ele>227.8</ele>
        <time>2021-12-23T13:19:12Z</time>
      </trkpt>
      <trkpt lat="46.44806" lon="5.23286">
        <ele>228</ele>
        <time>2021-12-23T13:19:13Z</time>
      </trkpt>
      <trkpt lat="46.44828" lon="5.23284">
        <ele>229</ele>
        <time>2021-12-23T13:19:17Z</time>
      </trkpt>
      <trkpt lat="46.44832" lon="5.23284">
        <ele>229.2</ele>
        <time>2021-12-23T13:19:18Z</time>
      </trkpt>
      <trkpt lat="46.44859" lon="5.23283">
        <ele>230.4</ele>
        <time>2021-12-23T13:19:23Z</time>
      </trkpt>
      <trkpt lat="46.44873" lon="5.23281">
        <ele>231.2</ele>
        <time>2021-12-23T13:19:26Z</time>
      </trkpt>
      <trkpt lat="46.44876" lon="5.23279">
        <ele>231.4</ele>
        <time>2021-12-23T13:19:27Z</time>
      </trkpt>
      <trkpt lat="46.44883" lon="5.23264">
        <ele>232</ele>
        <time>2021-12-23T13:19:30Z</time>
      </trkpt>
      <trkpt lat="46.44891" lon="5.23243">
        <ele>232.6</ele>
        <time>2021-12-23T13:19:34Z</time>
      </trkpt>
      <trkpt lat="46.449" lon="5.23221">
        <ele>233.2</ele>
        <time>2021-12-23T13:19:38Z</time>
      </trkpt>
      <trkpt lat="46.44905" lon="5.23204">
        <ele>233.8</ele>
        <time>2021-12-23T13:19:41Z</time>
      </trkpt>
      <trkpt lat="46.44914" lon="5.23173">
        <ele>234.6</ele>
        <time>2021-12-23T13:19:46Z</time>
      </trkpt>
      <trkpt lat="46.44918" lon="5.23161">
        <ele>234.8</ele>
        <time>2021-12-23T13:19:48Z</time>
      </trkpt>
      <trkpt lat="46.44919" lon="5.23154">
        <ele>235</ele>
        <time>2021-12-23T13:19:49Z</time>
      </trkpt>
      <trkpt lat="46.44924" lon="5.23143">
        <ele>235</ele>
        <time>2021-12-23T13:19:51Z</time>
      </trkpt>
      <trkpt lat="46.44929" lon="5.23132">
        <ele>235.4</ele>
        <time>2021-12-23T13:19:53Z</time>
      </trkpt>
      <trkpt lat="46.44931" lon="5.23126">
        <ele>235.6</ele>
        <time>2021-12-23T13:19:54Z</time>
      </trkpt>
      <trkpt lat="46.44938" lon="5.23107">
        <ele>236.2</ele>
        <time>2021-12-23T13:19:57Z</time>
      </trkpt>
      <trkpt lat="46.44947" lon="5.23087">
        <ele>236.8</ele>
        <time>2021-12-23T13:20:00Z</time>
      </trkpt>
      <trkpt lat="46.44949" lon="5.2308">
        <ele>236.8</ele>
        <time>2021-12-23T13:20:01Z</time>
      </trkpt>
      <trkpt lat="46.44956" lon="5.23055">
        <ele>237</ele>
        <time>2021-12-23T13:20:04Z</time>
      </trkpt>
      <trkpt lat="46.44965" lon="5.23005">
        <ele>236.4</ele>
        <time>2021-12-23T13:20:09Z</time>
      </trkpt>
      <trkpt lat="46.44976" lon="5.22944">
        <ele>236</ele>
        <time>2021-12-23T13:20:15Z</time>
      </trkpt>
      <trkpt lat="46.44982" lon="5.22915">
        <ele>235.8</ele>
        <time>2021-12-23T13:20:18Z</time>
      </trkpt>
      <trkpt lat="46.4499" lon="5.22898">
        <ele>235.6</ele>
        <time>2021-12-23T13:20:20Z</time>
      </trkpt>
      <trkpt lat="46.44999" lon="5.22883">
        <ele>235.8</ele>
        <time>2021-12-23T13:20:22Z</time>
      </trkpt>
      <trkpt lat="46.4501" lon="5.22872">
        <ele>235.8</ele>
        <time>2021-12-23T13:20:24Z</time>
      </trkpt>
      <trkpt lat="46.45054" lon="5.22842">
        <ele>235.8</ele>
        <time>2021-12-23T13:20:31Z</time>
      </trkpt>
      <trkpt lat="46.45066" lon="5.22834">
        <ele>235.8</ele>
        <time>2021-12-23T13:20:33Z</time>
      </trkpt>
      <trkpt lat="46.45075" lon="5.2282">
        <ele>235.8</ele>
        <time>2021-12-23T13:20:35Z</time>
      </trkpt>
      <trkpt lat="46.45082" lon="5.22784">
        <ele>236.2</ele>
        <time>2021-12-23T13:20:39Z</time>
      </trkpt>
      <trkpt lat="46.45097" lon="5.2271">
        <ele>237</ele>
        <time>2021-12-23T13:20:47Z</time>
      </trkpt>
      <trkpt lat="46.45119" lon="5.22651">
        <ele>237</ele>
        <time>2021-12-23T13:20:54Z</time>
      </trkpt>
      <trkpt lat="46.45141" lon="5.22579">
        <ele>237</ele>
        <time>2021-12-23T13:21:02Z</time>
      </trkpt>
      <trkpt lat="46.45143" lon="5.22569">
        <ele>237</ele>
        <time>2021-12-23T13:21:03Z</time>
      </trkpt>
      <trkpt lat="46.45164" lon="5.22491">
        <ele>236.8</ele>
        <time>2021-12-23T13:21:11Z</time>
      </trkpt>
      <trkpt lat="46.45167" lon="5.22481">
        <ele>236.8</ele>
        <time>2021-12-23T13:21:12Z</time>
      </trkpt>
      <trkpt lat="46.45193" lon="5.22406">
        <ele>236.8</ele>
        <time>2021-12-23T13:21:20Z</time>
      </trkpt>
      <trkpt lat="46.45216" lon="5.22344">
        <ele>236.8</ele>
        <time>2021-12-23T13:21:27Z</time>
      </trkpt>
      <trkpt lat="46.45223" lon="5.22326">
        <ele>236.8</ele>
        <time>2021-12-23T13:21:29Z</time>
      </trkpt>
      <trkpt lat="46.45234" lon="5.22311">
        <ele>236.8</ele>
        <time>2021-12-23T13:21:31Z</time>
      </trkpt>
      <trkpt lat="46.45268" lon="5.22287">
        <ele>236.4</ele>
        <time>2021-12-23T13:21:36Z</time>
      </trkpt>
      <trkpt lat="46.45322" lon="5.22253">
        <ele>235.8</ele>
        <time>2021-12-23T13:21:44Z</time>
      </trkpt>
      <trkpt lat="46.45379" lon="5.2222">
        <ele>236.2</ele>
        <time>2021-12-23T13:21:52Z</time>
      </trkpt>
      <trkpt lat="46.45407" lon="5.222">
        <ele>236</ele>
        <time>2021-12-23T13:21:56Z</time>
      </trkpt>
      <trkpt lat="46.45419" lon="5.22185">
        <ele>236</ele>
        <time>2021-12-23T13:21:58Z</time>
      </trkpt>
      <trkpt lat="46.45443" lon="5.22138">
        <ele>236</ele>
        <time>2021-12-23T13:22:03Z</time>
      </trkpt>
      <trkpt lat="46.45462" lon="5.22082">
        <ele>235.2</ele>
        <time>2021-12-23T13:22:08Z</time>
      </trkpt>
      <trkpt lat="46.4547" lon="5.2206">
        <ele>234.8</ele>
        <time>2021-12-23T13:22:10Z</time>
      </trkpt>
      <trkpt lat="46.45496" lon="5.21987">
        <ele>234.6</ele>
        <time>2021-12-23T13:22:17Z</time>
      </trkpt>
      <trkpt lat="46.45506" lon="5.21958">
        <ele>234.6</ele>
        <time>2021-12-23T13:22:20Z</time>
      </trkpt>
      <trkpt lat="46.45527" lon="5.21904">
        <ele>234.8</ele>
        <time>2021-12-23T13:22:26Z</time>
      </trkpt>
      <trkpt lat="46.45555" lon="5.21843">
        <ele>235.8</ele>
        <time>2021-12-23T13:22:33Z</time>
      </trkpt>
      <trkpt lat="46.45586" lon="5.21769">
        <ele>236.2</ele>
        <time>2021-12-23T13:22:41Z</time>
      </trkpt>
      <trkpt lat="46.45594" lon="5.2175">
        <ele>236</ele>
        <time>2021-12-23T13:22:43Z</time>
      </trkpt>
      <trkpt lat="46.45624" lon="5.21681">
        <ele>235.6</ele>
        <time>2021-12-23T13:22:50Z</time>
      </trkpt>
      <trkpt lat="46.45629" lon="5.21672">
        <ele>235.6</ele>
        <time>2021-12-23T13:22:51Z</time>
      </trkpt>
      <trkpt lat="46.45663" lon="5.21611">
        <ele>234.6</ele>
        <time>2021-12-23T13:22:58Z</time>
      </trkpt>
      <trkpt lat="46.45668" lon="5.21603">
        <ele>234.6</ele>
        <time>2021-12-23T13:22:59Z</time>
      </trkpt>
      <trkpt lat="46.45702" lon="5.21551">
        <ele>234.8</ele>
        <time>2021-12-23T13:23:06Z</time>
      </trkpt>
      <trkpt lat="46.45737" lon="5.21519">
        <ele>235.4</ele>
        <time>2021-12-23T13:23:12Z</time>
      </trkpt>
      <trkpt lat="46.45744" lon="5.21515">
        <ele>235.4</ele>
        <time>2021-12-23T13:23:13Z</time>
      </trkpt>
      <trkpt lat="46.45772" lon="5.21503">
        <ele>235.6</ele>
        <time>2021-12-23T13:23:17Z</time>
      </trkpt>
      <trkpt lat="46.45818" lon="5.21492">
        <ele>235.4</ele>
        <time>2021-12-23T13:23:23Z</time>
      </trkpt>
      <trkpt lat="46.45869" lon="5.21499">
        <ele>235.2</ele>
        <time>2021-12-23T13:23:29Z</time>
      </trkpt>
      <trkpt lat="46.4592" lon="5.21513">
        <ele>234.4</ele>
        <time>2021-12-23T13:23:35Z</time>
      </trkpt>
      <trkpt lat="46.45929" lon="5.21516">
        <ele>234.2</ele>
        <time>2021-12-23T13:23:36Z</time>
      </trkpt>
      <trkpt lat="46.45989" lon="5.21543">
        <ele>233.6</ele>
        <time>2021-12-23T13:23:43Z</time>
      </trkpt>
      <trkpt lat="46.45998" lon="5.21549">
        <ele>233.6</ele>
        <time>2021-12-23T13:23:44Z</time>
      </trkpt>
      <trkpt lat="46.46032" lon="5.21576">
        <ele>232.6</ele>
        <time>2021-12-23T13:23:48Z</time>
      </trkpt>
      <trkpt lat="46.4604" lon="5.21584">
        <ele>232.4</ele>
        <time>2021-12-23T13:23:49Z</time>
      </trkpt>
      <trkpt lat="46.46075" lon="5.21626">
        <ele>231.8</ele>
        <time>2021-12-23T13:23:54Z</time>
      </trkpt>
      <trkpt lat="46.46122" lon="5.21683">
        <ele>231.6</ele>
        <time>2021-12-23T13:24:01Z</time>
      </trkpt>
      <trkpt lat="46.46127" lon="5.21692">
        <ele>231.6</ele>
        <time>2021-12-23T13:24:02Z</time>
      </trkpt>
      <trkpt lat="46.46138" lon="5.2171">
        <ele>231.4</ele>
        <time>2021-12-23T13:24:04Z</time>
      </trkpt>
      <trkpt lat="46.46149" lon="5.21729">
        <ele>231.4</ele>
        <time>2021-12-23T13:24:06Z</time>
      </trkpt>
      <trkpt lat="46.46155" lon="5.21738">
        <ele>231.4</ele>
        <time>2021-12-23T13:24:07Z</time>
      </trkpt>
      <trkpt lat="46.46185" lon="5.21788">
        <ele>230.6</ele>
        <time>2021-12-23T13:24:12Z</time>
      </trkpt>
      <trkpt lat="46.46192" lon="5.21798">
        <ele>230.2</ele>
        <time>2021-12-23T13:24:13Z</time>
      </trkpt>
      <trkpt lat="46.46213" lon="5.21829">
        <ele>229</ele>
        <time>2021-12-23T13:24:16Z</time>
      </trkpt>
      <trkpt lat="46.46234" lon="5.21862">
        <ele>228</ele>
        <time>2021-12-23T13:24:19Z</time>
      </trkpt>
      <trkpt lat="46.46255" lon="5.21896">
        <ele>226.4</ele>
        <time>2021-12-23T13:24:22Z</time>
      </trkpt>
      <trkpt lat="46.4627" lon="5.21916">
        <ele>226</ele>
        <time>2021-12-23T13:24:24Z</time>
      </trkpt>
      <trkpt lat="46.46277" lon="5.21924">
        <ele>225.8</ele>
        <time>2021-12-23T13:24:25Z</time>
      </trkpt>
      <trkpt lat="46.46294" lon="5.21936">
        <ele>225.6</ele>
        <time>2021-12-23T13:24:27Z</time>
      </trkpt>
      <trkpt lat="46.46332" lon="5.21959">
        <ele>225.8</ele>
        <time>2021-12-23T13:24:32Z</time>
      </trkpt>
      <trkpt lat="46.46373" lon="5.21983">
        <ele>227.6</ele>
        <time>2021-12-23T13:24:38Z</time>
      </trkpt>
      <trkpt lat="46.4638" lon="5.21986">
        <ele>227.8</ele>
        <time>2021-12-23T13:24:39Z</time>
      </trkpt>
      <trkpt lat="46.46394" lon="5.21991">
        <ele>228.8</ele>
        <time>2021-12-23T13:24:41Z</time>
      </trkpt>
      <trkpt lat="46.46408" lon="5.21994">
        <ele>229</ele>
        <time>2021-12-23T13:24:43Z</time>
      </trkpt>
      <trkpt lat="46.46415" lon="5.21994">
        <ele>229.2</ele>
        <time>2021-12-23T13:24:44Z</time>
      </trkpt>
      <trkpt lat="46.46441" lon="5.21996">
        <ele>229.8</ele>
        <time>2021-12-23T13:24:48Z</time>
      </trkpt>
      <trkpt lat="46.46454" lon="5.21999">
        <ele>230.4</ele>
        <time>2021-12-23T13:24:50Z</time>
      </trkpt>
      <trkpt lat="46.4648" lon="5.22006">
        <ele>231</ele>
        <time>2021-12-23T13:24:54Z</time>
      </trkpt>
      <trkpt lat="46.46514" lon="5.22018">
        <ele>231.6</ele>
        <time>2021-12-23T13:24:59Z</time>
      </trkpt>
      <trkpt lat="46.46564" lon="5.22033">
        <ele>231.6</ele>
        <time>2021-12-23T13:25:06Z</time>
      </trkpt>
      <trkpt lat="46.46572" lon="5.22034">
        <ele>231.4</ele>
        <time>2021-12-23T13:25:07Z</time>
      </trkpt>
      <trkpt lat="46.46579" lon="5.22034">
        <ele>231.4</ele>
        <time>2021-12-23T13:25:08Z</time>
      </trkpt>
      <trkpt lat="46.46603" lon="5.22028">
        <ele>231</ele>
        <time>2021-12-23T13:25:11Z</time>
      </trkpt>
      <trkpt lat="46.4665" lon="5.22019">
        <ele>230.8</ele>
        <time>2021-12-23T13:25:17Z</time>
      </trkpt>
      <trkpt lat="46.46709" lon="5.22016">
        <ele>229.8</ele>
        <time>2021-12-23T13:25:24Z</time>
      </trkpt>
      <trkpt lat="46.46736" lon="5.22015">
        <ele>228.6</ele>
        <time>2021-12-23T13:25:27Z</time>
      </trkpt>
      <trkpt lat="46.46745" lon="5.22015">
        <ele>228</ele>
        <time>2021-12-23T13:25:28Z</time>
      </trkpt>
      <trkpt lat="46.46762" lon="5.22011">
        <ele>227.6</ele>
        <time>2021-12-23T13:25:30Z</time>
      </trkpt>
      <trkpt lat="46.46778" lon="5.22004">
        <ele>227.2</ele>
        <time>2021-12-23T13:25:32Z</time>
      </trkpt>
      <trkpt lat="46.46787" lon="5.22">
        <ele>226.4</ele>
        <time>2021-12-23T13:25:33Z</time>
      </trkpt>
      <trkpt lat="46.46805" lon="5.21999">
        <ele>225.6</ele>
        <time>2021-12-23T13:25:35Z</time>
      </trkpt>
      <trkpt lat="46.46814" lon="5.22002">
        <ele>225.2</ele>
        <time>2021-12-23T13:25:36Z</time>
      </trkpt>
      <trkpt lat="46.46822" lon="5.22007">
        <ele>225</ele>
        <time>2021-12-23T13:25:37Z</time>
      </trkpt>
      <trkpt lat="46.4683" lon="5.22015">
        <ele>224.8</ele>
        <time>2021-12-23T13:25:38Z</time>
      </trkpt>
      <trkpt lat="46.46837" lon="5.22025">
        <ele>224.6</ele>
        <time>2021-12-23T13:25:39Z</time>
      </trkpt>
      <trkpt lat="46.4685" lon="5.22049">
        <ele>224.2</ele>
        <time>2021-12-23T13:25:41Z</time>
      </trkpt>
      <trkpt lat="46.46862" lon="5.22076">
        <ele>222.8</ele>
        <time>2021-12-23T13:25:43Z</time>
      </trkpt>
      <trkpt lat="46.46874" lon="5.22101">
        <ele>221.2</ele>
        <time>2021-12-23T13:25:45Z</time>
      </trkpt>
      <trkpt lat="46.46881" lon="5.22113">
        <ele>221</ele>
        <time>2021-12-23T13:25:46Z</time>
      </trkpt>
      <trkpt lat="46.46899" lon="5.22129">
        <ele>220.2</ele>
        <time>2021-12-23T13:25:48Z</time>
      </trkpt>
      <trkpt lat="46.4691" lon="5.22134">
        <ele>219.8</ele>
        <time>2021-12-23T13:25:49Z</time>
      </trkpt>
      <trkpt lat="46.46921" lon="5.22135">
        <ele>219.6</ele>
        <time>2021-12-23T13:25:50Z</time>
      </trkpt>
      <trkpt lat="46.46932" lon="5.22135">
        <ele>218.6</ele>
        <time>2021-12-23T13:25:51Z</time>
      </trkpt>
      <trkpt lat="46.46943" lon="5.22135">
        <ele>217.2</ele>
        <time>2021-12-23T13:25:52Z</time>
      </trkpt>
      <trkpt lat="46.46963" lon="5.22133">
        <ele>216.2</ele>
        <time>2021-12-23T13:25:54Z</time>
      </trkpt>
      <trkpt lat="46.47001" lon="5.22131">
        <ele>216</ele>
        <time>2021-12-23T13:25:58Z</time>
      </trkpt>
      <trkpt lat="46.47041" lon="5.2213">
        <ele>217</ele>
        <time>2021-12-23T13:26:03Z</time>
      </trkpt>
      <trkpt lat="46.47049" lon="5.22132">
        <ele>217.4</ele>
        <time>2021-12-23T13:26:04Z</time>
      </trkpt>
      <trkpt lat="46.47072" lon="5.22139">
        <ele>219</ele>
        <time>2021-12-23T13:26:07Z</time>
      </trkpt>
      <trkpt lat="46.47087" lon="5.22144">
        <ele>219.8</ele>
        <time>2021-12-23T13:26:09Z</time>
      </trkpt>
      <trkpt lat="46.47094" lon="5.22147">
        <ele>220.2</ele>
        <time>2021-12-23T13:26:10Z</time>
      </trkpt>
      <trkpt lat="46.47122" lon="5.22156">
        <ele>221.6</ele>
        <time>2021-12-23T13:26:14Z</time>
      </trkpt>
      <trkpt lat="46.47148" lon="5.22166">
        <ele>222.2</ele>
        <time>2021-12-23T13:26:18Z</time>
      </trkpt>
      <trkpt lat="46.47167" lon="5.22173">
        <ele>222.6</ele>
        <time>2021-12-23T13:26:21Z</time>
      </trkpt>
      <trkpt lat="46.47211" lon="5.2219">
        <ele>224</ele>
        <time>2021-12-23T13:26:28Z</time>
      </trkpt>
      <trkpt lat="46.47257" lon="5.22207">
        <ele>225</ele>
        <time>2021-12-23T13:26:36Z</time>
      </trkpt>
      <trkpt lat="46.47263" lon="5.22209">
        <ele>225.2</ele>
        <time>2021-12-23T13:26:37Z</time>
      </trkpt>
      <trkpt lat="46.47302" lon="5.22223">
        <ele>226.2</ele>
        <time>2021-12-23T13:26:44Z</time>
      </trkpt>
      <trkpt lat="46.47307" lon="5.22226">
        <ele>226.4</ele>
        <time>2021-12-23T13:26:45Z</time>
      </trkpt>
      <trkpt lat="46.47336" lon="5.22236">
        <ele>227.4</ele>
        <time>2021-12-23T13:26:50Z</time>
      </trkpt>
      <trkpt lat="46.47363" lon="5.22247">
        <ele>228.2</ele>
        <time>2021-12-23T13:26:55Z</time>
      </trkpt>
      <trkpt lat="46.47373" lon="5.22252">
        <ele>228.6</ele>
        <time>2021-12-23T13:26:57Z</time>
      </trkpt>
      <trkpt lat="46.4741" lon="5.22272">
        <ele>229.6</ele>
        <time>2021-12-23T13:27:04Z</time>
      </trkpt>
      <trkpt lat="46.47416" lon="5.22275">
        <ele>229.6</ele>
        <time>2021-12-23T13:27:05Z</time>
      </trkpt>
      <trkpt lat="46.47453" lon="5.22296">
        <ele>230</ele>
        <time>2021-12-23T13:27:11Z</time>
      </trkpt>
      <trkpt lat="46.47505" lon="5.22325">
        <ele>230</ele>
        <time>2021-12-23T13:27:19Z</time>
      </trkpt>
      <trkpt lat="46.47512" lon="5.22328">
        <ele>230.2</ele>
        <time>2021-12-23T13:27:20Z</time>
      </trkpt>
      <trkpt lat="46.47563" lon="5.22357">
        <ele>230</ele>
        <time>2021-12-23T13:27:28Z</time>
      </trkpt>
      <trkpt lat="46.47575" lon="5.22363">
        <ele>230.2</ele>
        <time>2021-12-23T13:27:30Z</time>
      </trkpt>
      <trkpt lat="46.47631" lon="5.22383">
        <ele>231</ele>
        <time>2021-12-23T13:27:39Z</time>
      </trkpt>
      <trkpt lat="46.47673" lon="5.22396">
        <ele>232</ele>
        <time>2021-12-23T13:27:46Z</time>
      </trkpt>
      <trkpt lat="46.47679" lon="5.22397">
        <ele>232.2</ele>
        <time>2021-12-23T13:27:47Z</time>
      </trkpt>
      <trkpt lat="46.47717" lon="5.22398">
        <ele>232.8</ele>
        <time>2021-12-23T13:27:54Z</time>
      </trkpt>
      <trkpt lat="46.47729" lon="5.22398">
        <ele>233</ele>
        <time>2021-12-23T13:27:56Z</time>
      </trkpt>
      <trkpt lat="46.47752" lon="5.22401">
        <ele>233</ele>
        <time>2021-12-23T13:28:00Z</time>
      </trkpt>
      <trkpt lat="46.47774" lon="5.22399">
        <ele>232.8</ele>
        <time>2021-12-23T13:28:05Z</time>
      </trkpt>
      <trkpt lat="46.47777" lon="5.2239">
        <ele>232.6</ele>
        <time>2021-12-23T13:28:07Z</time>
      </trkpt>
      <trkpt lat="46.47777" lon="5.22383">
        <ele>232.4</ele>
        <time>2021-12-23T13:28:08Z</time>
      </trkpt>
      <trkpt lat="46.47771" lon="5.2235">
        <ele>232</ele>
        <time>2021-12-23T13:28:12Z</time>
      </trkpt>
      <trkpt lat="46.47769" lon="5.22342">
        <ele>232</ele>
        <time>2021-12-23T13:28:13Z</time>
      </trkpt>
      <trkpt lat="46.47768" lon="5.22333">
        <ele>231.8</ele>
        <time>2021-12-23T13:28:14Z</time>
      </trkpt>
      <trkpt lat="46.4777" lon="5.22324">
        <ele>231.8</ele>
        <time>2021-12-23T13:28:15Z</time>
      </trkpt>
      <trkpt lat="46.47774" lon="5.22317">
        <ele>231.8</ele>
        <time>2021-12-23T13:28:16Z</time>
      </trkpt>
      <trkpt lat="46.47779" lon="5.22314">
        <ele>231.8</ele>
        <time>2021-12-23T13:28:17Z</time>
      </trkpt>
      <trkpt lat="46.47786" lon="5.22313">
        <ele>231.6</ele>
        <time>2021-12-23T13:28:18Z</time>
      </trkpt>
      <trkpt lat="46.47819" lon="5.22309">
        <ele>231.6</ele>
        <time>2021-12-23T13:28:23Z</time>
      </trkpt>
      <trkpt lat="46.47868" lon="5.22305">
        <ele>231.8</ele>
        <time>2021-12-23T13:28:30Z</time>
      </trkpt>
      <trkpt lat="46.47923" lon="5.22296">
        <ele>231.4</ele>
        <time>2021-12-23T13:28:37Z</time>
      </trkpt>
      <trkpt lat="46.47931" lon="5.22295">
        <ele>231.2</ele>
        <time>2021-12-23T13:28:38Z</time>
      </trkpt>
      <trkpt lat="46.47956" lon="5.22291">
        <ele>230.8</ele>
        <time>2021-12-23T13:28:41Z</time>
      </trkpt>
      <trkpt lat="46.47989" lon="5.22288">
        <ele>229.8</ele>
        <time>2021-12-23T13:28:45Z</time>
      </trkpt>
      <trkpt lat="46.47997" lon="5.22288">
        <ele>229.8</ele>
        <time>2021-12-23T13:28:46Z</time>
      </trkpt>
      <trkpt lat="46.48037" lon="5.22284">
        <ele>229.4</ele>
        <time>2021-12-23T13:28:51Z</time>
      </trkpt>
      <trkpt lat="46.48045" lon="5.22281">
        <ele>229.2</ele>
        <time>2021-12-23T13:28:52Z</time>
      </trkpt>
      <trkpt lat="46.48059" lon="5.22272">
        <ele>229.2</ele>
        <time>2021-12-23T13:28:54Z</time>
      </trkpt>
      <trkpt lat="46.48072" lon="5.22259">
        <ele>229</ele>
        <time>2021-12-23T13:28:56Z</time>
      </trkpt>
      <trkpt lat="46.48085" lon="5.22247">
        <ele>228.8</ele>
        <time>2021-12-23T13:28:58Z</time>
      </trkpt>
      <trkpt lat="46.48092" lon="5.22241">
        <ele>228.6</ele>
        <time>2021-12-23T13:28:59Z</time>
      </trkpt>
      <trkpt lat="46.48107" lon="5.22232">
        <ele>228.6</ele>
        <time>2021-12-23T13:29:01Z</time>
      </trkpt>
      <trkpt lat="46.48146" lon="5.22224">
        <ele>228.4</ele>
        <time>2021-12-23T13:29:06Z</time>
      </trkpt>
      <trkpt lat="46.48192" lon="5.22212">
        <ele>228.2</ele>
        <time>2021-12-23T13:29:12Z</time>
      </trkpt>
      <trkpt lat="46.48215" lon="5.22208">
        <ele>228.2</ele>
        <time>2021-12-23T13:29:15Z</time>
      </trkpt>
      <trkpt lat="46.48231" lon="5.2221">
        <ele>228.4</ele>
        <time>2021-12-23T13:29:17Z</time>
      </trkpt>
      <trkpt lat="46.48282" lon="5.22223">
        <ele>229.2</ele>
        <time>2021-12-23T13:29:24Z</time>
      </trkpt>
      <trkpt lat="46.48339" lon="5.22224">
        <ele>229.6</ele>
        <time>2021-12-23T13:29:32Z</time>
      </trkpt>
      <trkpt lat="46.48346" lon="5.22225">
        <ele>229.8</ele>
        <time>2021-12-23T13:29:33Z</time>
      </trkpt>
      <trkpt lat="46.4836" lon="5.2223">
        <ele>230</ele>
        <time>2021-12-23T13:29:35Z</time>
      </trkpt>
      <trkpt lat="46.4838" lon="5.2224">
        <ele>230.4</ele>
        <time>2021-12-23T13:29:38Z</time>
      </trkpt>
      <trkpt lat="46.48415" lon="5.22268">
        <ele>231</ele>
        <time>2021-12-23T13:29:44Z</time>
      </trkpt>
      <trkpt lat="46.48421" lon="5.22275">
        <ele>231.2</ele>
        <time>2021-12-23T13:29:45Z</time>
      </trkpt>
      <trkpt lat="46.48452" lon="5.22313">
        <ele>232</ele>
        <time>2021-12-23T13:29:51Z</time>
      </trkpt>
      <trkpt lat="46.48467" lon="5.22334">
        <ele>232.6</ele>
        <time>2021-12-23T13:29:54Z</time>
      </trkpt>
      <trkpt lat="46.48495" lon="5.22363">
        <ele>232.8</ele>
        <time>2021-12-23T13:29:59Z</time>
      </trkpt>
      <trkpt lat="46.48541" lon="5.22392">
        <ele>233</ele>
        <time>2021-12-23T13:30:06Z</time>
      </trkpt>
      <trkpt lat="46.48591" lon="5.22433">
        <ele>233.2</ele>
        <time>2021-12-23T13:30:14Z</time>
      </trkpt>
      <trkpt lat="46.48642" lon="5.2248">
        <ele>232.8</ele>
        <time>2021-12-23T13:30:22Z</time>
      </trkpt>
      <trkpt lat="46.48649" lon="5.22487">
        <ele>232.6</ele>
        <time>2021-12-23T13:30:23Z</time>
      </trkpt>
      <trkpt lat="46.48688" lon="5.22534">
        <ele>231.8</ele>
        <time>2021-12-23T13:30:29Z</time>
      </trkpt>
      <trkpt lat="46.4872" lon="5.22555">
        <ele>231.4</ele>
        <time>2021-12-23T13:30:33Z</time>
      </trkpt>
      <trkpt lat="46.48728" lon="5.22559">
        <ele>231.2</ele>
        <time>2021-12-23T13:30:34Z</time>
      </trkpt>
      <trkpt lat="46.48752" lon="5.22573">
        <ele>230.4</ele>
        <time>2021-12-23T13:30:37Z</time>
      </trkpt>
      <trkpt lat="46.48806" lon="5.22603">
        <ele>230</ele>
        <time>2021-12-23T13:30:44Z</time>
      </trkpt>
      <trkpt lat="46.48858" lon="5.22633">
        <ele>230.2</ele>
        <time>2021-12-23T13:30:51Z</time>
      </trkpt>
      <trkpt lat="46.48872" lon="5.2264">
        <ele>230.4</ele>
        <time>2021-12-23T13:30:53Z</time>
      </trkpt>
      <trkpt lat="46.48919" lon="5.22663">
        <ele>231</ele>
        <time>2021-12-23T13:31:00Z</time>
      </trkpt>
      <trkpt lat="46.48962" lon="5.22686">
        <ele>231.2</ele>
        <time>2021-12-23T13:31:07Z</time>
      </trkpt>
      <trkpt lat="46.48992" lon="5.22703">
        <ele>231.6</ele>
        <time>2021-12-23T13:31:12Z</time>
      </trkpt>
      <trkpt lat="46.49003" lon="5.22709">
        <ele>231.8</ele>
        <time>2021-12-23T13:31:14Z</time>
      </trkpt>
      <trkpt lat="46.49049" lon="5.22733">
        <ele>232.6</ele>
        <time>2021-12-23T13:31:22Z</time>
      </trkpt>
      <trkpt lat="46.49074" lon="5.22746">
        <ele>232.8</ele>
        <time>2021-12-23T13:31:26Z</time>
      </trkpt>
      <trkpt lat="46.49117" lon="5.22768">
        <ele>232.8</ele>
        <time>2021-12-23T13:31:33Z</time>
      </trkpt>
      <trkpt lat="46.49174" lon="5.22794">
        <ele>232.8</ele>
        <time>2021-12-23T13:31:42Z</time>
      </trkpt>
      <trkpt lat="46.49208" lon="5.22797">
        <ele>233.2</ele>
        <time>2021-12-23T13:31:47Z</time>
      </trkpt>
      <trkpt lat="46.49246" lon="5.22794">
        <ele>233.2</ele>
        <time>2021-12-23T13:31:52Z</time>
      </trkpt>
      <trkpt lat="46.49293" lon="5.2279">
        <ele>231.6</ele>
        <time>2021-12-23T13:31:57Z</time>
      </trkpt>
      <trkpt lat="46.49324" lon="5.22787">
        <ele>230.6</ele>
        <time>2021-12-23T13:32:00Z</time>
      </trkpt>
      <trkpt lat="46.49346" lon="5.22786">
        <ele>229.2</ele>
        <time>2021-12-23T13:32:02Z</time>
      </trkpt>
      <trkpt lat="46.49369" lon="5.22784">
        <ele>227.8</ele>
        <time>2021-12-23T13:32:04Z</time>
      </trkpt>
      <trkpt lat="46.49402" lon="5.22781">
        <ele>226.4</ele>
        <time>2021-12-23T13:32:07Z</time>
      </trkpt>
      <trkpt lat="46.49436" lon="5.22779">
        <ele>225.2</ele>
        <time>2021-12-23T13:32:10Z</time>
      </trkpt>
      <trkpt lat="46.49447" lon="5.22778">
        <ele>224.6</ele>
        <time>2021-12-23T13:32:11Z</time>
      </trkpt>
      <trkpt lat="46.49471" lon="5.22776">
        <ele>223.8</ele>
        <time>2021-12-23T13:32:13Z</time>
      </trkpt>
      <trkpt lat="46.49495" lon="5.22774">
        <ele>222.6</ele>
        <time>2021-12-23T13:32:15Z</time>
      </trkpt>
      <trkpt lat="46.4953" lon="5.22771">
        <ele>221</ele>
        <time>2021-12-23T13:32:18Z</time>
      </trkpt>
      <trkpt lat="46.49553" lon="5.2277">
        <ele>219.6</ele>
        <time>2021-12-23T13:32:20Z</time>
      </trkpt>
      <trkpt lat="46.49564" lon="5.22769">
        <ele>219.2</ele>
        <time>2021-12-23T13:32:21Z</time>
      </trkpt>
      <trkpt lat="46.49596" lon="5.22766">
        <ele>218</ele>
        <time>2021-12-23T13:32:24Z</time>
      </trkpt>
      <trkpt lat="46.49625" lon="5.22764">
        <ele>217.8</ele>
        <time>2021-12-23T13:32:27Z</time>
      </trkpt>
      <trkpt lat="46.49666" lon="5.22761">
        <ele>218.2</ele>
        <time>2021-12-23T13:32:32Z</time>
      </trkpt>
      <trkpt lat="46.49688" lon="5.2276">
        <ele>219.2</ele>
        <time>2021-12-23T13:32:35Z</time>
      </trkpt>
      <trkpt lat="46.49708" lon="5.22757">
        <ele>220.4</ele>
        <time>2021-12-23T13:32:38Z</time>
      </trkpt>
      <trkpt lat="46.49727" lon="5.22755">
        <ele>221.8</ele>
        <time>2021-12-23T13:32:41Z</time>
      </trkpt>
      <trkpt lat="46.4974" lon="5.22753">
        <ele>222.2</ele>
        <time>2021-12-23T13:32:43Z</time>
      </trkpt>
      <trkpt lat="46.49753" lon="5.22752">
        <ele>223</ele>
        <time>2021-12-23T13:32:45Z</time>
      </trkpt>
      <trkpt lat="46.49779" lon="5.22748">
        <ele>224</ele>
        <time>2021-12-23T13:32:49Z</time>
      </trkpt>
      <trkpt lat="46.49785" lon="5.22747">
        <ele>224.4</ele>
        <time>2021-12-23T13:32:50Z</time>
      </trkpt>
      <trkpt lat="46.49805" lon="5.22744">
        <ele>225.2</ele>
        <time>2021-12-23T13:32:53Z</time>
      </trkpt>
      <trkpt lat="46.49837" lon="5.2274">
        <ele>225.8</ele>
        <time>2021-12-23T13:32:58Z</time>
      </trkpt>
      <trkpt lat="46.49863" lon="5.22737">
        <ele>226.2</ele>
        <time>2021-12-23T13:33:02Z</time>
      </trkpt>
      <trkpt lat="46.4992" lon="5.2273">
        <ele>227</ele>
        <time>2021-12-23T13:33:11Z</time>
      </trkpt>
      <trkpt lat="46.49926" lon="5.2273">
        <ele>227.2</ele>
        <time>2021-12-23T13:33:12Z</time>
      </trkpt>
      <trkpt lat="46.49973" lon="5.22724">
        <ele>228</ele>
        <time>2021-12-23T13:33:20Z</time>
      </trkpt>
      <trkpt lat="46.49979" lon="5.22723">
        <ele>228.4</ele>
        <time>2021-12-23T13:33:21Z</time>
      </trkpt>
      <trkpt lat="46.5002" lon="5.22715">
        <ele>229.4</ele>
        <time>2021-12-23T13:33:28Z</time>
      </trkpt>
      <trkpt lat="46.50025" lon="5.22713">
        <ele>229.8</ele>
        <time>2021-12-23T13:33:29Z</time>
      </trkpt>
      <trkpt lat="46.50052" lon="5.22707">
        <ele>230.6</ele>
        <time>2021-12-23T13:33:34Z</time>
      </trkpt>
      <trkpt lat="46.50069" lon="5.22705">
        <ele>231.2</ele>
        <time>2021-12-23T13:33:37Z</time>
      </trkpt>
      <trkpt lat="46.50075" lon="5.22705">
        <ele>231.6</ele>
        <time>2021-12-23T13:33:38Z</time>
      </trkpt>
      <trkpt lat="46.50081" lon="5.22705">
        <ele>231.6</ele>
        <time>2021-12-23T13:33:39Z</time>
      </trkpt>
      <trkpt lat="46.50099" lon="5.22708">
        <ele>232.2</ele>
        <time>2021-12-23T13:33:42Z</time>
      </trkpt>
      <trkpt lat="46.50122" lon="5.22718">
        <ele>232.6</ele>
        <time>2021-12-23T13:33:46Z</time>
      </trkpt>
      <trkpt lat="46.50138" lon="5.22727">
        <ele>233</ele>
        <time>2021-12-23T13:33:49Z</time>
      </trkpt>
      <trkpt lat="46.50184" lon="5.22752">
        <ele>233.4</ele>
        <time>2021-12-23T13:33:57Z</time>
      </trkpt>
      <trkpt lat="46.5019" lon="5.22753">
        <ele>233.6</ele>
        <time>2021-12-23T13:33:58Z</time>
      </trkpt>
      <trkpt lat="46.50203" lon="5.22755">
        <ele>233.8</ele>
        <time>2021-12-23T13:34:00Z</time>
      </trkpt>
      <trkpt lat="46.50228" lon="5.22754">
        <ele>234</ele>
        <time>2021-12-23T13:34:04Z</time>
      </trkpt>
      <trkpt lat="46.50287" lon="5.22743">
        <ele>233.8</ele>
        <time>2021-12-23T13:34:13Z</time>
      </trkpt>
      <trkpt lat="46.50341" lon="5.22744">
        <ele>233.6</ele>
        <time>2021-12-23T13:34:20Z</time>
      </trkpt>
      <trkpt lat="46.50396" lon="5.22752">
        <ele>233.4</ele>
        <time>2021-12-23T13:34:27Z</time>
      </trkpt>
      <trkpt lat="46.50429" lon="5.22759">
        <ele>232.8</ele>
        <time>2021-12-23T13:34:31Z</time>
      </trkpt>
      <trkpt lat="46.50437" lon="5.2276">
        <ele>232.8</ele>
        <time>2021-12-23T13:34:32Z</time>
      </trkpt>
      <trkpt lat="46.50495" lon="5.22769">
        <ele>232.4</ele>
        <time>2021-12-23T13:34:39Z</time>
      </trkpt>
      <trkpt lat="46.50511" lon="5.22773">
        <ele>232.4</ele>
        <time>2021-12-23T13:34:41Z</time>
      </trkpt>
      <trkpt lat="46.50558" lon="5.22792">
        <ele>232</ele>
        <time>2021-12-23T13:34:47Z</time>
      </trkpt>
      <trkpt lat="46.50598" lon="5.22826">
        <ele>232</ele>
        <time>2021-12-23T13:34:53Z</time>
      </trkpt>
      <trkpt lat="46.50641" lon="5.22873">
        <ele>232.4</ele>
        <time>2021-12-23T13:35:00Z</time>
      </trkpt>
      <trkpt lat="46.50647" lon="5.22881">
        <ele>232.6</ele>
        <time>2021-12-23T13:35:01Z</time>
      </trkpt>
      <trkpt lat="46.50685" lon="5.22933">
        <ele>232.4</ele>
        <time>2021-12-23T13:35:08Z</time>
      </trkpt>
      <trkpt lat="46.50724" lon="5.22988">
        <ele>232</ele>
        <time>2021-12-23T13:35:15Z</time>
      </trkpt>
      <trkpt lat="46.50729" lon="5.22996">
        <ele>232.4</ele>
        <time>2021-12-23T13:35:16Z</time>
      </trkpt>
      <trkpt lat="46.50769" lon="5.23055">
        <ele>232.4</ele>
        <time>2021-12-23T13:35:23Z</time>
      </trkpt>
      <trkpt lat="46.50811" lon="5.23108">
        <ele>232</ele>
        <time>2021-12-23T13:35:30Z</time>
      </trkpt>
      <trkpt lat="46.50817" lon="5.23114">
        <ele>232.2</ele>
        <time>2021-12-23T13:35:31Z</time>
      </trkpt>
      <trkpt lat="46.50859" lon="5.23143">
        <ele>232.2</ele>
        <time>2021-12-23T13:35:37Z</time>
      </trkpt>
      <trkpt lat="46.50881" lon="5.23152">
        <ele>232</ele>
        <time>2021-12-23T13:35:40Z</time>
      </trkpt>
      <trkpt lat="46.50918" lon="5.23167">
        <ele>232</ele>
        <time>2021-12-23T13:35:45Z</time>
      </trkpt>
      <trkpt lat="46.50967" lon="5.23189">
        <ele>232.2</ele>
        <time>2021-12-23T13:35:52Z</time>
      </trkpt>
      <trkpt lat="46.5102" lon="5.23231">
        <ele>232.2</ele>
        <time>2021-12-23T13:36:00Z</time>
      </trkpt>
      <trkpt lat="46.51068" lon="5.23269">
        <ele>231.6</ele>
        <time>2021-12-23T13:36:07Z</time>
      </trkpt>
      <trkpt lat="46.51088" lon="5.23289">
        <ele>231.4</ele>
        <time>2021-12-23T13:36:10Z</time>
      </trkpt>
      <trkpt lat="46.5112" lon="5.23326">
        <ele>230.8</ele>
        <time>2021-12-23T13:36:15Z</time>
      </trkpt>
      <trkpt lat="46.5114" lon="5.2335">
        <ele>230.8</ele>
        <time>2021-12-23T13:36:18Z</time>
      </trkpt>
      <trkpt lat="46.51184" lon="5.23406">
        <ele>230.4</ele>
        <time>2021-12-23T13:36:25Z</time>
      </trkpt>
      <trkpt lat="46.51196" lon="5.23422">
        <ele>230.2</ele>
        <time>2021-12-23T13:36:27Z</time>
      </trkpt>
      <trkpt lat="46.51238" lon="5.23472">
        <ele>230</ele>
        <time>2021-12-23T13:36:34Z</time>
      </trkpt>
      <trkpt lat="46.51243" lon="5.23479">
        <ele>230</ele>
        <time>2021-12-23T13:36:35Z</time>
      </trkpt>
      <trkpt lat="46.51287" lon="5.23534">
        <ele>230.4</ele>
        <time>2021-12-23T13:36:43Z</time>
      </trkpt>
      <trkpt lat="46.51331" lon="5.2359">
        <ele>230.4</ele>
        <time>2021-12-23T13:36:51Z</time>
      </trkpt>
      <trkpt lat="46.51337" lon="5.23597">
        <ele>230.6</ele>
        <time>2021-12-23T13:36:52Z</time>
      </trkpt>
      <trkpt lat="46.51384" lon="5.23648">
        <ele>230.8</ele>
        <time>2021-12-23T13:37:00Z</time>
      </trkpt>
      <trkpt lat="46.51397" lon="5.23657">
        <ele>230.6</ele>
        <time>2021-12-23T13:37:02Z</time>
      </trkpt>
      <trkpt lat="46.51419" lon="5.23665">
        <ele>230.6</ele>
        <time>2021-12-23T13:37:05Z</time>
      </trkpt>
      <trkpt lat="46.51473" lon="5.23682">
        <ele>230.6</ele>
        <time>2021-12-23T13:37:12Z</time>
      </trkpt>
      <trkpt lat="46.5148" lon="5.23684">
        <ele>230.6</ele>
        <time>2021-12-23T13:37:13Z</time>
      </trkpt>
      <trkpt lat="46.51535" lon="5.23703">
        <ele>230.4</ele>
        <time>2021-12-23T13:37:20Z</time>
      </trkpt>
      <trkpt lat="46.51559" lon="5.23712">
        <ele>230</ele>
        <time>2021-12-23T13:37:23Z</time>
      </trkpt>
      <trkpt lat="46.51599" lon="5.23725">
        <ele>229.8</ele>
        <time>2021-12-23T13:37:28Z</time>
      </trkpt>
      <trkpt lat="46.51639" lon="5.23736">
        <ele>229.6</ele>
        <time>2021-12-23T13:37:33Z</time>
      </trkpt>
      <trkpt lat="46.5169" lon="5.23736">
        <ele>229.4</ele>
        <time>2021-12-23T13:37:39Z</time>
      </trkpt>
      <trkpt lat="46.5175" lon="5.23726">
        <ele>229</ele>
        <time>2021-12-23T13:37:46Z</time>
      </trkpt>
      <trkpt lat="46.51766" lon="5.23723">
        <ele>228.8</ele>
        <time>2021-12-23T13:37:48Z</time>
      </trkpt>
      <trkpt lat="46.51824" lon="5.23713">
        <ele>228.8</ele>
        <time>2021-12-23T13:37:55Z</time>
      </trkpt>
      <trkpt lat="46.51849" lon="5.23708">
        <ele>228.6</ele>
        <time>2021-12-23T13:37:58Z</time>
      </trkpt>
      <trkpt lat="46.51899" lon="5.237">
        <ele>228</ele>
        <time>2021-12-23T13:38:04Z</time>
      </trkpt>
      <trkpt lat="46.51924" lon="5.23698">
        <ele>227.8</ele>
        <time>2021-12-23T13:38:07Z</time>
      </trkpt>
      <trkpt lat="46.51979" lon="5.23693">
        <ele>228</ele>
        <time>2021-12-23T13:38:14Z</time>
      </trkpt>
      <trkpt lat="46.52032" lon="5.23677">
        <ele>228</ele>
        <time>2021-12-23T13:38:21Z</time>
      </trkpt>
      <trkpt lat="46.52087" lon="5.23668">
        <ele>228.2</ele>
        <time>2021-12-23T13:38:28Z</time>
      </trkpt>
      <trkpt lat="46.52103" lon="5.23666">
        <ele>228</ele>
        <time>2021-12-23T13:38:30Z</time>
      </trkpt>
      <trkpt lat="46.52119" lon="5.23669">
        <ele>228</ele>
        <time>2021-12-23T13:38:32Z</time>
      </trkpt>
      <trkpt lat="46.52134" lon="5.23675">
        <ele>228</ele>
        <time>2021-12-23T13:38:34Z</time>
      </trkpt>
      <trkpt lat="46.52148" lon="5.23687">
        <ele>228</ele>
        <time>2021-12-23T13:38:36Z</time>
      </trkpt>
      <trkpt lat="46.5216" lon="5.23701">
        <ele>228</ele>
        <time>2021-12-23T13:38:38Z</time>
      </trkpt>
      <trkpt lat="46.52198" lon="5.23761">
        <ele>228.2</ele>
        <time>2021-12-23T13:38:45Z</time>
      </trkpt>
      <trkpt lat="46.52208" lon="5.23779">
        <ele>228.2</ele>
        <time>2021-12-23T13:38:47Z</time>
      </trkpt>
      <trkpt lat="46.5224" lon="5.23829">
        <ele>228.2</ele>
        <time>2021-12-23T13:38:53Z</time>
      </trkpt>
      <trkpt lat="46.52277" lon="5.23888">
        <ele>228.2</ele>
        <time>2021-12-23T13:39:00Z</time>
      </trkpt>
      <trkpt lat="46.52306" lon="5.23942">
        <ele>228.2</ele>
        <time>2021-12-23T13:39:06Z</time>
      </trkpt>
      <trkpt lat="46.52336" lon="5.24016">
        <ele>228.4</ele>
        <time>2021-12-23T13:39:14Z</time>
      </trkpt>
      <trkpt lat="46.52342" lon="5.24033">
        <ele>228.4</ele>
        <time>2021-12-23T13:39:16Z</time>
      </trkpt>
      <trkpt lat="46.52358" lon="5.24073">
        <ele>228.4</ele>
        <time>2021-12-23T13:39:21Z</time>
      </trkpt>
      <trkpt lat="46.5236" lon="5.24081">
        <ele>228.4</ele>
        <time>2021-12-23T13:39:22Z</time>
      </trkpt>
      <trkpt lat="46.52362" lon="5.24087">
        <ele>228.2</ele>
        <time>2021-12-23T13:39:23Z</time>
      </trkpt>
      <trkpt lat="46.52361" lon="5.24093">
        <ele>228</ele>
        <time>2021-12-23T13:39:25Z</time>
      </trkpt>
      <trkpt lat="46.52362" lon="5.24099">
        <ele>228</ele>
        <time>2021-12-23T13:39:27Z</time>
      </trkpt>
      <trkpt lat="46.52368" lon="5.24104">
        <ele>228</ele>
        <time>2021-12-23T13:39:29Z</time>
      </trkpt>
      <trkpt lat="46.5239" lon="5.24109">
        <ele>227.8</ele>
        <time>2021-12-23T13:39:33Z</time>
      </trkpt>
      <trkpt lat="46.52423" lon="5.24116">
        <ele>228</ele>
        <time>2021-12-23T13:39:38Z</time>
      </trkpt>
      <trkpt lat="46.52436" lon="5.2412">
        <ele>228</ele>
        <time>2021-12-23T13:39:40Z</time>
      </trkpt>
      <trkpt lat="46.5245" lon="5.24121">
        <ele>228.2</ele>
        <time>2021-12-23T13:39:42Z</time>
      </trkpt>
      <trkpt lat="46.52456" lon="5.24123">
        <ele>228.4</ele>
        <time>2021-12-23T13:39:43Z</time>
      </trkpt>
      <trkpt lat="46.52512" lon="5.24137">
        <ele>228.8</ele>
        <time>2021-12-23T13:39:51Z</time>
      </trkpt>
      <trkpt lat="46.52571" lon="5.24151">
        <ele>229</ele>
        <time>2021-12-23T13:39:59Z</time>
      </trkpt>
      <trkpt lat="46.52579" lon="5.24153">
        <ele>229</ele>
        <time>2021-12-23T13:40:00Z</time>
      </trkpt>
      <trkpt lat="46.52639" lon="5.24167">
        <ele>229</ele>
        <time>2021-12-23T13:40:08Z</time>
      </trkpt>
      <trkpt lat="46.52647" lon="5.24169">
        <ele>229</ele>
        <time>2021-12-23T13:40:09Z</time>
      </trkpt>
      <trkpt lat="46.52702" lon="5.24181">
        <ele>228.6</ele>
        <time>2021-12-23T13:40:16Z</time>
      </trkpt>
      <trkpt lat="46.52719" lon="5.24185">
        <ele>228.4</ele>
        <time>2021-12-23T13:40:18Z</time>
      </trkpt>
      <trkpt lat="46.5278" lon="5.24199">
        <ele>228.4</ele>
        <time>2021-12-23T13:40:26Z</time>
      </trkpt>
      <trkpt lat="46.52789" lon="5.24201">
        <ele>228.4</ele>
        <time>2021-12-23T13:40:27Z</time>
      </trkpt>
      <trkpt lat="46.52844" lon="5.24215">
        <ele>228.6</ele>
        <time>2021-12-23T13:40:34Z</time>
      </trkpt>
      <trkpt lat="46.52858" lon="5.24219">
        <ele>228.4</ele>
        <time>2021-12-23T13:40:36Z</time>
      </trkpt>
      <trkpt lat="46.52917" lon="5.24232">
        <ele>228.4</ele>
        <time>2021-12-23T13:40:43Z</time>
      </trkpt>
      <trkpt lat="46.52932" lon="5.24236">
        <ele>228.2</ele>
        <time>2021-12-23T13:40:45Z</time>
      </trkpt>
      <trkpt lat="46.52993" lon="5.2425">
        <ele>227.8</ele>
        <time>2021-12-23T13:40:52Z</time>
      </trkpt>
      <trkpt lat="46.53009" lon="5.24254">
        <ele>227.8</ele>
        <time>2021-12-23T13:40:54Z</time>
      </trkpt>
      <trkpt lat="46.53068" lon="5.24268">
        <ele>227.6</ele>
        <time>2021-12-23T13:41:01Z</time>
      </trkpt>
      <trkpt lat="46.53099" lon="5.24275">
        <ele>227.8</ele>
        <time>2021-12-23T13:41:05Z</time>
      </trkpt>
      <trkpt lat="46.53157" lon="5.24288">
        <ele>227.6</ele>
        <time>2021-12-23T13:41:12Z</time>
      </trkpt>
      <trkpt lat="46.53165" lon="5.2429">
        <ele>227.6</ele>
        <time>2021-12-23T13:41:13Z</time>
      </trkpt>
      <trkpt lat="46.5318" lon="5.24294">
        <ele>227.4</ele>
        <time>2021-12-23T13:41:15Z</time>
      </trkpt>
      <trkpt lat="46.53238" lon="5.24306">
        <ele>227.2</ele>
        <time>2021-12-23T13:41:22Z</time>
      </trkpt>
      <trkpt lat="46.53253" lon="5.2431">
        <ele>227</ele>
        <time>2021-12-23T13:41:24Z</time>
      </trkpt>
      <trkpt lat="46.53303" lon="5.24319">
        <ele>226.4</ele>
        <time>2021-12-23T13:41:30Z</time>
      </trkpt>
      <trkpt lat="46.53335" lon="5.24325">
        <ele>226.4</ele>
        <time>2021-12-23T13:41:34Z</time>
      </trkpt>
      <trkpt lat="46.53392" lon="5.24335">
        <ele>226.2</ele>
        <time>2021-12-23T13:41:41Z</time>
      </trkpt>
      <trkpt lat="46.53424" lon="5.2434">
        <ele>226.2</ele>
        <time>2021-12-23T13:41:45Z</time>
      </trkpt>
      <trkpt lat="46.53478" lon="5.24351">
        <ele>226</ele>
        <time>2021-12-23T13:41:52Z</time>
      </trkpt>
      <trkpt lat="46.53518" lon="5.24358">
        <ele>225.8</ele>
        <time>2021-12-23T13:41:57Z</time>
      </trkpt>
      <trkpt lat="46.53576" lon="5.24368">
        <ele>225.6</ele>
        <time>2021-12-23T13:42:04Z</time>
      </trkpt>
      <trkpt lat="46.53583" lon="5.2437">
        <ele>225.4</ele>
        <time>2021-12-23T13:42:05Z</time>
      </trkpt>
      <trkpt lat="46.53598" lon="5.24372">
        <ele>225.4</ele>
        <time>2021-12-23T13:42:07Z</time>
      </trkpt>
      <trkpt lat="46.53656" lon="5.24382">
        <ele>224.8</ele>
        <time>2021-12-23T13:42:14Z</time>
      </trkpt>
      <trkpt lat="46.53679" lon="5.24387">
        <ele>224.6</ele>
        <time>2021-12-23T13:42:17Z</time>
      </trkpt>
      <trkpt lat="46.53736" lon="5.24397">
        <ele>224.4</ele>
        <time>2021-12-23T13:42:24Z</time>
      </trkpt>
      <trkpt lat="46.53767" lon="5.24403">
        <ele>224</ele>
        <time>2021-12-23T13:42:28Z</time>
      </trkpt>
      <trkpt lat="46.53827" lon="5.24414">
        <ele>223.4</ele>
        <time>2021-12-23T13:42:35Z</time>
      </trkpt>
      <trkpt lat="46.53836" lon="5.24416">
        <ele>223.4</ele>
        <time>2021-12-23T13:42:36Z</time>
      </trkpt>
      <trkpt lat="46.53895" lon="5.24427">
        <ele>222.4</ele>
        <time>2021-12-23T13:42:42Z</time>
      </trkpt>
      <trkpt lat="46.53915" lon="5.2443">
        <ele>221.8</ele>
        <time>2021-12-23T13:42:44Z</time>
      </trkpt>
      <trkpt lat="46.53923" lon="5.24431">
        <ele>221.4</ele>
        <time>2021-12-23T13:42:45Z</time>
      </trkpt>
      <trkpt lat="46.53965" lon="5.24439">
        <ele>220.4</ele>
        <time>2021-12-23T13:42:49Z</time>
      </trkpt>
      <trkpt lat="46.54001" lon="5.24446">
        <ele>219.2</ele>
        <time>2021-12-23T13:42:52Z</time>
      </trkpt>
      <trkpt lat="46.54033" lon="5.24452">
        <ele>217.8</ele>
        <time>2021-12-23T13:42:55Z</time>
      </trkpt>
      <trkpt lat="46.54078" lon="5.2446">
        <ele>216.6</ele>
        <time>2021-12-23T13:42:59Z</time>
      </trkpt>
      <trkpt lat="46.54103" lon="5.24464">
        <ele>216</ele>
        <time>2021-12-23T13:43:01Z</time>
      </trkpt>
      <trkpt lat="46.54115" lon="5.24467">
        <ele>215.4</ele>
        <time>2021-12-23T13:43:02Z</time>
      </trkpt>
      <trkpt lat="46.54168" lon="5.24477">
        <ele>214.2</ele>
        <time>2021-12-23T13:43:07Z</time>
      </trkpt>
      <trkpt lat="46.54186" lon="5.2448">
        <ele>214</ele>
        <time>2021-12-23T13:43:09Z</time>
      </trkpt>
      <trkpt lat="46.54244" lon="5.2449">
        <ele>213.4</ele>
        <time>2021-12-23T13:43:15Z</time>
      </trkpt>
      <trkpt lat="46.54253" lon="5.24492">
        <ele>213.4</ele>
        <time>2021-12-23T13:43:16Z</time>
      </trkpt>
      <trkpt lat="46.5431" lon="5.24503">
        <ele>214.2</ele>
        <time>2021-12-23T13:43:23Z</time>
      </trkpt>
      <trkpt lat="46.54318" lon="5.24505">
        <ele>214.2</ele>
        <time>2021-12-23T13:43:24Z</time>
      </trkpt>
      <trkpt lat="46.54375" lon="5.24516">
        <ele>215</ele>
        <time>2021-12-23T13:43:31Z</time>
      </trkpt>
      <trkpt lat="46.54389" lon="5.24519">
        <ele>215.2</ele>
        <time>2021-12-23T13:43:33Z</time>
      </trkpt>
      <trkpt lat="46.54397" lon="5.24521">
        <ele>215.4</ele>
        <time>2021-12-23T13:43:34Z</time>
      </trkpt>
      <trkpt lat="46.54435" lon="5.24528">
        <ele>215.4</ele>
        <time>2021-12-23T13:43:39Z</time>
      </trkpt>
      <trkpt lat="46.5449" lon="5.2454">
        <ele>215.8</ele>
        <time>2021-12-23T13:43:46Z</time>
      </trkpt>
      <trkpt lat="46.54504" lon="5.24543">
        <ele>216</ele>
        <time>2021-12-23T13:43:48Z</time>
      </trkpt>
      <trkpt lat="46.5454" lon="5.24552">
        <ele>216.4</ele>
        <time>2021-12-23T13:43:53Z</time>
      </trkpt>
      <trkpt lat="46.54556" lon="5.24555">
        <ele>216.8</ele>
        <time>2021-12-23T13:43:55Z</time>
      </trkpt>
      <trkpt lat="46.54594" lon="5.24564">
        <ele>217.6</ele>
        <time>2021-12-23T13:44:01Z</time>
      </trkpt>
      <trkpt lat="46.54621" lon="5.2457">
        <ele>218.4</ele>
        <time>2021-12-23T13:44:05Z</time>
      </trkpt>
      <trkpt lat="46.54632" lon="5.24573">
        <ele>218.8</ele>
        <time>2021-12-23T13:44:07Z</time>
      </trkpt>
      <trkpt lat="46.54664" lon="5.24581">
        <ele>219.6</ele>
        <time>2021-12-23T13:44:12Z</time>
      </trkpt>
      <trkpt lat="46.54671" lon="5.24583">
        <ele>219.8</ele>
        <time>2021-12-23T13:44:13Z</time>
      </trkpt>
      <trkpt lat="46.54703" lon="5.24591">
        <ele>220.8</ele>
        <time>2021-12-23T13:44:18Z</time>
      </trkpt>
      <trkpt lat="46.54721" lon="5.24593">
        <ele>221.4</ele>
        <time>2021-12-23T13:44:21Z</time>
      </trkpt>
      <trkpt lat="46.54742" lon="5.24593">
        <ele>222</ele>
        <time>2021-12-23T13:44:24Z</time>
      </trkpt>
      <trkpt lat="46.54761" lon="5.2459">
        <ele>222.4</ele>
        <time>2021-12-23T13:44:27Z</time>
      </trkpt>
      <trkpt lat="46.54784" lon="5.24579">
        <ele>223</ele>
        <time>2021-12-23T13:44:31Z</time>
      </trkpt>
      <trkpt lat="46.54796" lon="5.24572">
        <ele>223.4</ele>
        <time>2021-12-23T13:44:33Z</time>
      </trkpt>
      <trkpt lat="46.54811" lon="5.24565">
        <ele>224</ele>
        <time>2021-12-23T13:44:36Z</time>
      </trkpt>
      <trkpt lat="46.54816" lon="5.24566">
        <ele>224</ele>
        <time>2021-12-23T13:44:37Z</time>
      </trkpt>
      <trkpt lat="46.54818" lon="5.2457">
        <ele>224</ele>
        <time>2021-12-23T13:44:38Z</time>
      </trkpt>
      <trkpt lat="46.54818" lon="5.24576">
        <ele>224</ele>
        <time>2021-12-23T13:44:39Z</time>
      </trkpt>
      <trkpt lat="46.54813" lon="5.24587">
        <ele>224.2</ele>
        <time>2021-12-23T13:44:41Z</time>
      </trkpt>
      <trkpt lat="46.54803" lon="5.24603">
        <ele>224.2</ele>
        <time>2021-12-23T13:44:43Z</time>
      </trkpt>
      <trkpt lat="46.548" lon="5.24611">
        <ele>224</ele>
        <time>2021-12-23T13:44:44Z</time>
      </trkpt>
      <trkpt lat="46.54772" lon="5.24668">
        <ele>224.2</ele>
        <time>2021-12-23T13:44:51Z</time>
      </trkpt>
      <trkpt lat="46.54751" lon="5.2471">
        <ele>225</ele>
        <time>2021-12-23T13:44:57Z</time>
      </trkpt>
      <trkpt lat="46.54737" lon="5.2474">
        <ele>225.6</ele>
        <time>2021-12-23T13:45:01Z</time>
      </trkpt>
      <trkpt lat="46.5473" lon="5.24756">
        <ele>225.6</ele>
        <time>2021-12-23T13:45:03Z</time>
      </trkpt>
      <trkpt lat="46.54701" lon="5.2481">
        <ele>226</ele>
        <time>2021-12-23T13:45:11Z</time>
      </trkpt>
      <trkpt lat="46.54681" lon="5.24851">
        <ele>226</ele>
        <time>2021-12-23T13:45:17Z</time>
      </trkpt>
      <trkpt lat="46.54656" lon="5.249">
        <ele>226.6</ele>
        <time>2021-12-23T13:45:24Z</time>
      </trkpt>
      <trkpt lat="46.54623" lon="5.24972">
        <ele>226.2</ele>
        <time>2021-12-23T13:45:33Z</time>
      </trkpt>
      <trkpt lat="46.54607" lon="5.25025">
        <ele>226</ele>
        <time>2021-12-23T13:45:38Z</time>
      </trkpt>
      <trkpt lat="46.54599" lon="5.2506">
        <ele>225.4</ele>
        <time>2021-12-23T13:45:41Z</time>
      </trkpt>
      <trkpt lat="46.54591" lon="5.25099">
        <ele>223.8</ele>
        <time>2021-12-23T13:45:44Z</time>
      </trkpt>
      <trkpt lat="46.54579" lon="5.25151">
        <ele>222.6</ele>
        <time>2021-12-23T13:45:48Z</time>
      </trkpt>
      <trkpt lat="46.54571" lon="5.25188">
        <ele>221.4</ele>
        <time>2021-12-23T13:45:51Z</time>
      </trkpt>
      <trkpt lat="46.54565" lon="5.25212">
        <ele>220.8</ele>
        <time>2021-12-23T13:45:53Z</time>
      </trkpt>
      <trkpt lat="46.54561" lon="5.25223">
        <ele>220.6</ele>
        <time>2021-12-23T13:45:54Z</time>
      </trkpt>
      <trkpt lat="46.54556" lon="5.25233">
        <ele>220.4</ele>
        <time>2021-12-23T13:45:55Z</time>
      </trkpt>
      <trkpt lat="46.5455" lon="5.25242">
        <ele>220</ele>
        <time>2021-12-23T13:45:56Z</time>
      </trkpt>
      <trkpt lat="46.54517" lon="5.25285">
        <ele>219.6</ele>
        <time>2021-12-23T13:46:02Z</time>
      </trkpt>
      <trkpt lat="46.54497" lon="5.25325">
        <ele>219.8</ele>
        <time>2021-12-23T13:46:07Z</time>
      </trkpt>
      <trkpt lat="46.54483" lon="5.25374">
        <ele>220</ele>
        <time>2021-12-23T13:46:13Z</time>
      </trkpt>
      <trkpt lat="46.54468" lon="5.25427">
        <ele>221</ele>
        <time>2021-12-23T13:46:20Z</time>
      </trkpt>
      <trkpt lat="46.54464" lon="5.25448">
        <ele>221.6</ele>
        <time>2021-12-23T13:46:23Z</time>
      </trkpt>
      <trkpt lat="46.54463" lon="5.2547">
        <ele>222.4</ele>
        <time>2021-12-23T13:46:26Z</time>
      </trkpt>
      <trkpt lat="46.54462" lon="5.25485">
        <ele>222.8</ele>
        <time>2021-12-23T13:46:28Z</time>
      </trkpt>
      <trkpt lat="46.5446" lon="5.25537">
        <ele>223.8</ele>
        <time>2021-12-23T13:46:35Z</time>
      </trkpt>
      <trkpt lat="46.54457" lon="5.25581">
        <ele>225</ele>
        <time>2021-12-23T13:46:41Z</time>
      </trkpt>
      <trkpt lat="46.54455" lon="5.25596">
        <ele>225.4</ele>
        <time>2021-12-23T13:46:43Z</time>
      </trkpt>
      <trkpt lat="46.54452" lon="5.25603">
        <ele>225.6</ele>
        <time>2021-12-23T13:46:44Z</time>
      </trkpt>
      <trkpt lat="46.54449" lon="5.25609">
        <ele>225.6</ele>
        <time>2021-12-23T13:46:45Z</time>
      </trkpt>
      <trkpt lat="46.54439" lon="5.25617">
        <ele>226</ele>
        <time>2021-12-23T13:46:47Z</time>
      </trkpt>
      <trkpt lat="46.54434" lon="5.2562">
        <ele>226.2</ele>
        <time>2021-12-23T13:46:48Z</time>
      </trkpt>
      <trkpt lat="46.54412" lon="5.25627">
        <ele>226.6</ele>
        <time>2021-12-23T13:46:52Z</time>
      </trkpt>
      <trkpt lat="46.54374" lon="5.25644">
        <ele>227</ele>
        <time>2021-12-23T13:46:59Z</time>
      </trkpt>
      <trkpt lat="46.54369" lon="5.25649">
        <ele>227.2</ele>
        <time>2021-12-23T13:47:00Z</time>
      </trkpt>
      <trkpt lat="46.54364" lon="5.25653">
        <ele>227.2</ele>
        <time>2021-12-23T13:47:01Z</time>
      </trkpt>
      <trkpt lat="46.54356" lon="5.25665">
        <ele>227.2</ele>
        <time>2021-12-23T13:47:03Z</time>
      </trkpt>
      <trkpt lat="46.54353" lon="5.25672">
        <ele>227.4</ele>
        <time>2021-12-23T13:47:04Z</time>
      </trkpt>
      <trkpt lat="46.54351" lon="5.2568">
        <ele>227.4</ele>
        <time>2021-12-23T13:47:05Z</time>
      </trkpt>
      <trkpt lat="46.54342" lon="5.25713">
        <ele>227.4</ele>
        <time>2021-12-23T13:47:09Z</time>
      </trkpt>
      <trkpt lat="46.54336" lon="5.2573">
        <ele>227.4</ele>
        <time>2021-12-23T13:47:11Z</time>
      </trkpt>
      <trkpt lat="46.54327" lon="5.25743">
        <ele>227.2</ele>
        <time>2021-12-23T13:47:13Z</time>
      </trkpt>
      <trkpt lat="46.54315" lon="5.25751">
        <ele>227</ele>
        <time>2021-12-23T13:47:15Z</time>
      </trkpt>
      <trkpt lat="46.54309" lon="5.25752">
        <ele>226.8</ele>
        <time>2021-12-23T13:47:16Z</time>
      </trkpt>
      <trkpt lat="46.54256" lon="5.25756">
        <ele>226.2</ele>
        <time>2021-12-23T13:47:24Z</time>
      </trkpt>
      <trkpt lat="46.54244" lon="5.25757">
        <ele>226</ele>
        <time>2021-12-23T13:47:26Z</time>
      </trkpt>
      <trkpt lat="46.54197" lon="5.25762">
        <ele>226.2</ele>
        <time>2021-12-23T13:47:34Z</time>
      </trkpt>
      <trkpt lat="46.54186" lon="5.25764">
        <ele>226.2</ele>
        <time>2021-12-23T13:47:36Z</time>
      </trkpt>
      <trkpt lat="46.54176" lon="5.2577">
        <ele>226.4</ele>
        <time>2021-12-23T13:47:38Z</time>
      </trkpt>
      <trkpt lat="46.54172" lon="5.25774">
        <ele>226.4</ele>
        <time>2021-12-23T13:47:39Z</time>
      </trkpt>
      <trkpt lat="46.54168" lon="5.25779">
        <ele>226.4</ele>
        <time>2021-12-23T13:47:40Z</time>
      </trkpt>
      <trkpt lat="46.54161" lon="5.25791">
        <ele>226.6</ele>
        <time>2021-12-23T13:47:42Z</time>
      </trkpt>
      <trkpt lat="46.54158" lon="5.25799">
        <ele>226.6</ele>
        <time>2021-12-23T13:47:43Z</time>
      </trkpt>
      <trkpt lat="46.54149" lon="5.25829">
        <ele>226.8</ele>
        <time>2021-12-23T13:47:47Z</time>
      </trkpt>
      <trkpt lat="46.54143" lon="5.25851">
        <ele>227.2</ele>
        <time>2021-12-23T13:47:50Z</time>
      </trkpt>
      <trkpt lat="46.54124" lon="5.25925">
        <ele>227.2</ele>
        <time>2021-12-23T13:47:59Z</time>
      </trkpt>
      <trkpt lat="46.54123" lon="5.25934">
        <ele>227</ele>
        <time>2021-12-23T13:48:00Z</time>
      </trkpt>
      <trkpt lat="46.54114" lon="5.26002">
        <ele>226</ele>
        <time>2021-12-23T13:48:07Z</time>
      </trkpt>
      <trkpt lat="46.54113" lon="5.26023">
        <ele>225.6</ele>
        <time>2021-12-23T13:48:09Z</time>
      </trkpt>
      <trkpt lat="46.54113" lon="5.26046">
        <ele>225.4</ele>
        <time>2021-12-23T13:48:11Z</time>
      </trkpt>
      <trkpt lat="46.54117" lon="5.26076">
        <ele>225</ele>
        <time>2021-12-23T13:48:14Z</time>
      </trkpt>
      <trkpt lat="46.54119" lon="5.26089">
        <ele>224.8</ele>
        <time>2021-12-23T13:48:15Z</time>
      </trkpt>
      <trkpt lat="46.54123" lon="5.26144">
        <ele>223.6</ele>
        <time>2021-12-23T13:48:20Z</time>
      </trkpt>
      <trkpt lat="46.54121" lon="5.26155">
        <ele>223.6</ele>
        <time>2021-12-23T13:48:21Z</time>
      </trkpt>
      <trkpt lat="46.54118" lon="5.26165">
        <ele>223.2</ele>
        <time>2021-12-23T13:48:22Z</time>
      </trkpt>
      <trkpt lat="46.54108" lon="5.26178">
        <ele>223</ele>
        <time>2021-12-23T13:48:24Z</time>
      </trkpt>
      <trkpt lat="46.5408" lon="5.26196">
        <ele>222.8</ele>
        <time>2021-12-23T13:48:28Z</time>
      </trkpt>
      <trkpt lat="46.54057" lon="5.26207">
        <ele>222.6</ele>
        <time>2021-12-23T13:48:31Z</time>
      </trkpt>
      <trkpt lat="46.54037" lon="5.26218">
        <ele>222.2</ele>
        <time>2021-12-23T13:48:34Z</time>
      </trkpt>
      <trkpt lat="46.54029" lon="5.26225">
        <ele>222.2</ele>
        <time>2021-12-23T13:48:35Z</time>
      </trkpt>
      <trkpt lat="46.54015" lon="5.2624">
        <ele>221.8</ele>
        <time>2021-12-23T13:48:37Z</time>
      </trkpt>
      <trkpt lat="46.54009" lon="5.26249">
        <ele>221.6</ele>
        <time>2021-12-23T13:48:38Z</time>
      </trkpt>
      <trkpt lat="46.54" lon="5.2627">
        <ele>221.2</ele>
        <time>2021-12-23T13:48:40Z</time>
      </trkpt>
      <trkpt lat="46.53991" lon="5.26294">
        <ele>220.4</ele>
        <time>2021-12-23T13:48:42Z</time>
      </trkpt>
      <trkpt lat="46.53978" lon="5.26332">
        <ele>219</ele>
        <time>2021-12-23T13:48:45Z</time>
      </trkpt>
      <trkpt lat="46.53961" lon="5.26382">
        <ele>217.6</ele>
        <time>2021-12-23T13:48:49Z</time>
      </trkpt>
      <trkpt lat="46.53948" lon="5.26419">
        <ele>216</ele>
        <time>2021-12-23T13:48:52Z</time>
      </trkpt>
      <trkpt lat="46.53944" lon="5.26431">
        <ele>215.8</ele>
        <time>2021-12-23T13:48:53Z</time>
      </trkpt>
      <trkpt lat="46.53932" lon="5.26466">
        <ele>215</ele>
        <time>2021-12-23T13:48:56Z</time>
      </trkpt>
      <trkpt lat="46.5392" lon="5.26501">
        <ele>213.8</ele>
        <time>2021-12-23T13:48:59Z</time>
      </trkpt>
      <trkpt lat="46.53904" lon="5.26546">
        <ele>212.8</ele>
        <time>2021-12-23T13:49:03Z</time>
      </trkpt>
      <trkpt lat="46.53891" lon="5.2658">
        <ele>211.8</ele>
        <time>2021-12-23T13:49:06Z</time>
      </trkpt>
      <trkpt lat="46.53886" lon="5.26591">
        <ele>211.8</ele>
        <time>2021-12-23T13:49:07Z</time>
      </trkpt>
      <trkpt lat="46.53861" lon="5.26632">
        <ele>210.6</ele>
        <time>2021-12-23T13:49:11Z</time>
      </trkpt>
      <trkpt lat="46.53849" lon="5.26651">
        <ele>209.4</ele>
        <time>2021-12-23T13:49:13Z</time>
      </trkpt>
      <trkpt lat="46.53844" lon="5.26662">
        <ele>209.2</ele>
        <time>2021-12-23T13:49:14Z</time>
      </trkpt>
      <trkpt lat="46.53836" lon="5.26684">
        <ele>208.6</ele>
        <time>2021-12-23T13:49:16Z</time>
      </trkpt>
      <trkpt lat="46.53834" lon="5.26696">
        <ele>208.2</ele>
        <time>2021-12-23T13:49:17Z</time>
      </trkpt>
      <trkpt lat="46.53833" lon="5.26707">
        <ele>208</ele>
        <time>2021-12-23T13:49:18Z</time>
      </trkpt>
      <trkpt lat="46.53834" lon="5.26719">
        <ele>207.8</ele>
        <time>2021-12-23T13:49:19Z</time>
      </trkpt>
      <trkpt lat="46.53835" lon="5.2673">
        <ele>207.8</ele>
        <time>2021-12-23T13:49:20Z</time>
      </trkpt>
      <trkpt lat="46.53841" lon="5.26751">
        <ele>207.6</ele>
        <time>2021-12-23T13:49:22Z</time>
      </trkpt>
      <trkpt lat="46.53845" lon="5.26761">
        <ele>207.8</ele>
        <time>2021-12-23T13:49:23Z</time>
      </trkpt>
      <trkpt lat="46.53859" lon="5.26789">
        <ele>207.8</ele>
        <time>2021-12-23T13:49:26Z</time>
      </trkpt>
      <trkpt lat="46.5389" lon="5.2684">
        <ele>208</ele>
        <time>2021-12-23T13:49:32Z</time>
      </trkpt>
      <trkpt lat="46.53932" lon="5.26904">
        <ele>207.8</ele>
        <time>2021-12-23T13:49:40Z</time>
      </trkpt>
      <trkpt lat="46.53941" lon="5.2692">
        <ele>207.6</ele>
        <time>2021-12-23T13:49:42Z</time>
      </trkpt>
      <trkpt lat="46.5397" lon="5.26979">
        <ele>207.8</ele>
        <time>2021-12-23T13:49:49Z</time>
      </trkpt>
      <trkpt lat="46.5399" lon="5.27025">
        <ele>207.8</ele>
        <time>2021-12-23T13:49:55Z</time>
      </trkpt>
      <trkpt lat="46.53996" lon="5.27041">
        <ele>208</ele>
        <time>2021-12-23T13:49:57Z</time>
      </trkpt>
      <trkpt lat="46.53996" lon="5.2705">
        <ele>208.4</ele>
        <time>2021-12-23T13:49:58Z</time>
      </trkpt>
      <trkpt lat="46.53995" lon="5.27058">
        <ele>208.6</ele>
        <time>2021-12-23T13:49:59Z</time>
      </trkpt>
      <trkpt lat="46.53989" lon="5.2707">
        <ele>209</ele>
        <time>2021-12-23T13:50:01Z</time>
      </trkpt>
      <trkpt lat="46.53976" lon="5.27083">
        <ele>209.2</ele>
        <time>2021-12-23T13:50:04Z</time>
      </trkpt>
      <trkpt lat="46.53972" lon="5.27087">
        <ele>209.4</ele>
        <time>2021-12-23T13:50:05Z</time>
      </trkpt>
      <trkpt lat="46.53967" lon="5.2709">
        <ele>209.4</ele>
        <time>2021-12-23T13:50:06Z</time>
      </trkpt>
      <trkpt lat="46.53943" lon="5.27101">
        <ele>209.4</ele>
        <time>2021-12-23T13:50:10Z</time>
      </trkpt>
      <trkpt lat="46.53911" lon="5.27115">
        <ele>209.2</ele>
        <time>2021-12-23T13:50:15Z</time>
      </trkpt>
      <trkpt lat="46.53863" lon="5.27138">
        <ele>209</ele>
        <time>2021-12-23T13:50:22Z</time>
      </trkpt>
      <trkpt lat="46.53817" lon="5.27162">
        <ele>208.8</ele>
        <time>2021-12-23T13:50:29Z</time>
      </trkpt>
      <trkpt lat="46.53767" lon="5.2719">
        <ele>208.8</ele>
        <time>2021-12-23T13:50:38Z</time>
      </trkpt>
      <trkpt lat="46.53761" lon="5.27193">
        <ele>208.8</ele>
        <time>2021-12-23T13:50:39Z</time>
      </trkpt>
      <trkpt lat="46.53716" lon="5.27212">
        <ele>209</ele>
        <time>2021-12-23T13:50:48Z</time>
      </trkpt>
      <trkpt lat="46.53674" lon="5.2722">
        <ele>209.6</ele>
        <time>2021-12-23T13:50:56Z</time>
      </trkpt>
      <trkpt lat="46.53669" lon="5.27221">
        <ele>209.6</ele>
        <time>2021-12-23T13:50:57Z</time>
      </trkpt>
      <trkpt lat="46.53633" lon="5.27227">
        <ele>209.8</ele>
        <time>2021-12-23T13:51:04Z</time>
      </trkpt>
      <trkpt lat="46.53587" lon="5.27234">
        <ele>210.4</ele>
        <time>2021-12-23T13:51:13Z</time>
      </trkpt>
      <trkpt lat="46.53577" lon="5.27236">
        <ele>210.6</ele>
        <time>2021-12-23T13:51:15Z</time>
      </trkpt>
      <trkpt lat="46.53528" lon="5.27255">
        <ele>211.4</ele>
        <time>2021-12-23T13:51:25Z</time>
      </trkpt>
      <trkpt lat="46.53519" lon="5.27261">
        <ele>211.4</ele>
        <time>2021-12-23T13:51:27Z</time>
      </trkpt>
      <trkpt lat="46.53486" lon="5.27286">
        <ele>212</ele>
        <time>2021-12-23T13:51:35Z</time>
      </trkpt>
      <trkpt lat="46.5347" lon="5.27298">
        <ele>212.4</ele>
        <time>2021-12-23T13:51:39Z</time>
      </trkpt>
      <trkpt lat="46.53454" lon="5.27309">
        <ele>213.4</ele>
        <time>2021-12-23T13:51:43Z</time>
      </trkpt>
      <trkpt lat="46.53451" lon="5.27312">
        <ele>213.8</ele>
        <time>2021-12-23T13:51:44Z</time>
      </trkpt>
      <trkpt lat="46.53433" lon="5.27326">
        <ele>215.2</ele>
        <time>2021-12-23T13:51:49Z</time>
      </trkpt>
      <trkpt lat="46.53423" lon="5.27334">
        <ele>216.8</ele>
        <time>2021-12-23T13:51:52Z</time>
      </trkpt>
      <trkpt lat="46.53412" lon="5.27341">
        <ele>217.8</ele>
        <time>2021-12-23T13:51:55Z</time>
      </trkpt>
      <trkpt lat="46.53398" lon="5.27351">
        <ele>219</ele>
        <time>2021-12-23T13:51:59Z</time>
      </trkpt>
      <trkpt lat="46.53381" lon="5.27364">
        <ele>220</ele>
        <time>2021-12-23T13:52:04Z</time>
      </trkpt>
      <trkpt lat="46.5337" lon="5.27371">
        <ele>220.8</ele>
        <time>2021-12-23T13:52:07Z</time>
      </trkpt>
      <trkpt lat="46.53366" lon="5.27373">
        <ele>221.2</ele>
        <time>2021-12-23T13:52:08Z</time>
      </trkpt>
      <trkpt lat="46.53347" lon="5.27386">
        <ele>222.4</ele>
        <time>2021-12-23T13:52:13Z</time>
      </trkpt>
      <trkpt lat="46.53344" lon="5.27388">
        <ele>222.6</ele>
        <time>2021-12-23T13:52:14Z</time>
      </trkpt>
      <trkpt lat="46.5333" lon="5.27394">
        <ele>223.2</ele>
        <time>2021-12-23T13:52:17Z</time>
      </trkpt>
      <trkpt lat="46.53313" lon="5.27398">
        <ele>223.4</ele>
        <time>2021-12-23T13:52:20Z</time>
      </trkpt>
      <trkpt lat="46.53279" lon="5.27406">
        <ele>222.8</ele>
        <time>2021-12-23T13:52:25Z</time>
      </trkpt>
      <trkpt lat="46.53272" lon="5.2741">
        <ele>222.6</ele>
        <time>2021-12-23T13:52:26Z</time>
      </trkpt>
      <trkpt lat="46.53263" lon="5.27424">
        <ele>222.2</ele>
        <time>2021-12-23T13:52:28Z</time>
      </trkpt>
      <trkpt lat="46.53264" lon="5.27444">
        <ele>221.8</ele>
        <time>2021-12-23T13:52:30Z</time>
      </trkpt>
      <trkpt lat="46.53271" lon="5.27461">
        <ele>221.4</ele>
        <time>2021-12-23T13:52:32Z</time>
      </trkpt>
      <trkpt lat="46.53278" lon="5.27476">
        <ele>221.2</ele>
        <time>2021-12-23T13:52:34Z</time>
      </trkpt>
      <trkpt lat="46.533" lon="5.27525">
        <ele>221.8</ele>
        <time>2021-12-23T13:52:41Z</time>
      </trkpt>
      <trkpt lat="46.53309" lon="5.27546">
        <ele>222.4</ele>
        <time>2021-12-23T13:52:44Z</time>
      </trkpt>
      <trkpt lat="46.53325" lon="5.27587">
        <ele>223.4</ele>
        <time>2021-12-23T13:52:49Z</time>
      </trkpt>
      <trkpt lat="46.53328" lon="5.27595">
        <ele>223.6</ele>
        <time>2021-12-23T13:52:50Z</time>
      </trkpt>
      <trkpt lat="46.53351" lon="5.27653">
        <ele>223.8</ele>
        <time>2021-12-23T13:52:57Z</time>
      </trkpt>
      <trkpt lat="46.53368" lon="5.27696">
        <ele>224.2</ele>
        <time>2021-12-23T13:53:03Z</time>
      </trkpt>
      <trkpt lat="46.53371" lon="5.27703">
        <ele>224.2</ele>
        <time>2021-12-23T13:53:04Z</time>
      </trkpt>
      <trkpt lat="46.53373" lon="5.2771">
        <ele>224.6</ele>
        <time>2021-12-23T13:53:05Z</time>
      </trkpt>
      <trkpt lat="46.53377" lon="5.27731">
        <ele>225.6</ele>
        <time>2021-12-23T13:53:08Z</time>
      </trkpt>
      <trkpt lat="46.53378" lon="5.27738">
        <ele>225.8</ele>
        <time>2021-12-23T13:53:09Z</time>
      </trkpt>
      <trkpt lat="46.53381" lon="5.27783">
        <ele>226.6</ele>
        <time>2021-12-23T13:53:15Z</time>
      </trkpt>
      <trkpt lat="46.5338" lon="5.27799">
        <ele>227</ele>
        <time>2021-12-23T13:53:17Z</time>
      </trkpt>
      <trkpt lat="46.53379" lon="5.27858">
        <ele>227.8</ele>
        <time>2021-12-23T13:53:25Z</time>
      </trkpt>
      <trkpt lat="46.53378" lon="5.27865">
        <ele>228</ele>
        <time>2021-12-23T13:53:26Z</time>
      </trkpt>
      <trkpt lat="46.53378" lon="5.27873">
        <ele>228.2</ele>
        <time>2021-12-23T13:53:27Z</time>
      </trkpt>
      <trkpt lat="46.53377" lon="5.27922">
        <ele>228.6</ele>
        <time>2021-12-23T13:53:33Z</time>
      </trkpt>
      <trkpt lat="46.53377" lon="5.27948">
        <ele>228.6</ele>
        <time>2021-12-23T13:53:36Z</time>
      </trkpt>
      <trkpt lat="46.53376" lon="5.27973">
        <ele>228.6</ele>
        <time>2021-12-23T13:53:39Z</time>
      </trkpt>
      <trkpt lat="46.53374" lon="5.28052">
        <ele>228.6</ele>
        <time>2021-12-23T13:53:48Z</time>
      </trkpt>
      <trkpt lat="46.53372" lon="5.28077">
        <ele>228.8</ele>
        <time>2021-12-23T13:53:51Z</time>
      </trkpt>
      <trkpt lat="46.5337" lon="5.28093">
        <ele>228.8</ele>
        <time>2021-12-23T13:53:53Z</time>
      </trkpt>
      <trkpt lat="46.5337" lon="5.28101">
        <ele>228.8</ele>
        <time>2021-12-23T13:53:54Z</time>
      </trkpt>
      <trkpt lat="46.53368" lon="5.28155">
        <ele>229</ele>
        <time>2021-12-23T13:54:00Z</time>
      </trkpt>
      <trkpt lat="46.53367" lon="5.28215">
        <ele>227.6</ele>
        <time>2021-12-23T13:54:05Z</time>
      </trkpt>
      <trkpt lat="46.53367" lon="5.28242">
        <ele>226.2</ele>
        <time>2021-12-23T13:54:07Z</time>
      </trkpt>
      <trkpt lat="46.53366" lon="5.28283">
        <ele>225</ele>
        <time>2021-12-23T13:54:10Z</time>
      </trkpt>
      <trkpt lat="46.53366" lon="5.28311">
        <ele>224.4</ele>
        <time>2021-12-23T13:54:12Z</time>
      </trkpt>
      <trkpt lat="46.53364" lon="5.28337">
        <ele>223.8</ele>
        <time>2021-12-23T13:54:14Z</time>
      </trkpt>
      <trkpt lat="46.53362" lon="5.2838">
        <ele>222.4</ele>
        <time>2021-12-23T13:54:17Z</time>
      </trkpt>
      <trkpt lat="46.53359" lon="5.2842">
        <ele>221</ele>
        <time>2021-12-23T13:54:20Z</time>
      </trkpt>
      <trkpt lat="46.53358" lon="5.28455">
        <ele>219.8</ele>
        <time>2021-12-23T13:54:23Z</time>
      </trkpt>
      <trkpt lat="46.53354" lon="5.28525">
        <ele>219.2</ele>
        <time>2021-12-23T13:54:30Z</time>
      </trkpt>
      <trkpt lat="46.53348" lon="5.28538">
        <ele>219.2</ele>
        <time>2021-12-23T13:54:32Z</time>
      </trkpt>
      <trkpt lat="46.53336" lon="5.28536">
        <ele>219.2</ele>
        <time>2021-12-23T13:54:34Z</time>
      </trkpt>
      <trkpt lat="46.533" lon="5.28528">
        <ele>219</ele>
        <time>2021-12-23T13:54:39Z</time>
      </trkpt>
      <trkpt lat="46.53292" lon="5.28527">
        <ele>218.8</ele>
        <time>2021-12-23T13:54:40Z</time>
      </trkpt>
      <trkpt lat="46.53253" lon="5.28527">
        <ele>218</ele>
        <time>2021-12-23T13:54:46Z</time>
      </trkpt>
      <trkpt lat="46.53223" lon="5.28525">
        <ele>218.8</ele>
        <time>2021-12-23T13:54:52Z</time>
      </trkpt>
      <trkpt lat="46.5321" lon="5.28525">
        <ele>220</ele>
        <time>2021-12-23T13:54:55Z</time>
      </trkpt>
      <trkpt lat="46.53198" lon="5.28528">
        <ele>220.6</ele>
        <time>2021-12-23T13:54:58Z</time>
      </trkpt>
      <trkpt lat="46.5319" lon="5.2853">
        <ele>221.2</ele>
        <time>2021-12-23T13:55:00Z</time>
      </trkpt>
      <trkpt lat="46.53177" lon="5.28533">
        <ele>222</ele>
        <time>2021-12-23T13:55:03Z</time>
      </trkpt>
      <trkpt lat="46.53172" lon="5.28534">
        <ele>222.2</ele>
        <time>2021-12-23T13:55:04Z</time>
      </trkpt>
      <trkpt lat="46.53151" lon="5.28538">
        <ele>223</ele>
        <time>2021-12-23T13:55:08Z</time>
      </trkpt>
      <trkpt lat="46.53145" lon="5.28539">
        <ele>223.4</ele>
        <time>2021-12-23T13:55:09Z</time>
      </trkpt>
      <trkpt lat="46.53128" lon="5.28544">
        <ele>224</ele>
        <time>2021-12-23T13:55:12Z</time>
      </trkpt>
      <trkpt lat="46.53123" lon="5.28545">
        <ele>224.4</ele>
        <time>2021-12-23T13:55:13Z</time>
      </trkpt>
      <trkpt lat="46.53096" lon="5.28552">
        <ele>225.4</ele>
        <time>2021-12-23T13:55:18Z</time>
      </trkpt>
      <trkpt lat="46.53089" lon="5.28551">
        <ele>225.6</ele>
        <time>2021-12-23T13:55:19Z</time>
      </trkpt>
      <trkpt lat="46.53068" lon="5.28556">
        <ele>226</ele>
        <time>2021-12-23T13:55:23Z</time>
      </trkpt>
      <trkpt lat="46.53052" lon="5.28558">
        <ele>226.6</ele>
        <time>2021-12-23T13:55:26Z</time>
      </trkpt>
      <trkpt lat="46.53041" lon="5.28561">
        <ele>227</ele>
        <time>2021-12-23T13:55:28Z</time>
      </trkpt>
      <trkpt lat="46.53036" lon="5.28561">
        <ele>227.2</ele>
        <time>2021-12-23T13:55:29Z</time>
      </trkpt>
      <trkpt lat="46.53032" lon="5.28561">
        <ele>227.2</ele>
        <time>2021-12-23T13:55:30Z</time>
      </trkpt>
      <trkpt lat="46.53023" lon="5.28565">
        <ele>227.6</ele>
        <time>2021-12-23T13:55:32Z</time>
      </trkpt>
      <trkpt lat="46.53014" lon="5.28567">
        <ele>227.8</ele>
        <time>2021-12-23T13:55:34Z</time>
      </trkpt>
      <trkpt lat="46.52994" lon="5.28572">
        <ele>228.6</ele>
        <time>2021-12-23T13:55:38Z</time>
      </trkpt>
      <trkpt lat="46.52974" lon="5.28573">
        <ele>229</ele>
        <time>2021-12-23T13:55:42Z</time>
      </trkpt>
      <trkpt lat="46.52951" lon="5.28578">
        <ele>229.8</ele>
        <time>2021-12-23T13:55:46Z</time>
      </trkpt>
      <trkpt lat="46.52938" lon="5.28578">
        <ele>230</ele>
        <time>2021-12-23T13:55:49Z</time>
      </trkpt>
      <trkpt lat="46.52909" lon="5.28586">
        <ele>230.6</ele>
        <time>2021-12-23T13:55:55Z</time>
      </trkpt>
      <trkpt lat="46.52903" lon="5.28587">
        <ele>230.6</ele>
        <time>2021-12-23T13:55:56Z</time>
      </trkpt>
      <trkpt lat="46.52858" lon="5.28597">
        <ele>230.8</ele>
        <time>2021-12-23T13:56:04Z</time>
      </trkpt>
      <trkpt lat="46.52841" lon="5.286">
        <ele>230.8</ele>
        <time>2021-12-23T13:56:07Z</time>
      </trkpt>
      <trkpt lat="46.52828" lon="5.28602">
        <ele>230.8</ele>
        <time>2021-12-23T13:56:09Z</time>
      </trkpt>
      <trkpt lat="46.52823" lon="5.28602">
        <ele>230.8</ele>
        <time>2021-12-23T13:56:10Z</time>
      </trkpt>
      <trkpt lat="46.52779" lon="5.28607">
        <ele>230.6</ele>
        <time>2021-12-23T13:56:17Z</time>
      </trkpt>
      <trkpt lat="46.52738" lon="5.28614">
        <ele>229.8</ele>
        <time>2021-12-23T13:56:23Z</time>
      </trkpt>
      <trkpt lat="46.52732" lon="5.28615">
        <ele>229.6</ele>
        <time>2021-12-23T13:56:24Z</time>
      </trkpt>
      <trkpt lat="46.52684" lon="5.28623">
        <ele>228.6</ele>
        <time>2021-12-23T13:56:31Z</time>
      </trkpt>
      <trkpt lat="46.52645" lon="5.28617">
        <ele>228</ele>
        <time>2021-12-23T13:56:37Z</time>
      </trkpt>
      <trkpt lat="46.526" lon="5.28604">
        <ele>228</ele>
        <time>2021-12-23T13:56:44Z</time>
      </trkpt>
      <trkpt lat="46.52571" lon="5.28607">
        <ele>227.8</ele>
        <time>2021-12-23T13:56:48Z</time>
      </trkpt>
      <trkpt lat="46.52563" lon="5.28608">
        <ele>227.6</ele>
        <time>2021-12-23T13:56:49Z</time>
      </trkpt>
      <trkpt lat="46.5254" lon="5.28612">
        <ele>226.4</ele>
        <time>2021-12-23T13:56:52Z</time>
      </trkpt>
      <trkpt lat="46.52516" lon="5.28617">
        <ele>226</ele>
        <time>2021-12-23T13:56:55Z</time>
      </trkpt>
      <trkpt lat="46.52492" lon="5.28621">
        <ele>225</ele>
        <time>2021-12-23T13:56:58Z</time>
      </trkpt>
      <trkpt lat="46.52466" lon="5.28626">
        <ele>224.2</ele>
        <time>2021-12-23T13:57:01Z</time>
      </trkpt>
      <trkpt lat="46.52449" lon="5.28629">
        <ele>223.6</ele>
        <time>2021-12-23T13:57:03Z</time>
      </trkpt>
      <trkpt lat="46.52423" lon="5.28634">
        <ele>222.4</ele>
        <time>2021-12-23T13:57:06Z</time>
      </trkpt>
      <trkpt lat="46.52405" lon="5.28638">
        <ele>220.8</ele>
        <time>2021-12-23T13:57:08Z</time>
      </trkpt>
      <trkpt lat="46.52396" lon="5.28639">
        <ele>220.4</ele>
        <time>2021-12-23T13:57:09Z</time>
      </trkpt>
      <trkpt lat="46.52368" lon="5.28645">
        <ele>219.4</ele>
        <time>2021-12-23T13:57:12Z</time>
      </trkpt>
      <trkpt lat="46.5234" lon="5.28649">
        <ele>217.6</ele>
        <time>2021-12-23T13:57:15Z</time>
      </trkpt>
      <trkpt lat="46.5232" lon="5.28652">
        <ele>216.4</ele>
        <time>2021-12-23T13:57:17Z</time>
      </trkpt>
      <trkpt lat="46.52283" lon="5.28655">
        <ele>214.6</ele>
        <time>2021-12-23T13:57:21Z</time>
      </trkpt>
      <trkpt lat="46.52248" lon="5.28657">
        <ele>213.4</ele>
        <time>2021-12-23T13:57:25Z</time>
      </trkpt>
      <trkpt lat="46.52205" lon="5.28667">
        <ele>212.2</ele>
        <time>2021-12-23T13:57:30Z</time>
      </trkpt>
      <trkpt lat="46.52197" lon="5.2867">
        <ele>212</ele>
        <time>2021-12-23T13:57:31Z</time>
      </trkpt>
      <trkpt lat="46.52157" lon="5.28686">
        <ele>211.2</ele>
        <time>2021-12-23T13:57:36Z</time>
      </trkpt>
      <trkpt lat="46.52134" lon="5.28695">
        <ele>211</ele>
        <time>2021-12-23T13:57:39Z</time>
      </trkpt>
      <trkpt lat="46.52084" lon="5.28709">
        <ele>210.8</ele>
        <time>2021-12-23T13:57:46Z</time>
      </trkpt>
      <trkpt lat="46.52032" lon="5.28722">
        <ele>210.8</ele>
        <time>2021-12-23T13:57:54Z</time>
      </trkpt>
      <trkpt lat="46.51997" lon="5.28741">
        <ele>211.4</ele>
        <time>2021-12-23T13:58:00Z</time>
      </trkpt>
      <trkpt lat="46.51962" lon="5.28749">
        <ele>212</ele>
        <time>2021-12-23T13:58:06Z</time>
      </trkpt>
      <trkpt lat="46.51934" lon="5.28748">
        <ele>212.4</ele>
        <time>2021-12-23T13:58:11Z</time>
      </trkpt>
      <trkpt lat="46.51924" lon="5.28746">
        <ele>212.6</ele>
        <time>2021-12-23T13:58:13Z</time>
      </trkpt>
      <trkpt lat="46.51896" lon="5.28738">
        <ele>213.2</ele>
        <time>2021-12-23T13:58:18Z</time>
      </trkpt>
      <trkpt lat="46.51891" lon="5.28735">
        <ele>213.2</ele>
        <time>2021-12-23T13:58:19Z</time>
      </trkpt>
      <trkpt lat="46.51877" lon="5.28722">
        <ele>213.6</ele>
        <time>2021-12-23T13:58:22Z</time>
      </trkpt>
      <trkpt lat="46.51857" lon="5.28706">
        <ele>214.2</ele>
        <time>2021-12-23T13:58:26Z</time>
      </trkpt>
      <trkpt lat="46.51847" lon="5.287">
        <ele>214.6</ele>
        <time>2021-12-23T13:58:28Z</time>
      </trkpt>
      <trkpt lat="46.51823" lon="5.28691">
        <ele>215.8</ele>
        <time>2021-12-23T13:58:33Z</time>
      </trkpt>
      <trkpt lat="46.51817" lon="5.2869">
        <ele>216</ele>
        <time>2021-12-23T13:58:34Z</time>
      </trkpt>
      <trkpt lat="46.51797" lon="5.2869">
        <ele>216.4</ele>
        <time>2021-12-23T13:58:38Z</time>
      </trkpt>
      <trkpt lat="46.51773" lon="5.28697">
        <ele>216.8</ele>
        <time>2021-12-23T13:58:43Z</time>
      </trkpt>
      <trkpt lat="46.51764" lon="5.28701">
        <ele>217</ele>
        <time>2021-12-23T13:58:45Z</time>
      </trkpt>
      <trkpt lat="46.51745" lon="5.2871">
        <ele>217.6</ele>
        <time>2021-12-23T13:58:50Z</time>
      </trkpt>
      <trkpt lat="46.51738" lon="5.28714">
        <ele>217.8</ele>
        <time>2021-12-23T13:58:52Z</time>
      </trkpt>
      <trkpt lat="46.51723" lon="5.28726">
        <ele>218.8</ele>
        <time>2021-12-23T13:58:57Z</time>
      </trkpt>
      <trkpt lat="46.5172" lon="5.28729">
        <ele>219</ele>
        <time>2021-12-23T13:58:58Z</time>
      </trkpt>
      <trkpt lat="46.5171" lon="5.28742">
        <ele>220</ele>
        <time>2021-12-23T13:59:02Z</time>
      </trkpt>
      <trkpt lat="46.51706" lon="5.28749">
        <ele>220.4</ele>
        <time>2021-12-23T13:59:04Z</time>
      </trkpt>
      <trkpt lat="46.51702" lon="5.28758">
        <ele>221</ele>
        <time>2021-12-23T13:59:07Z</time>
      </trkpt>
      <trkpt lat="46.51698" lon="5.28767">
        <ele>222.2</ele>
        <time>2021-12-23T13:59:10Z</time>
      </trkpt>
      <trkpt lat="46.51694" lon="5.28777">
        <ele>223.2</ele>
        <time>2021-12-23T13:59:14Z</time>
      </trkpt>
      <trkpt lat="46.5169" lon="5.28787">
        <ele>224</ele>
        <time>2021-12-23T13:59:17Z</time>
      </trkpt>
      <trkpt lat="46.51689" lon="5.2879">
        <ele>224.4</ele>
        <time>2021-12-23T13:59:18Z</time>
      </trkpt>
      <trkpt lat="46.51682" lon="5.28804">
        <ele>225.6</ele>
        <time>2021-12-23T13:59:22Z</time>
      </trkpt>
      <trkpt lat="46.51674" lon="5.28822">
        <ele>226.6</ele>
        <time>2021-12-23T13:59:25Z</time>
      </trkpt>
      <trkpt lat="46.51671" lon="5.28828">
        <ele>227.2</ele>
        <time>2021-12-23T13:59:27Z</time>
      </trkpt>
      <trkpt lat="46.51663" lon="5.28848">
        <ele>227.8</ele>
        <time>2021-12-23T13:59:30Z</time>
      </trkpt>
      <trkpt lat="46.51659" lon="5.28858">
        <ele>228.2</ele>
        <time>2021-12-23T13:59:32Z</time>
      </trkpt>
      <trkpt lat="46.51656" lon="5.28868">
        <ele>228.8</ele>
        <time>2021-12-23T13:59:34Z</time>
      </trkpt>
      <trkpt lat="46.51651" lon="5.28885">
        <ele>229.8</ele>
        <time>2021-12-23T13:59:37Z</time>
      </trkpt>
      <trkpt lat="46.51648" lon="5.28897">
        <ele>230.4</ele>
        <time>2021-12-23T13:59:39Z</time>
      </trkpt>
      <trkpt lat="46.51645" lon="5.2891">
        <ele>230.6</ele>
        <time>2021-12-23T13:59:41Z</time>
      </trkpt>
      <trkpt lat="46.51641" lon="5.2894">
        <ele>230.6</ele>
        <time>2021-12-23T13:59:45Z</time>
      </trkpt>
      <trkpt lat="46.51637" lon="5.29005">
        <ele>230.4</ele>
        <time>2021-12-23T13:59:52Z</time>
      </trkpt>
      <trkpt lat="46.51636" lon="5.29015">
        <ele>230.2</ele>
        <time>2021-12-23T13:59:53Z</time>
      </trkpt>
      <trkpt lat="46.51624" lon="5.29052">
        <ele>229.6</ele>
        <time>2021-12-23T13:59:57Z</time>
      </trkpt>
      <trkpt lat="46.51616" lon="5.2907">
        <ele>229.2</ele>
        <time>2021-12-23T13:59:59Z</time>
      </trkpt>
      <trkpt lat="46.51608" lon="5.29089">
        <ele>228.8</ele>
        <time>2021-12-23T14:00:01Z</time>
      </trkpt>
      <trkpt lat="46.51606" lon="5.291">
        <ele>228.6</ele>
        <time>2021-12-23T14:00:02Z</time>
      </trkpt>
      <trkpt lat="46.51605" lon="5.2911">
        <ele>228</ele>
        <time>2021-12-23T14:00:03Z</time>
      </trkpt>
      <trkpt lat="46.51604" lon="5.2912">
        <ele>227.6</ele>
        <time>2021-12-23T14:00:04Z</time>
      </trkpt>
      <trkpt lat="46.51606" lon="5.29141">
        <ele>227</ele>
        <time>2021-12-23T14:00:06Z</time>
      </trkpt>
      <trkpt lat="46.51616" lon="5.29205">
        <ele>227.2</ele>
        <time>2021-12-23T14:00:13Z</time>
      </trkpt>
      <trkpt lat="46.51612" lon="5.29245">
        <ele>228.4</ele>
        <time>2021-12-23T14:00:18Z</time>
      </trkpt>
      <trkpt lat="46.51609" lon="5.29261">
        <ele>228.8</ele>
        <time>2021-12-23T14:00:20Z</time>
      </trkpt>
      <trkpt lat="46.51605" lon="5.29293">
        <ele>230.2</ele>
        <time>2021-12-23T14:00:24Z</time>
      </trkpt>
      <trkpt lat="46.51602" lon="5.29317">
        <ele>231</ele>
        <time>2021-12-23T14:00:27Z</time>
      </trkpt>
      <trkpt lat="46.51601" lon="5.29325">
        <ele>231.2</ele>
        <time>2021-12-23T14:00:28Z</time>
      </trkpt>
      <trkpt lat="46.51597" lon="5.29385">
        <ele>232</ele>
        <time>2021-12-23T14:00:35Z</time>
      </trkpt>
      <trkpt lat="46.51597" lon="5.29404">
        <ele>232.2</ele>
        <time>2021-12-23T14:00:37Z</time>
      </trkpt>
      <trkpt lat="46.516" lon="5.29451">
        <ele>232.8</ele>
        <time>2021-12-23T14:00:42Z</time>
      </trkpt>
      <trkpt lat="46.51597" lon="5.2951">
        <ele>232.6</ele>
        <time>2021-12-23T14:00:48Z</time>
      </trkpt>
      <trkpt lat="46.51584" lon="5.29562">
        <ele>232</ele>
        <time>2021-12-23T14:00:53Z</time>
      </trkpt>
      <trkpt lat="46.51578" lon="5.29582">
        <ele>231.6</ele>
        <time>2021-12-23T14:00:55Z</time>
      </trkpt>
      <trkpt lat="46.51574" lon="5.29603">
        <ele>231.6</ele>
        <time>2021-12-23T14:00:57Z</time>
      </trkpt>
      <trkpt lat="46.51573" lon="5.29614">
        <ele>231.4</ele>
        <time>2021-12-23T14:00:58Z</time>
      </trkpt>
      <trkpt lat="46.51573" lon="5.29626">
        <ele>231.2</ele>
        <time>2021-12-23T14:00:59Z</time>
      </trkpt>
      <trkpt lat="46.51572" lon="5.29663">
        <ele>230.4</ele>
        <time>2021-12-23T14:01:02Z</time>
      </trkpt>
      <trkpt lat="46.5157" lon="5.29676">
        <ele>230</ele>
        <time>2021-12-23T14:01:03Z</time>
      </trkpt>
      <trkpt lat="46.5156" lon="5.29715">
        <ele>229</ele>
        <time>2021-12-23T14:01:06Z</time>
      </trkpt>
      <trkpt lat="46.51555" lon="5.29728">
        <ele>227.8</ele>
        <time>2021-12-23T14:01:08Z</time>
      </trkpt>
      <trkpt lat="46.51539" lon="5.29785">
        <ele>226.6</ele>
        <time>2021-12-23T14:01:12Z</time>
      </trkpt>
      <trkpt lat="46.51527" lon="5.2983">
        <ele>226.6</ele>
        <time>2021-12-23T14:01:17Z</time>
      </trkpt>
      <trkpt lat="46.51519" lon="5.29858">
        <ele>227.2</ele>
        <time>2021-12-23T14:01:22Z</time>
      </trkpt>
      <trkpt lat="46.51502" lon="5.29907">
        <ele>227.4</ele>
        <time>2021-12-23T14:01:27Z</time>
      </trkpt>
      <trkpt lat="46.5148" lon="5.29972">
        <ele>228</ele>
        <time>2021-12-23T14:01:35Z</time>
      </trkpt>
      <trkpt lat="46.51471" lon="5.29998">
        <ele>228.2</ele>
        <time>2021-12-23T14:01:38Z</time>
      </trkpt>
      <trkpt lat="46.51454" lon="5.30052">
        <ele>227.8</ele>
        <time>2021-12-23T14:01:44Z</time>
      </trkpt>
      <trkpt lat="46.51438" lon="5.30105">
        <ele>227</ele>
        <time>2021-12-23T14:01:50Z</time>
      </trkpt>
      <trkpt lat="46.51424" lon="5.3015">
        <ele>225.8</ele>
        <time>2021-12-23T14:01:53Z</time>
      </trkpt>
      <trkpt lat="46.51413" lon="5.30186">
        <ele>225</ele>
        <time>2021-12-23T14:01:56Z</time>
      </trkpt>
      <trkpt lat="46.51408" lon="5.30197">
        <ele>224.6</ele>
        <time>2021-12-23T14:01:57Z</time>
      </trkpt>
      <trkpt lat="46.51399" lon="5.30221">
        <ele>223.4</ele>
        <time>2021-12-23T14:01:59Z</time>
      </trkpt>
      <trkpt lat="46.51391" lon="5.30244">
        <ele>222.2</ele>
        <time>2021-12-23T14:02:01Z</time>
      </trkpt>
      <trkpt lat="46.51389" lon="5.30257">
        <ele>221.4</ele>
        <time>2021-12-23T14:02:02Z</time>
      </trkpt>
      <trkpt lat="46.51389" lon="5.30269">
        <ele>221</ele>
        <time>2021-12-23T14:02:03Z</time>
      </trkpt>
      <trkpt lat="46.51395" lon="5.30293">
        <ele>220</ele>
        <time>2021-12-23T14:02:05Z</time>
      </trkpt>
      <trkpt lat="46.51412" lon="5.30338">
        <ele>218.8</ele>
        <time>2021-12-23T14:02:09Z</time>
      </trkpt>
      <trkpt lat="46.51428" lon="5.30381">
        <ele>218.2</ele>
        <time>2021-12-23T14:02:14Z</time>
      </trkpt>
      <trkpt lat="46.51456" lon="5.30453">
        <ele>218</ele>
        <time>2021-12-23T14:02:20Z</time>
      </trkpt>
      <trkpt lat="46.51463" lon="5.30474">
        <ele>218.2</ele>
        <time>2021-12-23T14:02:23Z</time>
      </trkpt>
      <trkpt lat="46.51472" lon="5.30506">
        <ele>217.8</ele>
        <time>2021-12-23T14:02:25Z</time>
      </trkpt>
      <trkpt lat="46.51477" lon="5.30539">
        <ele>217.8</ele>
        <time>2021-12-23T14:02:28Z</time>
      </trkpt>
      <trkpt lat="46.51486" lon="5.30591">
        <ele>218</ele>
        <time>2021-12-23T14:02:33Z</time>
      </trkpt>
      <trkpt lat="46.51492" lon="5.30611">
        <ele>218.2</ele>
        <time>2021-12-23T14:02:35Z</time>
      </trkpt>
      <trkpt lat="46.51496" lon="5.30621">
        <ele>218.2</ele>
        <time>2021-12-23T14:02:36Z</time>
      </trkpt>
      <trkpt lat="46.51515" lon="5.30656">
        <ele>218.2</ele>
        <time>2021-12-23T14:02:40Z</time>
      </trkpt>
      <trkpt lat="46.51553" lon="5.30715">
        <ele>218.2</ele>
        <time>2021-12-23T14:02:47Z</time>
      </trkpt>
      <trkpt lat="46.51569" lon="5.30738">
        <ele>218.2</ele>
        <time>2021-12-23T14:02:50Z</time>
      </trkpt>
      <trkpt lat="46.51592" lon="5.30779">
        <ele>218</ele>
        <time>2021-12-23T14:02:55Z</time>
      </trkpt>
      <trkpt lat="46.51605" lon="5.30803">
        <ele>218</ele>
        <time>2021-12-23T14:02:58Z</time>
      </trkpt>
      <trkpt lat="46.51609" lon="5.30811">
        <ele>218.2</ele>
        <time>2021-12-23T14:03:00Z</time>
      </trkpt>
      <trkpt lat="46.51626" lon="5.30859">
        <ele>218.8</ele>
        <time>2021-12-23T14:03:05Z</time>
      </trkpt>
      <trkpt lat="46.51632" lon="5.30884">
        <ele>219.2</ele>
        <time>2021-12-23T14:03:08Z</time>
      </trkpt>
      <trkpt lat="46.51636" lon="5.30909">
        <ele>219.6</ele>
        <time>2021-12-23T14:03:11Z</time>
      </trkpt>
      <trkpt lat="46.5164" lon="5.30939">
        <ele>220</ele>
        <time>2021-12-23T14:03:15Z</time>
      </trkpt>
      <trkpt lat="46.51641" lon="5.30946">
        <ele>220.2</ele>
        <time>2021-12-23T14:03:16Z</time>
      </trkpt>
      <trkpt lat="46.51642" lon="5.30953">
        <ele>220.6</ele>
        <time>2021-12-23T14:03:17Z</time>
      </trkpt>
      <trkpt lat="46.51646" lon="5.30974">
        <ele>221.6</ele>
        <time>2021-12-23T14:03:20Z</time>
      </trkpt>
      <trkpt lat="46.51651" lon="5.31008">
        <ele>222.8</ele>
        <time>2021-12-23T14:03:25Z</time>
      </trkpt>
      <trkpt lat="46.51658" lon="5.31045">
        <ele>224</ele>
        <time>2021-12-23T14:03:31Z</time>
      </trkpt>
      <trkpt lat="46.51662" lon="5.31068">
        <ele>224.8</ele>
        <time>2021-12-23T14:03:34Z</time>
      </trkpt>
      <trkpt lat="46.51662" lon="5.31083">
        <ele>225</ele>
        <time>2021-12-23T14:03:35Z</time>
      </trkpt>
      <trkpt lat="46.5166" lon="5.3109">
        <ele>225.2</ele>
        <time>2021-12-23T14:03:36Z</time>
      </trkpt>
      <trkpt lat="46.51656" lon="5.31096">
        <ele>225.2</ele>
        <time>2021-12-23T14:03:37Z</time>
      </trkpt>
      <trkpt lat="46.51647" lon="5.31103">
        <ele>225.4</ele>
        <time>2021-12-23T14:03:39Z</time>
      </trkpt>
      <trkpt lat="46.51642" lon="5.31103">
        <ele>225.6</ele>
        <time>2021-12-23T14:03:40Z</time>
      </trkpt>
      <trkpt lat="46.51624" lon="5.31097">
        <ele>225.8</ele>
        <time>2021-12-23T14:03:43Z</time>
      </trkpt>
      <trkpt lat="46.51611" lon="5.3109">
        <ele>225.8</ele>
        <time>2021-12-23T14:03:45Z</time>
      </trkpt>
      <trkpt lat="46.51576" lon="5.31077">
        <ele>225</ele>
        <time>2021-12-23T14:03:51Z</time>
      </trkpt>
      <trkpt lat="46.51542" lon="5.31073">
        <ele>224.2</ele>
        <time>2021-12-23T14:03:55Z</time>
      </trkpt>
      <trkpt lat="46.51522" lon="5.31072">
        <ele>224</ele>
        <time>2021-12-23T14:03:58Z</time>
      </trkpt>
      <trkpt lat="46.51466" lon="5.31068">
        <ele>223.8</ele>
        <time>2021-12-23T14:04:07Z</time>
      </trkpt>
      <trkpt lat="46.51461" lon="5.31067">
        <ele>223.8</ele>
        <time>2021-12-23T14:04:08Z</time>
      </trkpt>
      <trkpt lat="46.51405" lon="5.3107">
        <ele>223.4</ele>
        <time>2021-12-23T14:04:18Z</time>
      </trkpt>
      <trkpt lat="46.5135" lon="5.31074">
        <ele>223.4</ele>
        <time>2021-12-23T14:04:28Z</time>
      </trkpt>
      <trkpt lat="46.51301" lon="5.31075">
        <ele>223.2</ele>
        <time>2021-12-23T14:04:36Z</time>
      </trkpt>
      <trkpt lat="46.51295" lon="5.31076">
        <ele>223.2</ele>
        <time>2021-12-23T14:04:37Z</time>
      </trkpt>
      <trkpt lat="46.51258" lon="5.31081">
        <ele>223</ele>
        <time>2021-12-23T14:04:43Z</time>
      </trkpt>
      <trkpt lat="46.51247" lon="5.31087">
        <ele>222.8</ele>
        <time>2021-12-23T14:04:45Z</time>
      </trkpt>
      <trkpt lat="46.51237" lon="5.31097">
        <ele>222.8</ele>
        <time>2021-12-23T14:04:47Z</time>
      </trkpt>
      <trkpt lat="46.51217" lon="5.31122">
        <ele>222.6</ele>
        <time>2021-12-23T14:04:52Z</time>
      </trkpt>
      <trkpt lat="46.5119" lon="5.31155">
        <ele>223.4</ele>
        <time>2021-12-23T14:04:59Z</time>
      </trkpt>
      <trkpt lat="46.51173" lon="5.31176">
        <ele>224.2</ele>
        <time>2021-12-23T14:05:03Z</time>
      </trkpt>
      <trkpt lat="46.51164" lon="5.31187">
        <ele>224.6</ele>
        <time>2021-12-23T14:05:05Z</time>
      </trkpt>
      <trkpt lat="46.51136" lon="5.31222">
        <ele>225.4</ele>
        <time>2021-12-23T14:05:11Z</time>
      </trkpt>
      <trkpt lat="46.5112" lon="5.31243">
        <ele>225.6</ele>
        <time>2021-12-23T14:05:15Z</time>
      </trkpt>
      <trkpt lat="46.51112" lon="5.31253">
        <ele>225.8</ele>
        <time>2021-12-23T14:05:17Z</time>
      </trkpt>
      <trkpt lat="46.51108" lon="5.31259">
        <ele>226</ele>
        <time>2021-12-23T14:05:18Z</time>
      </trkpt>
      <trkpt lat="46.5109" lon="5.31282">
        <ele>226.4</ele>
        <time>2021-12-23T14:05:23Z</time>
      </trkpt>
      <trkpt lat="46.51086" lon="5.31286">
        <ele>226.4</ele>
        <time>2021-12-23T14:05:24Z</time>
      </trkpt>
      <trkpt lat="46.51083" lon="5.31291">
        <ele>226.6</ele>
        <time>2021-12-23T14:05:25Z</time>
      </trkpt>
      <trkpt lat="46.51073" lon="5.31305">
        <ele>227</ele>
        <time>2021-12-23T14:05:28Z</time>
      </trkpt>
      <trkpt lat="46.51069" lon="5.31316">
        <ele>227.4</ele>
        <time>2021-12-23T14:05:30Z</time>
      </trkpt>
      <trkpt lat="46.51068" lon="5.31322">
        <ele>227.4</ele>
        <time>2021-12-23T14:05:31Z</time>
      </trkpt>
      <trkpt lat="46.51067" lon="5.31328">
        <ele>227.6</ele>
        <time>2021-12-23T14:05:32Z</time>
      </trkpt>
      <trkpt lat="46.51067" lon="5.31349">
        <ele>228.8</ele>
        <time>2021-12-23T14:05:35Z</time>
      </trkpt>
      <trkpt lat="46.51069" lon="5.3137">
        <ele>229.6</ele>
        <time>2021-12-23T14:05:38Z</time>
      </trkpt>
      <trkpt lat="46.51068" lon="5.31386">
        <ele>230</ele>
        <time>2021-12-23T14:05:40Z</time>
      </trkpt>
      <trkpt lat="46.51067" lon="5.31393">
        <ele>230.4</ele>
        <time>2021-12-23T14:05:41Z</time>
      </trkpt>
      <trkpt lat="46.51062" lon="5.31423">
        <ele>230.8</ele>
        <time>2021-12-23T14:05:45Z</time>
      </trkpt>
      <trkpt lat="46.5106" lon="5.3143">
        <ele>231</ele>
        <time>2021-12-23T14:05:46Z</time>
      </trkpt>
      <trkpt lat="46.51058" lon="5.31437">
        <ele>231.2</ele>
        <time>2021-12-23T14:05:47Z</time>
      </trkpt>
      <trkpt lat="46.51048" lon="5.3149">
        <ele>232.4</ele>
        <time>2021-12-23T14:05:55Z</time>
      </trkpt>
      <trkpt lat="46.51047" lon="5.31496">
        <ele>232.4</ele>
        <time>2021-12-23T14:05:56Z</time>
      </trkpt>
      <trkpt lat="46.51037" lon="5.31533">
        <ele>233.6</ele>
        <time>2021-12-23T14:06:02Z</time>
      </trkpt>
      <trkpt lat="46.51033" lon="5.31544">
        <ele>234</ele>
        <time>2021-12-23T14:06:04Z</time>
      </trkpt>
      <trkpt lat="46.5103" lon="5.31549">
        <ele>234</ele>
        <time>2021-12-23T14:06:05Z</time>
      </trkpt>
      <trkpt lat="46.51024" lon="5.31558">
        <ele>234.6</ele>
        <time>2021-12-23T14:06:07Z</time>
      </trkpt>
      <trkpt lat="46.51012" lon="5.31572">
        <ele>235</ele>
        <time>2021-12-23T14:06:10Z</time>
      </trkpt>
      <trkpt lat="46.50995" lon="5.3159">
        <ele>235.4</ele>
        <time>2021-12-23T14:06:14Z</time>
      </trkpt>
      <trkpt lat="46.50981" lon="5.31606">
        <ele>235.4</ele>
        <time>2021-12-23T14:06:17Z</time>
      </trkpt>
      <trkpt lat="46.50943" lon="5.31644">
        <ele>235.2</ele>
        <time>2021-12-23T14:06:24Z</time>
      </trkpt>
      <trkpt lat="46.50916" lon="5.31672">
        <ele>234.8</ele>
        <time>2021-12-23T14:06:30Z</time>
      </trkpt>
      <trkpt lat="46.509" lon="5.3169">
        <ele>235.4</ele>
        <time>2021-12-23T14:06:35Z</time>
      </trkpt>
      <trkpt lat="46.50887" lon="5.31703">
        <ele>235.8</ele>
        <time>2021-12-23T14:06:38Z</time>
      </trkpt>
      <trkpt lat="46.50871" lon="5.3172">
        <ele>236.2</ele>
        <time>2021-12-23T14:06:42Z</time>
      </trkpt>
      <trkpt lat="46.50853" lon="5.31737">
        <ele>236.4</ele>
        <time>2021-12-23T14:06:47Z</time>
      </trkpt>
      <trkpt lat="46.50851" lon="5.3174">
        <ele>236.4</ele>
        <time>2021-12-23T14:06:49Z</time>
      </trkpt>
      <trkpt lat="46.50851" lon="5.3174">
        <ele>236.4</ele>
        <time>2021-12-23T14:06:50Z</time>
      </trkpt>
      <trkpt lat="46.50851" lon="5.3174">
        <ele>236.4</ele>
        <time>2021-12-23T14:06:53Z</time>
      </trkpt>
      <trkpt lat="46.50848" lon="5.3174">
        <ele>235.8</ele>
        <time>2021-12-23T14:08:02Z</time>
      </trkpt>
      <trkpt lat="46.50845" lon="5.3174">
        <ele>235.8</ele>
        <time>2021-12-23T14:08:03Z</time>
      </trkpt>
      <trkpt lat="46.50832" lon="5.31738">
        <ele>235.8</ele>
        <time>2021-12-23T14:08:06Z</time>
      </trkpt>
      <trkpt lat="46.50826" lon="5.31735">
        <ele>235.8</ele>
        <time>2021-12-23T14:08:07Z</time>
      </trkpt>
      <trkpt lat="46.5082" lon="5.31731">
        <ele>235.6</ele>
        <time>2021-12-23T14:08:08Z</time>
      </trkpt>
      <trkpt lat="46.50796" lon="5.31715">
        <ele>235.4</ele>
        <time>2021-12-23T14:08:12Z</time>
      </trkpt>
      <trkpt lat="46.50778" lon="5.31704">
        <ele>235.2</ele>
        <time>2021-12-23T14:08:15Z</time>
      </trkpt>
      <trkpt lat="46.50765" lon="5.31701">
        <ele>235.2</ele>
        <time>2021-12-23T14:08:17Z</time>
      </trkpt>
      <trkpt lat="46.50729" lon="5.31703">
        <ele>235.2</ele>
        <time>2021-12-23T14:08:23Z</time>
      </trkpt>
      <trkpt lat="46.50689" lon="5.31707">
        <ele>235.4</ele>
        <time>2021-12-23T14:08:30Z</time>
      </trkpt>
      <trkpt lat="46.50661" lon="5.31712">
        <ele>235.6</ele>
        <time>2021-12-23T14:08:35Z</time>
      </trkpt>
      <trkpt lat="46.50656" lon="5.31716">
        <ele>235.6</ele>
        <time>2021-12-23T14:08:36Z</time>
      </trkpt>
      <trkpt lat="46.50652" lon="5.3172">
        <ele>235.6</ele>
        <time>2021-12-23T14:08:37Z</time>
      </trkpt>
      <trkpt lat="46.50644" lon="5.3173">
        <ele>235.8</ele>
        <time>2021-12-23T14:08:39Z</time>
      </trkpt>
      <trkpt lat="46.50641" lon="5.31737">
        <ele>235.8</ele>
        <time>2021-12-23T14:08:40Z</time>
      </trkpt>
      <trkpt lat="46.50638" lon="5.31744">
        <ele>235.8</ele>
        <time>2021-12-23T14:08:41Z</time>
      </trkpt>
      <trkpt lat="46.50624" lon="5.31781">
        <ele>235.6</ele>
        <time>2021-12-23T14:08:46Z</time>
      </trkpt>
      <trkpt lat="46.50603" lon="5.31841">
        <ele>235</ele>
        <time>2021-12-23T14:08:53Z</time>
      </trkpt>
      <trkpt lat="46.50593" lon="5.31869">
        <ele>234.6</ele>
        <time>2021-12-23T14:08:56Z</time>
      </trkpt>
      <trkpt lat="46.50579" lon="5.31908">
        <ele>233.8</ele>
        <time>2021-12-23T14:09:00Z</time>
      </trkpt>
      <trkpt lat="46.50572" lon="5.31928">
        <ele>233.4</ele>
        <time>2021-12-23T14:09:02Z</time>
      </trkpt>
      <trkpt lat="46.50561" lon="5.31961">
        <ele>232.2</ele>
        <time>2021-12-23T14:09:05Z</time>
      </trkpt>
      <trkpt lat="46.50556" lon="5.31972">
        <ele>232</ele>
        <time>2021-12-23T14:09:06Z</time>
      </trkpt>
      <trkpt lat="46.50546" lon="5.31994">
        <ele>231.4</ele>
        <time>2021-12-23T14:09:08Z</time>
      </trkpt>
      <trkpt lat="46.5054" lon="5.32003">
        <ele>231</ele>
        <time>2021-12-23T14:09:09Z</time>
      </trkpt>
      <trkpt lat="46.50533" lon="5.32013">
        <ele>230.8</ele>
        <time>2021-12-23T14:09:10Z</time>
      </trkpt>
      <trkpt lat="46.5052" lon="5.32032">
        <ele>229.6</ele>
        <time>2021-12-23T14:09:12Z</time>
      </trkpt>
      <trkpt lat="46.50503" lon="5.32061">
        <ele>228.4</ele>
        <time>2021-12-23T14:09:15Z</time>
      </trkpt>
      <trkpt lat="46.50498" lon="5.3207">
        <ele>227.8</ele>
        <time>2021-12-23T14:09:16Z</time>
      </trkpt>
      <trkpt lat="46.50489" lon="5.3209">
        <ele>227.2</ele>
        <time>2021-12-23T14:09:18Z</time>
      </trkpt>
      <trkpt lat="46.50479" lon="5.32116">
        <ele>226.8</ele>
        <time>2021-12-23T14:09:21Z</time>
      </trkpt>
      <trkpt lat="46.50464" lon="5.32164">
        <ele>226.6</ele>
        <time>2021-12-23T14:09:26Z</time>
      </trkpt>
      <trkpt lat="46.50461" lon="5.32172">
        <ele>226.4</ele>
        <time>2021-12-23T14:09:27Z</time>
      </trkpt>
      <trkpt lat="46.50452" lon="5.32184">
        <ele>226.4</ele>
        <time>2021-12-23T14:09:29Z</time>
      </trkpt>
      <trkpt lat="46.50439" lon="5.32193">
        <ele>226.4</ele>
        <time>2021-12-23T14:09:32Z</time>
      </trkpt>
      <trkpt lat="46.50437" lon="5.32193">
        <ele>226.2</ele>
        <time>2021-12-23T14:09:33Z</time>
      </trkpt>
      <trkpt lat="46.50433" lon="5.32193">
        <ele>226</ele>
        <time>2021-12-23T14:09:35Z</time>
      </trkpt>
      <trkpt lat="46.50428" lon="5.32199">
        <ele>226</ele>
        <time>2021-12-23T14:09:37Z</time>
      </trkpt>
      <trkpt lat="46.50427" lon="5.32225">
        <ele>225.4</ele>
        <time>2021-12-23T14:09:41Z</time>
      </trkpt>
      <trkpt lat="46.5043" lon="5.32279">
        <ele>225.4</ele>
        <time>2021-12-23T14:09:47Z</time>
      </trkpt>
      <trkpt lat="46.50443" lon="5.32347">
        <ele>226.2</ele>
        <time>2021-12-23T14:09:54Z</time>
      </trkpt>
      <trkpt lat="46.50459" lon="5.32423">
        <ele>226.6</ele>
        <time>2021-12-23T14:10:02Z</time>
      </trkpt>
      <trkpt lat="46.50462" lon="5.32444">
        <ele>226.4</ele>
        <time>2021-12-23T14:10:04Z</time>
      </trkpt>
      <trkpt lat="46.50468" lon="5.32518">
        <ele>226.2</ele>
        <time>2021-12-23T14:10:12Z</time>
      </trkpt>
      <trkpt lat="46.50472" lon="5.32594">
        <ele>226.8</ele>
        <time>2021-12-23T14:10:21Z</time>
      </trkpt>
      <trkpt lat="46.50473" lon="5.3261">
        <ele>227.4</ele>
        <time>2021-12-23T14:10:23Z</time>
      </trkpt>
      <trkpt lat="46.50473" lon="5.32658">
        <ele>227.8</ele>
        <time>2021-12-23T14:10:29Z</time>
      </trkpt>
      <trkpt lat="46.50472" lon="5.32715">
        <ele>228.4</ele>
        <time>2021-12-23T14:10:36Z</time>
      </trkpt>
      <trkpt lat="46.50472" lon="5.32723">
        <ele>228.6</ele>
        <time>2021-12-23T14:10:37Z</time>
      </trkpt>
      <trkpt lat="46.50471" lon="5.32797">
        <ele>229.4</ele>
        <time>2021-12-23T14:10:46Z</time>
      </trkpt>
      <trkpt lat="46.50471" lon="5.32806">
        <ele>229.6</ele>
        <time>2021-12-23T14:10:47Z</time>
      </trkpt>
      <trkpt lat="46.50468" lon="5.32886">
        <ele>230.6</ele>
        <time>2021-12-23T14:10:57Z</time>
      </trkpt>
      <trkpt lat="46.50467" lon="5.32936">
        <ele>231.6</ele>
        <time>2021-12-23T14:11:04Z</time>
      </trkpt>
      <trkpt lat="46.50466" lon="5.3297">
        <ele>232.6</ele>
        <time>2021-12-23T14:11:09Z</time>
      </trkpt>
      <trkpt lat="46.50467" lon="5.32989">
        <ele>233.4</ele>
        <time>2021-12-23T14:11:12Z</time>
      </trkpt>
      <trkpt lat="46.50467" lon="5.32996">
        <ele>233.8</ele>
        <time>2021-12-23T14:11:13Z</time>
      </trkpt>
      <trkpt lat="46.50468" lon="5.33038">
        <ele>235</ele>
        <time>2021-12-23T14:11:20Z</time>
      </trkpt>
      <trkpt lat="46.50467" lon="5.33072">
        <ele>236</ele>
        <time>2021-12-23T14:11:26Z</time>
      </trkpt>
      <trkpt lat="46.50466" lon="5.33088">
        <ele>237</ele>
        <time>2021-12-23T14:11:29Z</time>
      </trkpt>
      <trkpt lat="46.50465" lon="5.33116">
        <ele>238.4</ele>
        <time>2021-12-23T14:11:34Z</time>
      </trkpt>
      <trkpt lat="46.50465" lon="5.33139">
        <ele>239.4</ele>
        <time>2021-12-23T14:11:39Z</time>
      </trkpt>
      <trkpt lat="46.50464" lon="5.33144">
        <ele>239.6</ele>
        <time>2021-12-23T14:11:40Z</time>
      </trkpt>
      <trkpt lat="46.50464" lon="5.33158">
        <ele>240.4</ele>
        <time>2021-12-23T14:11:43Z</time>
      </trkpt>
      <trkpt lat="46.50462" lon="5.3317">
        <ele>240.6</ele>
        <time>2021-12-23T14:11:45Z</time>
      </trkpt>
      <trkpt lat="46.50463" lon="5.33201">
        <ele>241.6</ele>
        <time>2021-12-23T14:11:49Z</time>
      </trkpt>
      <trkpt lat="46.50462" lon="5.33225">
        <ele>242.2</ele>
        <time>2021-12-23T14:11:52Z</time>
      </trkpt>
      <trkpt lat="46.50463" lon="5.33242">
        <ele>242.6</ele>
        <time>2021-12-23T14:11:54Z</time>
      </trkpt>
      <trkpt lat="46.50463" lon="5.33251">
        <ele>242.8</ele>
        <time>2021-12-23T14:11:55Z</time>
      </trkpt>
      <trkpt lat="46.5046" lon="5.33297">
        <ele>243</ele>
        <time>2021-12-23T14:12:00Z</time>
      </trkpt>
      <trkpt lat="46.50459" lon="5.33345">
        <ele>242.6</ele>
        <time>2021-12-23T14:12:05Z</time>
      </trkpt>
      <trkpt lat="46.50458" lon="5.33364">
        <ele>242.4</ele>
        <time>2021-12-23T14:12:07Z</time>
      </trkpt>
      <trkpt lat="46.50454" lon="5.33382">
        <ele>242.4</ele>
        <time>2021-12-23T14:12:09Z</time>
      </trkpt>
      <trkpt lat="46.50448" lon="5.33407">
        <ele>242.2</ele>
        <time>2021-12-23T14:12:12Z</time>
      </trkpt>
      <trkpt lat="46.50439" lon="5.33427">
        <ele>242.2</ele>
        <time>2021-12-23T14:12:15Z</time>
      </trkpt>
      <trkpt lat="46.50415" lon="5.33459">
        <ele>242.4</ele>
        <time>2021-12-23T14:12:21Z</time>
      </trkpt>
      <trkpt lat="46.5041" lon="5.33464">
        <ele>242.6</ele>
        <time>2021-12-23T14:12:22Z</time>
      </trkpt>
      <trkpt lat="46.50384" lon="5.33489">
        <ele>243.2</ele>
        <time>2021-12-23T14:12:28Z</time>
      </trkpt>
      <trkpt lat="46.50379" lon="5.33494">
        <ele>243.4</ele>
        <time>2021-12-23T14:12:29Z</time>
      </trkpt>
      <trkpt lat="46.50371" lon="5.33503">
        <ele>243.8</ele>
        <time>2021-12-23T14:12:31Z</time>
      </trkpt>
      <trkpt lat="46.5035" lon="5.33524">
        <ele>244.4</ele>
        <time>2021-12-23T14:12:36Z</time>
      </trkpt>
      <trkpt lat="46.50313" lon="5.33565">
        <ele>244.8</ele>
        <time>2021-12-23T14:12:44Z</time>
      </trkpt>
      <trkpt lat="46.50309" lon="5.3357">
        <ele>244.8</ele>
        <time>2021-12-23T14:12:45Z</time>
      </trkpt>
      <trkpt lat="46.50299" lon="5.33581">
        <ele>244.8</ele>
        <time>2021-12-23T14:12:47Z</time>
      </trkpt>
      <trkpt lat="46.50276" lon="5.33605">
        <ele>245.2</ele>
        <time>2021-12-23T14:12:52Z</time>
      </trkpt>
      <trkpt lat="46.50244" lon="5.33643">
        <ele>245.4</ele>
        <time>2021-12-23T14:12:59Z</time>
      </trkpt>
      <trkpt lat="46.50235" lon="5.33653">
        <ele>245.6</ele>
        <time>2021-12-23T14:13:01Z</time>
      </trkpt>
      <trkpt lat="46.50225" lon="5.33663">
        <ele>245.8</ele>
        <time>2021-12-23T14:13:03Z</time>
      </trkpt>
      <trkpt lat="46.50222" lon="5.33667">
        <ele>246</ele>
        <time>2021-12-23T14:13:04Z</time>
      </trkpt>
      <trkpt lat="46.50187" lon="5.33702">
        <ele>246.6</ele>
        <time>2021-12-23T14:13:12Z</time>
      </trkpt>
      <trkpt lat="46.50177" lon="5.33712">
        <ele>246.6</ele>
        <time>2021-12-23T14:13:14Z</time>
      </trkpt>
      <trkpt lat="46.50173" lon="5.33717">
        <ele>246.8</ele>
        <time>2021-12-23T14:13:15Z</time>
      </trkpt>
      <trkpt lat="46.5016" lon="5.33732">
        <ele>246.8</ele>
        <time>2021-12-23T14:13:18Z</time>
      </trkpt>
      <trkpt lat="46.50147" lon="5.33748">
        <ele>246.6</ele>
        <time>2021-12-23T14:13:21Z</time>
      </trkpt>
      <trkpt lat="46.50129" lon="5.33767">
        <ele>246.4</ele>
        <time>2021-12-23T14:13:24Z</time>
      </trkpt>
      <trkpt lat="46.50096" lon="5.33805">
        <ele>246.2</ele>
        <time>2021-12-23T14:13:30Z</time>
      </trkpt>
      <trkpt lat="46.50052" lon="5.3385">
        <ele>246.4</ele>
        <time>2021-12-23T14:13:38Z</time>
      </trkpt>
      <trkpt lat="46.50015" lon="5.33888">
        <ele>247.6</ele>
        <time>2021-12-23T14:13:46Z</time>
      </trkpt>
      <trkpt lat="46.50005" lon="5.33899">
        <ele>247.8</ele>
        <time>2021-12-23T14:13:48Z</time>
      </trkpt>
      <trkpt lat="46.49985" lon="5.3392">
        <ele>248.4</ele>
        <time>2021-12-23T14:13:53Z</time>
      </trkpt>
      <trkpt lat="46.49976" lon="5.3393">
        <ele>248.8</ele>
        <time>2021-12-23T14:13:55Z</time>
      </trkpt>
      <trkpt lat="46.49963" lon="5.33943">
        <ele>248.8</ele>
        <time>2021-12-23T14:13:58Z</time>
      </trkpt>
      <trkpt lat="46.49948" lon="5.3396">
        <ele>249</ele>
        <time>2021-12-23T14:14:01Z</time>
      </trkpt>
      <trkpt lat="46.49919" lon="5.33992">
        <ele>248.6</ele>
        <time>2021-12-23T14:14:06Z</time>
      </trkpt>
      <trkpt lat="46.49903" lon="5.3401">
        <ele>247.6</ele>
        <time>2021-12-23T14:14:09Z</time>
      </trkpt>
      <trkpt lat="46.49883" lon="5.34034">
        <ele>247.2</ele>
        <time>2021-12-23T14:14:12Z</time>
      </trkpt>
      <trkpt lat="46.49864" lon="5.34057">
        <ele>246.4</ele>
        <time>2021-12-23T14:14:15Z</time>
      </trkpt>
      <trkpt lat="46.49845" lon="5.34081">
        <ele>246.2</ele>
        <time>2021-12-23T14:14:18Z</time>
      </trkpt>
      <trkpt lat="46.49815" lon="5.34129">
        <ele>246</ele>
        <time>2021-12-23T14:14:24Z</time>
      </trkpt>
      <trkpt lat="46.49782" lon="5.34183">
        <ele>246.2</ele>
        <time>2021-12-23T14:14:31Z</time>
      </trkpt>
      <trkpt lat="46.4975" lon="5.34234">
        <ele>246</ele>
        <time>2021-12-23T14:14:38Z</time>
      </trkpt>
      <trkpt lat="46.49716" lon="5.34295">
        <ele>245.6</ele>
        <time>2021-12-23T14:14:46Z</time>
      </trkpt>
      <trkpt lat="46.49695" lon="5.34356">
        <ele>245.6</ele>
        <time>2021-12-23T14:14:53Z</time>
      </trkpt>
      <trkpt lat="46.49688" lon="5.34377">
        <ele>245.4</ele>
        <time>2021-12-23T14:14:55Z</time>
      </trkpt>
      <trkpt lat="46.49685" lon="5.34388">
        <ele>245.4</ele>
        <time>2021-12-23T14:14:56Z</time>
      </trkpt>
      <trkpt lat="46.4968" lon="5.34411">
        <ele>245.2</ele>
        <time>2021-12-23T14:14:58Z</time>
      </trkpt>
      <trkpt lat="46.49667" lon="5.34458">
        <ele>244.4</ele>
        <time>2021-12-23T14:15:02Z</time>
      </trkpt>
      <trkpt lat="46.49657" lon="5.34493">
        <ele>243.8</ele>
        <time>2021-12-23T14:15:05Z</time>
      </trkpt>
      <trkpt lat="46.49652" lon="5.34517">
        <ele>243.2</ele>
        <time>2021-12-23T14:15:07Z</time>
      </trkpt>
      <trkpt lat="46.49646" lon="5.34541">
        <ele>242.2</ele>
        <time>2021-12-23T14:15:09Z</time>
      </trkpt>
      <trkpt lat="46.49642" lon="5.34564">
        <ele>241.6</ele>
        <time>2021-12-23T14:15:11Z</time>
      </trkpt>
      <trkpt lat="46.49636" lon="5.34611">
        <ele>241.2</ele>
        <time>2021-12-23T14:15:15Z</time>
      </trkpt>
      <trkpt lat="46.49632" lon="5.34643">
        <ele>241</ele>
        <time>2021-12-23T14:15:18Z</time>
      </trkpt>
      <trkpt lat="46.49627" lon="5.34687">
        <ele>241.2</ele>
        <time>2021-12-23T14:15:23Z</time>
      </trkpt>
      <trkpt lat="46.49627" lon="5.34695">
        <ele>241.6</ele>
        <time>2021-12-23T14:15:24Z</time>
      </trkpt>
      <trkpt lat="46.49624" lon="5.34724">
        <ele>242.2</ele>
        <time>2021-12-23T14:15:28Z</time>
      </trkpt>
      <trkpt lat="46.49623" lon="5.34732">
        <ele>242.6</ele>
        <time>2021-12-23T14:15:29Z</time>
      </trkpt>
      <trkpt lat="46.49622" lon="5.3476">
        <ele>243.8</ele>
        <time>2021-12-23T14:15:33Z</time>
      </trkpt>
      <trkpt lat="46.49624" lon="5.34788">
        <ele>244.8</ele>
        <time>2021-12-23T14:15:37Z</time>
      </trkpt>
      <trkpt lat="46.49627" lon="5.34807">
        <ele>245.8</ele>
        <time>2021-12-23T14:15:40Z</time>
      </trkpt>
      <trkpt lat="46.49628" lon="5.34814">
        <ele>246</ele>
        <time>2021-12-23T14:15:41Z</time>
      </trkpt>
      <trkpt lat="46.49635" lon="5.34851">
        <ele>247</ele>
        <time>2021-12-23T14:15:46Z</time>
      </trkpt>
      <trkpt lat="46.49638" lon="5.34866">
        <ele>247.4</ele>
        <time>2021-12-23T14:15:48Z</time>
      </trkpt>
      <trkpt lat="46.49645" lon="5.34898">
        <ele>248</ele>
        <time>2021-12-23T14:15:52Z</time>
      </trkpt>
      <trkpt lat="46.49655" lon="5.34949">
        <ele>248.4</ele>
        <time>2021-12-23T14:15:58Z</time>
      </trkpt>
      <trkpt lat="46.4967" lon="5.35024">
        <ele>247.8</ele>
        <time>2021-12-23T14:16:06Z</time>
      </trkpt>
      <trkpt lat="46.49681" lon="5.35082">
        <ele>246.8</ele>
        <time>2021-12-23T14:16:12Z</time>
      </trkpt>
      <trkpt lat="46.49685" lon="5.35102">
        <ele>246.6</ele>
        <time>2021-12-23T14:16:14Z</time>
      </trkpt>
      <trkpt lat="46.49697" lon="5.35168">
        <ele>245.8</ele>
        <time>2021-12-23T14:16:21Z</time>
      </trkpt>
      <trkpt lat="46.49699" lon="5.35177">
        <ele>245.8</ele>
        <time>2021-12-23T14:16:22Z</time>
      </trkpt>
      <trkpt lat="46.49711" lon="5.35244">
        <ele>246.2</ele>
        <time>2021-12-23T14:16:30Z</time>
      </trkpt>
      <trkpt lat="46.49717" lon="5.35272">
        <ele>246.4</ele>
        <time>2021-12-23T14:16:33Z</time>
      </trkpt>
      <trkpt lat="46.49723" lon="5.35301">
        <ele>246.4</ele>
        <time>2021-12-23T14:16:36Z</time>
      </trkpt>
      <trkpt lat="46.4973" lon="5.35355">
        <ele>246.2</ele>
        <time>2021-12-23T14:16:41Z</time>
      </trkpt>
      <trkpt lat="46.4973" lon="5.35366">
        <ele>246</ele>
        <time>2021-12-23T14:16:42Z</time>
      </trkpt>
      <trkpt lat="46.49727" lon="5.35407">
        <ele>245.4</ele>
        <time>2021-12-23T14:16:46Z</time>
      </trkpt>
      <trkpt lat="46.49722" lon="5.3545">
        <ele>245.6</ele>
        <time>2021-12-23T14:16:51Z</time>
      </trkpt>
      <trkpt lat="46.49716" lon="5.35498">
        <ele>246.2</ele>
        <time>2021-12-23T14:16:57Z</time>
      </trkpt>
      <trkpt lat="46.49709" lon="5.35561">
        <ele>247</ele>
        <time>2021-12-23T14:17:05Z</time>
      </trkpt>
      <trkpt lat="46.49707" lon="5.35577">
        <ele>247</ele>
        <time>2021-12-23T14:17:07Z</time>
      </trkpt>
      <trkpt lat="46.49698" lon="5.35631">
        <ele>247.6</ele>
        <time>2021-12-23T14:17:14Z</time>
      </trkpt>
      <trkpt lat="46.49695" lon="5.35638">
        <ele>247.6</ele>
        <time>2021-12-23T14:17:15Z</time>
      </trkpt>
      <trkpt lat="46.49691" lon="5.35642">
        <ele>247.6</ele>
        <time>2021-12-23T14:17:16Z</time>
      </trkpt>
      <trkpt lat="46.4968" lon="5.35642">
        <ele>247.6</ele>
        <time>2021-12-23T14:17:18Z</time>
      </trkpt>
      <trkpt lat="46.4967" lon="5.35638">
        <ele>247.6</ele>
        <time>2021-12-23T14:17:20Z</time>
      </trkpt>
      <trkpt lat="46.49654" lon="5.35633">
        <ele>247.6</ele>
        <time>2021-12-23T14:17:23Z</time>
      </trkpt>
      <trkpt lat="46.49638" lon="5.35629">
        <ele>248</ele>
        <time>2021-12-23T14:17:26Z</time>
      </trkpt>
      <trkpt lat="46.49606" lon="5.35618">
        <ele>249.2</ele>
        <time>2021-12-23T14:17:32Z</time>
      </trkpt>
      <trkpt lat="46.4956" lon="5.35603">
        <ele>250.4</ele>
        <time>2021-12-23T14:17:41Z</time>
      </trkpt>
      <trkpt lat="46.49555" lon="5.35602">
        <ele>250.4</ele>
        <time>2021-12-23T14:17:42Z</time>
      </trkpt>
      <trkpt lat="46.49507" lon="5.35581">
        <ele>251.4</ele>
        <time>2021-12-23T14:17:52Z</time>
      </trkpt>
      <trkpt lat="46.49498" lon="5.35577">
        <ele>251.6</ele>
        <time>2021-12-23T14:17:54Z</time>
      </trkpt>
      <trkpt lat="46.49454" lon="5.35559">
        <ele>252.4</ele>
        <time>2021-12-23T14:18:03Z</time>
      </trkpt>
      <trkpt lat="46.49448" lon="5.35556">
        <ele>252.4</ele>
        <time>2021-12-23T14:18:04Z</time>
      </trkpt>
      <trkpt lat="46.49412" lon="5.35542">
        <ele>252.4</ele>
        <time>2021-12-23T14:18:11Z</time>
      </trkpt>
      <trkpt lat="46.49375" lon="5.35532">
        <ele>252.8</ele>
        <time>2021-12-23T14:18:18Z</time>
      </trkpt>
      <trkpt lat="46.49364" lon="5.3553">
        <ele>252.8</ele>
        <time>2021-12-23T14:18:20Z</time>
      </trkpt>
      <trkpt lat="46.49342" lon="5.3553">
        <ele>253.2</ele>
        <time>2021-12-23T14:18:24Z</time>
      </trkpt>
      <trkpt lat="46.49323" lon="5.3553">
        <ele>253.6</ele>
        <time>2021-12-23T14:18:28Z</time>
      </trkpt>
      <trkpt lat="46.49313" lon="5.35531">
        <ele>253.8</ele>
        <time>2021-12-23T14:18:30Z</time>
      </trkpt>
      <trkpt lat="46.49296" lon="5.35535">
        <ele>254</ele>
        <time>2021-12-23T14:18:33Z</time>
      </trkpt>
      <trkpt lat="46.49289" lon="5.35535">
        <ele>254</ele>
        <time>2021-12-23T14:18:34Z</time>
      </trkpt>
      <trkpt lat="46.49258" lon="5.35537">
        <ele>254.2</ele>
        <time>2021-12-23T14:18:39Z</time>
      </trkpt>
      <trkpt lat="46.49235" lon="5.35536">
        <ele>254.4</ele>
        <time>2021-12-23T14:18:43Z</time>
      </trkpt>
      <trkpt lat="46.49222" lon="5.35538">
        <ele>254.4</ele>
        <time>2021-12-23T14:18:45Z</time>
      </trkpt>
      <trkpt lat="46.49198" lon="5.35541">
        <ele>254.4</ele>
        <time>2021-12-23T14:18:49Z</time>
      </trkpt>
      <trkpt lat="46.49186" lon="5.35541">
        <ele>254.6</ele>
        <time>2021-12-23T14:18:51Z</time>
      </trkpt>
      <trkpt lat="46.4917" lon="5.35544">
        <ele>254.4</ele>
        <time>2021-12-23T14:18:53Z</time>
      </trkpt>
      <trkpt lat="46.49163" lon="5.35543">
        <ele>254.4</ele>
        <time>2021-12-23T14:18:54Z</time>
      </trkpt>
      <trkpt lat="46.49109" lon="5.35544">
        <ele>253.8</ele>
        <time>2021-12-23T14:19:01Z</time>
      </trkpt>
      <trkpt lat="46.49055" lon="5.35547">
        <ele>252.8</ele>
        <time>2021-12-23T14:19:08Z</time>
      </trkpt>
      <trkpt lat="46.49046" lon="5.35548">
        <ele>252.4</ele>
        <time>2021-12-23T14:19:09Z</time>
      </trkpt>
      <trkpt lat="46.49004" lon="5.35552">
        <ele>251.6</ele>
        <time>2021-12-23T14:19:14Z</time>
      </trkpt>
      <trkpt lat="46.48988" lon="5.35553">
        <ele>251.2</ele>
        <time>2021-12-23T14:19:16Z</time>
      </trkpt>
      <trkpt lat="46.48951" lon="5.35555">
        <ele>250.8</ele>
        <time>2021-12-23T14:19:21Z</time>
      </trkpt>
      <trkpt lat="46.48933" lon="5.35556">
        <ele>250.8</ele>
        <time>2021-12-23T14:19:24Z</time>
      </trkpt>
      <trkpt lat="46.48927" lon="5.35557">
        <ele>250.8</ele>
        <time>2021-12-23T14:19:25Z</time>
      </trkpt>
      <trkpt lat="46.48903" lon="5.35557">
        <ele>251.4</ele>
        <time>2021-12-23T14:19:30Z</time>
      </trkpt>
      <trkpt lat="46.48866" lon="5.35559">
        <ele>252.2</ele>
        <time>2021-12-23T14:19:37Z</time>
      </trkpt>
      <trkpt lat="46.48861" lon="5.35559">
        <ele>252.4</ele>
        <time>2021-12-23T14:19:38Z</time>
      </trkpt>
      <trkpt lat="46.48845" lon="5.35565">
        <ele>252.8</ele>
        <time>2021-12-23T14:19:41Z</time>
      </trkpt>
      <trkpt lat="46.48836" lon="5.35576">
        <ele>253.2</ele>
        <time>2021-12-23T14:19:43Z</time>
      </trkpt>
      <trkpt lat="46.48827" lon="5.35591">
        <ele>253.4</ele>
        <time>2021-12-23T14:19:45Z</time>
      </trkpt>
      <trkpt lat="46.48802" lon="5.35641">
        <ele>253.8</ele>
        <time>2021-12-23T14:19:51Z</time>
      </trkpt>
      <trkpt lat="46.48775" lon="5.35701">
        <ele>254</ele>
        <time>2021-12-23T14:19:58Z</time>
      </trkpt>
      <trkpt lat="46.48746" lon="5.35767">
        <ele>253.8</ele>
        <time>2021-12-23T14:20:06Z</time>
      </trkpt>
      <trkpt lat="46.48739" lon="5.35782">
        <ele>253.8</ele>
        <time>2021-12-23T14:20:08Z</time>
      </trkpt>
      <trkpt lat="46.48716" lon="5.35835">
        <ele>254.4</ele>
        <time>2021-12-23T14:20:15Z</time>
      </trkpt>
      <trkpt lat="46.48713" lon="5.35842">
        <ele>254.4</ele>
        <time>2021-12-23T14:20:16Z</time>
      </trkpt>
      <trkpt lat="46.48701" lon="5.3587">
        <ele>254.6</ele>
        <time>2021-12-23T14:20:20Z</time>
      </trkpt>
      <trkpt lat="46.48697" lon="5.35877">
        <ele>254.6</ele>
        <time>2021-12-23T14:20:21Z</time>
      </trkpt>
      <trkpt lat="46.48686" lon="5.35913">
        <ele>255.4</ele>
        <time>2021-12-23T14:20:26Z</time>
      </trkpt>
      <trkpt lat="46.48683" lon="5.35926">
        <ele>255.8</ele>
        <time>2021-12-23T14:20:28Z</time>
      </trkpt>
      <trkpt lat="46.4868" lon="5.35948">
        <ele>256.6</ele>
        <time>2021-12-23T14:20:31Z</time>
      </trkpt>
      <trkpt lat="46.48674" lon="5.35988">
        <ele>257</ele>
        <time>2021-12-23T14:20:36Z</time>
      </trkpt>
      <trkpt lat="46.48663" lon="5.36048">
        <ele>257</ele>
        <time>2021-12-23T14:20:43Z</time>
      </trkpt>
      <trkpt lat="46.48649" lon="5.36112">
        <ele>256.2</ele>
        <time>2021-12-23T14:20:49Z</time>
      </trkpt>
      <trkpt lat="46.48642" lon="5.36153">
        <ele>255.4</ele>
        <time>2021-12-23T14:20:53Z</time>
      </trkpt>
      <trkpt lat="46.4864" lon="5.36183">
        <ele>255.2</ele>
        <time>2021-12-23T14:20:56Z</time>
      </trkpt>
      <trkpt lat="46.48634" lon="5.36249">
        <ele>255.4</ele>
        <time>2021-12-23T14:21:03Z</time>
      </trkpt>
      <trkpt lat="46.48627" lon="5.3629">
        <ele>256</ele>
        <time>2021-12-23T14:21:08Z</time>
      </trkpt>
      <trkpt lat="46.48625" lon="5.36297">
        <ele>256</ele>
        <time>2021-12-23T14:21:09Z</time>
      </trkpt>
      <trkpt lat="46.48622" lon="5.36303">
        <ele>256.2</ele>
        <time>2021-12-23T14:21:10Z</time>
      </trkpt>
      <trkpt lat="46.48615" lon="5.36313">
        <ele>256.6</ele>
        <time>2021-12-23T14:21:12Z</time>
      </trkpt>
      <trkpt lat="46.4861" lon="5.36316">
        <ele>256.6</ele>
        <time>2021-12-23T14:21:13Z</time>
      </trkpt>
      <trkpt lat="46.48605" lon="5.36318">
        <ele>256.8</ele>
        <time>2021-12-23T14:21:14Z</time>
      </trkpt>
      <trkpt lat="46.48591" lon="5.36322">
        <ele>257.8</ele>
        <time>2021-12-23T14:21:17Z</time>
      </trkpt>
      <trkpt lat="46.48586" lon="5.36323">
        <ele>257.8</ele>
        <time>2021-12-23T14:21:18Z</time>
      </trkpt>
      <trkpt lat="46.48562" lon="5.36326">
        <ele>259</ele>
        <time>2021-12-23T14:21:23Z</time>
      </trkpt>
      <trkpt lat="46.48546" lon="5.36327">
        <ele>260</ele>
        <time>2021-12-23T14:21:27Z</time>
      </trkpt>
      <trkpt lat="46.48541" lon="5.36328">
        <ele>260.4</ele>
        <time>2021-12-23T14:21:28Z</time>
      </trkpt>
      <trkpt lat="46.48519" lon="5.36332">
        <ele>261.6</ele>
        <time>2021-12-23T14:21:33Z</time>
      </trkpt>
      <trkpt lat="46.48505" lon="5.36334">
        <ele>262</ele>
        <time>2021-12-23T14:21:36Z</time>
      </trkpt>
      <trkpt lat="46.48454" lon="5.36343">
        <ele>262.4</ele>
        <time>2021-12-23T14:21:46Z</time>
      </trkpt>
      <trkpt lat="46.48418" lon="5.36353">
        <ele>262.4</ele>
        <time>2021-12-23T14:21:53Z</time>
      </trkpt>
      <trkpt lat="46.48389" lon="5.36376">
        <ele>262.6</ele>
        <time>2021-12-23T14:21:59Z</time>
      </trkpt>
      <trkpt lat="46.48384" lon="5.36381">
        <ele>262.6</ele>
        <time>2021-12-23T14:22:00Z</time>
      </trkpt>
      <trkpt lat="46.48355" lon="5.36413">
        <ele>263.8</ele>
        <time>2021-12-23T14:22:07Z</time>
      </trkpt>
      <trkpt lat="46.48351" lon="5.36418">
        <ele>263.8</ele>
        <time>2021-12-23T14:22:08Z</time>
      </trkpt>
      <trkpt lat="46.48322" lon="5.36449">
        <ele>264.6</ele>
        <time>2021-12-23T14:22:16Z</time>
      </trkpt>
      <trkpt lat="46.48307" lon="5.36465">
        <ele>264.8</ele>
        <time>2021-12-23T14:22:20Z</time>
      </trkpt>
      <trkpt lat="46.48286" lon="5.36489">
        <ele>266</ele>
        <time>2021-12-23T14:22:26Z</time>
      </trkpt>
      <trkpt lat="46.48283" lon="5.36492">
        <ele>266</ele>
        <time>2021-12-23T14:22:27Z</time>
      </trkpt>
      <trkpt lat="46.48259" lon="5.36519">
        <ele>267</ele>
        <time>2021-12-23T14:22:34Z</time>
      </trkpt>
      <trkpt lat="46.48248" lon="5.36531">
        <ele>267.4</ele>
        <time>2021-12-23T14:22:37Z</time>
      </trkpt>
      <trkpt lat="46.48223" lon="5.36556">
        <ele>268</ele>
        <time>2021-12-23T14:22:44Z</time>
      </trkpt>
      <trkpt lat="46.48219" lon="5.36557">
        <ele>268</ele>
        <time>2021-12-23T14:22:45Z</time>
      </trkpt>
      <trkpt lat="46.48215" lon="5.36557">
        <ele>268.4</ele>
        <time>2021-12-23T14:22:46Z</time>
      </trkpt>
      <trkpt lat="46.48206" lon="5.36556">
        <ele>268.6</ele>
        <time>2021-12-23T14:22:48Z</time>
      </trkpt>
      <trkpt lat="46.48197" lon="5.36559">
        <ele>268.8</ele>
        <time>2021-12-23T14:22:50Z</time>
      </trkpt>
      <trkpt lat="46.48191" lon="5.36569">
        <ele>269</ele>
        <time>2021-12-23T14:22:52Z</time>
      </trkpt>
      <trkpt lat="46.48187" lon="5.36581">
        <ele>269.2</ele>
        <time>2021-12-23T14:22:54Z</time>
      </trkpt>
      <trkpt lat="46.48183" lon="5.36594">
        <ele>269.2</ele>
        <time>2021-12-23T14:22:56Z</time>
      </trkpt>
      <trkpt lat="46.48178" lon="5.36605">
        <ele>269.4</ele>
        <time>2021-12-23T14:22:58Z</time>
      </trkpt>
      <trkpt lat="46.48158" lon="5.36627">
        <ele>269.8</ele>
        <time>2021-12-23T14:23:03Z</time>
      </trkpt>
      <trkpt lat="46.48142" lon="5.36649">
        <ele>270.2</ele>
        <time>2021-12-23T14:23:09Z</time>
      </trkpt>
      <trkpt lat="46.48138" lon="5.36653">
        <ele>270.2</ele>
        <time>2021-12-23T14:23:10Z</time>
      </trkpt>
      <trkpt lat="46.48131" lon="5.3666">
        <ele>270.4</ele>
        <time>2021-12-23T14:23:11Z</time>
      </trkpt>
      <trkpt lat="46.48127" lon="5.36663">
        <ele>270.4</ele>
        <time>2021-12-23T14:23:12Z</time>
      </trkpt>
      <trkpt lat="46.48105" lon="5.3669">
        <ele>270.8</ele>
        <time>2021-12-23T14:23:18Z</time>
      </trkpt>
      <trkpt lat="46.48105" lon="5.367">
        <ele>271.2</ele>
        <time>2021-12-23T14:23:20Z</time>
      </trkpt>
      <trkpt lat="46.48109" lon="5.36705">
        <ele>271.2</ele>
        <time>2021-12-23T14:23:21Z</time>
      </trkpt>
      <trkpt lat="46.48113" lon="5.36708">
        <ele>271.4</ele>
        <time>2021-12-23T14:23:22Z</time>
      </trkpt>
      <trkpt lat="46.48129" lon="5.36721">
        <ele>272.2</ele>
        <time>2021-12-23T14:23:26Z</time>
      </trkpt>
      <trkpt lat="46.48141" lon="5.3673">
        <ele>272.6</ele>
        <time>2021-12-23T14:23:29Z</time>
      </trkpt>
      <trkpt lat="46.4816" lon="5.36746">
        <ele>273.6</ele>
        <time>2021-12-23T14:23:34Z</time>
      </trkpt>
      <trkpt lat="46.48168" lon="5.36752">
        <ele>274</ele>
        <time>2021-12-23T14:23:36Z</time>
      </trkpt>
      <trkpt lat="46.48179" lon="5.36763">
        <ele>275</ele>
        <time>2021-12-23T14:23:39Z</time>
      </trkpt>
      <trkpt lat="46.48201" lon="5.3678">
        <ele>276</ele>
        <time>2021-12-23T14:23:45Z</time>
      </trkpt>
      <trkpt lat="46.48217" lon="5.36794">
        <ele>277.2</ele>
        <time>2021-12-23T14:23:50Z</time>
      </trkpt>
      <trkpt lat="46.4823" lon="5.36805">
        <ele>278.2</ele>
        <time>2021-12-23T14:23:54Z</time>
      </trkpt>
      <trkpt lat="46.48234" lon="5.36808">
        <ele>278.6</ele>
        <time>2021-12-23T14:23:55Z</time>
      </trkpt>
      <trkpt lat="46.48254" lon="5.36826">
        <ele>279.8</ele>
        <time>2021-12-23T14:24:02Z</time>
      </trkpt>
      <trkpt lat="46.4826" lon="5.36833">
        <ele>280.2</ele>
        <time>2021-12-23T14:24:04Z</time>
      </trkpt>
    </trkseg>
  </trk>
</gpx>